Wetterdaten: Dienstag, 14.02.2017
Datum Zeit Temp. A. Temp. A. max Feuchte A. Luftdruck Regen Wind Richtung Richtung Sonnenschein ET UV Solar Taupunkt Windchill Windböen
14.02.2017 00:00 -3,1 °C -3,1 °C 96 % 1027,2 hPa 0,0 mm 2,2 km/h (1 Bft) O 96 ° 0 min 0,000 mm 0,0 UV-I 0 W/m² -3,6 °C -3,1 °C 4,8 km/h (1 Bft)
14.02.2017 00:01 -3,1 °C -3,1 °C 96 % 1027,1 hPa 0,0 mm 2,9 km/h (1 Bft) O 87 ° 0 min 0,000 mm 0,0 UV-I 0 W/m² -3,6 °C -3,1 °C 4,8 km/h (1 Bft)
14.02.2017 00:02 -3,1 °C -3,1 °C 96 % 1027,2 hPa 0,0 mm 2,3 km/h (1 Bft) O 87 ° 0 min 0,000 mm 0,0 UV-I 0 W/m² -3,6 °C -3,1 °C 3,2 km/h (1 Bft)
14.02.2017 00:03 -3,1 °C -3,1 °C 96 % 1027,2 hPa 0,0 mm 0,5 km/h (0 Bft) O 87 ° 0 min 0,000 mm 0,0 UV-I 0 W/m² -3,6 °C -3,1 °C 1,6 km/h (1 Bft)
14.02.2017 00:04 -3,1 °C -3,1 °C 96 % 1027,2 hPa 0,0 mm 3,0 km/h (1 Bft) NO 42 ° 0 min 0,000 mm 0,0 UV-I 0 W/m² -3,6 °C -3,1 °C 4,8 km/h (1 Bft)
14.02.2017 00:05 -3,1 °C -3,1 °C 96 % 1027,2 hPa 0,0 mm 2,5 km/h (1 Bft) O-NO 65 ° 0 min 0,000 mm 0,0 UV-I 0 W/m² -3,6 °C -3,1 °C 4,8 km/h (1 Bft)
14.02.2017 00:06 -3,1 °C -3,1 °C 96 % 1027,2 hPa 0,0 mm 0,5 km/h (0 Bft) O-NO 65 ° 0 min 0,000 mm 0,0 UV-I 0 W/m² -3,6 °C -3,1 °C 3,2 km/h (1 Bft)
14.02.2017 00:07 -3,1 °C -3,1 °C 96 % 1027,2 hPa 0,0 mm 3,4 km/h (1 Bft) O-NO 60 ° 0 min 0,000 mm 0,0 UV-I 0 W/m² -3,6 °C -3,1 °C 6,4 km/h (2 Bft)
14.02.2017 00:08 -3,1 °C -3,1 °C 96 % 1027,2 hPa 0,0 mm 1,5 km/h (1 Bft) O-NO 60 ° 0 min 0,000 mm 0,0 UV-I 0 W/m² -3,6 °C -3,1 °C 4,8 km/h (1 Bft)
14.02.2017 00:09 -3,1 °C -3,0 °C 96 % 1027,2 hPa 0,0 mm 1,9 km/h (1 Bft) O-NO 60 ° 0 min 0,000 mm 0,0 UV-I 0 W/m² -3,6 °C -3,1 °C 3,2 km/h (1 Bft)
14.02.2017 00:10 -3,1 °C -3,1 °C 96 % 1027,3 hPa 0,0 mm 2,3 km/h (1 Bft) S 180 ° 0 min 0,000 mm 0,0 UV-I 0 W/m² -3,6 °C -3,1 °C 4,8 km/h (1 Bft)
14.02.2017 00:11 -3,1 °C -3,1 °C 96 % 1027,3 hPa 0,0 mm 0,5 km/h (0 Bft) S 180 ° 0 min 0,000 mm 0,0 UV-I 0 W/m² -3,6 °C -3,1 °C 1,6 km/h (1 Bft)
14.02.2017 00:12 -3,1 °C -3,1 °C 96 % 1027,3 hPa 0,0 mm 1,5 km/h (1 Bft) S 180 ° 0 min 0,000 mm 0,0 UV-I 0 W/m² -3,6 °C -3,1 °C 3,2 km/h (1 Bft)
14.02.2017 00:13 -3,1 °C -3,1 °C 96 % 1027,2 hPa 0,0 mm 0,5 km/h (0 Bft) S 180 ° 0 min 0,000 mm 0,0 UV-I 0 W/m² -3,6 °C -3,1 °C 1,6 km/h (1 Bft)
14.02.2017 00:14 -3,1 °C -3,1 °C 96 % 1027,3 hPa 0,0 mm 1,7 km/h (1 Bft) S 179 ° 0 min 0,000 mm 0,0 UV-I 0 W/m² -3,6 °C -3,1 °C 4,8 km/h (1 Bft)
14.02.2017 00:15 -3,1 °C -3,1 °C 96 % 1027,3 hPa 0,0 mm 0,9 km/h (0 Bft) S 179 ° 0 min 0,000 mm 0,0 UV-I 0 W/m² -3,6 °C -3,1 °C 3,2 km/h (1 Bft)
14.02.2017 00:16 -3,1 °C -3,1 °C 96 % 1027,3 hPa 0,0 mm 2,7 km/h (1 Bft) S-SO 161 ° 0 min 0,000 mm 0,0 UV-I 0 W/m² -3,6 °C -3,1 °C 8,0 km/h (2 Bft)
14.02.2017 00:17 -3,1 °C -3,1 °C 96 % 1027,3 hPa 0,0 mm 3,6 km/h (1 Bft) S-SO 161 ° 0 min 0,000 mm 0,0 UV-I 0 W/m² -3,6 °C -3,1 °C 6,4 km/h (2 Bft)
14.02.2017 00:18 -3,1 °C -3,1 °C 96 % 1027,3 hPa 0,0 mm 0,7 km/h (0 Bft) S-SO 161 ° 0 min 0,000 mm 0,0 UV-I 0 W/m² -3,6 °C -3,1 °C 1,6 km/h (1 Bft)
14.02.2017 00:19 -3,1 °C -3,1 °C 96 % 1027,3 hPa 0,0 mm 1,4 km/h (1 Bft) O 97 ° 0 min 0,000 mm 0,0 UV-I 0 W/m² -3,6 °C -3,1 °C 3,2 km/h (1 Bft)
14.02.2017 00:20 -3,1 °C -3,1 °C 96 % 1027,3 hPa 0,0 mm 2,2 km/h (1 Bft) O 81 ° 0 min 0,000 mm 0,0 UV-I 0 W/m² -3,6 °C -3,1 °C 3,2 km/h (1 Bft)
14.02.2017 00:21 -3,1 °C -3,1 °C 96 % 1027,2 hPa 0,0 mm 1,6 km/h (1 Bft) O 81 ° 0 min 0,000 mm 0,0 UV-I 0 W/m² -3,6 °C -3,1 °C 3,2 km/h (1 Bft)
14.02.2017 00:22 -3,1 °C -3,1 °C 96 % 1027,2 hPa 0,0 mm 1,5 km/h (1 Bft) O 81 ° 0 min 0,000 mm 0,0 UV-I 0 W/m² -3,6 °C -3,1 °C 3,2 km/h (1 Bft)
14.02.2017 00:23 -3,1 °C -3,1 °C 96 % 1027,2 hPa 0,0 mm 0,7 km/h (0 Bft) O 81 ° 0 min 0,000 mm 0,0 UV-I 0 W/m² -3,6 °C -3,1 °C 3,2 km/h (1 Bft)
14.02.2017 00:24 -3,1 °C -3,1 °C 96 % 1027,2 hPa 0,0 mm 0,1 km/h (0 Bft) O 81 ° 0 min 0,000 mm 0,0 UV-I 0 W/m² -3,6 °C -3,1 °C 1,6 km/h (1 Bft)
14.02.2017 00:25 -3,1 °C -3,1 °C 96 % 1027,2 hPa 0,0 mm 0,0 km/h (0 Bft) O 81 ° 0 min 0,000 mm 0,0 UV-I 0 W/m² -3,6 °C -3,1 °C 0,0 km/h (0 Bft)
14.02.2017 00:26 -3,1 °C -3,1 °C 96 % 1027,2 hPa 0,0 mm 0,0 km/h (0 Bft) O 81 ° 0 min 0,000 mm 0,0 UV-I 0 W/m² -3,6 °C -3,1 °C 0,0 km/h (0 Bft)
14.02.2017 00:27 -3,1 °C -3,1 °C 96 % 1027,2 hPa 0,0 mm 0,0 km/h (0 Bft) O 81 ° 0 min 0,000 mm 0,0 UV-I 0 W/m² -3,6 °C -3,1 °C 0,0 km/h (0 Bft)
14.02.2017 00:28 -3,1 °C -3,1 °C 96 % 1027,2 hPa 0,0 mm 0,3 km/h (0 Bft) O 81 ° 0 min 0,000 mm 0,0 UV-I 0 W/m² -3,6 °C -3,1 °C 1,6 km/h (1 Bft)
14.02.2017 00:29 -3,1 °C -3,1 °C 96 % 1027,1 hPa 0,0 mm 0,2 km/h (0 Bft) O 81 ° 0 min 0,000 mm 0,0 UV-I 0 W/m² -3,6 °C -3,1 °C 1,6 km/h (1 Bft)
14.02.2017 00:30 -3,1 °C -3,1 °C 96 % 1027,1 hPa 0,0 mm 0,0 km/h (0 Bft) O 81 ° 0 min 0,000 mm 0,0 UV-I 0 W/m² -3,6 °C -3,1 °C 0,0 km/h (0 Bft)
14.02.2017 00:31 -3,1 °C -3,1 °C 96 % 1027,1 hPa 0,0 mm 0,0 km/h (0 Bft) O 81 ° 0 min 0,000 mm 0,0 UV-I 0 W/m² -3,6 °C -3,1 °C 0,0 km/h (0 Bft)
14.02.2017 00:32 -3,1 °C -3,1 °C 96 % 1027,1 hPa 0,0 mm 1,1 km/h (1 Bft) O 81 ° 0 min 0,000 mm 0,0 UV-I 0 W/m² -3,6 °C -3,1 °C 3,2 km/h (1 Bft)
14.02.2017 00:33 -3,1 °C -3,1 °C 96 % 1027,1 hPa 0,0 mm 1,4 km/h (1 Bft) O 81 ° 0 min 0,000 mm 0,0 UV-I 0 W/m² -3,6 °C -3,1 °C 3,2 km/h (1 Bft)
14.02.2017 00:34 -3,1 °C -3,1 °C 96 % 1027,1 hPa 0,0 mm 2,7 km/h (1 Bft) SW 214 ° 0 min 0,000 mm 0,0 UV-I 0 W/m² -3,6 °C -3,1 °C 3,2 km/h (1 Bft)
14.02.2017 00:35 -3,1 °C -3,1 °C 96 % 1027,1 hPa 0,0 mm 3,1 km/h (1 Bft) S-SW 213 ° 0 min 0,000 mm 0,0 UV-I 0 W/m² -3,6 °C -3,1 °C 4,8 km/h (1 Bft)
14.02.2017 00:36 -3,1 °C -3,1 °C 96 % 1027,1 hPa 0,0 mm 3,1 km/h (1 Bft) S-SW 213 ° 0 min 0,000 mm 0,0 UV-I 0 W/m² -3,6 °C -3,1 °C 4,8 km/h (1 Bft)
14.02.2017 00:37 -3,1 °C -3,1 °C 96 % 1027,1 hPa 0,0 mm 2,0 km/h (1 Bft) S-SW 213 ° 0 min 0,000 mm 0,0 UV-I 0 W/m² -3,6 °C -3,1 °C 3,2 km/h (1 Bft)
14.02.2017 00:38 -3,1 °C -3,1 °C 96 % 1027,1 hPa 0,0 mm 1,2 km/h (1 Bft) S-SW 213 ° 0 min 0,000 mm 0,0 UV-I 0 W/m² -3,6 °C -3,1 °C 1,6 km/h (1 Bft)
14.02.2017 00:39 -3,1 °C -3,1 °C 96 % 1027,1 hPa 0,0 mm 0,0 km/h (0 Bft) S-SW 213 ° 0 min 0,000 mm 0,0 UV-I 0 W/m² -3,6 °C -3,1 °C 0,0 km/h (0 Bft)
14.02.2017 00:40 -3,1 °C -3,1 °C 96 % 1027,1 hPa 0,0 mm 0,9 km/h (0 Bft) S-SW 213 ° 0 min 0,000 mm 0,0 UV-I 0 W/m² -3,6 °C -3,1 °C 3,2 km/h (1 Bft)
14.02.2017 00:41 -3,1 °C -3,1 °C 96 % 1027,1 hPa 0,0 mm 1,9 km/h (1 Bft) S-SW 213 ° 0 min 0,000 mm 0,0 UV-I 0 W/m² -3,6 °C -3,1 °C 3,2 km/h (1 Bft)
14.02.2017 00:42 -3,1 °C -3,1 °C 96 % 1027,1 hPa 0,0 mm 1,9 km/h (1 Bft) S-SW 213 ° 0 min 0,000 mm 0,0 UV-I 0 W/m² -3,6 °C -3,1 °C 3,2 km/h (1 Bft)
14.02.2017 00:43 -3,1 °C -3,1 °C 96 % 1027,0 hPa 0,0 mm 1,0 km/h (0 Bft) S-SW 213 ° 0 min 0,000 mm 0,0 UV-I 0 W/m² -3,6 °C -3,1 °C 1,6 km/h (1 Bft)
14.02.2017 00:44 -3,1 °C -3,1 °C 96 % 1027,1 hPa 0,0 mm 0,2 km/h (0 Bft) S-SW 213 ° 0 min 0,000 mm 0,0 UV-I 0 W/m² -3,6 °C -3,1 °C 1,6 km/h (1 Bft)
14.02.2017 00:45 -3,1 °C -3,1 °C 96 % 1027,0 hPa 0,0 mm 0,1 km/h (0 Bft) S-SW 213 ° 0 min 0,000 mm 0,0 UV-I 0 W/m² -3,6 °C -3,1 °C 1,6 km/h (1 Bft)
14.02.2017 00:46 -3,1 °C -3,1 °C 96 % 1027,0 hPa 0,0 mm 0,4 km/h (0 Bft) S-SW 213 ° 0 min 0,000 mm 0,0 UV-I 0 W/m² -3,6 °C -3,1 °C 1,6 km/h (1 Bft)
14.02.2017 00:47 -3,2 °C -3,1 °C 96 % 1027,0 hPa 0,0 mm 1,0 km/h (0 Bft) S-SW 213 ° 0 min 0,000 mm 0,0 UV-I 0 W/m² -3,7 °C -3,2 °C 1,6 km/h (1 Bft)
14.02.2017 00:48 -3,1 °C -3,1 °C 96 % 1027,0 hPa 0,0 mm 0,9 km/h (0 Bft) S-SW 213 ° 0 min 0,000 mm 0,0 UV-I 0 W/m² -3,6 °C -3,1 °C 1,6 km/h (1 Bft)
14.02.2017 00:49 -3,1 °C -3,1 °C 96 % 1027,0 hPa 0,0 mm 0,9 km/h (0 Bft) S-SW 213 ° 0 min 0,000 mm 0,0 UV-I 0 W/m² -3,6 °C -3,1 °C 1,6 km/h (1 Bft)
14.02.2017 00:50 -3,1 °C -3,1 °C 95 % 1027,0 hPa 0,0 mm 1,1 km/h (1 Bft) S-SW 213 ° 0 min 0,000 mm 0,0 UV-I 0 W/m² -3,8 °C -3,1 °C 1,6 km/h (1 Bft)
14.02.2017 00:51 -3,2 °C -3,1 °C 96 % 1026,9 hPa 0,0 mm 2,2 km/h (1 Bft) S-SW 213 ° 0 min 0,000 mm 0,0 UV-I 0 W/m² -3,7 °C -3,2 °C 3,2 km/h (1 Bft)
14.02.2017 00:52 -3,2 °C -3,1 °C 95 % 1026,9 hPa 0,0 mm 1,9 km/h (1 Bft) S-SW 213 ° 0 min 0,000 mm 0,0 UV-I 0 W/m² -3,9 °C -3,2 °C 3,2 km/h (1 Bft)
14.02.2017 00:53 -3,1 °C -3,1 °C 95 % 1026,9 hPa 0,0 mm 1,1 km/h (1 Bft) S-SW 213 ° 0 min 0,000 mm 0,0 UV-I 0 W/m² -3,8 °C -3,1 °C 3,2 km/h (1 Bft)
14.02.2017 00:54 -3,1 °C -3,1 °C 96 % 1026,9 hPa 0,0 mm 0,5 km/h (0 Bft) S-SW 213 ° 0 min 0,000 mm 0,0 UV-I 0 W/m² -3,6 °C -3,1 °C 1,6 km/h (1 Bft)
14.02.2017 00:55 -3,2 °C -3,1 °C 96 % 1026,9 hPa 0,0 mm 2,0 km/h (1 Bft) S-SW 213 ° 0 min 0,000 mm 0,0 UV-I 0 W/m² -3,7 °C -3,2 °C 3,2 km/h (1 Bft)
14.02.2017 00:56 -3,1 °C -3,1 °C 95 % 1026,9 hPa 0,0 mm 1,5 km/h (1 Bft) S-SW 213 ° 0 min 0,000 mm 0,0 UV-I 0 W/m² -3,8 °C -3,1 °C 3,2 km/h (1 Bft)
14.02.2017 00:57 -3,2 °C -3,1 °C 95 % 1026,9 hPa 0,0 mm 1,4 km/h (1 Bft) S-SW 213 ° 0 min 0,000 mm 0,0 UV-I 0 W/m² -3,9 °C -3,2 °C 3,2 km/h (1 Bft)
14.02.2017 00:58 -3,2 °C -3,1 °C 96 % 1027,0 hPa 0,0 mm 2,5 km/h (1 Bft) W-SW 258 ° 0 min 0,000 mm 0,0 UV-I 0 W/m² -3,7 °C -3,2 °C 4,8 km/h (1 Bft)
14.02.2017 00:59 -3,2 °C -3,1 °C 95 % 1027,0 hPa 0,0 mm 3,4 km/h (1 Bft) W-SW 252 ° 0 min 0,000 mm 0,0 UV-I 0 W/m² -3,9 °C -3,2 °C 4,8 km/h (1 Bft)
14.02.2017 01:00 -3,2 °C -3,1 °C 95 % 1027,0 hPa 0,0 mm 2,1 km/h (1 Bft) W-SW 252 ° 0 min 0,000 mm 0,0 UV-I 0 W/m² -3,9 °C -3,2 °C 3,2 km/h (1 Bft)
14.02.2017 01:01 -3,2 °C -3,2 °C 96 % 1026,9 hPa 0,0 mm 0,1 km/h (0 Bft) W-SW 252 ° 0 min 0,000 mm 0,0 UV-I 0 W/m² -3,7 °C -3,2 °C 1,6 km/h (1 Bft)
14.02.2017 01:02 -3,2 °C -3,1 °C 96 % 1027,0 hPa 0,0 mm 2,7 km/h (1 Bft) W-SW 256 ° 0 min 0,000 mm 0,0 UV-I 0 W/m² -3,7 °C -3,2 °C 3,2 km/h (1 Bft)
14.02.2017 01:03 -3,2 °C -3,2 °C 95 % 1027,0 hPa 0,0 mm 3,1 km/h (1 Bft) W-NW 289 ° 0 min 0,000 mm 0,0 UV-I 0 W/m² -3,9 °C -3,2 °C 4,8 km/h (1 Bft)
14.02.2017 01:04 -3,2 °C -3,2 °C 96 % 1027,0 hPa 0,0 mm 2,9 km/h (1 Bft) W-NW 289 ° 0 min 0,000 mm 0,0 UV-I 0 W/m² -3,7 °C -3,2 °C 4,8 km/h (1 Bft)
14.02.2017 01:05 -3,2 °C -3,2 °C 95 % 1027,0 hPa 0,0 mm 3,2 km/h (1 Bft) W-NW 289 ° 0 min 0,000 mm 0,0 UV-I 0 W/m² -3,9 °C -3,2 °C 4,8 km/h (1 Bft)
14.02.2017 01:06 -3,2 °C -3,2 °C 95 % 1027,0 hPa 0,0 mm 2,5 km/h (1 Bft) W-NW 289 ° 0 min 0,000 mm 0,0 UV-I 0 W/m² -3,9 °C -3,2 °C 3,2 km/h (1 Bft)
14.02.2017 01:07 -3,2 °C -3,2 °C 95 % 1027,0 hPa 0,0 mm 0,3 km/h (0 Bft) W-NW 289 ° 0 min 0,000 mm 0,0 UV-I 0 W/m² -3,9 °C -3,2 °C 1,6 km/h (1 Bft)
14.02.2017 01:08 -3,2 °C -3,2 °C 95 % 1027,0 hPa 0,0 mm 1,0 km/h (0 Bft) W-NW 289 ° 0 min 0,000 mm 0,0 UV-I 0 W/m² -3,9 °C -3,2 °C 3,2 km/h (1 Bft)
14.02.2017 01:09 -3,2 °C -3,2 °C 95 % 1027,0 hPa 0,0 mm 2,4 km/h (1 Bft) W-NW 289 ° 0 min 0,000 mm 0,0 UV-I 0 W/m² -3,9 °C -3,2 °C 3,2 km/h (1 Bft)
14.02.2017 01:10 -3,2 °C -3,2 °C 95 % 1027,0 hPa 0,0 mm 4,8 km/h (1 Bft) W-NW 290 ° 0 min 0,000 mm 0,0 UV-I 0 W/m² -3,9 °C -5,1 °C 6,4 km/h (2 Bft)
14.02.2017 01:11 -3,2 °C -3,2 °C 95 % 1027,0 hPa 0,0 mm 3,2 km/h (1 Bft) W-SW 248 ° 0 min 0,000 mm 0,0 UV-I 0 W/m² -3,9 °C -3,2 °C 4,8 km/h (1 Bft)
14.02.2017 01:12 -3,2 °C -3,2 °C 95 % 1027,0 hPa 0,0 mm 2,3 km/h (1 Bft) W-SW 248 ° 0 min 0,000 mm 0,0 UV-I 0 W/m² -3,9 °C -3,2 °C 3,2 km/h (1 Bft)
14.02.2017 01:13 -3,2 °C -3,2 °C 95 % 1027,0 hPa 0,0 mm 0,1 km/h (0 Bft) W-SW 248 ° 0 min 0,000 mm 0,0 UV-I 0 W/m² -3,9 °C -3,2 °C 1,6 km/h (1 Bft)
14.02.2017 01:14 -3,2 °C -3,2 °C 95 % 1027,1 hPa 0,0 mm 0,9 km/h (0 Bft) W-SW 248 ° 0 min 0,000 mm 0,0 UV-I 0 W/m² -3,9 °C -3,2 °C 1,6 km/h (1 Bft)
14.02.2017 01:15 -3,2 °C -3,2 °C 95 % 1027,0 hPa 0,0 mm 2,7 km/h (1 Bft) W-SW 248 ° 0 min 0,000 mm 0,0 UV-I 0 W/m² -3,9 °C -3,2 °C 3,2 km/h (1 Bft)
14.02.2017 01:16 -3,2 °C -3,2 °C 95 % 1027,1 hPa 0,0 mm 3,0 km/h (1 Bft) W-SW 249 ° 0 min 0,000 mm 0,0 UV-I 0 W/m² -3,9 °C -3,2 °C 3,2 km/h (1 Bft)
14.02.2017 01:17 -3,2 °C -3,2 °C 95 % 1027,1 hPa 0,0 mm 0,8 km/h (0 Bft) W-SW 249 ° 0 min 0,000 mm 0,0 UV-I 0 W/m² -3,9 °C -3,2 °C 3,2 km/h (1 Bft)
14.02.2017 01:18 -3,3 °C -3,2 °C 95 % 1027,2 hPa 0,0 mm 0,8 km/h (0 Bft) W-SW 249 ° 0 min 0,000 mm 0,0 UV-I 0 W/m² -4,0 °C -3,3 °C 1,6 km/h (1 Bft)
14.02.2017 01:19 -3,3 °C -3,2 °C 95 % 1027,1 hPa 0,0 mm 1,7 km/h (1 Bft) W-SW 249 ° 0 min 0,000 mm 0,0 UV-I 0 W/m² -4,0 °C -3,3 °C 3,2 km/h (1 Bft)
14.02.2017 01:20 -3,2 °C -3,2 °C 95 % 1027,1 hPa 0,0 mm 1,3 km/h (1 Bft) W-SW 249 ° 0 min 0,000 mm 0,0 UV-I 0 W/m² -3,9 °C -3,2 °C 1,6 km/h (1 Bft)
14.02.2017 01:21 -3,3 °C -3,2 °C 95 % 1027,1 hPa 0,0 mm 0,5 km/h (0 Bft) W-SW 249 ° 0 min 0,000 mm 0,0 UV-I 0 W/m² -4,0 °C -3,3 °C 1,6 km/h (1 Bft)
14.02.2017 01:22 -3,3 °C -3,3 °C 95 % 1027,2 hPa 0,0 mm 0,9 km/h (0 Bft) W-SW 249 ° 0 min 0,000 mm 0,0 UV-I 0 W/m² -4,0 °C -3,3 °C 1,6 km/h (1 Bft)
14.02.2017 01:23 -3,3 °C -3,3 °C 95 % 1027,2 hPa 0,0 mm 2,4 km/h (1 Bft) W-NW 290 ° 0 min 0,000 mm 0,0 UV-I 0 W/m² -4,0 °C -3,3 °C 3,2 km/h (1 Bft)
14.02.2017 01:24 -3,3 °C -3,3 °C 95 % 1027,2 hPa 0,0 mm 2,5 km/h (1 Bft) W-NW 290 ° 0 min 0,000 mm 0,0 UV-I 0 W/m² -4,0 °C -3,3 °C 3,2 km/h (1 Bft)
14.02.2017 01:25 -3,3 °C -3,3 °C 95 % 1027,2 hPa 0,0 mm 2,4 km/h (1 Bft) W-NW 290 ° 0 min 0,000 mm 0,0 UV-I 0 W/m² -4,0 °C -3,3 °C 3,2 km/h (1 Bft)
14.02.2017 01:26 -3,3 °C -3,3 °C 95 % 1027,2 hPa 0,0 mm 2,5 km/h (1 Bft) W-NW 290 ° 0 min 0,000 mm 0,0 UV-I 0 W/m² -4,0 °C -3,3 °C 3,2 km/h (1 Bft)
14.02.2017 01:27 -3,3 °C -3,3 °C 95 % 1027,2 hPa 0,0 mm 2,4 km/h (1 Bft) W-NW 290 ° 0 min 0,000 mm 0,0 UV-I 0 W/m² -4,0 °C -3,3 °C 3,2 km/h (1 Bft)
14.02.2017 01:28 -3,3 °C -3,3 °C 95 % 1027,2 hPa 0,0 mm 3,2 km/h (1 Bft) W-NW 290 ° 0 min 0,000 mm 0,0 UV-I 0 W/m² -4,0 °C -3,3 °C 4,8 km/h (1 Bft)
14.02.2017 01:29 -3,3 °C -3,3 °C 95 % 1027,2 hPa 0,0 mm 3,7 km/h (1 Bft) W-NW 289 ° 0 min 0,000 mm 0,0 UV-I 0 W/m² -4,0 °C -3,3 °C 4,8 km/h (1 Bft)
14.02.2017 01:30 -3,4 °C -3,3 °C 95 % 1027,2 hPa 0,0 mm 3,2 km/h (1 Bft) W 261 ° 0 min 0,000 mm 0,0 UV-I 0 W/m² -4,1 °C -3,4 °C 4,8 km/h (1 Bft)
14.02.2017 01:31 -3,4 °C -3,4 °C 95 % 1027,2 hPa 0,0 mm 3,8 km/h (1 Bft) W 263 ° 0 min 0,000 mm 0,0 UV-I 0 W/m² -4,1 °C -3,4 °C 4,8 km/h (1 Bft)
14.02.2017 01:32 -3,4 °C -3,4 °C 95 % 1027,2 hPa 0,0 mm 2,7 km/h (1 Bft) W 279 ° 0 min 0,000 mm 0,0 UV-I 0 W/m² -4,1 °C -3,4 °C 4,8 km/h (1 Bft)
14.02.2017 01:33 -3,4 °C -3,4 °C 95 % 1027,1 hPa 0,0 mm 2,2 km/h (1 Bft) W-SW 245 ° 0 min 0,000 mm 0,0 UV-I 0 W/m² -4,1 °C -3,4 °C 4,8 km/h (1 Bft)
14.02.2017 01:34 -3,4 °C -3,4 °C 95 % 1027,1 hPa 0,0 mm 1,0 km/h (0 Bft) W-SW 245 ° 0 min 0,000 mm 0,0 UV-I 0 W/m² -4,1 °C -3,4 °C 1,6 km/h (1 Bft)
14.02.2017 01:35 -3,4 °C -3,4 °C 95 % 1027,1 hPa 0,0 mm 1,2 km/h (1 Bft) W-SW 245 ° 0 min 0,000 mm 0,0 UV-I 0 W/m² -4,1 °C -3,4 °C 3,2 km/h (1 Bft)
14.02.2017 01:36 -3,4 °C -3,4 °C 95 % 1027,2 hPa 0,0 mm 2,3 km/h (1 Bft) W-SW 245 ° 0 min 0,000 mm 0,0 UV-I 0 W/m² -4,1 °C -3,4 °C 3,2 km/h (1 Bft)
14.02.2017 01:37 -3,5 °C -3,4 °C 95 % 1027,2 hPa 0,0 mm 4,1 km/h (1 Bft) W-SW 245 ° 0 min 0,000 mm 0,0 UV-I 0 W/m² -4,2 °C -3,5 °C 4,8 km/h (1 Bft)
14.02.2017 01:38 -3,5 °C -3,4 °C 95 % 1027,1 hPa 0,0 mm 3,4 km/h (1 Bft) W 266 ° 0 min 0,000 mm 0,0 UV-I 0 W/m² -4,2 °C -3,5 °C 4,8 km/h (1 Bft)
14.02.2017 01:39 -3,5 °C -3,4 °C 95 % 1027,2 hPa 0,0 mm 3,9 km/h (1 Bft) W-NW 286 ° 0 min 0,000 mm 0,0 UV-I 0 W/m² -4,2 °C -3,5 °C 6,4 km/h (2 Bft)
14.02.2017 01:40 -3,5 °C -3,5 °C 95 % 1027,2 hPa 0,0 mm 2,7 km/h (1 Bft) W 275 ° 0 min 0,000 mm 0,0 UV-I 0 W/m² -4,2 °C -3,5 °C 4,8 km/h (1 Bft)
14.02.2017 01:41 -3,5 °C -3,5 °C 95 % 1027,2 hPa 0,0 mm 2,5 km/h (1 Bft) W 275 ° 0 min 0,000 mm 0,0 UV-I 0 W/m² -4,2 °C -3,5 °C 3,2 km/h (1 Bft)
14.02.2017 01:42 -3,5 °C -3,5 °C 95 % 1027,2 hPa 0,0 mm 2,5 km/h (1 Bft) W 275 ° 0 min 0,000 mm 0,0 UV-I 0 W/m² -4,2 °C -3,5 °C 4,8 km/h (1 Bft)
14.02.2017 01:43 -3,6 °C -3,5 °C 95 % 1027,2 hPa 0,0 mm 3,5 km/h (1 Bft) W 275 ° 0 min 0,000 mm 0,0 UV-I 0 W/m² -4,3 °C -3,6 °C 4,8 km/h (1 Bft)
14.02.2017 01:44 -3,6 °C -3,6 °C 95 % 1027,2 hPa 0,0 mm 2,4 km/h (1 Bft) W 275 ° 0 min 0,000 mm 0,0 UV-I 0 W/m² -4,3 °C -3,6 °C 3,2 km/h (1 Bft)
14.02.2017 01:45 -3,6 °C -3,6 °C 95 % 1027,2 hPa 0,0 mm 1,6 km/h (1 Bft) W 275 ° 0 min 0,000 mm 0,0 UV-I 0 W/m² -4,3 °C -3,6 °C 3,2 km/h (1 Bft)
14.02.2017 01:46 -3,6 °C -3,6 °C 95 % 1027,2 hPa 0,0 mm 0,9 km/h (0 Bft) W 275 ° 0 min 0,000 mm 0,0 UV-I 0 W/m² -4,3 °C -3,6 °C 3,2 km/h (1 Bft)
14.02.2017 01:47 -3,6 °C -3,6 °C 95 % 1027,2 hPa 0,0 mm 1,3 km/h (1 Bft) W 275 ° 0 min 0,000 mm 0,0 UV-I 0 W/m² -4,3 °C -3,6 °C 3,2 km/h (1 Bft)
14.02.2017 01:48 -3,6 °C -3,6 °C 95 % 1027,2 hPa 0,0 mm 1,1 km/h (1 Bft) W 275 ° 0 min 0,000 mm 0,0 UV-I 0 W/m² -4,3 °C -3,6 °C 1,6 km/h (1 Bft)
14.02.2017 01:49 -3,6 °C -3,6 °C 95 % 1027,3 hPa 0,0 mm 0,8 km/h (0 Bft) W 275 ° 0 min 0,000 mm 0,0 UV-I 0 W/m² -4,3 °C -3,6 °C 3,2 km/h (1 Bft)
14.02.2017 01:50 -3,6 °C -3,6 °C 95 % 1027,3 hPa 0,0 mm 1,6 km/h (1 Bft) W 275 ° 0 min 0,000 mm 0,0 UV-I 0 W/m² -4,3 °C -3,6 °C 3,2 km/h (1 Bft)
14.02.2017 01:51 -3,7 °C -3,6 °C 95 % 1027,3 hPa 0,0 mm 0,2 km/h (0 Bft) W 275 ° 0 min 0,000 mm 0,0 UV-I 0 W/m² -4,4 °C -3,7 °C 1,6 km/h (1 Bft)
14.02.2017 01:52 -3,7 °C -3,7 °C 95 % 1027,3 hPa 0,0 mm 0,2 km/h (0 Bft) W 275 ° 0 min 0,000 mm 0,0 UV-I 0 W/m² -4,4 °C -3,7 °C 1,6 km/h (1 Bft)
14.02.2017 01:53 -3,7 °C -3,7 °C 95 % 1027,3 hPa 0,0 mm 0,1 km/h (0 Bft) W 275 ° 0 min 0,000 mm 0,0 UV-I 0 W/m² -4,4 °C -3,7 °C 1,6 km/h (1 Bft)
14.02.2017 01:54 -3,8 °C -3,7 °C 95 % 1027,3 hPa 0,0 mm 0,0 km/h (0 Bft) W 275 ° 0 min 0,000 mm 0,0 UV-I 0 W/m² -4,5 °C -3,8 °C 0,0 km/h (0 Bft)
14.02.2017 01:55 -3,8 °C -3,8 °C 95 % 1027,3 hPa 0,0 mm 0,0 km/h (0 Bft) W 275 ° 0 min 0,000 mm 0,0 UV-I 0 W/m² -4,5 °C -3,8 °C 0,0 km/h (0 Bft)
14.02.2017 01:56 -3,8 °C -3,8 °C 95 % 1027,3 hPa 0,0 mm 0,0 km/h (0 Bft) W 275 ° 0 min 0,000 mm 0,0 UV-I 0 W/m² -4,5 °C -3,8 °C 0,0 km/h (0 Bft)
14.02.2017 01:57 -3,8 °C -3,8 °C 95 % 1027,2 hPa 0,0 mm 0,0 km/h (0 Bft) W 275 ° 0 min 0,000 mm 0,0 UV-I 0 W/m² -4,5 °C -3,8 °C 0,0 km/h (0 Bft)
14.02.2017 01:58 -3,8 °C -3,8 °C 95 % 1027,2 hPa 0,0 mm 0,0 km/h (0 Bft) W 275 ° 0 min 0,000 mm 0,0 UV-I 0 W/m² -4,5 °C -3,8 °C 0,0 km/h (0 Bft)
14.02.2017 01:59 -3,8 °C -3,8 °C 95 % 1027,2 hPa 0,0 mm 0,0 km/h (0 Bft) W 275 ° 0 min 0,000 mm 0,0 UV-I 0 W/m² -4,5 °C -3,8 °C 0,0 km/h (0 Bft)
14.02.2017 02:00 -3,9 °C -3,8 °C 95 % 1027,2 hPa 0,0 mm 0,0 km/h (0 Bft) W 275 ° 0 min 0,000 mm 0,0 UV-I 0 W/m² -4,6 °C -3,9 °C 0,0 km/h (0 Bft)
14.02.2017 02:01 -3,9 °C -3,9 °C 95 % 1027,3 hPa 0,0 mm 0,0 km/h (0 Bft) W 275 ° 0 min 0,000 mm 0,0 UV-I 0 W/m² -4,6 °C -3,9 °C 0,0 km/h (0 Bft)
14.02.2017 02:02 -3,9 °C -3,9 °C 95 % 1027,2 hPa 0,0 mm 0,0 km/h (0 Bft) W 275 ° 0 min 0,000 mm 0,0 UV-I 0 W/m² -4,6 °C -3,9 °C 0,0 km/h (0 Bft)
14.02.2017 02:03 -3,9 °C -3,9 °C 95 % 1027,3 hPa 0,0 mm 0,0 km/h (0 Bft) W 275 ° 0 min 0,000 mm 0,0 UV-I 0 W/m² -4,6 °C -3,9 °C 0,0 km/h (0 Bft)
14.02.2017 02:04 -3,9 °C -3,9 °C 95 % 1027,3 hPa 0,0 mm 0,0 km/h (0 Bft) W 275 ° 0 min 0,000 mm 0,0 UV-I 0 W/m² -4,6 °C -3,9 °C 0,0 km/h (0 Bft)
14.02.2017 02:05 -3,9 °C -3,9 °C 95 % 1027,3 hPa 0,0 mm 0,0 km/h (0 Bft) W 275 ° 0 min 0,000 mm 0,0 UV-I 0 W/m² -4,6 °C -3,9 °C 0,0 km/h (0 Bft)
14.02.2017 02:06 -4,0 °C -3,9 °C 95 % 1027,4 hPa 0,0 mm 0,0 km/h (0 Bft) W 275 ° 0 min 0,000 mm 0,0 UV-I 0 W/m² -4,7 °C -4,0 °C 0,0 km/h (0 Bft)
14.02.2017 02:07 -4,0 °C -4,0 °C 95 % 1027,3 hPa 0,0 mm 0,0 km/h (0 Bft) W 275 ° 0 min 0,000 mm 0,0 UV-I 0 W/m² -4,7 °C -4,0 °C 0,0 km/h (0 Bft)
14.02.2017 02:08 -4,0 °C -4,0 °C 95 % 1027,4 hPa 0,0 mm 0,0 km/h (0 Bft) W 275 ° 0 min 0,000 mm 0,0 UV-I 0 W/m² -4,7 °C -4,0 °C 0,0 km/h (0 Bft)
14.02.2017 02:09 -4,1 °C -4,0 °C 95 % 1027,4 hPa 0,0 mm 0,0 km/h (0 Bft) W 275 ° 0 min 0,000 mm 0,0 UV-I 0 W/m² -4,8 °C -4,1 °C 0,0 km/h (0 Bft)
14.02.2017 02:10 -4,1 °C -4,0 °C 95 % 1027,4 hPa 0,0 mm 0,0 km/h (0 Bft) W 275 ° 0 min 0,000 mm 0,0 UV-I 0 W/m² -4,8 °C -4,1 °C 0,0 km/h (0 Bft)
14.02.2017 02:11 -4,1 °C -4,1 °C 95 % 1027,4 hPa 0,0 mm 0,0 km/h (0 Bft) W 275 ° 0 min 0,000 mm 0,0 UV-I 0 W/m² -4,8 °C -4,1 °C 0,0 km/h (0 Bft)
14.02.2017 02:12 -4,1 °C -4,1 °C 95 % 1027,4 hPa 0,0 mm 0,7 km/h (0 Bft) W 275 ° 0 min 0,000 mm 0,0 UV-I 0 W/m² -4,8 °C -4,1 °C 1,6 km/h (1 Bft)
14.02.2017 02:13 -4,2 °C -4,1 °C 95 % 1027,4 hPa 0,0 mm 0,1 km/h (0 Bft) W 275 ° 0 min 0,000 mm 0,0 UV-I 0 W/m² -4,9 °C -4,2 °C 1,6 km/h (1 Bft)
14.02.2017 02:14 -4,2 °C -4,2 °C 95 % 1027,4 hPa 0,0 mm 0,0 km/h (0 Bft) W 275 ° 0 min 0,000 mm 0,0 UV-I 0 W/m² -4,9 °C -4,2 °C 0,0 km/h (0 Bft)
14.02.2017 02:15 -4,2 °C -4,2 °C 95 % 1027,4 hPa 0,0 mm 0,0 km/h (0 Bft) W 275 ° 0 min 0,000 mm 0,0 UV-I 0 W/m² -4,9 °C -4,2 °C 0,0 km/h (0 Bft)
14.02.2017 02:16 -4,3 °C -4,2 °C 95 % 1027,4 hPa 0,0 mm 0,0 km/h (0 Bft) W 275 ° 0 min 0,000 mm 0,0 UV-I 0 W/m² -5,0 °C -4,3 °C 0,0 km/h (0 Bft)
14.02.2017 02:17 -4,3 °C -4,2 °C 94 % 1027,4 hPa 0,0 mm 0,0 km/h (0 Bft) W 275 ° 0 min 0,000 mm 0,0 UV-I 0 W/m² -5,1 °C -4,3 °C 0,0 km/h (0 Bft)
14.02.2017 02:18 -4,3 °C -4,3 °C 94 % 1027,4 hPa 0,0 mm 0,0 km/h (0 Bft) W 275 ° 0 min 0,000 mm 0,0 UV-I 0 W/m² -5,1 °C -4,3 °C 0,0 km/h (0 Bft)
14.02.2017 02:19 -4,3 °C -4,3 °C 94 % 1027,5 hPa 0,0 mm 0,0 km/h (0 Bft) W 275 ° 0 min 0,000 mm 0,0 UV-I 0 W/m² -5,1 °C -4,3 °C 0,0 km/h (0 Bft)
14.02.2017 02:20 -4,3 °C -4,3 °C 94 % 1027,5 hPa 0,0 mm 0,0 km/h (0 Bft) W 275 ° 0 min 0,000 mm 0,0 UV-I 0 W/m² -5,1 °C -4,3 °C 0,0 km/h (0 Bft)
14.02.2017 02:21 -4,3 °C -4,3 °C 94 % 1027,5 hPa 0,0 mm 0,4 km/h (0 Bft) W 275 ° 0 min 0,000 mm 0,0 UV-I 0 W/m² -5,1 °C -4,3 °C 1,6 km/h (1 Bft)
14.02.2017 02:22 -4,4 °C -4,3 °C 94 % 1027,5 hPa 0,0 mm 1,4 km/h (1 Bft) W 275 ° 0 min 0,000 mm 0,0 UV-I 0 W/m² -5,2 °C -4,4 °C 1,6 km/h (1 Bft)
14.02.2017 02:23 -4,3 °C -4,3 °C 94 % 1027,4 hPa 0,0 mm 2,0 km/h (1 Bft) W 275 ° 0 min 0,000 mm 0,0 UV-I 0 W/m² -5,1 °C -4,3 °C 3,2 km/h (1 Bft)
14.02.2017 02:24 -4,4 °C -4,3 °C 94 % 1027,5 hPa 0,0 mm 1,6 km/h (1 Bft) W 275 ° 0 min 0,000 mm 0,0 UV-I 0 W/m² -5,2 °C -4,4 °C 1,6 km/h (1 Bft)
14.02.2017 02:25 -4,4 °C -4,4 °C 94 % 1027,5 hPa 0,0 mm 1,0 km/h (0 Bft) W 275 ° 0 min 0,000 mm 0,0 UV-I 0 W/m² -5,2 °C -4,4 °C 1,6 km/h (1 Bft)
14.02.2017 02:26 -4,4 °C -4,4 °C 94 % 1027,5 hPa 0,0 mm 0,6 km/h (0 Bft) W 275 ° 0 min 0,000 mm 0,0 UV-I 0 W/m² -5,2 °C -4,4 °C 1,6 km/h (1 Bft)
14.02.2017 02:27 -4,4 °C -4,4 °C 94 % 1027,6 hPa 0,0 mm 0,0 km/h (0 Bft) W 275 ° 0 min 0,000 mm 0,0 UV-I 0 W/m² -5,2 °C -4,4 °C 0,0 km/h (0 Bft)
14.02.2017 02:28 -4,4 °C -4,4 °C 94 % 1027,5 hPa 0,0 mm 0,1 km/h (0 Bft) W 275 ° 0 min 0,000 mm 0,0 UV-I 0 W/m² -5,2 °C -4,4 °C 1,6 km/h (1 Bft)
14.02.2017 02:29 -4,4 °C -4,4 °C 94 % 1027,5 hPa 0,0 mm 0,0 km/h (0 Bft) W 275 ° 0 min 0,000 mm 0,0 UV-I 0 W/m² -5,2 °C -4,4 °C 0,0 km/h (0 Bft)
14.02.2017 02:30 -4,4 °C -4,4 °C 94 % 1027,6 hPa 0,0 mm 0,0 km/h (0 Bft) W 275 ° 0 min 0,000 mm 0,0 UV-I 0 W/m² -5,2 °C -4,4 °C 0,0 km/h (0 Bft)
14.02.2017 02:31 -4,4 °C -4,4 °C 94 % 1027,7 hPa 0,0 mm 0,1 km/h (0 Bft) W 275 ° 0 min 0,000 mm 0,0 UV-I 0 W/m² -5,2 °C -4,4 °C 1,6 km/h (1 Bft)
14.02.2017 02:32 -4,5 °C -4,4 °C 94 % 1027,7 hPa 0,0 mm 0,2 km/h (0 Bft) W 275 ° 0 min 0,000 mm 0,0 UV-I 0 W/m² -5,3 °C -4,5 °C 1,6 km/h (1 Bft)
14.02.2017 02:33 -4,5 °C -4,5 °C 94 % 1027,7 hPa 0,0 mm 1,3 km/h (1 Bft) W 275 ° 0 min 0,000 mm 0,0 UV-I 0 W/m² -5,3 °C -4,5 °C 3,2 km/h (1 Bft)
14.02.2017 02:34 -4,5 °C -4,5 °C 94 % 1027,7 hPa 0,0 mm 2,7 km/h (1 Bft) W 275 ° 0 min 0,000 mm 0,0 UV-I 0 W/m² -5,3 °C -4,5 °C 3,2 km/h (1 Bft)
14.02.2017 02:35 -4,6 °C -4,5 °C 94 % 1027,7 hPa 0,0 mm 2,4 km/h (1 Bft) W 275 ° 0 min 0,000 mm 0,0 UV-I 0 W/m² -5,4 °C -4,6 °C 3,2 km/h (1 Bft)
14.02.2017 02:36 -4,6 °C -4,6 °C 94 % 1027,8 hPa 0,0 mm 1,9 km/h (1 Bft) W 275 ° 0 min 0,000 mm 0,0 UV-I 0 W/m² -5,4 °C -4,6 °C 3,2 km/h (1 Bft)
14.02.2017 02:37 -4,6 °C -4,6 °C 94 % 1027,7 hPa 0,0 mm 1,9 km/h (1 Bft) W 275 ° 0 min 0,000 mm 0,0 UV-I 0 W/m² -5,4 °C -4,6 °C 3,2 km/h (1 Bft)
14.02.2017 02:38 -4,6 °C -4,6 °C 94 % 1027,8 hPa 0,0 mm 2,3 km/h (1 Bft) W 274 ° 0 min 0,000 mm 0,0 UV-I 0 W/m² -5,4 °C -4,6 °C 3,2 km/h (1 Bft)
14.02.2017 02:39 -4,6 °C -4,6 °C 94 % 1027,8 hPa 0,0 mm 3,0 km/h (1 Bft) W 274 ° 0 min 0,000 mm 0,0 UV-I 0 W/m² -5,4 °C -4,6 °C 3,2 km/h (1 Bft)
14.02.2017 02:40 -4,7 °C -4,6 °C 94 % 1027,8 hPa 0,0 mm 1,6 km/h (1 Bft) S-SW 211 ° 0 min 0,000 mm 0,0 UV-I 0 W/m² -5,5 °C -4,7 °C 3,2 km/h (1 Bft)
14.02.2017 02:41 -4,7 °C -4,7 °C 94 % 1027,8 hPa 0,0 mm 0,9 km/h (0 Bft) S-SW 211 ° 0 min 0,000 mm 0,0 UV-I 0 W/m² -5,5 °C -4,7 °C 1,6 km/h (1 Bft)
14.02.2017 02:42 -4,7 °C -4,7 °C 94 % 1027,8 hPa 0,0 mm 2,7 km/h (1 Bft) S-SW 211 ° 0 min 0,000 mm 0,0 UV-I 0 W/m² -5,5 °C -4,7 °C 3,2 km/h (1 Bft)
14.02.2017 02:43 -4,7 °C -4,7 °C 94 % 1027,7 hPa 0,0 mm 2,5 km/h (1 Bft) S 175 ° 0 min 0,000 mm 0,0 UV-I 0 W/m² -5,5 °C -4,7 °C 3,2 km/h (1 Bft)
14.02.2017 02:44 -4,7 °C -4,7 °C 94 % 1027,7 hPa 0,0 mm 2,5 km/h (1 Bft) S 175 ° 0 min 0,000 mm 0,0 UV-I 0 W/m² -5,5 °C -4,7 °C 3,2 km/h (1 Bft)
14.02.2017 02:45 -4,7 °C -4,7 °C 94 % 1027,7 hPa 0,0 mm 1,9 km/h (1 Bft) S 175 ° 0 min 0,000 mm 0,0 UV-I 0 W/m² -5,5 °C -4,7 °C 3,2 km/h (1 Bft)
14.02.2017 02:46 -4,7 °C -4,7 °C 94 % 1027,7 hPa 0,0 mm 2,2 km/h (1 Bft) S 175 ° 0 min 0,000 mm 0,0 UV-I 0 W/m² -5,5 °C -4,7 °C 3,2 km/h (1 Bft)
14.02.2017 02:47 -4,7 °C -4,7 °C 94 % 1027,7 hPa 0,0 mm 1,0 km/h (0 Bft) S 175 ° 0 min 0,000 mm 0,0 UV-I 0 W/m² -5,5 °C -4,7 °C 3,2 km/h (1 Bft)
14.02.2017 02:48 -4,7 °C -4,7 °C 94 % 1027,7 hPa 0,0 mm 1,0 km/h (0 Bft) S 175 ° 0 min 0,000 mm 0,0 UV-I 0 W/m² -5,5 °C -4,7 °C 3,2 km/h (1 Bft)
14.02.2017 02:49 -4,8 °C -4,7 °C 94 % 1027,7 hPa 0,0 mm 1,3 km/h (1 Bft) S 175 ° 0 min 0,000 mm 0,0 UV-I 0 W/m² -5,6 °C -4,8 °C 3,2 km/h (1 Bft)
14.02.2017 02:50 -4,8 °C -4,8 °C 94 % 1027,7 hPa 0,0 mm 0,3 km/h (0 Bft) S 176 ° 0 min 0,000 mm 0,0 UV-I 0 W/m² -5,6 °C -4,8 °C 1,6 km/h (1 Bft)
14.02.2017 02:51 -4,8 °C -4,8 °C 94 % 1027,8 hPa 0,0 mm 1,5 km/h (1 Bft) S 177 ° 0 min 0,000 mm 0,0 UV-I 0 W/m² -5,6 °C -4,8 °C 3,2 km/h (1 Bft)
14.02.2017 02:52 -4,8 °C -4,8 °C 94 % 1027,9 hPa 0,0 mm 1,3 km/h (1 Bft) S 177 ° 0 min 0,000 mm 0,0 UV-I 0 W/m² -5,6 °C -4,8 °C 1,6 km/h (1 Bft)
14.02.2017 02:53 -4,8 °C -4,8 °C 94 % 1027,9 hPa 0,0 mm 0,9 km/h (0 Bft) S 177 ° 0 min 0,000 mm 0,0 UV-I 0 W/m² -5,6 °C -4,8 °C 1,6 km/h (1 Bft)
14.02.2017 02:54 -4,8 °C -4,8 °C 94 % 1027,9 hPa 0,0 mm 0,0 km/h (0 Bft) S 177 ° 0 min 0,000 mm 0,0 UV-I 0 W/m² -5,6 °C -4,8 °C 0,0 km/h (0 Bft)
14.02.2017 02:55 -4,9 °C -4,8 °C 94 % 1027,9 hPa 0,0 mm 0,0 km/h (0 Bft) S 177 ° 0 min 0,000 mm 0,0 UV-I 0 W/m² -5,7 °C -4,9 °C 0,0 km/h (0 Bft)
14.02.2017 02:56 -4,9 °C -4,9 °C 94 % 1027,9 hPa 0,0 mm 0,0 km/h (0 Bft) S 177 ° 0 min 0,000 mm 0,0 UV-I 0 W/m² -5,7 °C -4,9 °C 0,0 km/h (0 Bft)
14.02.2017 02:57 -4,9 °C -4,9 °C 94 % 1027,9 hPa 0,0 mm 0,9 km/h (0 Bft) S 177 ° 0 min 0,000 mm 0,0 UV-I 0 W/m² -5,7 °C -4,9 °C 1,6 km/h (1 Bft)
14.02.2017 02:58 -4,9 °C -4,9 °C 94 % 1027,9 hPa 0,0 mm 1,3 km/h (1 Bft) S 177 ° 0 min 0,000 mm 0,0 UV-I 0 W/m² -5,7 °C -4,9 °C 1,6 km/h (1 Bft)
14.02.2017 02:59 -4,9 °C -4,9 °C 94 % 1027,9 hPa 0,0 mm 1,2 km/h (1 Bft) S 177 ° 0 min 0,000 mm 0,0 UV-I 0 W/m² -5,7 °C -4,9 °C 1,6 km/h (1 Bft)
14.02.2017 03:00 -4,9 °C -4,9 °C 94 % 1027,9 hPa 0,0 mm 1,6 km/h (1 Bft) S 177 ° 0 min 0,000 mm 0,0 UV-I 0 W/m² -5,7 °C -4,9 °C 3,2 km/h (1 Bft)
14.02.2017 03:01 -4,9 °C -4,9 °C 94 % 1027,9 hPa 0,0 mm 1,6 km/h (1 Bft) O-SO 119 ° 0 min 0,000 mm 0,0 UV-I 0 W/m² -5,7 °C -4,9 °C 3,2 km/h (1 Bft)
14.02.2017 03:02 -4,9 °C -4,9 °C 94 % 1027,9 hPa 0,0 mm 2,5 km/h (1 Bft) O-SO 119 ° 0 min 0,000 mm 0,0 UV-I 0 W/m² -5,7 °C -4,9 °C 3,2 km/h (1 Bft)
14.02.2017 03:03 -4,9 °C -4,9 °C 94 % 1027,9 hPa 0,0 mm 1,1 km/h (1 Bft) O-SO 119 ° 0 min 0,000 mm 0,0 UV-I 0 W/m² -5,7 °C -4,9 °C 3,2 km/h (1 Bft)
14.02.2017 03:04 -4,9 °C -4,9 °C 94 % 1027,9 hPa 0,0 mm 0,0 km/h (0 Bft) O-SO 119 ° 0 min 0,000 mm 0,0 UV-I 0 W/m² -5,7 °C -4,9 °C 0,0 km/h (0 Bft)
14.02.2017 03:05 -4,9 °C -4,9 °C 94 % 1027,9 hPa 0,0 mm 0,0 km/h (0 Bft) O-SO 119 ° 0 min 0,000 mm 0,0 UV-I 0 W/m² -5,7 °C -4,9 °C 0,0 km/h (0 Bft)
14.02.2017 03:06 -4,9 °C -4,9 °C 94 % 1027,9 hPa 0,0 mm 0,6 km/h (0 Bft) O-SO 119 ° 0 min 0,000 mm 0,0 UV-I 0 W/m² -5,7 °C -4,9 °C 1,6 km/h (1 Bft)
14.02.2017 03:07 -5,1 °C -4,9 °C 94 % 1027,9 hPa 0,0 mm 1,5 km/h (1 Bft) O-SO 119 ° 0 min 0,000 mm 0,0 UV-I 0 W/m² -5,9 °C -5,1 °C 3,2 km/h (1 Bft)
14.02.2017 03:08 -5,0 °C -5,0 °C 94 % 1027,9 hPa 0,0 mm 0,8 km/h (0 Bft) O-SO 119 ° 0 min 0,000 mm 0,0 UV-I 0 W/m² -5,8 °C -5,0 °C 1,6 km/h (1 Bft)
14.02.2017 03:09 -5,1 °C -5,0 °C 94 % 1027,9 hPa 0,0 mm 0,0 km/h (0 Bft) O-SO 119 ° 0 min 0,000 mm 0,0 UV-I 0 W/m² -5,9 °C -5,1 °C 0,0 km/h (0 Bft)
14.02.2017 03:10 -5,1 °C -5,1 °C 94 % 1027,9 hPa 0,0 mm 0,0 km/h (0 Bft) O-SO 119 ° 0 min 0,000 mm 0,0 UV-I 0 W/m² -5,9 °C -5,1 °C 0,0 km/h (0 Bft)
14.02.2017 03:11 -5,1 °C -5,1 °C 94 % 1027,9 hPa 0,0 mm 0,0 km/h (0 Bft) O-SO 119 ° 0 min 0,000 mm 0,0 UV-I 0 W/m² -5,9 °C -5,1 °C 0,0 km/h (0 Bft)
14.02.2017 03:12 -5,1 °C -5,1 °C 94 % 1027,9 hPa 0,0 mm 0,1 km/h (0 Bft) O-SO 119 ° 0 min 0,000 mm 0,0 UV-I 0 W/m² -5,9 °C -5,1 °C 1,6 km/h (1 Bft)
14.02.2017 03:13 -5,1 °C -5,1 °C 94 % 1027,9 hPa 0,0 mm 0,0 km/h (0 Bft) O-SO 119 ° 0 min 0,000 mm 0,0 UV-I 0 W/m² -5,9 °C -5,1 °C 0,0 km/h (0 Bft)
14.02.2017 03:14 -5,1 °C -5,1 °C 94 % 1027,9 hPa 0,0 mm 0,0 km/h (0 Bft) O-SO 119 ° 0 min 0,000 mm 0,0 UV-I 0 W/m² -5,9 °C -5,1 °C 0,0 km/h (0 Bft)
14.02.2017 03:15 -5,1 °C -5,1 °C 94 % 1027,9 hPa 0,0 mm 0,0 km/h (0 Bft) O-SO 119 ° 0 min 0,000 mm 0,0 UV-I 0 W/m² -5,9 °C -5,1 °C 0,0 km/h (0 Bft)
14.02.2017 03:16 -5,1 °C -5,1 °C 94 % 1027,8 hPa 0,0 mm 0,0 km/h (0 Bft) O-SO 119 ° 0 min 0,000 mm 0,0 UV-I 0 W/m² -5,9 °C -5,1 °C 0,0 km/h (0 Bft)
14.02.2017 03:17 -5,1 °C -5,1 °C 94 % 1027,8 hPa 0,0 mm 0,0 km/h (0 Bft) O-SO 119 ° 0 min 0,000 mm 0,0 UV-I 0 W/m² -5,9 °C -5,1 °C 0,0 km/h (0 Bft)
14.02.2017 03:18 -5,1 °C -5,1 °C 94 % 1027,9 hPa 0,0 mm 0,0 km/h (0 Bft) O-SO 119 ° 0 min 0,000 mm 0,0 UV-I 0 W/m² -5,9 °C -5,1 °C 0,0 km/h (0 Bft)
14.02.2017 03:19 -5,2 °C -5,1 °C 94 % 1027,8 hPa 0,0 mm 0,0 km/h (0 Bft) O-SO 119 ° 0 min 0,000 mm 0,0 UV-I 0 W/m² -6,0 °C -5,2 °C 0,0 km/h (0 Bft)
14.02.2017 03:20 -5,2 °C -5,1 °C 94 % 1027,9 hPa 0,0 mm 0,0 km/h (0 Bft) O-SO 119 ° 0 min 0,000 mm 0,0 UV-I 0 W/m² -6,0 °C -5,2 °C 0,0 km/h (0 Bft)
14.02.2017 03:21 -5,2 °C -5,2 °C 94 % 1027,9 hPa 0,0 mm 0,0 km/h (0 Bft) O-SO 119 ° 0 min 0,000 mm 0,0 UV-I 0 W/m² -6,0 °C -5,2 °C 0,0 km/h (0 Bft)
14.02.2017 03:22 -5,2 °C -5,2 °C 94 % 1027,9 hPa 0,0 mm 0,0 km/h (0 Bft) O-SO 119 ° 0 min 0,000 mm 0,0 UV-I 0 W/m² -6,0 °C -5,2 °C 0,0 km/h (0 Bft)
14.02.2017 03:23 -5,2 °C -5,2 °C 94 % 1027,9 hPa 0,0 mm 0,0 km/h (0 Bft) O-SO 119 ° 0 min 0,000 mm 0,0 UV-I 0 W/m² -6,0 °C -5,2 °C 0,0 km/h (0 Bft)
14.02.2017 03:24 -5,2 °C -5,2 °C 94 % 1027,9 hPa 0,0 mm 0,0 km/h (0 Bft) O-SO 119 ° 0 min 0,000 mm 0,0 UV-I 0 W/m² -6,0 °C -5,2 °C 0,0 km/h (0 Bft)
14.02.2017 03:25 -5,2 °C -5,2 °C 94 % 1027,9 hPa 0,0 mm 0,0 km/h (0 Bft) O-SO 119 ° 0 min 0,000 mm 0,0 UV-I 0 W/m² -6,0 °C -5,2 °C 0,0 km/h (0 Bft)
14.02.2017 03:26 -5,2 °C -5,2 °C 94 % 1027,9 hPa 0,0 mm 0,0 km/h (0 Bft) O-SO 119 ° 0 min 0,000 mm 0,0 UV-I 0 W/m² -6,0 °C -5,2 °C 0,0 km/h (0 Bft)
14.02.2017 03:27 -5,2 °C -5,2 °C 94 % 1027,9 hPa 0,0 mm 0,0 km/h (0 Bft) O-SO 119 ° 0 min 0,000 mm 0,0 UV-I 0 W/m² -6,0 °C -5,2 °C 0,0 km/h (0 Bft)
14.02.2017 03:28 -5,3 °C -5,2 °C 94 % 1027,9 hPa 0,0 mm 0,0 km/h (0 Bft) O-SO 119 ° 0 min 0,000 mm 0,0 UV-I 0 W/m² -6,1 °C -5,3 °C 0,0 km/h (0 Bft)
14.02.2017 03:29 -5,3 °C -5,2 °C 94 % 1027,9 hPa 0,0 mm 0,0 km/h (0 Bft) O-SO 119 ° 0 min 0,000 mm 0,0 UV-I 0 W/m² -6,1 °C -5,3 °C 0,0 km/h (0 Bft)
14.02.2017 03:30 -5,3 °C -5,3 °C 94 % 1027,9 hPa 0,0 mm 0,0 km/h (0 Bft) O-SO 119 ° 0 min 0,000 mm 0,0 UV-I 0 W/m² -6,1 °C -5,3 °C 0,0 km/h (0 Bft)
14.02.2017 03:31 -5,3 °C -5,3 °C 94 % 1028,0 hPa 0,0 mm 0,0 km/h (0 Bft) O-SO 119 ° 0 min 0,000 mm 0,0 UV-I 0 W/m² -6,1 °C -5,3 °C 0,0 km/h (0 Bft)
14.02.2017 03:32 -5,3 °C -5,3 °C 93 % 1027,9 hPa 0,0 mm 0,0 km/h (0 Bft) O-SO 119 ° 0 min 0,000 mm 0,0 UV-I 0 W/m² -6,2 °C -5,3 °C 0,0 km/h (0 Bft)
14.02.2017 03:33 -5,4 °C -5,3 °C 93 % 1028,0 hPa 0,0 mm 0,0 km/h (0 Bft) O-SO 119 ° 0 min 0,000 mm 0,0 UV-I 0 W/m² -6,3 °C -5,4 °C 0,0 km/h (0 Bft)
14.02.2017 03:34 -5,4 °C -5,4 °C 93 % 1028,0 hPa 0,0 mm 0,0 km/h (0 Bft) O-SO 119 ° 0 min 0,000 mm 0,0 UV-I 0 W/m² -6,3 °C -5,4 °C 0,0 km/h (0 Bft)
14.02.2017 03:35 -5,4 °C -5,4 °C 93 % 1027,9 hPa 0,0 mm 0,7 km/h (0 Bft) O-SO 119 ° 0 min 0,000 mm 0,0 UV-I 0 W/m² -6,3 °C -5,4 °C 1,6 km/h (1 Bft)
14.02.2017 03:36 -5,4 °C -5,4 °C 93 % 1028,0 hPa 0,0 mm 0,1 km/h (0 Bft) O-SO 119 ° 0 min 0,000 mm 0,0 UV-I 0 W/m² -6,3 °C -5,4 °C 1,6 km/h (1 Bft)
14.02.2017 03:37 -5,4 °C -5,4 °C 93 % 1028,0 hPa 0,0 mm 0,0 km/h (0 Bft) O-SO 119 ° 0 min 0,000 mm 0,0 UV-I 0 W/m² -6,3 °C -5,4 °C 0,0 km/h (0 Bft)
14.02.2017 03:38 -5,4 °C -5,4 °C 93 % 1028,0 hPa 0,0 mm 0,0 km/h (0 Bft) O-SO 119 ° 0 min 0,000 mm 0,0 UV-I 0 W/m² -6,3 °C -5,4 °C 0,0 km/h (0 Bft)
14.02.2017 03:39 -5,5 °C -5,4 °C 93 % 1028,0 hPa 0,0 mm 0,0 km/h (0 Bft) O-SO 119 ° 0 min 0,000 mm 0,0 UV-I 0 W/m² -6,4 °C -5,5 °C 0,0 km/h (0 Bft)
14.02.2017 03:40 -5,5 °C -5,5 °C 93 % 1028,0 hPa 0,0 mm 0,0 km/h (0 Bft) O-SO 119 ° 0 min 0,000 mm 0,0 UV-I 0 W/m² -6,4 °C -5,5 °C 0,0 km/h (0 Bft)
14.02.2017 03:41 -5,6 °C -5,5 °C 93 % 1028,0 hPa 0,0 mm 0,0 km/h (0 Bft) O-SO 119 ° 0 min 0,000 mm 0,0 UV-I 0 W/m² -6,5 °C -5,6 °C 0,0 km/h (0 Bft)
14.02.2017 03:42 -5,6 °C -5,6 °C 93 % 1028,0 hPa 0,0 mm 0,0 km/h (0 Bft) O-SO 119 ° 0 min 0,000 mm 0,0 UV-I 0 W/m² -6,5 °C -5,6 °C 0,0 km/h (0 Bft)
14.02.2017 03:43 -5,6 °C -5,6 °C 93 % 1028,0 hPa 0,0 mm 0,0 km/h (0 Bft) O-SO 119 ° 0 min 0,000 mm 0,0 UV-I 0 W/m² -6,5 °C -5,6 °C 0,0 km/h (0 Bft)
14.02.2017 03:44 -5,6 °C -5,6 °C 93 % 1028,1 hPa 0,0 mm 0,0 km/h (0 Bft) O-SO 119 ° 0 min 0,000 mm 0,0 UV-I 0 W/m² -6,5 °C -5,6 °C 0,0 km/h (0 Bft)
14.02.2017 03:45 -5,7 °C -5,6 °C 93 % 1028,1 hPa 0,0 mm 0,0 km/h (0 Bft) O-SO 119 ° 0 min 0,000 mm 0,0 UV-I 0 W/m² -6,6 °C -5,7 °C 0,0 km/h (0 Bft)
14.02.2017 03:46 -5,7 °C -5,7 °C 93 % 1028,1 hPa 0,0 mm 0,0 km/h (0 Bft) O-SO 119 ° 0 min 0,000 mm 0,0 UV-I 0 W/m² -6,6 °C -5,7 °C 0,0 km/h (0 Bft)
14.02.2017 03:47 -5,7 °C -5,7 °C 93 % 1028,1 hPa 0,0 mm 0,0 km/h (0 Bft) O-SO 119 ° 0 min 0,000 mm 0,0 UV-I 0 W/m² -6,6 °C -5,7 °C 0,0 km/h (0 Bft)
14.02.2017 03:48 -5,7 °C -5,7 °C 93 % 1028,1 hPa 0,0 mm 0,0 km/h (0 Bft) O-SO 119 ° 0 min 0,000 mm 0,0 UV-I 0 W/m² -6,6 °C -5,7 °C 0,0 km/h (0 Bft)
14.02.2017 03:49 -5,7 °C -5,7 °C 93 % 1028,1 hPa 0,0 mm 0,0 km/h (0 Bft) O-SO 119 ° 0 min 0,000 mm 0,0 UV-I 0 W/m² -6,6 °C -5,7 °C 0,0 km/h (0 Bft)
14.02.2017 03:50 -5,7 °C -5,7 °C 93 % 1028,1 hPa 0,0 mm 0,6 km/h (0 Bft) O-SO 119 ° 0 min 0,000 mm 0,0 UV-I 0 W/m² -6,6 °C -5,7 °C 1,6 km/h (1 Bft)
14.02.2017 03:51 -5,8 °C -5,7 °C 93 % 1028,1 hPa 0,0 mm 0,3 km/h (0 Bft) O-SO 119 ° 0 min 0,000 mm 0,0 UV-I 0 W/m² -6,7 °C -5,8 °C 1,6 km/h (1 Bft)
14.02.2017 03:52 -5,8 °C -5,8 °C 93 % 1028,1 hPa 0,0 mm 0,0 km/h (0 Bft) O-SO 119 ° 0 min 0,000 mm 0,0 UV-I 0 W/m² -6,7 °C -5,8 °C 0,0 km/h (0 Bft)
14.02.2017 03:53 -5,8 °C -5,8 °C 93 % 1028,1 hPa 0,0 mm 0,1 km/h (0 Bft) O-SO 119 ° 0 min 0,000 mm 0,0 UV-I 0 W/m² -6,7 °C -5,8 °C 1,6 km/h (1 Bft)
14.02.2017 03:54 -5,8 °C -5,8 °C 93 % 1028,1 hPa 0,0 mm 0,9 km/h (0 Bft) O-SO 119 ° 0 min 0,000 mm 0,0 UV-I 0 W/m² -6,7 °C -5,8 °C 1,6 km/h (1 Bft)
14.02.2017 03:55 -5,8 °C -5,8 °C 93 % 1028,1 hPa 0,0 mm 0,9 km/h (0 Bft) O-SO 119 ° 0 min 0,000 mm 0,0 UV-I 0 W/m² -6,7 °C -5,8 °C 1,6 km/h (1 Bft)
14.02.2017 03:56 -5,8 °C -5,8 °C 93 % 1028,1 hPa 0,0 mm 1,3 km/h (1 Bft) O-SO 119 ° 0 min 0,000 mm 0,0 UV-I 0 W/m² -6,7 °C -5,8 °C 1,6 km/h (1 Bft)
14.02.2017 03:57 -5,8 °C -5,8 °C 93 % 1028,1 hPa 0,0 mm 0,1 km/h (0 Bft) O-SO 119 ° 0 min 0,000 mm 0,0 UV-I 0 W/m² -6,7 °C -5,8 °C 1,6 km/h (1 Bft)
14.02.2017 03:58 -5,8 °C -5,8 °C 93 % 1028,1 hPa 0,0 mm 0,0 km/h (0 Bft) O-SO 119 ° 0 min 0,000 mm 0,0 UV-I 0 W/m² -6,7 °C -5,8 °C 0,0 km/h (0 Bft)
14.02.2017 03:59 -5,9 °C -5,8 °C 93 % 1028,1 hPa 0,0 mm 0,0 km/h (0 Bft) O-SO 119 ° 0 min 0,000 mm 0,0 UV-I 0 W/m² -6,8 °C -5,9 °C 0,0 km/h (0 Bft)
14.02.2017 04:00 -5,9 °C -5,8 °C 93 % 1028,1 hPa 0,0 mm 0,0 km/h (0 Bft) O-SO 119 ° 0 min 0,000 mm 0,0 UV-I 0 W/m² -6,8 °C -5,9 °C 0,0 km/h (0 Bft)
14.02.2017 04:01 -5,9 °C -5,9 °C 93 % 1028,1 hPa 0,0 mm 0,0 km/h (0 Bft) O-SO 119 ° 0 min 0,000 mm 0,0 UV-I 0 W/m² -6,8 °C -5,9 °C 0,0 km/h (0 Bft)
14.02.2017 04:02 -5,9 °C -5,9 °C 93 % 1028,1 hPa 0,0 mm 0,0 km/h (0 Bft) N 0 ° 0 min 0,000 mm 0,0 UV-I 0 W/m² -6,8 °C -5,9 °C 0,0 km/h (0 Bft)
14.02.2017 04:03 -5,9 °C -5,9 °C 93 % 1028,1 hPa 0,0 mm 0,0 km/h (0 Bft) O-SO 112 ° 0 min 0,000 mm 0,0 UV-I 0 W/m² -6,8 °C -5,9 °C 1,6 km/h (1 Bft)
14.02.2017 04:04 -6,0 °C -6,0 °C 93 % 1028,0 hPa 0,0 mm 0,0 km/h (0 Bft) O-SO 112 ° 0 min 0,000 mm 0,0 UV-I 0 W/m² -6,9 °C -6,0 °C 1,6 km/h (1 Bft)
14.02.2017 04:05 -6,1 °C -6,0 °C 93 % 1028,1 hPa 0,0 mm 1,6 km/h (1 Bft) O-SO 112 ° 0 min 0,000 mm 0,0 UV-I 0 W/m² -7,0 °C -6,1 °C 1,6 km/h (1 Bft)
14.02.2017 04:06 -6,1 °C -6,0 °C 93 % 1028,1 hPa 0,0 mm 0,0 km/h (0 Bft) O-SO 112 ° 0 min 0,000 mm 0,0 UV-I 0 W/m² -7,0 °C -6,1 °C 1,6 km/h (1 Bft)
14.02.2017 04:07 -6,1 °C -6,1 °C 93 % 1028,1 hPa 0,0 mm 0,0 km/h (0 Bft) O-SO 112 ° 0 min 0,000 mm 0,0 UV-I 0 W/m² -7,0 °C -6,1 °C 1,6 km/h (1 Bft)
14.02.2017 04:08 -6,1 °C -6,1 °C 93 % 1028,1 hPa 0,0 mm 0,0 km/h (0 Bft) O-SO 112 ° 0 min 0,000 mm 0,0 UV-I 0 W/m² -7,0 °C -6,1 °C 1,6 km/h (1 Bft)
14.02.2017 04:09 -6,1 °C -6,1 °C 93 % 1028,1 hPa 0,0 mm 0,0 km/h (0 Bft) N 0 ° 0 min 0,000 mm 0,0 UV-I 0 W/m² -7,0 °C -6,1 °C 0,0 km/h (0 Bft)
14.02.2017 04:10 -6,2 °C -6,1 °C 93 % 1028,1 hPa 0,0 mm 0,0 km/h (0 Bft) N 0 ° 0 min 0,000 mm 0,0 UV-I 0 W/m² -7,1 °C -6,2 °C 0,0 km/h (0 Bft)
14.02.2017 04:11 -6,1 °C -6,1 °C 93 % 1028,1 hPa 0,0 mm 0,0 km/h (0 Bft) N 0 ° 0 min 0,000 mm 0,0 UV-I 0 W/m² -7,0 °C -6,1 °C 0,0 km/h (0 Bft)
14.02.2017 04:12 -6,2 °C -6,2 °C 93 % 1028,1 hPa 0,0 mm 0,0 km/h (0 Bft) N 0 ° 0 min 0,000 mm 0,0 UV-I 0 W/m² -7,1 °C -6,2 °C 0,0 km/h (0 Bft)
14.02.2017 04:13 -6,2 °C -6,2 °C 93 % 1028,1 hPa 0,0 mm 1,6 km/h (1 Bft) O-SO 112 ° 0 min 0,000 mm 0,0 UV-I 0 W/m² -7,1 °C -6,2 °C 3,2 km/h (1 Bft)
14.02.2017 04:14 -6,2 °C -6,2 °C 93 % 1028,1 hPa 0,0 mm 3,2 km/h (1 Bft) O-SO 112 ° 0 min 0,000 mm 0,0 UV-I 0 W/m² -7,1 °C -6,2 °C 3,2 km/h (1 Bft)
14.02.2017 04:15 -6,2 °C -6,2 °C 93 % 1028,1 hPa 0,0 mm 1,6 km/h (1 Bft) S-SW 202 ° 0 min 0,000 mm 0,0 UV-I 0 W/m² -7,1 °C -6,2 °C 3,2 km/h (1 Bft)
14.02.2017 04:16 -6,3 °C -6,2 °C 93 % 1028,1 hPa 0,0 mm 3,2 km/h (1 Bft) S-SW 202 ° 0 min 0,000 mm 0,0 UV-I 0 W/m² -7,2 °C -6,3 °C 3,2 km/h (1 Bft)
14.02.2017 04:17 -6,3 °C -6,3 °C 93 % 1028,1 hPa 0,0 mm 1,6 km/h (1 Bft) S-SW 202 ° 0 min 0,000 mm 0,0 UV-I 0 W/m² -7,2 °C -6,3 °C 3,2 km/h (1 Bft)
14.02.2017 04:18 -6,3 °C -6,3 °C 93 % 1028,2 hPa 0,0 mm 0,0 km/h (0 Bft) S-SW 202 ° 0 min 0,000 mm 0,0 UV-I 0 W/m² -7,2 °C -6,3 °C 1,6 km/h (1 Bft)
14.02.2017 04:19 -6,3 °C -6,3 °C 93 % 1028,2 hPa 0,0 mm 0,0 km/h (0 Bft) N 0 ° 0 min 0,000 mm 0,0 UV-I 0 W/m² -7,2 °C -6,3 °C 0,0 km/h (0 Bft)
14.02.2017 04:20 -6,3 °C -6,3 °C 93 % 1028,2 hPa 0,0 mm 0,0 km/h (0 Bft) N 0 ° 0 min 0,000 mm 0,0 UV-I 0 W/m² -7,2 °C -6,3 °C 0,0 km/h (0 Bft)
14.02.2017 04:21 -6,3 °C -6,3 °C 93 % 1028,2 hPa 0,0 mm 0,0 km/h (0 Bft) S-SW 202 ° 0 min 0,000 mm 0,0 UV-I 0 W/m² -7,2 °C -6,3 °C 1,6 km/h (1 Bft)
14.02.2017 04:22 -6,3 °C -6,3 °C 94 % 1028,2 hPa 0,0 mm 1,6 km/h (1 Bft) S-SW 202 ° 0 min 0,000 mm 0,0 UV-I 0 W/m² -7,1 °C -6,3 °C 1,6 km/h (1 Bft)
14.02.2017 04:23 -6,3 °C -6,3 °C 94 % 1028,2 hPa 0,0 mm 1,6 km/h (1 Bft) S-SW 202 ° 0 min 0,000 mm 0,0 UV-I 0 W/m² -7,1 °C -6,3 °C 1,6 km/h (1 Bft)
14.02.2017 04:24 -6,4 °C -6,4 °C 94 % 1028,2 hPa 0,0 mm 3,2 km/h (1 Bft) S-SW 202 ° 0 min 0,000 mm 0,0 UV-I 0 W/m² -7,2 °C -6,4 °C 3,2 km/h (1 Bft)
14.02.2017 04:25 -6,4 °C -6,4 °C 93 % 1028,3 hPa 0,0 mm 3,2 km/h (1 Bft) SO 135 ° 0 min 0,000 mm 0,0 UV-I 0 W/m² -7,3 °C -6,4 °C 4,8 km/h (1 Bft)
14.02.2017 04:26 -6,4 °C -6,4 °C 94 % 1028,3 hPa 0,0 mm 4,8 km/h (1 Bft) O 90 ° 0 min 0,000 mm 0,0 UV-I 0 W/m² -7,2 °C -8,7 °C 4,8 km/h (1 Bft)
14.02.2017 04:27 -6,4 °C -6,4 °C 93 % 1028,4 hPa 0,0 mm 4,8 km/h (1 Bft) O 90 ° 0 min 0,000 mm 0,0 UV-I 0 W/m² -7,3 °C -8,7 °C 6,4 km/h (2 Bft)
14.02.2017 04:28 -6,5 °C -6,4 °C 93 % 1028,5 hPa 0,0 mm 3,2 km/h (1 Bft) O 90 ° 0 min 0,000 mm 0,0 UV-I 0 W/m² -7,4 °C -6,5 °C 3,2 km/h (1 Bft)
14.02.2017 04:29 -6,5 °C -6,4 °C 93 % 1028,4 hPa 0,0 mm 1,6 km/h (1 Bft) O 90 ° 0 min 0,000 mm 0,0 UV-I 0 W/m² -7,4 °C -6,5 °C 3,2 km/h (1 Bft)
14.02.2017 04:30 -6,5 °C -6,5 °C 93 % 1028,5 hPa 0,0 mm 1,6 km/h (1 Bft) O 90 ° 0 min 0,000 mm 0,0 UV-I 0 W/m² -7,4 °C -6,5 °C 1,6 km/h (1 Bft)
14.02.2017 04:31 -6,6 °C -6,5 °C 93 % 1028,5 hPa 0,0 mm 1,6 km/h (1 Bft) O 90 ° 0 min 0,000 mm 0,0 UV-I 0 W/m² -7,5 °C -6,6 °C 1,6 km/h (1 Bft)
14.02.2017 04:32 -6,6 °C -6,6 °C 93 % 1028,5 hPa 0,0 mm 1,6 km/h (1 Bft) O 90 ° 0 min 0,000 mm 0,0 UV-I 0 W/m² -7,5 °C -6,6 °C 3,2 km/h (1 Bft)
14.02.2017 04:33 -6,5 °C -6,5 °C 93 % 1028,6 hPa 0,0 mm 1,6 km/h (1 Bft) O 90 ° 0 min 0,000 mm 0,0 UV-I 0 W/m² -7,4 °C -6,5 °C 3,2 km/h (1 Bft)
14.02.2017 04:34 -6,6 °C -6,6 °C 93 % 1028,6 hPa 0,0 mm 3,2 km/h (1 Bft) O 90 ° 0 min 0,000 mm 0,0 UV-I 0 W/m² -7,5 °C -6,6 °C 3,2 km/h (1 Bft)
14.02.2017 04:35 -6,6 °C -6,6 °C 93 % 1028,6 hPa 0,0 mm 3,2 km/h (1 Bft) O 90 ° 0 min 0,000 mm 0,0 UV-I 0 W/m² -7,5 °C -6,6 °C 3,2 km/h (1 Bft)
14.02.2017 04:36 -6,6 °C -6,6 °C 94 % 1028,6 hPa 0,0 mm 1,6 km/h (1 Bft) O 90 ° 0 min 0,000 mm 0,0 UV-I 0 W/m² -7,4 °C -6,6 °C 3,2 km/h (1 Bft)
14.02.2017 04:37 -6,6 °C -6,6 °C 93 % 1028,6 hPa 0,0 mm 1,6 km/h (1 Bft) O 90 ° 0 min 0,000 mm 0,0 UV-I 0 W/m² -7,5 °C -6,6 °C 1,6 km/h (1 Bft)
14.02.2017 04:38 -6,6 °C -6,6 °C 94 % 1028,6 hPa 0,0 mm 0,0 km/h (0 Bft) N 0 ° 0 min 0,000 mm 0,0 UV-I 0 W/m² -7,4 °C -6,6 °C 0,0 km/h (0 Bft)
14.02.2017 04:39 -6,6 °C -6,6 °C 93 % 1028,6 hPa 0,0 mm 0,0 km/h (0 Bft) N 0 ° 0 min 0,000 mm 0,0 UV-I 0 W/m² -7,5 °C -6,6 °C 0,0 km/h (0 Bft)
14.02.2017 04:40 -6,6 °C -6,6 °C 93 % 1028,6 hPa 0,0 mm 0,0 km/h (0 Bft) O 90 ° 0 min 0,000 mm 0,0 UV-I 0 W/m² -7,5 °C -6,6 °C 1,6 km/h (1 Bft)
14.02.2017 04:41 -6,6 °C -6,6 °C 93 % 1028,7 hPa 0,0 mm 1,6 km/h (1 Bft) O 90 ° 0 min 0,000 mm 0,0 UV-I 0 W/m² -7,5 °C -6,6 °C 1,6 km/h (1 Bft)
14.02.2017 04:42 -6,6 °C -6,6 °C 94 % 1028,6 hPa 0,0 mm 3,2 km/h (1 Bft) O 90 ° 0 min 0,000 mm 0,0 UV-I 0 W/m² -7,4 °C -6,6 °C 4,8 km/h (1 Bft)
14.02.2017 04:43 -6,7 °C -6,7 °C 93 % 1028,7 hPa 0,0 mm 3,2 km/h (1 Bft) O 90 ° 0 min 0,000 mm 0,0 UV-I 0 W/m² -7,6 °C -6,7 °C 4,8 km/h (1 Bft)
14.02.2017 04:44 -6,7 °C -6,7 °C 93 % 1028,6 hPa 0,0 mm 3,2 km/h (1 Bft) O 90 ° 0 min 0,000 mm 0,0 UV-I 0 W/m² -7,6 °C -6,7 °C 3,2 km/h (1 Bft)
14.02.2017 04:45 -6,7 °C -6,7 °C 93 % 1028,6 hPa 0,0 mm 3,2 km/h (1 Bft) W-SW 247 ° 0 min 0,000 mm 0,0 UV-I 0 W/m² -7,6 °C -6,7 °C 3,2 km/h (1 Bft)
14.02.2017 04:46 -6,7 °C -6,7 °C 93 % 1028,6 hPa 0,0 mm 3,2 km/h (1 Bft) W-SW 247 ° 0 min 0,000 mm 0,0 UV-I 0 W/m² -7,6 °C -6,7 °C 3,2 km/h (1 Bft)
14.02.2017 04:47 -6,7 °C -6,7 °C 93 % 1028,7 hPa 0,0 mm 1,6 km/h (1 Bft) W-SW 247 ° 0 min 0,000 mm 0,0 UV-I 0 W/m² -7,6 °C -6,7 °C 3,2 km/h (1 Bft)
14.02.2017 04:48 -6,8 °C -6,8 °C 93 % 1028,7 hPa 0,0 mm 1,6 km/h (1 Bft) W-SW 247 ° 0 min 0,000 mm 0,0 UV-I 0 W/m² -7,7 °C -6,8 °C 3,2 km/h (1 Bft)
14.02.2017 04:49 -6,8 °C -6,8 °C 93 % 1028,8 hPa 0,0 mm 1,6 km/h (1 Bft) W 270 ° 0 min 0,000 mm 0,0 UV-I 0 W/m² -7,7 °C -6,8 °C 3,2 km/h (1 Bft)
14.02.2017 04:50 -6,8 °C -6,8 °C 93 % 1028,8 hPa 0,0 mm 1,6 km/h (1 Bft) W 270 ° 0 min 0,000 mm 0,0 UV-I 0 W/m² -7,7 °C -6,8 °C 3,2 km/h (1 Bft)
14.02.2017 04:51 -6,8 °C -6,8 °C 93 % 1028,8 hPa 0,0 mm 1,6 km/h (1 Bft) W 270 ° 0 min 0,000 mm 0,0 UV-I 0 W/m² -7,7 °C -6,8 °C 3,2 km/h (1 Bft)
14.02.2017 04:52 -6,8 °C -6,8 °C 93 % 1028,7 hPa 0,0 mm 3,2 km/h (1 Bft) W 270 ° 0 min 0,000 mm 0,0 UV-I 0 W/m² -7,7 °C -6,8 °C 3,2 km/h (1 Bft)
14.02.2017 04:53 -6,8 °C -6,8 °C 93 % 1028,8 hPa 0,0 mm 3,2 km/h (1 Bft) W 270 ° 0 min 0,000 mm 0,0 UV-I 0 W/m² -7,7 °C -6,8 °C 3,2 km/h (1 Bft)
14.02.2017 04:54 -6,8 °C -6,8 °C 93 % 1028,7 hPa 0,0 mm 1,6 km/h (1 Bft) W 270 ° 0 min 0,000 mm 0,0 UV-I 0 W/m² -7,7 °C -6,8 °C 3,2 km/h (1 Bft)
14.02.2017 04:55 -6,8 °C -6,8 °C 93 % 1028,8 hPa 0,0 mm 1,6 km/h (1 Bft) W 270 ° 0 min 0,000 mm 0,0 UV-I 0 W/m² -7,7 °C -6,8 °C 3,2 km/h (1 Bft)
14.02.2017 04:56 -6,8 °C -6,8 °C 93 % 1028,8 hPa 0,0 mm 1,6 km/h (1 Bft) W 270 ° 0 min 0,000 mm 0,0 UV-I 0 W/m² -7,7 °C -6,8 °C 3,2 km/h (1 Bft)
14.02.2017 04:57 -6,8 °C -6,8 °C 93 % 1028,8 hPa 0,0 mm 1,6 km/h (1 Bft) W 270 ° 0 min 0,000 mm 0,0 UV-I 0 W/m² -7,7 °C -6,8 °C 3,2 km/h (1 Bft)
14.02.2017 04:58 -6,9 °C -6,8 °C 93 % 1028,7 hPa 0,0 mm 0,0 km/h (0 Bft) W 270 ° 0 min 0,000 mm 0,0 UV-I 0 W/m² -7,8 °C -6,9 °C 1,6 km/h (1 Bft)
14.02.2017 04:59 -6,9 °C -6,8 °C 93 % 1028,8 hPa 0,0 mm 0,0 km/h (0 Bft) W 270 ° 0 min 0,000 mm 0,0 UV-I 0 W/m² -7,8 °C -6,9 °C 1,6 km/h (1 Bft)
14.02.2017 05:00 -6,9 °C -6,9 °C 93 % 1028,8 hPa 0,0 mm 0,0 km/h (0 Bft) N 0 ° 0 min 0,000 mm 0,0 UV-I 0 W/m² -7,8 °C -6,9 °C 0,0 km/h (0 Bft)
14.02.2017 05:01 -6,9 °C -6,9 °C 93 % 1028,8 hPa 0,0 mm 0,0 km/h (0 Bft) N 0 ° 0 min 0,000 mm 0,0 UV-I 0 W/m² -7,8 °C -6,9 °C 0,0 km/h (0 Bft)
14.02.2017 05:02 -6,9 °C -6,9 °C 93 % 1028,8 hPa 0,0 mm 0,0 km/h (0 Bft) W 270 ° 0 min 0,000 mm 0,0 UV-I 0 W/m² -7,8 °C -6,9 °C 1,6 km/h (1 Bft)
14.02.2017 05:03 -6,9 °C -6,9 °C 93 % 1028,8 hPa 0,0 mm 0,0 km/h (0 Bft) W 270 ° 0 min 0,000 mm 0,0 UV-I 0 W/m² -7,8 °C -6,9 °C 1,6 km/h (1 Bft)
14.02.2017 05:04 -6,9 °C -6,9 °C 93 % 1028,9 hPa 0,0 mm 0,0 km/h (0 Bft) W 270 ° 0 min 0,000 mm 0,0 UV-I 0 W/m² -7,8 °C -6,9 °C 1,6 km/h (1 Bft)
14.02.2017 05:05 -6,9 °C -6,9 °C 93 % 1028,9 hPa 0,0 mm 0,0 km/h (0 Bft) W 270 ° 0 min 0,000 mm 0,0 UV-I 0 W/m² -7,8 °C -6,9 °C 1,6 km/h (1 Bft)
14.02.2017 05:06 -6,9 °C -6,9 °C 93 % 1028,8 hPa 0,0 mm 0,0 km/h (0 Bft) N 0 ° 0 min 0,000 mm 0,0 UV-I 0 W/m² -7,8 °C -6,9 °C 0,0 km/h (0 Bft)
14.02.2017 05:07 -6,9 °C -6,9 °C 93 % 1028,9 hPa 0,0 mm 0,0 km/h (0 Bft) W 270 ° 0 min 0,000 mm 0,0 UV-I 0 W/m² -7,8 °C -6,9 °C 1,6 km/h (1 Bft)
14.02.2017 05:08 -6,9 °C -6,9 °C 93 % 1028,9 hPa 0,0 mm 1,6 km/h (1 Bft) W 270 ° 0 min 0,000 mm 0,0 UV-I 0 W/m² -7,8 °C -6,9 °C 3,2 km/h (1 Bft)
14.02.2017 05:09 -7,0 °C -6,9 °C 93 % 1028,9 hPa 0,0 mm 1,6 km/h (1 Bft) S 180 ° 0 min 0,000 mm 0,0 UV-I 0 W/m² -7,9 °C -7,0 °C 3,2 km/h (1 Bft)
14.02.2017 05:10 -7,0 °C -6,9 °C 93 % 1028,9 hPa 0,0 mm 1,6 km/h (1 Bft) S 180 ° 0 min 0,000 mm 0,0 UV-I 0 W/m² -7,9 °C -7,0 °C 3,2 km/h (1 Bft)
14.02.2017 05:11 -6,9 °C -6,9 °C 93 % 1028,9 hPa 0,0 mm 1,6 km/h (1 Bft) S 180 ° 0 min 0,000 mm 0,0 UV-I 0 W/m² -7,8 °C -6,9 °C 3,2 km/h (1 Bft)
14.02.2017 05:12 -7,0 °C -6,9 °C 93 % 1028,9 hPa 0,0 mm 1,6 km/h (1 Bft) S 180 ° 0 min 0,000 mm 0,0 UV-I 0 W/m² -7,9 °C -7,0 °C 1,6 km/h (1 Bft)
14.02.2017 05:13 -7,0 °C -7,0 °C 93 % 1028,9 hPa 0,0 mm 1,6 km/h (1 Bft) S 180 ° 0 min 0,000 mm 0,0 UV-I 0 W/m² -7,9 °C -7,0 °C 1,6 km/h (1 Bft)
14.02.2017 05:14 -7,0 °C -7,0 °C 93 % 1028,9 hPa 0,0 mm 0,0 km/h (0 Bft) S 180 ° 0 min 0,000 mm 0,0 UV-I 0 W/m² -7,9 °C -7,0 °C 1,6 km/h (1 Bft)
14.02.2017 05:15 -7,0 °C -7,0 °C 93 % 1028,9 hPa 0,0 mm 0,0 km/h (0 Bft) N 0 ° 0 min 0,000 mm 0,0 UV-I 0 W/m² -7,9 °C -7,0 °C 0,0 km/h (0 Bft)
14.02.2017 05:16 -7,0 °C -7,0 °C 93 % 1028,9 hPa 0,0 mm 0,0 km/h (0 Bft) N 0 ° 0 min 0,000 mm 0,0 UV-I 0 W/m² -7,9 °C -7,0 °C 0,0 km/h (0 Bft)
14.02.2017 05:17 -7,0 °C -7,0 °C 93 % 1029,0 hPa 0,0 mm 0,0 km/h (0 Bft) N 0 ° 0 min 0,000 mm 0,0 UV-I 0 W/m² -7,9 °C -7,0 °C 0,0 km/h (0 Bft)
14.02.2017 05:18 -7,0 °C -7,0 °C 93 % 1029,0 hPa 0,0 mm 0,0 km/h (0 Bft) N 0 ° 0 min 0,000 mm 0,0 UV-I 0 W/m² -7,9 °C -7,0 °C 0,0 km/h (0 Bft)
14.02.2017 05:19 -7,1 °C -7,0 °C 93 % 1029,0 hPa 0,0 mm 0,0 km/h (0 Bft) N 0 ° 0 min 0,000 mm 0,0 UV-I 0 W/m² -8,0 °C -7,1 °C 0,0 km/h (0 Bft)
14.02.2017 05:20 -7,1 °C -7,1 °C 93 % 1029,0 hPa 0,0 mm 0,0 km/h (0 Bft) N 0 ° 0 min 0,000 mm 0,0 UV-I 0 W/m² -8,0 °C -7,1 °C 0,0 km/h (0 Bft)
14.02.2017 05:21 -7,1 °C -7,1 °C 93 % 1028,9 hPa 0,0 mm 0,0 km/h (0 Bft) N 0 ° 0 min 0,000 mm 0,0 UV-I 0 W/m² -8,0 °C -7,1 °C 0,0 km/h (0 Bft)
14.02.2017 05:22 -7,1 °C -7,1 °C 93 % 1028,9 hPa 0,0 mm 0,0 km/h (0 Bft) N 0 ° 0 min 0,000 mm 0,0 UV-I 0 W/m² -8,0 °C -7,1 °C 0,0 km/h (0 Bft)
14.02.2017 05:23 -7,1 °C -7,1 °C 93 % 1029,0 hPa 0,0 mm 0,0 km/h (0 Bft) N 0 ° 0 min 0,000 mm 0,0 UV-I 0 W/m² -8,0 °C -7,1 °C 0,0 km/h (0 Bft)
14.02.2017 05:24 -7,1 °C -7,1 °C 93 % 1029,0 hPa 0,0 mm 0,0 km/h (0 Bft) N 0 ° 0 min 0,000 mm 0,0 UV-I 0 W/m² -8,0 °C -7,1 °C 0,0 km/h (0 Bft)
14.02.2017 05:25 -7,1 °C -7,1 °C 93 % 1029,0 hPa 0,0 mm 0,0 km/h (0 Bft) N 0 ° 0 min 0,000 mm 0,0 UV-I 0 W/m² -8,0 °C -7,1 °C 0,0 km/h (0 Bft)
14.02.2017 05:26 -7,1 °C -7,1 °C 93 % 1029,0 hPa 0,0 mm 0,0 km/h (0 Bft) N 0 ° 0 min 0,000 mm 0,0 UV-I 0 W/m² -8,0 °C -7,1 °C 0,0 km/h (0 Bft)
14.02.2017 05:27 -7,1 °C -7,1 °C 93 % 1029,0 hPa 0,0 mm 0,0 km/h (0 Bft) N 0 ° 0 min 0,000 mm 0,0 UV-I 0 W/m² -8,0 °C -7,1 °C 0,0 km/h (0 Bft)
14.02.2017 05:28 -7,1 °C -7,1 °C 93 % 1029,0 hPa 0,0 mm 0,0 km/h (0 Bft) N 0 ° 0 min 0,000 mm 0,0 UV-I 0 W/m² -8,0 °C -7,1 °C 0,0 km/h (0 Bft)
14.02.2017 05:29 -7,1 °C -7,1 °C 93 % 1029,0 hPa 0,0 mm 0,0 km/h (0 Bft) N 0 ° 0 min 0,000 mm 0,0 UV-I 0 W/m² -8,0 °C -7,1 °C 0,0 km/h (0 Bft)
14.02.2017 05:30 -7,1 °C -7,1 °C 93 % 1029,0 hPa 0,0 mm 0,0 km/h (0 Bft) N 0 ° 0 min 0,000 mm 0,0 UV-I 0 W/m² -8,0 °C -7,1 °C 0,0 km/h (0 Bft)
14.02.2017 05:31 -7,1 °C -7,1 °C 93 % 1029,0 hPa 0,0 mm 0,0 km/h (0 Bft) N 0 ° 0 min 0,000 mm 0,0 UV-I 0 W/m² -8,0 °C -7,1 °C 0,0 km/h (0 Bft)
14.02.2017 05:32 -7,1 °C -7,1 °C 93 % 1029,1 hPa 0,0 mm 0,0 km/h (0 Bft) N 0 ° 0 min 0,000 mm 0,0 UV-I 0 W/m² -8,0 °C -7,1 °C 0,0 km/h (0 Bft)
14.02.2017 05:33 -7,2 °C -7,1 °C 93 % 1029,1 hPa 0,0 mm 0,0 km/h (0 Bft) N 0 ° 0 min 0,000 mm 0,0 UV-I 0 W/m² -8,1 °C -7,2 °C 0,0 km/h (0 Bft)
14.02.2017 05:34 -7,2 °C -7,2 °C 93 % 1029,1 hPa 0,0 mm 0,0 km/h (0 Bft) N 0 ° 0 min 0,000 mm 0,0 UV-I 0 W/m² -8,1 °C -7,2 °C 0,0 km/h (0 Bft)
14.02.2017 05:35 -7,2 °C -7,2 °C 93 % 1029,1 hPa 0,0 mm 0,0 km/h (0 Bft) N 0 ° 0 min 0,000 mm 0,0 UV-I 0 W/m² -8,1 °C -7,2 °C 0,0 km/h (0 Bft)
14.02.2017 05:36 -7,2 °C -7,2 °C 93 % 1029,1 hPa 0,0 mm 0,0 km/h (0 Bft) N 0 ° 0 min 0,000 mm 0,0 UV-I 0 W/m² -8,1 °C -7,2 °C 0,0 km/h (0 Bft)
14.02.2017 05:37 -7,2 °C -7,2 °C 93 % 1029,1 hPa 0,0 mm 0,0 km/h (0 Bft) N 0 ° 0 min 0,000 mm 0,0 UV-I 0 W/m² -8,1 °C -7,2 °C 0,0 km/h (0 Bft)
14.02.2017 05:38 -7,2 °C -7,2 °C 93 % 1029,2 hPa 0,0 mm 0,0 km/h (0 Bft) N 0 ° 0 min 0,000 mm 0,0 UV-I 0 W/m² -8,1 °C -7,2 °C 0,0 km/h (0 Bft)
14.02.2017 05:39 -7,2 °C -7,2 °C 93 % 1029,1 hPa 0,0 mm 0,0 km/h (0 Bft) N 0 ° 0 min 0,000 mm 0,0 UV-I 0 W/m² -8,1 °C -7,2 °C 0,0 km/h (0 Bft)
14.02.2017 05:40 -7,2 °C -7,2 °C 93 % 1029,2 hPa 0,0 mm 0,0 km/h (0 Bft) N 0 ° 0 min 0,000 mm 0,0 UV-I 0 W/m² -8,1 °C -7,2 °C 0,0 km/h (0 Bft)
14.02.2017 05:41 -7,2 °C -7,2 °C 93 % 1029,1 hPa 0,0 mm 0,0 km/h (0 Bft) N 0 ° 0 min 0,000 mm 0,0 UV-I 0 W/m² -8,1 °C -7,2 °C 0,0 km/h (0 Bft)
14.02.2017 05:42 -7,3 °C -7,2 °C 93 % 1029,1 hPa 0,0 mm 0,0 km/h (0 Bft) N 0 ° 0 min 0,000 mm 0,0 UV-I 0 W/m² -8,2 °C -7,3 °C 0,0 km/h (0 Bft)
14.02.2017 05:43 -7,3 °C -7,2 °C 93 % 1029,1 hPa 0,0 mm 0,0 km/h (0 Bft) N 0 ° 0 min 0,000 mm 0,0 UV-I 0 W/m² -8,2 °C -7,3 °C 0,0 km/h (0 Bft)
14.02.2017 05:44 -7,3 °C -7,2 °C 93 % 1029,1 hPa 0,0 mm 0,0 km/h (0 Bft) N 0 ° 0 min 0,000 mm 0,0 UV-I 0 W/m² -8,2 °C -7,3 °C 0,0 km/h (0 Bft)
14.02.2017 05:45 -7,3 °C -7,3 °C 93 % 1029,1 hPa 0,0 mm 0,0 km/h (0 Bft) N 0 ° 0 min 0,000 mm 0,0 UV-I 0 W/m² -8,2 °C -7,3 °C 0,0 km/h (0 Bft)
14.02.2017 05:46 -7,3 °C -7,3 °C 93 % 1029,1 hPa 0,0 mm 0,0 km/h (0 Bft) S 180 ° 0 min 0,000 mm 0,0 UV-I 0 W/m² -8,2 °C -7,3 °C 1,6 km/h (1 Bft)
14.02.2017 05:47 -7,3 °C -7,3 °C 93 % 1029,1 hPa 0,0 mm 1,6 km/h (1 Bft) S 180 ° 0 min 0,000 mm 0,0 UV-I 0 W/m² -8,2 °C -7,3 °C 1,6 km/h (1 Bft)
14.02.2017 05:48 -7,3 °C -7,3 °C 93 % 1029,1 hPa 0,0 mm 0,0 km/h (0 Bft) S 180 ° 0 min 0,000 mm 0,0 UV-I 0 W/m² -8,2 °C -7,3 °C 1,6 km/h (1 Bft)
14.02.2017 05:49 -7,3 °C -7,3 °C 93 % 1029,1 hPa 0,0 mm 0,0 km/h (0 Bft) S 180 ° 0 min 0,000 mm 0,0 UV-I 0 W/m² -8,2 °C -7,3 °C 1,6 km/h (1 Bft)
14.02.2017 05:50 -7,3 °C -7,3 °C 93 % 1029,1 hPa 0,0 mm 0,0 km/h (0 Bft) N 0 ° 0 min 0,000 mm 0,0 UV-I 0 W/m² -8,2 °C -7,3 °C 0,0 km/h (0 Bft)
14.02.2017 05:51 -7,3 °C -7,3 °C 93 % 1029,1 hPa 0,0 mm 0,0 km/h (0 Bft) N 0 ° 0 min 0,000 mm 0,0 UV-I 0 W/m² -8,2 °C -7,3 °C 0,0 km/h (0 Bft)
14.02.2017 05:52 -7,3 °C -7,3 °C 93 % 1029,1 hPa 0,0 mm 0,0 km/h (0 Bft) N 0 ° 0 min 0,000 mm 0,0 UV-I 0 W/m² -8,2 °C -7,3 °C 0,0 km/h (0 Bft)
14.02.2017 05:53 -7,3 °C -7,3 °C 93 % 1029,1 hPa 0,0 mm 0,0 km/h (0 Bft) N 0 ° 0 min 0,000 mm 0,0 UV-I 0 W/m² -8,2 °C -7,3 °C 0,0 km/h (0 Bft)
14.02.2017 05:54 -7,3 °C -7,3 °C 93 % 1029,2 hPa 0,0 mm 0,0 km/h (0 Bft) N 0 ° 0 min 0,000 mm 0,0 UV-I 0 W/m² -8,2 °C -7,3 °C 0,0 km/h (0 Bft)
14.02.2017 05:55 -7,3 °C -7,3 °C 93 % 1029,1 hPa 0,0 mm 0,0 km/h (0 Bft) N 0 ° 0 min 0,000 mm 0,0 UV-I 0 W/m² -8,2 °C -7,3 °C 0,0 km/h (0 Bft)
14.02.2017 05:56 -7,3 °C -7,3 °C 93 % 1029,2 hPa 0,0 mm 0,0 km/h (0 Bft) N 0 ° 0 min 0,000 mm 0,0 UV-I 0 W/m² -8,2 °C -7,3 °C 0,0 km/h (0 Bft)
14.02.2017 05:57 -7,3 °C -7,3 °C 93 % 1029,2 hPa 0,0 mm 0,0 km/h (0 Bft) N 0 ° 0 min 0,000 mm 0,0 UV-I 0 W/m² -8,2 °C -7,3 °C 0,0 km/h (0 Bft)
14.02.2017 05:58 -7,3 °C -7,3 °C 93 % 1029,2 hPa 0,0 mm 0,0 km/h (0 Bft) N 0 ° 0 min 0,000 mm 0,0 UV-I 0 W/m² -8,2 °C -7,3 °C 0,0 km/h (0 Bft)
14.02.2017 05:59 -7,3 °C -7,3 °C 93 % 1029,2 hPa 0,0 mm 0,0 km/h (0 Bft) N 0 ° 0 min 0,000 mm 0,0 UV-I 0 W/m² -8,2 °C -7,3 °C 0,0 km/h (0 Bft)
14.02.2017 06:00 -7,3 °C -7,3 °C 93 % 1029,2 hPa 0,0 mm 0,0 km/h (0 Bft) N 0 ° 0 min 0,000 mm 0,0 UV-I 0 W/m² -8,2 °C -7,3 °C 0,0 km/h (0 Bft)
14.02.2017 06:01 -7,3 °C -7,3 °C 93 % 1029,3 hPa 0,0 mm 0,0 km/h (0 Bft) S 180 ° 0 min 0,000 mm 0,0 UV-I 0 W/m² -8,2 °C -7,3 °C 1,6 km/h (1 Bft)
14.02.2017 06:02 -7,3 °C -7,3 °C 93 % 1029,3 hPa 0,0 mm 0,0 km/h (0 Bft) N 0 ° 0 min 0,000 mm 0,0 UV-I 0 W/m² -8,2 °C -7,3 °C 0,0 km/h (0 Bft)
14.02.2017 06:03 -7,3 °C -7,3 °C 93 % 1029,3 hPa 0,0 mm 0,0 km/h (0 Bft) N 0 ° 0 min 0,000 mm 0,0 UV-I 0 W/m² -8,2 °C -7,3 °C 0,0 km/h (0 Bft)
14.02.2017 06:04 -7,3 °C -7,3 °C 93 % 1029,3 hPa 0,0 mm 0,0 km/h (0 Bft) N 0 ° 0 min 0,000 mm 0,0 UV-I 0 W/m² -8,2 °C -7,3 °C 0,0 km/h (0 Bft)
14.02.2017 06:05 -7,4 °C -7,3 °C 93 % 1029,3 hPa 0,0 mm 0,0 km/h (0 Bft) N 0 ° 0 min 0,000 mm 0,0 UV-I 0 W/m² -8,3 °C -7,4 °C 0,0 km/h (0 Bft)
14.02.2017 06:06 -7,3 °C -7,3 °C 93 % 1029,3 hPa 0,0 mm 0,0 km/h (0 Bft) N 0 ° 0 min 0,000 mm 0,0 UV-I 0 W/m² -8,2 °C -7,3 °C 0,0 km/h (0 Bft)
14.02.2017 06:07 -7,3 °C -7,3 °C 93 % 1029,3 hPa 0,0 mm 0,0 km/h (0 Bft) N 0 ° 0 min 0,000 mm 0,0 UV-I 0 W/m² -8,2 °C -7,3 °C 0,0 km/h (0 Bft)
14.02.2017 06:08 -7,3 °C -7,3 °C 93 % 1029,3 hPa 0,0 mm 0,0 km/h (0 Bft) N 0 ° 0 min 0,000 mm 0,0 UV-I 0 W/m² -8,2 °C -7,3 °C 0,0 km/h (0 Bft)
14.02.2017 06:09 -7,4 °C -7,3 °C 93 % 1029,3 hPa 0,0 mm 0,0 km/h (0 Bft) N 0 ° 0 min 0,000 mm 0,0 UV-I 0 W/m² -8,3 °C -7,4 °C 0,0 km/h (0 Bft)
14.02.2017 06:10 -7,3 °C -7,3 °C 93 % 1029,3 hPa 0,0 mm 0,0 km/h (0 Bft) N 0 ° 0 min 0,000 mm 0,0 UV-I 0 W/m² -8,2 °C -7,3 °C 0,0 km/h (0 Bft)
14.02.2017 06:11 -7,4 °C -7,4 °C 93 % 1029,3 hPa 0,0 mm 0,0 km/h (0 Bft) N 0 ° 0 min 0,000 mm 0,0 UV-I 0 W/m² -8,3 °C -7,4 °C 0,0 km/h (0 Bft)
14.02.2017 06:12 -7,4 °C -7,4 °C 93 % 1029,3 hPa 0,0 mm 0,0 km/h (0 Bft) N 0 ° 0 min 0,000 mm 0,0 UV-I 0 W/m² -8,3 °C -7,4 °C 0,0 km/h (0 Bft)
14.02.2017 06:13 -7,4 °C -7,4 °C 93 % 1029,3 hPa 0,0 mm 0,0 km/h (0 Bft) N 0 ° 0 min 0,000 mm 0,0 UV-I 0 W/m² -8,3 °C -7,4 °C 0,0 km/h (0 Bft)
14.02.2017 06:14 -7,4 °C -7,4 °C 93 % 1029,3 hPa 0,0 mm 0,0 km/h (0 Bft) N 0 ° 0 min 0,000 mm 0,0 UV-I 0 W/m² -8,3 °C -7,4 °C 0,0 km/h (0 Bft)
14.02.2017 06:15 -7,4 °C -7,4 °C 93 % 1029,3 hPa 0,0 mm 0,0 km/h (0 Bft) N 0 ° 0 min 0,000 mm 0,0 UV-I 0 W/m² -8,3 °C -7,4 °C 0,0 km/h (0 Bft)
14.02.2017 06:16 -7,4 °C -7,4 °C 93 % 1029,3 hPa 0,0 mm 0,0 km/h (0 Bft) N 0 ° 0 min 0,000 mm 0,0 UV-I 0 W/m² -8,3 °C -7,4 °C 0,0 km/h (0 Bft)
14.02.2017 06:17 -7,4 °C -7,4 °C 93 % 1029,3 hPa 0,0 mm 0,0 km/h (0 Bft) N 0 ° 0 min 0,000 mm 0,0 UV-I 0 W/m² -8,3 °C -7,4 °C 0,0 km/h (0 Bft)
14.02.2017 06:18 -7,4 °C -7,4 °C 93 % 1029,3 hPa 0,0 mm 0,0 km/h (0 Bft) N 0 ° 0 min 0,000 mm 0,0 UV-I 0 W/m² -8,3 °C -7,4 °C 0,0 km/h (0 Bft)
14.02.2017 06:19 -7,4 °C -7,4 °C 93 % 1029,3 hPa 0,0 mm 0,0 km/h (0 Bft) N 0 ° 0 min 0,000 mm 0,0 UV-I 0 W/m² -8,3 °C -7,4 °C 0,0 km/h (0 Bft)
14.02.2017 06:20 -7,4 °C -7,4 °C 93 % 1029,3 hPa 0,0 mm 0,0 km/h (0 Bft) N 0 ° 0 min 0,000 mm 0,0 UV-I 0 W/m² -8,3 °C -7,4 °C 0,0 km/h (0 Bft)
14.02.2017 06:21 -7,4 °C -7,4 °C 93 % 1029,3 hPa 0,0 mm 0,0 km/h (0 Bft) N 0 ° 0 min 0,000 mm 0,0 UV-I 0 W/m² -8,3 °C -7,4 °C 0,0 km/h (0 Bft)
14.02.2017 06:22 -7,4 °C -7,4 °C 93 % 1029,3 hPa 0,0 mm 0,0 km/h (0 Bft) N 0 ° 0 min 0,000 mm 0,0 UV-I 0 W/m² -8,3 °C -7,4 °C 0,0 km/h (0 Bft)
14.02.2017 06:23 -7,4 °C -7,4 °C 93 % 1029,3 hPa 0,0 mm 0,0 km/h (0 Bft) N 0 ° 0 min 0,000 mm 0,0 UV-I 0 W/m² -8,3 °C -7,4 °C 0,0 km/h (0 Bft)
14.02.2017 06:24 -7,4 °C -7,4 °C 93 % 1029,3 hPa 0,0 mm 0,0 km/h (0 Bft) N 0 ° 0 min 0,000 mm 0,0 UV-I 0 W/m² -8,3 °C -7,4 °C 0,0 km/h (0 Bft)
14.02.2017 06:25 -7,4 °C -7,4 °C 93 % 1029,3 hPa 0,0 mm 0,0 km/h (0 Bft) N 0 ° 0 min 0,000 mm 0,0 UV-I 0 W/m² -8,3 °C -7,4 °C 0,0 km/h (0 Bft)
14.02.2017 06:26 -7,4 °C -7,4 °C 93 % 1029,2 hPa 0,0 mm 0,0 km/h (0 Bft) N 0 ° 0 min 0,000 mm 0,0 UV-I 0 W/m² -8,3 °C -7,4 °C 0,0 km/h (0 Bft)
14.02.2017 06:27 -7,4 °C -7,4 °C 93 % 1029,3 hPa 0,0 mm 0,0 km/h (0 Bft) N 0 ° 0 min 0,000 mm 0,0 UV-I 0 W/m² -8,3 °C -7,4 °C 0,0 km/h (0 Bft)
14.02.2017 06:28 -7,4 °C -7,4 °C 93 % 1029,3 hPa 0,0 mm 0,0 km/h (0 Bft) N 0 ° 0 min 0,000 mm 0,0 UV-I 0 W/m² -8,3 °C -7,4 °C 0,0 km/h (0 Bft)
14.02.2017 06:29 -7,4 °C -7,4 °C 93 % 1029,3 hPa 0,0 mm 0,0 km/h (0 Bft) N 0 ° 0 min 0,000 mm 0,0 UV-I 0 W/m² -8,3 °C -7,4 °C 0,0 km/h (0 Bft)
14.02.2017 06:30 -7,4 °C -7,4 °C 93 % 1029,3 hPa 0,0 mm 0,0 km/h (0 Bft) N 0 ° 0 min 0,000 mm 0,0 UV-I 0 W/m² -8,3 °C -7,4 °C 0,0 km/h (0 Bft)
14.02.2017 06:31 -7,5 °C -7,4 °C 93 % 1029,3 hPa 0,0 mm 0,0 km/h (0 Bft) N 0 ° 0 min 0,000 mm 0,0 UV-I 0 W/m² -8,4 °C -7,5 °C 0,0 km/h (0 Bft)
14.02.2017 06:32 -7,4 °C -7,4 °C 93 % 1029,4 hPa 0,0 mm 0,0 km/h (0 Bft) N 0 ° 0 min 0,000 mm 0,0 UV-I 0 W/m² -8,3 °C -7,4 °C 0,0 km/h (0 Bft)
14.02.2017 06:33 -7,5 °C -7,4 °C 93 % 1029,3 hPa 0,0 mm 0,0 km/h (0 Bft) N 0 ° 0 min 0,000 mm 0,0 UV-I 0 W/m² -8,4 °C -7,5 °C 0,0 km/h (0 Bft)
14.02.2017 06:34 -7,4 °C -7,4 °C 93 % 1029,3 hPa 0,0 mm 0,0 km/h (0 Bft) N 0 ° 0 min 0,000 mm 0,0 UV-I 0 W/m² -8,3 °C -7,4 °C 0,0 km/h (0 Bft)
14.02.2017 06:35 -7,4 °C -7,4 °C 93 % 1029,3 hPa 0,0 mm 0,0 km/h (0 Bft) N 0 ° 0 min 0,000 mm 0,0 UV-I 0 W/m² -8,3 °C -7,4 °C 0,0 km/h (0 Bft)
14.02.2017 06:36 -7,4 °C -7,4 °C 93 % 1029,3 hPa 0,0 mm 0,0 km/h (0 Bft) N 0 ° 0 min 0,000 mm 0,0 UV-I 0 W/m² -8,3 °C -7,4 °C 0,0 km/h (0 Bft)
14.02.2017 06:37 -7,4 °C -7,4 °C 93 % 1029,3 hPa 0,0 mm 0,0 km/h (0 Bft) N 0 ° 0 min 0,000 mm 0,0 UV-I 0 W/m² -8,3 °C -7,4 °C 0,0 km/h (0 Bft)
14.02.2017 06:38 -7,5 °C -7,4 °C 93 % 1029,3 hPa 0,0 mm 0,0 km/h (0 Bft) N 0 ° 0 min 0,000 mm 0,0 UV-I 0 W/m² -8,4 °C -7,5 °C 0,0 km/h (0 Bft)
14.02.2017 06:39 -7,5 °C -7,5 °C 93 % 1029,3 hPa 0,0 mm 0,0 km/h (0 Bft) N 0 ° 0 min 0,000 mm 0,0 UV-I 0 W/m² -8,4 °C -7,5 °C 0,0 km/h (0 Bft)
14.02.2017 06:40 -7,4 °C -7,4 °C 93 % 1029,3 hPa 0,0 mm 0,0 km/h (0 Bft) N 0 ° 0 min 0,000 mm 0,0 UV-I 0 W/m² -8,3 °C -7,4 °C 0,0 km/h (0 Bft)
14.02.2017 06:41 -7,5 °C -7,4 °C 93 % 1029,4 hPa 0,0 mm 0,0 km/h (0 Bft) N 0 ° 0 min 0,000 mm 0,0 UV-I 0 W/m² -8,4 °C -7,5 °C 0,0 km/h (0 Bft)
14.02.2017 06:42 -7,5 °C -7,5 °C 93 % 1029,4 hPa 0,0 mm 0,0 km/h (0 Bft) N 0 ° 0 min 0,000 mm 0,0 UV-I 0 W/m² -8,4 °C -7,5 °C 0,0 km/h (0 Bft)
14.02.2017 06:43 -7,5 °C -7,4 °C 93 % 1029,4 hPa 0,0 mm 0,0 km/h (0 Bft) S 180 ° 0 min 0,000 mm 0,0 UV-I 0 W/m² -8,4 °C -7,5 °C 1,6 km/h (1 Bft)
14.02.2017 06:44 -7,5 °C -7,5 °C 93 % 1029,4 hPa 0,0 mm 1,6 km/h (1 Bft) S 180 ° 0 min 0,000 mm 0,0 UV-I 0 W/m² -8,4 °C -7,5 °C 1,6 km/h (1 Bft)
14.02.2017 06:45 -7,5 °C -7,5 °C 93 % 1029,4 hPa 0,0 mm 1,6 km/h (1 Bft) S 180 ° 0 min 0,000 mm 0,0 UV-I 0 W/m² -8,4 °C -7,5 °C 3,2 km/h (1 Bft)
14.02.2017 06:46 -7,5 °C -7,5 °C 93 % 1029,5 hPa 0,0 mm 1,6 km/h (1 Bft) S 180 ° 0 min 0,000 mm 0,0 UV-I 0 W/m² -8,4 °C -7,5 °C 3,2 km/h (1 Bft)
14.02.2017 06:47 -7,6 °C -7,5 °C 93 % 1029,5 hPa 0,0 mm 1,6 km/h (1 Bft) S 180 ° 0 min 0,000 mm 0,0 UV-I 0 W/m² -8,5 °C -7,6 °C 1,6 km/h (1 Bft)
14.02.2017 06:48 -7,6 °C -7,5 °C 93 % 1029,5 hPa 0,0 mm 0,0 km/h (0 Bft) S 180 ° 0 min 0,000 mm 0,0 UV-I 0 W/m² -8,5 °C -7,6 °C 1,6 km/h (1 Bft)
14.02.2017 06:49 -7,6 °C -7,5 °C 93 % 1029,5 hPa 0,0 mm 0,0 km/h (0 Bft) S 180 ° 0 min 0,000 mm 0,0 UV-I 0 W/m² -8,5 °C -7,6 °C 1,6 km/h (1 Bft)
14.02.2017 06:50 -7,6 °C -7,6 °C 93 % 1029,5 hPa 0,0 mm 0,0 km/h (0 Bft) N 0 ° 0 min 0,000 mm 0,0 UV-I 0 W/m² -8,5 °C -7,6 °C 0,0 km/h (0 Bft)
14.02.2017 06:51 -7,6 °C -7,5 °C 93 % 1029,5 hPa 0,0 mm 0,0 km/h (0 Bft) N 0 ° 0 min 0,000 mm 0,0 UV-I 0 W/m² -8,5 °C -7,6 °C 0,0 km/h (0 Bft)
14.02.2017 06:52 -7,6 °C -7,6 °C 93 % 1029,5 hPa 0,0 mm 0,0 km/h (0 Bft) N 0 ° 0 min 0,000 mm 0,0 UV-I 0 W/m² -8,5 °C -7,6 °C 0,0 km/h (0 Bft)
14.02.2017 06:53 -7,6 °C -7,5 °C 93 % 1029,5 hPa 0,0 mm 0,0 km/h (0 Bft) N 0 ° 0 min 0,000 mm 0,0 UV-I 0 W/m² -8,5 °C -7,6 °C 0,0 km/h (0 Bft)
14.02.2017 06:54 -7,6 °C -7,6 °C 93 % 1029,5 hPa 0,0 mm 0,0 km/h (0 Bft) N 0 ° 0 min 0,000 mm 0,0 UV-I 0 W/m² -8,5 °C -7,6 °C 0,0 km/h (0 Bft)
14.02.2017 06:55 -7,5 °C -7,5 °C 93 % 1029,5 hPa 0,0 mm 0,0 km/h (0 Bft) N 0 ° 0 min 0,000 mm 0,0 UV-I 0 W/m² -8,4 °C -7,5 °C 0,0 km/h (0 Bft)
14.02.2017 06:56 -7,5 °C -7,5 °C 93 % 1029,5 hPa 0,0 mm 0,0 km/h (0 Bft) N 0 ° 0 min 0,000 mm 0,0 UV-I 0 W/m² -8,4 °C -7,5 °C 0,0 km/h (0 Bft)
14.02.2017 06:57 -7,5 °C -7,5 °C 93 % 1029,5 hPa 0,0 mm 0,0 km/h (0 Bft) N 0 ° 0 min 0,000 mm 0,0 UV-I 0 W/m² -8,4 °C -7,5 °C 0,0 km/h (0 Bft)
14.02.2017 06:58 -7,5 °C -7,5 °C 93 % 1029,5 hPa 0,0 mm 0,0 km/h (0 Bft) N 0 ° 0 min 0,000 mm 0,0 UV-I 0 W/m² -8,4 °C -7,5 °C 0,0 km/h (0 Bft)
14.02.2017 06:59 -7,4 °C -7,4 °C 93 % 1029,4 hPa 0,0 mm 0,0 km/h (0 Bft) N 0 ° 0 min 0,000 mm 0,0 UV-I 0 W/m² -8,3 °C -7,4 °C 0,0 km/h (0 Bft)
14.02.2017 07:00 -7,5 °C -7,4 °C 93 % 1029,5 hPa 0,0 mm 0,0 km/h (0 Bft) N 0 ° 0 min 0,000 mm 0,0 UV-I 0 W/m² -8,4 °C -7,5 °C 0,0 km/h (0 Bft)
14.02.2017 07:01 -7,4 °C -7,4 °C 93 % 1029,5 hPa 0,0 mm 0,0 km/h (0 Bft) N 0 ° 0 min 0,000 mm 0,0 UV-I 0 W/m² -8,3 °C -7,4 °C 0,0 km/h (0 Bft)
14.02.2017 07:02 -7,4 °C -7,4 °C 93 % 1029,5 hPa 0,0 mm 0,0 km/h (0 Bft) N 0 ° 0 min 0,000 mm 0,0 UV-I 0 W/m² -8,3 °C -7,4 °C 0,0 km/h (0 Bft)
14.02.2017 07:03 -7,4 °C -7,4 °C 93 % 1029,6 hPa 0,0 mm 0,0 km/h (0 Bft) N 0 ° 0 min 0,000 mm 0,0 UV-I 0 W/m² -8,3 °C -7,4 °C 0,0 km/h (0 Bft)
14.02.2017 07:04 -7,4 °C -7,4 °C 93 % 1029,6 hPa 0,0 mm 0,0 km/h (0 Bft) N 0 ° 0 min 0,000 mm 0,0 UV-I 0 W/m² -8,3 °C -7,4 °C 0,0 km/h (0 Bft)
14.02.2017 07:05 -7,4 °C -7,4 °C 93 % 1029,6 hPa 0,0 mm 0,0 km/h (0 Bft) N 0 ° 0 min 0,000 mm 0,0 UV-I 0 W/m² -8,3 °C -7,4 °C 0,0 km/h (0 Bft)
14.02.2017 07:06 -7,4 °C -7,4 °C 93 % 1029,6 hPa 0,0 mm 0,0 km/h (0 Bft) N 0 ° 0 min 0,000 mm 0,0 UV-I 0 W/m² -8,3 °C -7,4 °C 0,0 km/h (0 Bft)
14.02.2017 07:07 -7,4 °C -7,4 °C 93 % 1029,6 hPa 0,0 mm 0,0 km/h (0 Bft) N 0 ° 0 min 0,000 mm 0,0 UV-I 0 W/m² -8,3 °C -7,4 °C 0,0 km/h (0 Bft)
14.02.2017 07:08 -7,4 °C -7,4 °C 93 % 1029,7 hPa 0,0 mm 0,0 km/h (0 Bft) N 0 ° 0 min 0,000 mm 0,0 UV-I 0 W/m² -8,3 °C -7,4 °C 0,0 km/h (0 Bft)
14.02.2017 07:09 -7,4 °C -7,4 °C 93 % 1029,7 hPa 0,0 mm 0,0 km/h (0 Bft) N 0 ° 0 min 0,000 mm 0,0 UV-I 0 W/m² -8,3 °C -7,4 °C 0,0 km/h (0 Bft)
14.02.2017 07:10 -7,4 °C -7,4 °C 93 % 1029,8 hPa 0,0 mm 0,0 km/h (0 Bft) N 0 ° 0 min 0,000 mm 0,0 UV-I 0 W/m² -8,3 °C -7,4 °C 0,0 km/h (0 Bft)
14.02.2017 07:11 -7,4 °C -7,4 °C 93 % 1029,8 hPa 0,0 mm 0,0 km/h (0 Bft) N 0 ° 0 min 0,000 mm 0,0 UV-I 0 W/m² -8,3 °C -7,4 °C 0,0 km/h (0 Bft)
14.02.2017 07:12 -7,4 °C -7,4 °C 93 % 1029,8 hPa 0,0 mm 0,0 km/h (0 Bft) N 0 ° 0 min 0,000 mm 0,0 UV-I 0 W/m² -8,3 °C -7,4 °C 0,0 km/h (0 Bft)
14.02.2017 07:13 -7,4 °C -7,4 °C 93 % 1029,8 hPa 0,0 mm 0,0 km/h (0 Bft) N 0 ° 0 min 0,000 mm 0,0 UV-I 0 W/m² -8,3 °C -7,4 °C 0,0 km/h (0 Bft)
14.02.2017 07:14 -7,4 °C -7,4 °C 93 % 1029,8 hPa 0,0 mm 0,0 km/h (0 Bft) N 0 ° 0 min 0,000 mm 0,0 UV-I 0 W/m² -8,3 °C -7,4 °C 0,0 km/h (0 Bft)
14.02.2017 07:15 -7,4 °C -7,4 °C 93 % 1029,8 hPa 0,0 mm 0,0 km/h (0 Bft) N 0 ° 0 min 0,000 mm 0,0 UV-I 0 W/m² -8,3 °C -7,4 °C 0,0 km/h (0 Bft)
14.02.2017 07:16 -7,4 °C -7,4 °C 93 % 1029,8 hPa 0,0 mm 0,0 km/h (0 Bft) N 0 ° 0 min 0,000 mm 0,0 UV-I 0 W/m² -8,3 °C -7,4 °C 0,0 km/h (0 Bft)
14.02.2017 07:17 -7,4 °C -7,4 °C 93 % 1029,9 hPa 0,0 mm 0,0 km/h (0 Bft) N 0 ° 0 min 0,000 mm 0,0 UV-I 0 W/m² -8,3 °C -7,4 °C 0,0 km/h (0 Bft)
14.02.2017 07:18 -7,4 °C -7,4 °C 93 % 1029,9 hPa 0,0 mm 0,0 km/h (0 Bft) N 0 ° 0 min 0,000 mm 0,0 UV-I 0 W/m² -8,3 °C -7,4 °C 0,0 km/h (0 Bft)
14.02.2017 07:19 -7,4 °C -7,4 °C 93 % 1030,0 hPa 0,0 mm 0,0 km/h (0 Bft) N 0 ° 0 min 0,000 mm 0,0 UV-I 0 W/m² -8,3 °C -7,4 °C 0,0 km/h (0 Bft)
14.02.2017 07:20 -7,4 °C -7,4 °C 93 % 1030,0 hPa 0,0 mm 0,0 km/h (0 Bft) N 0 ° 0 min 0,000 mm 0,0 UV-I 0 W/m² -8,3 °C -7,4 °C 0,0 km/h (0 Bft)
14.02.2017 07:21 -7,4 °C -7,4 °C 93 % 1030,0 hPa 0,0 mm 0,0 km/h (0 Bft) N 0 ° 0 min 0,000 mm 0,0 UV-I 0 W/m² -8,3 °C -7,4 °C 0,0 km/h (0 Bft)
14.02.2017 07:22 -7,4 °C -7,4 °C 93 % 1030,0 hPa 0,0 mm 0,0 km/h (0 Bft) N 0 ° 0 min 0,000 mm 0,0 UV-I 0 W/m² -8,3 °C -7,4 °C 0,0 km/h (0 Bft)
14.02.2017 07:23 -7,4 °C -7,4 °C 93 % 1030,1 hPa 0,0 mm 0,0 km/h (0 Bft) N 0 ° 0 min 0,000 mm 0,0 UV-I 0 W/m² -8,3 °C -7,4 °C 0,0 km/h (0 Bft)
14.02.2017 07:24 -7,4 °C -7,4 °C 93 % 1030,1 hPa 0,0 mm 0,0 km/h (0 Bft) N 0 ° 0 min 0,000 mm 0,0 UV-I 0 W/m² -8,3 °C -7,4 °C 0,0 km/h (0 Bft)
14.02.2017 07:25 -7,4 °C -7,4 °C 93 % 1030,2 hPa 0,0 mm 0,0 km/h (0 Bft) N 0 ° 0 min 0,000 mm 0,0 UV-I 5 W/m² -8,3 °C -7,4 °C 0,0 km/h (0 Bft)
14.02.2017 07:26 -7,4 °C -7,4 °C 93 % 1030,2 hPa 0,0 mm 0,0 km/h (0 Bft) N 0 ° 0 min 0,000 mm 0,0 UV-I 5 W/m² -8,3 °C -7,4 °C 0,0 km/h (0 Bft)
14.02.2017 07:27 -7,4 °C -7,4 °C 93 % 1030,2 hPa 0,0 mm 0,0 km/h (0 Bft) N 0 ° 0 min 0,000 mm 0,0 UV-I 5 W/m² -8,3 °C -7,4 °C 0,0 km/h (0 Bft)
14.02.2017 07:28 -7,4 °C -7,4 °C 93 % 1030,2 hPa 0,0 mm 0,0 km/h (0 Bft) N 0 ° 0 min 0,000 mm 0,0 UV-I 5 W/m² -8,3 °C -7,4 °C 0,0 km/h (0 Bft)
14.02.2017 07:29 -7,4 °C -7,4 °C 93 % 1030,3 hPa 0,0 mm 0,0 km/h (0 Bft) N 0 ° 0 min 0,000 mm 0,0 UV-I 5 W/m² -8,3 °C -7,4 °C 0,0 km/h (0 Bft)
14.02.2017 07:30 -7,4 °C -7,4 °C 93 % 1030,3 hPa 0,0 mm 0,0 km/h (0 Bft) N 0 ° 0 min 0,000 mm 0,0 UV-I 5 W/m² -8,3 °C -7,4 °C 0,0 km/h (0 Bft)
14.02.2017 07:31 -7,4 °C -7,4 °C 93 % 1030,3 hPa 0,0 mm 0,0 km/h (0 Bft) N 0 ° 0 min 0,000 mm 0,0 UV-I 5 W/m² -8,3 °C -7,4 °C 0,0 km/h (0 Bft)
14.02.2017 07:32 -7,4 °C -7,4 °C 93 % 1030,3 hPa 0,0 mm 0,0 km/h (0 Bft) N 0 ° 0 min 0,000 mm 0,0 UV-I 7 W/m² -8,3 °C -7,4 °C 0,0 km/h (0 Bft)
14.02.2017 07:33 -7,4 °C -7,4 °C 93 % 1030,4 hPa 0,0 mm 0,0 km/h (0 Bft) N 0 ° 0 min 0,000 mm 0,0 UV-I 7 W/m² -8,3 °C -7,4 °C 0,0 km/h (0 Bft)
14.02.2017 07:34 -7,4 °C -7,4 °C 93 % 1030,3 hPa 0,0 mm 0,0 km/h (0 Bft) N 0 ° 0 min 0,000 mm 0,0 UV-I 7 W/m² -8,3 °C -7,4 °C 0,0 km/h (0 Bft)
14.02.2017 07:35 -7,4 °C -7,4 °C 93 % 1030,4 hPa 0,0 mm 0,0 km/h (0 Bft) N 0 ° 0 min 0,000 mm 0,0 UV-I 7 W/m² -8,3 °C -7,4 °C 0,0 km/h (0 Bft)
14.02.2017 07:36 -7,4 °C -7,4 °C 94 % 1030,3 hPa 0,0 mm 0,0 km/h (0 Bft) N 0 ° 0 min 0,000 mm 0,0 UV-I 7 W/m² -8,2 °C -7,4 °C 0,0 km/h (0 Bft)
14.02.2017 07:37 -7,3 °C -7,3 °C 94 % 1030,4 hPa 0,0 mm 0,0 km/h (0 Bft) N 0 ° 0 min 0,000 mm 0,0 UV-I 9 W/m² -8,1 °C -7,3 °C 0,0 km/h (0 Bft)
14.02.2017 07:38 -7,3 °C -7,3 °C 94 % 1030,4 hPa 0,0 mm 0,0 km/h (0 Bft) N 0 ° 0 min 0,000 mm 0,0 UV-I 9 W/m² -8,1 °C -7,3 °C 0,0 km/h (0 Bft)
14.02.2017 07:39 -7,3 °C -7,3 °C 94 % 1030,4 hPa 0,0 mm 0,0 km/h (0 Bft) N 0 ° 0 min 0,000 mm 0,0 UV-I 9 W/m² -8,1 °C -7,3 °C 0,0 km/h (0 Bft)
14.02.2017 07:40 -7,3 °C -7,3 °C 94 % 1030,5 hPa 0,0 mm 0,0 km/h (0 Bft) N 0 ° 0 min 0,000 mm 0,0 UV-I 9 W/m² -8,1 °C -7,3 °C 0,0 km/h (0 Bft)
14.02.2017 07:41 -7,3 °C -7,3 °C 94 % 1030,5 hPa 0,0 mm 0,0 km/h (0 Bft) N 0 ° 0 min 0,000 mm 0,0 UV-I 9 W/m² -8,1 °C -7,3 °C 0,0 km/h (0 Bft)
14.02.2017 07:43 -7,3 °C -7,3 °C 94 % 1030,5 hPa 0,0 mm 0,0 km/h (0 Bft) S 188 ° 0 min 0,000 mm 0,0 UV-I 11 W/m² -8,1 °C -7,3 °C 0,0 km/h (0 Bft)
14.02.2017 07:44 -7,3 °C -7,2 °C 94 % 1030,6 hPa 0,0 mm 0,0 km/h (0 Bft) S 188 ° 0 min 0,000 mm 0,0 UV-I 11 W/m² -8,1 °C -7,3 °C 0,0 km/h (0 Bft)
14.02.2017 07:45 -7,2 °C -7,2 °C 94 % 1030,6 hPa 0,0 mm 0,0 km/h (0 Bft) S 188 ° 0 min 0,000 mm 0,0 UV-I 11 W/m² -8,0 °C -7,2 °C 0,0 km/h (0 Bft)
14.02.2017 07:46 -7,2 °C -7,2 °C 94 % 1030,5 hPa 0,0 mm 0,0 km/h (0 Bft) S 188 ° 0 min 0,000 mm 0,0 UV-I 11 W/m² -8,0 °C -7,2 °C 0,0 km/h (0 Bft)
14.02.2017 07:47 -7,2 °C -7,2 °C 94 % 1030,6 hPa 0,0 mm 0,0 km/h (0 Bft) S 188 ° 0 min 0,000 mm 0,0 UV-I 11 W/m² -8,0 °C -7,2 °C 0,0 km/h (0 Bft)
14.02.2017 07:48 -7,2 °C -7,2 °C 94 % 1030,6 hPa 0,0 mm 0,0 km/h (0 Bft) S 188 ° 0 min 0,000 mm 0,0 UV-I 12 W/m² -8,0 °C -7,2 °C 0,0 km/h (0 Bft)
14.02.2017 07:49 -7,2 °C -7,2 °C 94 % 1030,6 hPa 0,0 mm 0,0 km/h (0 Bft) S 188 ° 0 min 0,000 mm 0,0 UV-I 12 W/m² -8,0 °C -7,2 °C 0,0 km/h (0 Bft)
14.02.2017 07:50 -7,2 °C -7,2 °C 94 % 1030,6 hPa 0,0 mm 0,0 km/h (0 Bft) S 188 ° 0 min 0,000 mm 0,0 UV-I 12 W/m² -8,0 °C -7,2 °C 0,0 km/h (0 Bft)
14.02.2017 07:51 -7,2 °C -7,2 °C 94 % 1030,6 hPa 0,0 mm 0,0 km/h (0 Bft) S 188 ° 0 min 0,000 mm 0,0 UV-I 12 W/m² -8,0 °C -7,2 °C 0,0 km/h (0 Bft)
14.02.2017 07:52 -7,2 °C -7,2 °C 94 % 1030,7 hPa 0,0 mm 0,0 km/h (0 Bft) S 188 ° 0 min 0,000 mm 0,0 UV-I 12 W/m² -8,0 °C -7,2 °C 0,0 km/h (0 Bft)
14.02.2017 07:53 -7,2 °C -7,2 °C 94 % 1030,6 hPa 0,0 mm 0,0 km/h (0 Bft) S 188 ° 0 min 0,000 mm 0,0 UV-I 12 W/m² -8,0 °C -7,2 °C 0,0 km/h (0 Bft)
14.02.2017 07:54 -7,2 °C -7,2 °C 94 % 1030,6 hPa 0,0 mm 0,0 km/h (0 Bft) S 188 ° 0 min 0,000 mm 0,0 UV-I 12 W/m² -8,0 °C -7,2 °C 0,0 km/h (0 Bft)
14.02.2017 07:55 -7,1 °C -7,1 °C 94 % 1030,6 hPa 0,0 mm 0,0 km/h (0 Bft) S 188 ° 0 min 0,000 mm 0,0 UV-I 12 W/m² -7,9 °C -7,1 °C 0,0 km/h (0 Bft)
14.02.2017 07:56 -7,1 °C -7,1 °C 94 % 1030,7 hPa 0,0 mm 0,0 km/h (0 Bft) S 188 ° 0 min 0,000 mm 0,0 UV-I 14 W/m² -7,9 °C -7,1 °C 0,0 km/h (0 Bft)
14.02.2017 07:57 -7,1 °C -7,1 °C 94 % 1030,7 hPa 0,0 mm 0,0 km/h (0 Bft) S 188 ° 0 min 0,000 mm 0,0 UV-I 14 W/m² -7,9 °C -7,1 °C 0,0 km/h (0 Bft)
14.02.2017 07:58 -7,1 °C -7,1 °C 94 % 1030,6 hPa 0,0 mm 0,0 km/h (0 Bft) S 188 ° 0 min 0,000 mm 0,0 UV-I 14 W/m² -7,9 °C -7,1 °C 0,0 km/h (0 Bft)
14.02.2017 07:59 -7,1 °C -7,1 °C 94 % 1030,6 hPa 0,0 mm 0,0 km/h (0 Bft) S 188 ° 0 min 0,000 mm 0,0 UV-I 14 W/m² -7,9 °C -7,1 °C 0,0 km/h (0 Bft)
14.02.2017 08:00 -7,1 °C -7,1 °C 94 % 1030,7 hPa 0,0 mm 0,0 km/h (0 Bft) S 188 ° 0 min 0,000 mm 0,0 UV-I 14 W/m² -7,9 °C -7,1 °C 0,0 km/h (0 Bft)
14.02.2017 08:01 -7,1 °C -7,1 °C 94 % 1030,7 hPa 0,0 mm 0,0 km/h (0 Bft) S 188 ° 0 min 0,000 mm 0,0 UV-I 14 W/m² -7,9 °C -7,1 °C 0,0 km/h (0 Bft)
14.02.2017 08:02 -7,1 °C -7,1 °C 94 % 1030,7 hPa 0,0 mm 0,0 km/h (0 Bft) S 188 ° 0 min 0,000 mm 0,0 UV-I 14 W/m² -7,9 °C -7,1 °C 0,0 km/h (0 Bft)
14.02.2017 08:03 -7,1 °C -7,1 °C 94 % 1030,7 hPa 0,0 mm 0,0 km/h (0 Bft) S 188 ° 0 min 0,000 mm 0,0 UV-I 14 W/m² -7,9 °C -7,1 °C 0,0 km/h (0 Bft)
14.02.2017 08:04 -7,1 °C -7,1 °C 94 % 1030,7 hPa 0,0 mm 0,0 km/h (0 Bft) S 188 ° 0 min 0,000 mm 0,0 UV-I 16 W/m² -7,9 °C -7,1 °C 0,0 km/h (0 Bft)
14.02.2017 08:05 -7,1 °C -7,1 °C 94 % 1030,8 hPa 0,0 mm 0,0 km/h (0 Bft) S 188 ° 0 min 0,000 mm 0,0 UV-I 16 W/m² -7,9 °C -7,1 °C 0,0 km/h (0 Bft)
14.02.2017 08:06 -7,0 °C -7,0 °C 94 % 1030,7 hPa 0,0 mm 0,0 km/h (0 Bft) S 188 ° 0 min 0,000 mm 0,0 UV-I 16 W/m² -7,8 °C -7,0 °C 0,0 km/h (0 Bft)
14.02.2017 08:07 -7,0 °C -7,0 °C 94 % 1030,7 hPa 0,0 mm 0,0 km/h (0 Bft) S 188 ° 0 min 0,000 mm 0,0 UV-I 16 W/m² -7,8 °C -7,0 °C 0,0 km/h (0 Bft)
14.02.2017 08:08 -7,0 °C -7,0 °C 94 % 1030,8 hPa 0,0 mm 0,0 km/h (0 Bft) S 188 ° 0 min 0,000 mm 0,0 UV-I 16 W/m² -7,8 °C -7,0 °C 0,0 km/h (0 Bft)
14.02.2017 08:09 -7,0 °C -7,0 °C 94 % 1030,8 hPa 0,0 mm 0,0 km/h (0 Bft) S 188 ° 0 min 0,000 mm 0,0 UV-I 16 W/m² -7,8 °C -7,0 °C 0,0 km/h (0 Bft)
14.02.2017 08:10 -7,0 °C -7,0 °C 94 % 1030,8 hPa 0,0 mm 0,0 km/h (0 Bft) S 188 ° 0 min 0,000 mm 0,0 UV-I 16 W/m² -7,8 °C -7,0 °C 0,0 km/h (0 Bft)
14.02.2017 08:11 -7,0 °C -7,0 °C 94 % 1030,7 hPa 0,0 mm 0,0 km/h (0 Bft) S 188 ° 0 min 0,000 mm 0,0 UV-I 16 W/m² -7,8 °C -7,0 °C 0,0 km/h (0 Bft)
14.02.2017 08:12 -7,0 °C -7,0 °C 94 % 1030,8 hPa 0,0 mm 0,0 km/h (0 Bft) S 188 ° 0 min 0,000 mm 0,0 UV-I 16 W/m² -7,8 °C -7,0 °C 0,0 km/h (0 Bft)
14.02.2017 08:13 -7,0 °C -6,9 °C 94 % 1030,8 hPa 0,0 mm 0,0 km/h (0 Bft) S 188 ° 0 min 0,000 mm 0,0 UV-I 16 W/m² -7,8 °C -7,0 °C 0,0 km/h (0 Bft)
14.02.2017 08:14 -7,0 °C -6,9 °C 94 % 1030,8 hPa 0,0 mm 0,0 km/h (0 Bft) S 188 ° 0 min 0,000 mm 0,0 UV-I 18 W/m² -7,8 °C -7,0 °C 0,0 km/h (0 Bft)
14.02.2017 08:15 -6,9 °C -6,9 °C 94 % 1030,8 hPa 0,0 mm 0,0 km/h (0 Bft) S 188 ° 0 min 0,000 mm 0,0 UV-I 18 W/m² -7,7 °C -6,9 °C 0,0 km/h (0 Bft)
14.02.2017 08:16 -6,9 °C -6,9 °C 94 % 1030,8 hPa 0,0 mm 0,0 km/h (0 Bft) S 188 ° 0 min 0,000 mm 0,0 UV-I 18 W/m² -7,7 °C -6,9 °C 0,0 km/h (0 Bft)
14.02.2017 08:17 -6,9 °C -6,9 °C 94 % 1030,8 hPa 0,0 mm 0,0 km/h (0 Bft) S 188 ° 0 min 0,000 mm 0,0 UV-I 18 W/m² -7,7 °C -6,9 °C 0,0 km/h (0 Bft)
14.02.2017 08:18 -6,9 °C -6,9 °C 94 % 1030,8 hPa 0,0 mm 0,1 km/h (0 Bft) S 188 ° 0 min 0,000 mm 0,0 UV-I 18 W/m² -7,7 °C -6,9 °C 1,6 km/h (1 Bft)
14.02.2017 08:19 -6,9 °C -6,9 °C 94 % 1030,8 hPa 0,0 mm 0,0 km/h (0 Bft) S 188 ° 0 min 0,000 mm 0,0 UV-I 18 W/m² -7,7 °C -6,9 °C 0,0 km/h (0 Bft)
14.02.2017 08:20 -6,9 °C -6,9 °C 94 % 1030,8 hPa 0,0 mm 0,0 km/h (0 Bft) S 188 ° 0 min 0,000 mm 0,0 UV-I 18 W/m² -7,7 °C -6,9 °C 0,0 km/h (0 Bft)
14.02.2017 08:21 -6,9 °C -6,9 °C 94 % 1030,9 hPa 0,0 mm 0,0 km/h (0 Bft) S 188 ° 0 min 0,000 mm 0,0 UV-I 18 W/m² -7,7 °C -6,9 °C 0,0 km/h (0 Bft)
14.02.2017 08:22 -6,9 °C -6,9 °C 94 % 1030,8 hPa 0,0 mm 0,2 km/h (0 Bft) S 188 ° 0 min 0,000 mm 0,0 UV-I 18 W/m² -7,7 °C -6,9 °C 1,6 km/h (1 Bft)
14.02.2017 08:23 -6,9 °C -6,9 °C 94 % 1031,0 hPa 0,0 mm 0,2 km/h (0 Bft) S 188 ° 0 min 0,000 mm 0,0 UV-I 19 W/m² -7,7 °C -6,9 °C 1,6 km/h (1 Bft)
14.02.2017 08:24 -6,9 °C -6,9 °C 94 % 1030,9 hPa 0,0 mm 0,0 km/h (0 Bft) S 188 ° 0 min 0,000 mm 0,0 UV-I 19 W/m² -7,7 °C -6,9 °C 0,0 km/h (0 Bft)
14.02.2017 08:25 -6,9 °C -6,9 °C 94 % 1030,8 hPa 0,0 mm 0,0 km/h (0 Bft) S 188 ° 0 min 0,000 mm 0,0 UV-I 19 W/m² -7,7 °C -6,9 °C 0,0 km/h (0 Bft)
14.02.2017 08:26 -6,8 °C -6,8 °C 94 % 1030,8 hPa 0,0 mm 0,0 km/h (0 Bft) S 188 ° 0 min 0,000 mm 0,0 UV-I 19 W/m² -7,6 °C -6,8 °C 0,0 km/h (0 Bft)
14.02.2017 08:27 -6,8 °C -6,8 °C 94 % 1030,9 hPa 0,0 mm 0,0 km/h (0 Bft) S 188 ° 0 min 0,000 mm 0,0 UV-I 19 W/m² -7,6 °C -6,8 °C 0,0 km/h (0 Bft)
14.02.2017 08:28 -6,8 °C -6,8 °C 94 % 1030,9 hPa 0,0 mm 0,1 km/h (0 Bft) S 188 ° 0 min 0,000 mm 0,0 UV-I 19 W/m² -7,6 °C -6,8 °C 1,6 km/h (1 Bft)
14.02.2017 08:29 -6,8 °C -6,8 °C 94 % 1030,9 hPa 0,0 mm 0,0 km/h (0 Bft) S 188 ° 0 min 0,000 mm 0,0 UV-I 19 W/m² -7,6 °C -6,8 °C 0,0 km/h (0 Bft)
14.02.2017 08:30 -6,8 °C -6,8 °C 94 % 1030,9 hPa 0,0 mm 0,0 km/h (0 Bft) S 188 ° 0 min 0,000 mm 0,0 UV-I 19 W/m² -7,6 °C -6,8 °C 0,0 km/h (0 Bft)
14.02.2017 08:31 -6,7 °C -6,7 °C 94 % 1030,9 hPa 0,0 mm 0,0 km/h (0 Bft) S 188 ° 0 min 0,000 mm 0,0 UV-I 19 W/m² -7,5 °C -6,7 °C 0,0 km/h (0 Bft)
14.02.2017 08:32 -6,7 °C -6,7 °C 94 % 1031,0 hPa 0,0 mm 0,0 km/h (0 Bft) S 188 ° 0 min 0,000 mm 0,0 UV-I 19 W/m² -7,5 °C -6,7 °C 0,0 km/h (0 Bft)
14.02.2017 08:33 -6,7 °C -6,7 °C 95 % 1030,9 hPa 0,0 mm 0,0 km/h (0 Bft) S 188 ° 0 min 0,000 mm 0,0 UV-I 19 W/m² -7,4 °C -6,7 °C 0,0 km/h (0 Bft)
14.02.2017 08:34 -6,6 °C -6,6 °C 95 % 1030,9 hPa 0,0 mm 0,0 km/h (0 Bft) S 188 ° 0 min 0,000 mm 0,0 UV-I 19 W/m² -7,3 °C -6,6 °C 0,0 km/h (0 Bft)
14.02.2017 08:35 -6,6 °C -6,6 °C 95 % 1030,9 hPa 0,0 mm 0,0 km/h (0 Bft) S 188 ° 0 min 0,000 mm 0,0 UV-I 19 W/m² -7,3 °C -6,6 °C 0,0 km/h (0 Bft)
14.02.2017 08:36 -6,6 °C -6,6 °C 94 % 1030,9 hPa 0,0 mm 0,0 km/h (0 Bft) S 188 ° 0 min 0,000 mm 0,0 UV-I 19 W/m² -7,4 °C -6,6 °C 0,0 km/h (0 Bft)
14.02.2017 08:37 -6,6 °C -6,6 °C 95 % 1030,9 hPa 0,0 mm 0,2 km/h (0 Bft) S 188 ° 0 min 0,000 mm 0,0 UV-I 21 W/m² -7,3 °C -6,6 °C 1,6 km/h (1 Bft)
14.02.2017 08:38 -6,6 °C -6,6 °C 95 % 1030,9 hPa 0,0 mm 0,9 km/h (0 Bft) S 188 ° 0 min 0,000 mm 0,0 UV-I 21 W/m² -7,3 °C -6,6 °C 1,6 km/h (1 Bft)
14.02.2017 08:39 -6,5 °C -6,5 °C 95 % 1030,9 hPa 0,0 mm 0,2 km/h (0 Bft) S 188 ° 0 min 0,000 mm 0,0 UV-I 21 W/m² -7,2 °C -6,5 °C 1,6 km/h (1 Bft)
14.02.2017 08:40 -6,4 °C -6,4 °C 95 % 1030,9 hPa 0,0 mm 0,0 km/h (0 Bft) S 188 ° 0 min 0,000 mm 0,0 UV-I 21 W/m² -7,1 °C -6,4 °C 0,0 km/h (0 Bft)
14.02.2017 08:41 -6,4 °C -6,4 °C 95 % 1031,0 hPa 0,0 mm 0,0 km/h (0 Bft) S 188 ° 0 min 0,000 mm 0,0 UV-I 21 W/m² -7,1 °C -6,4 °C 0,0 km/h (0 Bft)
14.02.2017 08:42 -6,4 °C -6,4 °C 95 % 1031,0 hPa 0,0 mm 0,4 km/h (0 Bft) S 188 ° 0 min 0,000 mm 0,0 UV-I 21 W/m² -7,1 °C -6,4 °C 1,6 km/h (1 Bft)
14.02.2017 08:43 -6,4 °C -6,4 °C 95 % 1031,0 hPa 0,0 mm 0,1 km/h (0 Bft) S 188 ° 0 min 0,000 mm 0,0 UV-I 21 W/m² -7,1 °C -6,4 °C 1,6 km/h (1 Bft)
14.02.2017 08:44 -6,4 °C -6,4 °C 95 % 1031,0 hPa 0,0 mm 0,0 km/h (0 Bft) S 188 ° 0 min 0,000 mm 0,0 UV-I 21 W/m² -7,1 °C -6,4 °C 0,0 km/h (0 Bft)
14.02.2017 08:45 -6,3 °C -6,3 °C 95 % 1031,0 hPa 0,0 mm 0,0 km/h (0 Bft) S 188 ° 0 min 0,000 mm 0,0 UV-I 21 W/m² -7,0 °C -6,3 °C 0,0 km/h (0 Bft)
14.02.2017 08:46 -6,3 °C -6,3 °C 95 % 1031,0 hPa 0,0 mm 0,0 km/h (0 Bft) S 188 ° 0 min 0,000 mm 0,0 UV-I 21 W/m² -7,0 °C -6,3 °C 0,0 km/h (0 Bft)
14.02.2017 08:47 -6,3 °C -6,3 °C 95 % 1031,0 hPa 0,0 mm 0,3 km/h (0 Bft) S 188 ° 0 min 0,000 mm 0,0 UV-I 21 W/m² -7,0 °C -6,3 °C 1,6 km/h (1 Bft)
14.02.2017 08:48 -6,2 °C -6,2 °C 95 % 1031,0 hPa 0,0 mm 0,5 km/h (0 Bft) S 188 ° 0 min 0,000 mm 0,0 UV-I 21 W/m² -6,9 °C -6,2 °C 1,6 km/h (1 Bft)
14.02.2017 08:49 -6,2 °C -6,2 °C 95 % 1031,0 hPa 0,0 mm 0,1 km/h (0 Bft) S 188 ° 0 min 0,000 mm 0,0 UV-I 21 W/m² -6,9 °C -6,2 °C 1,6 km/h (1 Bft)
14.02.2017 08:50 -6,2 °C -6,2 °C 95 % 1031,0 hPa 0,0 mm 0,0 km/h (0 Bft) S 188 ° 0 min 0,000 mm 0,0 UV-I 21 W/m² -6,9 °C -6,2 °C 0,0 km/h (0 Bft)
14.02.2017 08:51 -6,2 °C -6,2 °C 95 % 1031,0 hPa 0,0 mm 0,0 km/h (0 Bft) S 188 ° 0 min 0,000 mm 0,0 UV-I 21 W/m² -6,9 °C -6,2 °C 0,0 km/h (0 Bft)
14.02.2017 08:52 -6,1 °C -6,1 °C 95 % 1031,0 hPa 0,0 mm 0,7 km/h (0 Bft) S 188 ° 0 min 0,000 mm 0,0 UV-I 23 W/m² -6,8 °C -6,1 °C 1,6 km/h (1 Bft)
14.02.2017 08:53 -6,1 °C -6,1 °C 95 % 1031,0 hPa 0,0 mm 0,1 km/h (0 Bft) S 188 ° 0 min 0,000 mm 0,0 UV-I 23 W/m² -6,8 °C -6,1 °C 1,6 km/h (1 Bft)
14.02.2017 08:54 -6,1 °C -6,1 °C 95 % 1031,0 hPa 0,0 mm 0,0 km/h (0 Bft) S 188 ° 0 min 0,000 mm 0,0 UV-I 23 W/m² -6,8 °C -6,1 °C 0,0 km/h (0 Bft)
14.02.2017 08:55 -6,1 °C -6,1 °C 95 % 1031,0 hPa 0,0 mm 0,0 km/h (0 Bft) S 188 ° 0 min 0,000 mm 0,0 UV-I 23 W/m² -6,8 °C -6,1 °C 0,0 km/h (0 Bft)
14.02.2017 08:56 -6,0 °C -6,0 °C 95 % 1031,1 hPa 0,0 mm 0,0 km/h (0 Bft) S 188 ° 0 min 0,000 mm 0,0 UV-I 23 W/m² -6,7 °C -6,0 °C 0,0 km/h (0 Bft)
14.02.2017 08:57 -6,0 °C -6,0 °C 95 % 1031,1 hPa 0,0 mm 0,0 km/h (0 Bft) S 188 ° 0 min 0,000 mm 0,0 UV-I 23 W/m² -6,7 °C -6,0 °C 0,0 km/h (0 Bft)
14.02.2017 08:58 -5,9 °C -5,9 °C 95 % 1031,1 hPa 0,0 mm 0,1 km/h (0 Bft) S 188 ° 0 min 0,000 mm 0,0 UV-I 23 W/m² -6,6 °C -5,9 °C 1,6 km/h (1 Bft)
14.02.2017 08:59 -5,9 °C -5,9 °C 95 % 1031,2 hPa 0,0 mm 0,7 km/h (0 Bft) S 188 ° 0 min 0,000 mm 0,0 UV-I 23 W/m² -6,6 °C -5,9 °C 1,6 km/h (1 Bft)
14.02.2017 09:00 -5,8 °C -5,8 °C 95 % 1031,2 hPa 0,0 mm 0,4 km/h (0 Bft) S 188 ° 0 min 0,000 mm 0,0 UV-I 23 W/m² -6,5 °C -5,8 °C 1,6 km/h (1 Bft)
14.02.2017 09:01 -5,8 °C -5,8 °C 95 % 1031,2 hPa 0,0 mm 0,0 km/h (0 Bft) S 188 ° 0 min 0,000 mm 0,0 UV-I 23 W/m² -6,5 °C -5,8 °C 0,0 km/h (0 Bft)
14.02.2017 09:02 -5,8 °C -5,8 °C 95 % 1031,2 hPa 0,0 mm 0,0 km/h (0 Bft) S 188 ° 0 min 0,000 mm 0,0 UV-I 25 W/m² -6,5 °C -5,8 °C 0,0 km/h (0 Bft)
14.02.2017 09:03 -5,7 °C -5,7 °C 95 % 1031,2 hPa 0,0 mm 0,0 km/h (0 Bft) S 188 ° 0 min 0,000 mm 0,0 UV-I 25 W/m² -6,4 °C -5,7 °C 0,0 km/h (0 Bft)
14.02.2017 09:04 -5,7 °C -5,7 °C 95 % 1031,2 hPa 0,0 mm 0,0 km/h (0 Bft) S 188 ° 0 min 0,000 mm 0,0 UV-I 25 W/m² -6,4 °C -5,7 °C 0,0 km/h (0 Bft)
14.02.2017 09:05 -5,6 °C -5,6 °C 95 % 1031,2 hPa 0,0 mm 0,0 km/h (0 Bft) S 188 ° 0 min 0,000 mm 0,0 UV-I 25 W/m² -6,3 °C -5,6 °C 0,0 km/h (0 Bft)
14.02.2017 09:06 -5,5 °C -5,5 °C 95 % 1031,2 hPa 0,0 mm 0,0 km/h (0 Bft) S 188 ° 0 min 0,000 mm 0,0 UV-I 25 W/m² -6,2 °C -5,5 °C 0,0 km/h (0 Bft)
14.02.2017 09:07 -5,4 °C -5,4 °C 95 % 1031,2 hPa 0,0 mm 0,0 km/h (0 Bft) S 188 ° 0 min 0,000 mm 0,0 UV-I 25 W/m² -6,1 °C -5,4 °C 0,0 km/h (0 Bft)
14.02.2017 09:08 -5,3 °C -5,3 °C 95 % 1031,2 hPa 0,0 mm 0,0 km/h (0 Bft) S 188 ° 0 min 0,000 mm 0,0 UV-I 25 W/m² -6,0 °C -5,3 °C 0,0 km/h (0 Bft)
14.02.2017 09:09 -5,3 °C -5,3 °C 95 % 1031,2 hPa 0,0 mm 0,0 km/h (0 Bft) S 188 ° 0 min 0,000 mm 0,0 UV-I 25 W/m² -6,0 °C -5,3 °C 0,0 km/h (0 Bft)
14.02.2017 09:10 -5,3 °C -5,3 °C 96 % 1031,3 hPa 0,0 mm 0,0 km/h (0 Bft) S 188 ° 0 min 0,000 mm 0,0 UV-I 25 W/m² -5,8 °C -5,3 °C 0,0 km/h (0 Bft)
14.02.2017 09:11 -5,2 °C -5,2 °C 96 % 1031,3 hPa 0,0 mm 0,0 km/h (0 Bft) S 188 ° 0 min 0,000 mm 0,0 UV-I 25 W/m² -5,7 °C -5,2 °C 0,0 km/h (0 Bft)
14.02.2017 09:12 -5,2 °C -5,2 °C 96 % 1031,3 hPa 0,0 mm 0,0 km/h (0 Bft) S 188 ° 0 min 0,000 mm 0,0 UV-I 25 W/m² -5,7 °C -5,2 °C 0,0 km/h (0 Bft)
14.02.2017 09:13 -5,1 °C -5,1 °C 96 % 1031,3 hPa 0,0 mm 0,0 km/h (0 Bft) S 188 ° 0 min 0,000 mm 0,0 UV-I 26 W/m² -5,6 °C -5,1 °C 0,0 km/h (0 Bft)
14.02.2017 09:14 -5,1 °C -5,1 °C 96 % 1031,3 hPa 0,0 mm 0,0 km/h (0 Bft) S 188 ° 0 min 0,000 mm 0,0 UV-I 26 W/m² -5,6 °C -5,1 °C 0,0 km/h (0 Bft)
14.02.2017 09:15 -5,0 °C -5,0 °C 96 % 1031,4 hPa 0,0 mm 0,0 km/h (0 Bft) S 188 ° 0 min 0,000 mm 0,0 UV-I 26 W/m² -5,5 °C -5,0 °C 0,0 km/h (0 Bft)
14.02.2017 09:16 -4,9 °C -4,9 °C 95 % 1031,4 hPa 0,0 mm 0,0 km/h (0 Bft) S 188 ° 0 min 0,000 mm 0,0 UV-I 26 W/m² -5,6 °C -4,9 °C 0,0 km/h (0 Bft)
14.02.2017 09:17 -4,9 °C -4,9 °C 96 % 1031,4 hPa 0,0 mm 0,0 km/h (0 Bft) S 188 ° 0 min 0,000 mm 0,0 UV-I 26 W/m² -5,4 °C -4,9 °C 0,0 km/h (0 Bft)
14.02.2017 09:18 -4,8 °C -4,8 °C 96 % 1031,5 hPa 0,0 mm 0,0 km/h (0 Bft) S 188 ° 0 min 0,000 mm 0,0 UV-I 26 W/m² -5,3 °C -4,8 °C 0,0 km/h (0 Bft)
14.02.2017 09:19 -4,8 °C -4,8 °C 96 % 1031,4 hPa 0,0 mm 0,0 km/h (0 Bft) S 188 ° 0 min 0,000 mm 0,0 UV-I 26 W/m² -5,3 °C -4,8 °C 0,0 km/h (0 Bft)
14.02.2017 09:20 -4,7 °C -4,7 °C 96 % 1031,5 hPa 0,0 mm 0,0 km/h (0 Bft) S 188 ° 0 min 0,000 mm 0,0 UV-I 26 W/m² -5,2 °C -4,7 °C 0,0 km/h (0 Bft)
14.02.2017 09:21 -4,6 °C -4,6 °C 96 % 1031,4 hPa 0,0 mm 0,0 km/h (0 Bft) S 188 ° 0 min 0,000 mm 0,0 UV-I 26 W/m² -5,1 °C -4,6 °C 0,0 km/h (0 Bft)
14.02.2017 09:22 -4,6 °C -4,6 °C 96 % 1031,4 hPa 0,0 mm 0,2 km/h (0 Bft) S 188 ° 0 min 0,000 mm 0,0 UV-I 28 W/m² -5,1 °C -4,6 °C 1,6 km/h (1 Bft)
14.02.2017 09:23 -4,4 °C -4,4 °C 96 % 1031,5 hPa 0,0 mm 1,8 km/h (1 Bft) S 188 ° 0 min 0,000 mm 0,0 UV-I 28 W/m² -4,9 °C -4,4 °C 3,2 km/h (1 Bft)
14.02.2017 09:24 -4,3 °C -4,3 °C 96 % 1031,5 hPa 0,0 mm 2,2 km/h (1 Bft) S 188 ° 0 min 0,000 mm 0,0 UV-I 26 W/m² -4,8 °C -4,3 °C 3,2 km/h (1 Bft)
14.02.2017 09:25 -4,2 °C -4,2 °C 96 % 1031,5 hPa 0,0 mm 1,8 km/h (1 Bft) S 188 ° 0 min 0,000 mm 0,0 UV-I 26 W/m² -4,7 °C -4,2 °C 3,2 km/h (1 Bft)
14.02.2017 09:26 -4,1 °C -4,1 °C 96 % 1031,5 hPa 0,0 mm 0,9 km/h (0 Bft) S 188 ° 0 min 0,000 mm 0,0 UV-I 26 W/m² -4,6 °C -4,1 °C 1,6 km/h (1 Bft)
14.02.2017 09:27 -4,1 °C -4,1 °C 96 % 1031,5 hPa 0,0 mm 1,1 km/h (1 Bft) S 188 ° 0 min 0,000 mm 0,0 UV-I 28 W/m² -4,6 °C -4,1 °C 1,6 km/h (1 Bft)
14.02.2017 09:28 -4,0 °C -4,0 °C 96 % 1031,5 hPa 0,0 mm 0,7 km/h (0 Bft) S 188 ° 0 min 0,000 mm 0,0 UV-I 28 W/m² -4,5 °C -4,0 °C 1,6 km/h (1 Bft)
14.02.2017 09:29 -4,0 °C -4,0 °C 96 % 1031,6 hPa 0,0 mm 1,1 km/h (1 Bft) S 188 ° 0 min 0,000 mm 0,0 UV-I 28 W/m² -4,5 °C -4,0 °C 3,2 km/h (1 Bft)
14.02.2017 09:30 -3,9 °C -3,9 °C 96 % 1031,6 hPa 0,0 mm 2,1 km/h (1 Bft) S 188 ° 0 min 0,000 mm 0,0 UV-I 28 W/m² -4,4 °C -3,9 °C 3,2 km/h (1 Bft)
14.02.2017 09:31 -3,9 °C -3,9 °C 96 % 1031,6 hPa 0,0 mm 1,7 km/h (1 Bft) S 188 ° 0 min 0,000 mm 0,0 UV-I 28 W/m² -4,4 °C -3,9 °C 3,2 km/h (1 Bft)
14.02.2017 09:32 -3,9 °C -3,9 °C 96 % 1031,6 hPa 0,0 mm 1,0 km/h (0 Bft) S 188 ° 0 min 0,000 mm 0,0 UV-I 28 W/m² -4,4 °C -3,9 °C 3,2 km/h (1 Bft)
14.02.2017 09:33 -3,9 °C -3,9 °C 96 % 1031,6 hPa 0,0 mm 0,7 km/h (0 Bft) S 188 ° 0 min 0,000 mm 0,0 UV-I 28 W/m² -4,4 °C -3,9 °C 1,6 km/h (1 Bft)
14.02.2017 09:34 -3,9 °C -3,9 °C 96 % 1031,6 hPa 0,0 mm 0,0 km/h (0 Bft) S 188 ° 0 min 0,000 mm 0,0 UV-I 28 W/m² -4,4 °C -3,9 °C 0,0 km/h (0 Bft)
14.02.2017 09:35 -3,9 °C -3,8 °C 96 % 1031,6 hPa 0,0 mm 0,0 km/h (0 Bft) S 188 ° 0 min 0,000 mm 0,0 UV-I 28 W/m² -4,4 °C -3,9 °C 0,0 km/h (0 Bft)
14.02.2017 09:36 -3,9 °C -3,8 °C 96 % 1031,6 hPa 0,0 mm 0,0 km/h (0 Bft) S 188 ° 0 min 0,000 mm 0,0 UV-I 28 W/m² -4,4 °C -3,9 °C 0,0 km/h (0 Bft)
14.02.2017 09:37 -3,8 °C -3,8 °C 96 % 1031,6 hPa 0,0 mm 0,0 km/h (0 Bft) S 188 ° 0 min 0,000 mm 0,0 UV-I 28 W/m² -4,3 °C -3,8 °C 0,0 km/h (0 Bft)
14.02.2017 09:38 -3,8 °C -3,8 °C 96 % 1031,6 hPa 0,0 mm 0,0 km/h (0 Bft) S 188 ° 0 min 0,000 mm 0,0 UV-I 28 W/m² -4,3 °C -3,8 °C 0,0 km/h (0 Bft)
14.02.2017 09:39 -3,7 °C -3,7 °C 96 % 1031,6 hPa 0,0 mm 0,0 km/h (0 Bft) S 188 ° 0 min 0,000 mm 0,0 UV-I 28 W/m² -4,2 °C -3,7 °C 0,0 km/h (0 Bft)
14.02.2017 09:40 -3,7 °C -3,7 °C 96 % 1031,6 hPa 0,0 mm 0,0 km/h (0 Bft) S 188 ° 0 min 0,000 mm 0,0 UV-I 28 W/m² -4,2 °C -3,7 °C 0,0 km/h (0 Bft)
14.02.2017 09:41 -3,6 °C -3,6 °C 96 % 1031,5 hPa 0,0 mm 0,0 km/h (0 Bft) S 188 ° 0 min 0,000 mm 0,0 UV-I 28 W/m² -4,1 °C -3,6 °C 0,0 km/h (0 Bft)
14.02.2017 09:42 -3,6 °C -3,6 °C 96 % 1031,5 hPa 0,0 mm 0,0 km/h (0 Bft) S 188 ° 0 min 0,000 mm 0,0 UV-I 28 W/m² -4,1 °C -3,6 °C 0,0 km/h (0 Bft)
14.02.2017 09:43 -3,6 °C -3,6 °C 96 % 1031,5 hPa 0,0 mm 0,0 km/h (0 Bft) S 188 ° 0 min 0,000 mm 0,0 UV-I 28 W/m² -4,1 °C -3,6 °C 0,0 km/h (0 Bft)
14.02.2017 09:44 -3,5 °C -3,5 °C 96 % 1031,5 hPa 0,0 mm 1,3 km/h (1 Bft) S 188 ° 0 min 0,000 mm 0,0 UV-I 28 W/m² -4,0 °C -3,5 °C 1,6 km/h (1 Bft)
14.02.2017 09:45 -3,5 °C -3,5 °C 96 % 1031,5 hPa 0,0 mm 1,7 km/h (1 Bft) S 188 ° 0 min 0,000 mm 0,0 UV-I 28 W/m² -4,0 °C -3,5 °C 3,2 km/h (1 Bft)
14.02.2017 09:46 -3,4 °C -3,4 °C 96 % 1031,5 hPa 0,0 mm 1,7 km/h (1 Bft) S 188 ° 0 min 0,000 mm 0,0 UV-I 28 W/m² -3,9 °C -3,4 °C 3,2 km/h (1 Bft)
14.02.2017 09:47 -3,4 °C -3,4 °C 96 % 1031,5 hPa 0,0 mm 0,5 km/h (0 Bft) S 188 ° 0 min 0,000 mm 0,0 UV-I 28 W/m² -3,9 °C -3,4 °C 1,6 km/h (1 Bft)
14.02.2017 09:48 -3,4 °C -3,4 °C 96 % 1031,5 hPa 0,0 mm 0,9 km/h (0 Bft) S 188 ° 0 min 0,000 mm 0,0 UV-I 28 W/m² -3,9 °C -3,4 °C 1,6 km/h (1 Bft)
14.02.2017 09:49 -3,4 °C -3,4 °C 96 % 1031,5 hPa 0,0 mm 1,6 km/h (1 Bft) S 188 ° 0 min 0,000 mm 0,0 UV-I 28 W/m² -3,9 °C -3,4 °C 3,2 km/h (1 Bft)
14.02.2017 09:50 -3,3 °C -3,3 °C 96 % 1031,5 hPa 0,0 mm 0,4 km/h (0 Bft) S 188 ° 0 min 0,000 mm 0,0 UV-I 28 W/m² -3,8 °C -3,3 °C 1,6 km/h (1 Bft)
14.02.2017 09:51 -3,3 °C -3,3 °C 96 % 1031,5 hPa 0,0 mm 0,0 km/h (0 Bft) S 188 ° 0 min 0,000 mm 0,0 UV-I 28 W/m² -3,8 °C -3,3 °C 0,0 km/h (0 Bft)
14.02.2017 09:52 -3,3 °C -3,3 °C 96 % 1031,5 hPa 0,0 mm 0,0 km/h (0 Bft) S 188 ° 0 min 0,000 mm 0,0 UV-I 28 W/m² -3,8 °C -3,3 °C 0,0 km/h (0 Bft)
14.02.2017 09:53 -3,3 °C -3,3 °C 96 % 1031,5 hPa 0,0 mm 0,1 km/h (0 Bft) S 188 ° 0 min 0,000 mm 0,0 UV-I 28 W/m² -3,8 °C -3,3 °C 1,6 km/h (1 Bft)
14.02.2017 09:54 -3,2 °C -3,2 °C 96 % 1031,4 hPa 0,0 mm 0,0 km/h (0 Bft) S 188 ° 0 min 0,000 mm 0,0 UV-I 28 W/m² -3,7 °C -3,2 °C 0,0 km/h (0 Bft)
14.02.2017 09:55 -3,2 °C -3,2 °C 96 % 1031,6 hPa 0,0 mm 0,0 km/h (0 Bft) S 188 ° 0 min 0,000 mm 0,0 UV-I 28 W/m² -3,7 °C -3,2 °C 0,0 km/h (0 Bft)
14.02.2017 09:56 -3,2 °C -3,2 °C 96 % 1031,6 hPa 0,0 mm 0,3 km/h (0 Bft) S 188 ° 0 min 0,000 mm 0,0 UV-I 30 W/m² -3,7 °C -3,2 °C 1,6 km/h (1 Bft)
14.02.2017 09:57 -3,2 °C -3,2 °C 96 % 1031,5 hPa 0,0 mm 0,2 km/h (0 Bft) S 188 ° 0 min 0,000 mm 0,0 UV-I 30 W/m² -3,7 °C -3,2 °C 1,6 km/h (1 Bft)
14.02.2017 09:58 -3,2 °C -3,2 °C 96 % 1031,5 hPa 0,0 mm 0,3 km/h (0 Bft) S 188 ° 0 min 0,000 mm 0,0 UV-I 30 W/m² -3,7 °C -3,2 °C 1,6 km/h (1 Bft)
14.02.2017 09:59 -3,2 °C -3,2 °C 96 % 1031,6 hPa 0,0 mm 0,0 km/h (0 Bft) S 188 ° 0 min 0,000 mm 0,0 UV-I 30 W/m² -3,7 °C -3,2 °C 0,0 km/h (0 Bft)
14.02.2017 10:00 -3,1 °C -3,1 °C 96 % 1031,6 hPa 0,0 mm 0,0 km/h (0 Bft) S 188 ° 0 min 0,000 mm 0,0 UV-I 30 W/m² -3,6 °C -3,1 °C 0,0 km/h (0 Bft)
14.02.2017 10:01 -3,1 °C -3,1 °C 96 % 1031,6 hPa 0,0 mm 0,0 km/h (0 Bft) S 188 ° 0 min 0,000 mm 0,0 UV-I 30 W/m² -3,6 °C -3,1 °C 0,0 km/h (0 Bft)
14.02.2017 10:02 -3,1 °C -3,1 °C 96 % 1031,6 hPa 0,0 mm 0,0 km/h (0 Bft) S 188 ° 0 min 0,000 mm 0,0 UV-I 30 W/m² -3,6 °C -3,1 °C 0,0 km/h (0 Bft)
14.02.2017 10:03 -3,1 °C -3,1 °C 96 % 1031,6 hPa 0,0 mm 0,0 km/h (0 Bft) S 188 ° 0 min 0,000 mm 0,0 UV-I 30 W/m² -3,6 °C -3,1 °C 0,0 km/h (0 Bft)
14.02.2017 10:04 -3,1 °C -3,1 °C 96 % 1031,6 hPa 0,0 mm 0,0 km/h (0 Bft) S 188 ° 0 min 0,000 mm 0,0 UV-I 30 W/m² -3,6 °C -3,1 °C 0,0 km/h (0 Bft)
14.02.2017 10:05 -3,0 °C -3,0 °C 96 % 1031,6 hPa 0,0 mm 0,0 km/h (0 Bft) S 188 ° 0 min 0,000 mm 0,0 UV-I 30 W/m² -3,5 °C -3,0 °C 0,0 km/h (0 Bft)
14.02.2017 10:06 -2,9 °C -2,9 °C 96 % 1031,6 hPa 0,0 mm 0,0 km/h (0 Bft) S 188 ° 0 min 0,000 mm 0,0 UV-I 32 W/m² -3,4 °C -2,9 °C 0,0 km/h (0 Bft)
14.02.2017 10:07 -2,9 °C -2,9 °C 96 % 1031,6 hPa 0,0 mm 0,0 km/h (0 Bft) S 188 ° 0 min 0,000 mm 0,0 UV-I 39 W/m² -3,4 °C -2,9 °C 0,0 km/h (0 Bft)
14.02.2017 10:08 -2,8 °C -2,8 °C 96 % 1031,6 hPa 0,0 mm 0,0 km/h (0 Bft) S 188 ° 0 min 0,000 mm 0,0 UV-I 33 W/m² -3,3 °C -2,8 °C 0,0 km/h (0 Bft)
14.02.2017 10:09 -2,8 °C -2,8 °C 96 % 1031,6 hPa 0,0 mm 0,0 km/h (0 Bft) S 188 ° 0 min 0,000 mm 0,0 UV-I 32 W/m² -3,3 °C -2,8 °C 0,0 km/h (0 Bft)
14.02.2017 10:10 -2,7 °C -2,7 °C 96 % 1031,5 hPa 0,0 mm 0,0 km/h (0 Bft) S 188 ° 0 min 0,000 mm 0,0 UV-I 32 W/m² -3,2 °C -2,7 °C 0,0 km/h (0 Bft)
14.02.2017 10:11 -2,7 °C -2,7 °C 96 % 1031,6 hPa 0,0 mm 0,0 km/h (0 Bft) S 188 ° 0 min 0,000 mm 0,0 UV-I 32 W/m² -3,2 °C -2,7 °C 0,0 km/h (0 Bft)
14.02.2017 10:12 -2,6 °C -2,6 °C 96 % 1031,5 hPa 0,0 mm 0,0 km/h (0 Bft) S 188 ° 0 min 0,000 mm 0,0 UV-I 32 W/m² -3,1 °C -2,6 °C 0,0 km/h (0 Bft)
14.02.2017 10:13 -2,6 °C -2,6 °C 96 % 1031,5 hPa 0,0 mm 0,0 km/h (0 Bft) S 188 ° 0 min 0,000 mm 0,0 UV-I 32 W/m² -3,1 °C -2,6 °C 0,0 km/h (0 Bft)
14.02.2017 10:14 -2,5 °C -2,5 °C 96 % 1031,6 hPa 0,0 mm 0,0 km/h (0 Bft) S 188 ° 0 min 0,000 mm 0,0 UV-I 32 W/m² -3,0 °C -2,5 °C 0,0 km/h (0 Bft)
14.02.2017 10:15 -2,4 °C -2,4 °C 96 % 1031,6 hPa 0,0 mm 0,0 km/h (0 Bft) S 188 ° 0 min 0,000 mm 0,0 UV-I 32 W/m² -2,9 °C -2,4 °C 0,0 km/h (0 Bft)
14.02.2017 10:16 -2,3 °C -2,3 °C 96 % 1031,6 hPa 0,0 mm 0,0 km/h (0 Bft) S 188 ° 0 min 0,000 mm 0,0 UV-I 32 W/m² -2,8 °C -2,3 °C 0,0 km/h (0 Bft)
14.02.2017 10:17 -2,2 °C -2,2 °C 96 % 1031,6 hPa 0,0 mm 0,0 km/h (0 Bft) S 188 ° 0 min 0,000 mm 0,0 UV-I 32 W/m² -2,7 °C -2,2 °C 0,0 km/h (0 Bft)
14.02.2017 10:18 -2,1 °C -2,1 °C 97 % 1031,6 hPa 0,0 mm 0,0 km/h (0 Bft) S 188 ° 0 min 0,000 mm 0,0 UV-I 35 W/m² -2,5 °C -2,1 °C 0,0 km/h (0 Bft)
14.02.2017 10:19 -2,0 °C -2,0 °C 96 % 1031,6 hPa 0,0 mm 0,0 km/h (0 Bft) S 188 ° 0 min 0,000 mm 0,0 UV-I 33 W/m² -2,6 °C -2,0 °C 0,0 km/h (0 Bft)
14.02.2017 10:20 -1,9 °C -1,9 °C 96 % 1031,5 hPa 0,0 mm 0,0 km/h (0 Bft) S 188 ° 0 min 0,000 mm 0,0 UV-I 33 W/m² -2,5 °C -1,9 °C 0,0 km/h (0 Bft)
14.02.2017 10:21 -1,8 °C -1,8 °C 97 % 1031,5 hPa 0,0 mm 0,0 km/h (0 Bft) S 188 ° 0 min 0,000 mm 0,0 UV-I 37 W/m² -2,2 °C -1,8 °C 0,0 km/h (0 Bft)
14.02.2017 10:22 -1,8 °C -1,8 °C 97 % 1031,5 hPa 0,0 mm 0,0 km/h (0 Bft) S 188 ° 0 min 0,000 mm 0,0 UV-I 37 W/m² -2,2 °C -1,8 °C 0,0 km/h (0 Bft)
14.02.2017 10:23 -1,7 °C -1,7 °C 96 % 1031,6 hPa 0,0 mm 0,0 km/h (0 Bft) S 188 ° 0 min 0,000 mm 0,0 UV-I 37 W/m² -2,3 °C -1,7 °C 0,0 km/h (0 Bft)
14.02.2017 10:24 -1,7 °C -1,7 °C 96 % 1031,5 hPa 0,0 mm 0,0 km/h (0 Bft) S 188 ° 0 min 0,000 mm 0,0 UV-I 39 W/m² -2,3 °C -1,7 °C 0,0 km/h (0 Bft)
14.02.2017 10:25 -1,7 °C -1,7 °C 96 % 1031,5 hPa 0,0 mm 0,0 km/h (0 Bft) S 188 ° 0 min 0,000 mm 0,0 UV-I 44 W/m² -2,3 °C -1,7 °C 0,0 km/h (0 Bft)
14.02.2017 10:26 -1,6 °C -1,6 °C 96 % 1031,5 hPa 0,0 mm 0,0 km/h (0 Bft) S 188 ° 0 min 0,000 mm 0,0 UV-I 51 W/m² -2,2 °C -1,6 °C 0,0 km/h (0 Bft)
14.02.2017 10:27 -1,4 °C -1,4 °C 97 % 1031,5 hPa 0,0 mm 0,0 km/h (0 Bft) S 188 ° 0 min 0,000 mm 1,1 UV-I 63 W/m² -1,8 °C -1,4 °C 0,0 km/h (0 Bft)
14.02.2017 10:28 -1,1 °C -1,1 °C 97 % 1031,5 hPa 0,0 mm 0,0 km/h (0 Bft) S 188 ° 0 min 0,000 mm 1,1 UV-I 70 W/m² -1,5 °C -1,1 °C 0,0 km/h (0 Bft)
14.02.2017 10:29 -0,8 °C -0,8 °C 97 % 1031,6 hPa 0,0 mm 0,0 km/h (0 Bft) S 188 ° 0 min 0,000 mm 1,1 UV-I 62 W/m² -1,2 °C -0,8 °C 0,0 km/h (0 Bft)
14.02.2017 10:30 -0,6 °C -0,6 °C 97 % 1031,6 hPa 0,0 mm 0,0 km/h (0 Bft) S 188 ° 0 min 0,000 mm 0,0 UV-I 53 W/m² -1,0 °C -0,6 °C 0,0 km/h (0 Bft)
14.02.2017 10:31 -0,3 °C -0,3 °C 97 % 1031,7 hPa 0,0 mm 0,0 km/h (0 Bft) S 188 ° 0 min 0,000 mm 0,0 UV-I 53 W/m² -0,7 °C -0,3 °C 0,0 km/h (0 Bft)
14.02.2017 10:32 -0,2 °C -0,2 °C 97 % 1031,7 hPa 0,0 mm 0,0 km/h (0 Bft) S 188 ° 0 min 0,000 mm 0,0 UV-I 49 W/m² -0,6 °C -0,2 °C 0,0 km/h (0 Bft)
14.02.2017 10:33 -0,1 °C -0,1 °C 97 % 1031,6 hPa 0,0 mm 0,0 km/h (0 Bft) S 188 ° 0 min 0,000 mm 0,0 UV-I 46 W/m² -0,5 °C -0,1 °C 0,0 km/h (0 Bft)
14.02.2017 10:34 0,1 °C 0,1 °C 97 % 1031,6 hPa 0,0 mm 0,0 km/h (0 Bft) S 188 ° 0 min 0,000 mm 0,0 UV-I 46 W/m² -0,3 °C 0,1 °C 0,0 km/h (0 Bft)
14.02.2017 10:35 0,1 °C 0,1 °C 97 % 1031,6 hPa 0,0 mm 0,0 km/h (0 Bft) S 188 ° 0 min 0,000 mm 0,0 UV-I 42 W/m² -0,3 °C 0,1 °C 0,0 km/h (0 Bft)
14.02.2017 10:36 0,2 °C 0,2 °C 97 % 1031,6 hPa 0,0 mm 0,0 km/h (0 Bft) S 188 ° 0 min 0,000 mm 0,0 UV-I 39 W/m² -0,2 °C 0,2 °C 0,0 km/h (0 Bft)
14.02.2017 10:37 0,2 °C 0,2 °C 97 % 1031,7 hPa 0,0 mm 0,0 km/h (0 Bft) S 188 ° 0 min 0,000 mm 0,0 UV-I 37 W/m² -0,2 °C 0,2 °C 0,0 km/h (0 Bft)
14.02.2017 10:38 0,2 °C 0,2 °C 97 % 1031,6 hPa 0,0 mm 0,0 km/h (0 Bft) S 188 ° 0 min 0,000 mm 0,0 UV-I 35 W/m² -0,2 °C 0,2 °C 0,0 km/h (0 Bft)
14.02.2017 10:39 0,3 °C 0,3 °C 97 % 1031,7 hPa 0,0 mm 0,0 km/h (0 Bft) S 188 ° 0 min 0,000 mm 0,0 UV-I 37 W/m² -0,1 °C 0,3 °C 0,0 km/h (0 Bft)
14.02.2017 10:40 0,4 °C 0,4 °C 97 % 1031,7 hPa 0,0 mm 0,0 km/h (0 Bft) S 188 ° 0 min 0,000 mm 0,0 UV-I 37 W/m² -0,0 °C 0,4 °C 0,0 km/h (0 Bft)
14.02.2017 10:41 0,4 °C 0,4 °C 97 % 1031,7 hPa 0,0 mm 0,0 km/h (0 Bft) S 188 ° 0 min 0,000 mm 0,0 UV-I 35 W/m² -0,0 °C 0,4 °C 0,0 km/h (0 Bft)
14.02.2017 10:42 0,5 °C 0,5 °C 97 % 1031,7 hPa 0,0 mm 0,0 km/h (0 Bft) S 188 ° 0 min 0,000 mm 0,0 UV-I 35 W/m² 0,1 °C 0,5 °C 0,0 km/h (0 Bft)
14.02.2017 10:43 0,6 °C 0,6 °C 97 % 1031,7 hPa 0,0 mm 0,0 km/h (0 Bft) S 188 ° 0 min 0,000 mm 0,0 UV-I 40 W/m² 0,2 °C 0,6 °C 0,0 km/h (0 Bft)
14.02.2017 10:44 0,6 °C 0,6 °C 97 % 1031,7 hPa 0,0 mm 0,0 km/h (0 Bft) S 188 ° 0 min 0,000 mm 0,0 UV-I 42 W/m² 0,2 °C 0,6 °C 0,0 km/h (0 Bft)
14.02.2017 10:45 0,6 °C 0,6 °C 97 % 1031,7 hPa 0,0 mm 0,0 km/h (0 Bft) S 188 ° 0 min 0,000 mm 0,0 UV-I 39 W/m² 0,2 °C 0,6 °C 0,0 km/h (0 Bft)
14.02.2017 10:46 0,6 °C 0,6 °C 97 % 1031,7 hPa 0,0 mm 0,0 km/h (0 Bft) S 188 ° 0 min 0,000 mm 0,0 UV-I 39 W/m² 0,2 °C 0,6 °C 0,0 km/h (0 Bft)
14.02.2017 10:47 0,7 °C 0,7 °C 97 % 1031,7 hPa 0,0 mm 0,0 km/h (0 Bft) S 188 ° 0 min 0,000 mm 0,0 UV-I 40 W/m² 0,3 °C 0,7 °C 0,0 km/h (0 Bft)
14.02.2017 10:48 0,7 °C 0,7 °C 97 % 1031,7 hPa 0,0 mm 0,0 km/h (0 Bft) S 188 ° 0 min 0,000 mm 0,0 UV-I 37 W/m² 0,3 °C 0,7 °C 0,0 km/h (0 Bft)
14.02.2017 10:49 0,8 °C 0,8 °C 97 % 1031,7 hPa 0,0 mm 0,0 km/h (0 Bft) S 188 ° 0 min 0,000 mm 0,0 UV-I 35 W/m² 0,4 °C 0,8 °C 0,0 km/h (0 Bft)
14.02.2017 10:50 0,8 °C 0,8 °C 97 % 1031,7 hPa 0,0 mm 0,0 km/h (0 Bft) S 188 ° 0 min 0,000 mm 0,0 UV-I 40 W/m² 0,4 °C 0,8 °C 0,0 km/h (0 Bft)
14.02.2017 10:51 0,9 °C 0,9 °C 97 % 1031,7 hPa 0,0 mm 0,0 km/h (0 Bft) S 188 ° 0 min 0,000 mm 0,0 UV-I 42 W/m² 0,5 °C 0,9 °C 0,0 km/h (0 Bft)
14.02.2017 10:52 0,9 °C 0,9 °C 97 % 1031,8 hPa 0,0 mm 0,0 km/h (0 Bft) S 188 ° 0 min 0,000 mm 0,0 UV-I 44 W/m² 0,5 °C 0,9 °C 0,0 km/h (0 Bft)
14.02.2017 10:53 1,0 °C 1,0 °C 97 % 1031,7 hPa 0,0 mm 0,0 km/h (0 Bft) S 188 ° 0 min 0,000 mm 0,0 UV-I 40 W/m² 0,6 °C 1,0 °C 0,0 km/h (0 Bft)
14.02.2017 10:54 1,1 °C 1,1 °C 96 % 1031,7 hPa 0,0 mm 0,0 km/h (0 Bft) S 188 ° 0 min 0,000 mm 0,0 UV-I 37 W/m² 0,5 °C 1,1 °C 0,0 km/h (0 Bft)
14.02.2017 10:55 1,2 °C 1,2 °C 96 % 1031,7 hPa 0,0 mm 0,0 km/h (0 Bft) S 188 ° 0 min 0,000 mm 0,0 UV-I 33 W/m² 0,6 °C 1,2 °C 0,0 km/h (0 Bft)
14.02.2017 10:56 1,2 °C 1,2 °C 96 % 1031,7 hPa 0,0 mm 0,0 km/h (0 Bft) S 188 ° 0 min 0,000 mm 0,0 UV-I 33 W/m² 0,6 °C 1,2 °C 0,0 km/h (0 Bft)
14.02.2017 10:57 1,2 °C 1,2 °C 95 % 1031,7 hPa 0,0 mm 0,0 km/h (0 Bft) S 188 ° 0 min 0,000 mm 0,0 UV-I 33 W/m² 0,5 °C 1,2 °C 0,0 km/h (0 Bft)
14.02.2017 10:58 1,3 °C 1,3 °C 95 % 1031,7 hPa 0,0 mm 0,0 km/h (0 Bft) S 188 ° 0 min 0,000 mm 0,0 UV-I 33 W/m² 0,6 °C 1,3 °C 0,0 km/h (0 Bft)
14.02.2017 10:59 1,4 °C 1,4 °C 95 % 1031,7 hPa 0,0 mm 0,0 km/h (0 Bft) S 188 ° 0 min 0,000 mm 0,0 UV-I 33 W/m² 0,7 °C 1,4 °C 0,0 km/h (0 Bft)
14.02.2017 11:00 1,4 °C 1,4 °C 94 % 1031,7 hPa 0,0 mm 0,0 km/h (0 Bft) S 188 ° 0 min 0,000 mm 0,0 UV-I 33 W/m² 0,5 °C 1,4 °C 0,0 km/h (0 Bft)
14.02.2017 11:01 1,5 °C 1,5 °C 94 % 1031,7 hPa 0,0 mm 0,0 km/h (0 Bft) S 188 ° 0 min 0,000 mm 0,0 UV-I 35 W/m² 0,6 °C 1,5 °C 0,0 km/h (0 Bft)
14.02.2017 11:02 1,6 °C 1,6 °C 94 % 1031,7 hPa 0,0 mm 0,0 km/h (0 Bft) S 188 ° 0 min 0,000 mm 0,0 UV-I 39 W/m² 0,7 °C 1,6 °C 0,0 km/h (0 Bft)
14.02.2017 11:03 1,7 °C 1,7 °C 94 % 1031,7 hPa 0,0 mm 0,0 km/h (0 Bft) S 188 ° 0 min 0,000 mm 0,0 UV-I 46 W/m² 0,8 °C 1,7 °C 0,0 km/h (0 Bft)
14.02.2017 11:04 1,8 °C 1,8 °C 94 % 1031,7 hPa 0,0 mm 0,0 km/h (0 Bft) S 188 ° 0 min 0,000 mm 1,2 UV-I 76 W/m² 0,9 °C 1,8 °C 0,0 km/h (0 Bft)
14.02.2017 11:05 1,8 °C 1,8 °C 94 % 1031,7 hPa 0,0 mm 0,0 km/h (0 Bft) S 188 ° 0 min 0,000 mm 1,3 UV-I 125 W/m² 0,9 °C 1,8 °C 0,0 km/h (0 Bft)
14.02.2017 11:06 1,9 °C 1,9 °C 94 % 1031,7 hPa 0,0 mm 0,0 km/h (0 Bft) S 188 ° 0 min 0,000 mm 1,3 UV-I 116 W/m² 1,0 °C 1,9 °C 0,0 km/h (0 Bft)
14.02.2017 11:07 2,0 °C 2,0 °C 94 % 1031,7 hPa 0,0 mm 0,0 km/h (0 Bft) S 188 ° 0 min 0,000 mm 1,3 UV-I 114 W/m² 1,1 °C 2,0 °C 0,0 km/h (0 Bft)
14.02.2017 11:08 2,1 °C 2,1 °C 94 % 1031,7 hPa 0,0 mm 0,0 km/h (0 Bft) S 188 ° 0 min 0,000 mm 1,4 UV-I 146 W/m² 1,2 °C 2,1 °C 0,0 km/h (0 Bft)
14.02.2017 11:09 2,2 °C 2,2 °C 93 % 1031,7 hPa 0,0 mm 0,0 km/h (0 Bft) S 188 ° 0 min 0,000 mm 1,4 UV-I 155 W/m² 1,2 °C 2,2 °C 0,0 km/h (0 Bft)
14.02.2017 11:10 2,2 °C 2,2 °C 93 % 1031,7 hPa 0,0 mm 0,0 km/h (0 Bft) S 188 ° 0 min 0,000 mm 1,4 UV-I 171 W/m² 1,2 °C 2,2 °C 0,0 km/h (0 Bft)
14.02.2017 11:11 2,3 °C 2,3 °C 93 % 1031,7 hPa 0,0 mm 0,0 km/h (0 Bft) S 188 ° 1 min 0,000 mm 1,4 UV-I 207 W/m² 1,3 °C 2,3 °C 0,0 km/h (0 Bft)
14.02.2017 11:12 2,4 °C 2,4 °C 93 % 1031,7 hPa 0,0 mm 0,0 km/h (0 Bft) S 188 ° 1 min 0,000 mm 1,5 UV-I 214 W/m² 1,4 °C 2,4 °C 0,0 km/h (0 Bft)
14.02.2017 11:13 2,4 °C 2,4 °C 93 % 1031,8 hPa 0,0 mm 0,0 km/h (0 Bft) S 188 ° 1 min 0,000 mm 1,6 UV-I 232 W/m² 1,4 °C 2,4 °C 0,0 km/h (0 Bft)
14.02.2017 11:14 2,6 °C 2,6 °C 92 % 1031,8 hPa 0,0 mm 0,0 km/h (0 Bft) S 188 ° 1 min 0,000 mm 1,6 UV-I 214 W/m² 1,4 °C 2,6 °C 0,0 km/h (0 Bft)
14.02.2017 11:15 2,7 °C 2,7 °C 90 % 1031,8 hPa 0,0 mm 0,0 km/h (0 Bft) S 188 ° 0 min 0,000 mm 1,5 UV-I 178 W/m² 1,2 °C 2,7 °C 0,0 km/h (0 Bft)
14.02.2017 11:16 2,7 °C 2,7 °C 91 % 1031,8 hPa 0,0 mm 0,0 km/h (0 Bft) S 188 ° 0 min 0,000 mm 1,4 UV-I 160 W/m² 1,4 °C 2,7 °C 0,0 km/h (0 Bft)
14.02.2017 11:17 2,7 °C 2,8 °C 91 % 1031,8 hPa 0,0 mm 0,0 km/h (0 Bft) S 188 ° 0 min 0,000 mm 1,4 UV-I 54 W/m² 1,4 °C 2,7 °C 0,0 km/h (0 Bft)
14.02.2017 11:18 2,8 °C 2,8 °C 91 % 1031,7 hPa 0,0 mm 0,0 km/h (0 Bft) S 188 ° 0 min 0,000 mm 0,0 UV-I 37 W/m² 1,5 °C 2,8 °C 0,0 km/h (0 Bft)
14.02.2017 11:19 2,8 °C 2,8 °C 90 % 1031,7 hPa 0,0 mm 0,0 km/h (0 Bft) S 188 ° 0 min 0,000 mm 0,0 UV-I 35 W/m² 1,3 °C 2,8 °C 0,0 km/h (0 Bft)
14.02.2017 11:20 2,8 °C 2,8 °C 90 % 1031,8 hPa 0,0 mm 0,0 km/h (0 Bft) S 188 ° 0 min 0,000 mm 0,0 UV-I 35 W/m² 1,3 °C 2,8 °C 0,0 km/h (0 Bft)
14.02.2017 11:21 2,8 °C 2,8 °C 90 % 1031,7 hPa 0,0 mm 0,0 km/h (0 Bft) S 188 ° 0 min 0,000 mm 0,0 UV-I 35 W/m² 1,3 °C 2,8 °C 0,0 km/h (0 Bft)
14.02.2017 11:22 2,8 °C 2,8 °C 90 % 1031,8 hPa 0,0 mm 0,0 km/h (0 Bft) S 188 ° 0 min 0,000 mm 0,0 UV-I 37 W/m² 1,3 °C 2,8 °C 0,0 km/h (0 Bft)
14.02.2017 11:23 2,9 °C 2,9 °C 90 % 1031,8 hPa 0,0 mm 0,0 km/h (0 Bft) S 188 ° 0 min 0,000 mm 1,3 UV-I 109 W/m² 1,4 °C 2,9 °C 0,0 km/h (0 Bft)
14.02.2017 11:24 2,9 °C 2,9 °C 90 % 1031,8 hPa 0,0 mm 0,0 km/h (0 Bft) S 188 ° 1 min 0,000 mm 1,9 UV-I 360 W/m² 1,4 °C 2,9 °C 0,0 km/h (0 Bft)
14.02.2017 11:25 3,1 °C 3,1 °C 90 % 1031,8 hPa 0,0 mm 0,0 km/h (0 Bft) S 188 ° 1 min 0,000 mm 1,8 UV-I 290 W/m² 1,6 °C 3,1 °C 0,0 km/h (0 Bft)
14.02.2017 11:26 3,1 °C 3,1 °C 90 % 1031,9 hPa 0,0 mm 0,0 km/h (0 Bft) S 188 ° 1 min 0,000 mm 1,5 UV-I 290 W/m² 1,6 °C 3,1 °C 0,0 km/h (0 Bft)
14.02.2017 11:27 3,1 °C 3,1 °C 89 % 1031,9 hPa 0,0 mm 0,0 km/h (0 Bft) S 188 ° 0 min 0,000 mm 1,3 UV-I 97 W/m² 1,5 °C 3,1 °C 0,0 km/h (0 Bft)
14.02.2017 11:28 3,2 °C 3,2 °C 89 % 1031,8 hPa 0,0 mm 0,0 km/h (0 Bft) S 188 ° 0 min 0,000 mm 1,5 UV-I 192 W/m² 1,6 °C 3,2 °C 0,0 km/h (0 Bft)
14.02.2017 11:29 3,3 °C 3,3 °C 89 % 1031,8 hPa 0,0 mm 0,0 km/h (0 Bft) S 188 ° 1 min 0,000 mm 1,8 UV-I 417 W/m² 1,7 °C 3,3 °C 0,0 km/h (0 Bft)
14.02.2017 11:30 3,3 °C 3,3 °C 89 % 1031,8 hPa 0,0 mm 0,0 km/h (0 Bft) S 188 ° 1 min 0,000 mm 2,0 UV-I 374 W/m² 1,7 °C 3,3 °C 0,0 km/h (0 Bft)
14.02.2017 11:31 3,4 °C 3,4 °C 89 % 1031,8 hPa 0,0 mm 0,0 km/h (0 Bft) S 188 ° 1 min 0,000 mm 1,8 UV-I 374 W/m² 1,8 °C 3,4 °C 0,0 km/h (0 Bft)
14.02.2017 11:32 3,4 °C 3,4 °C 89 % 1031,7 hPa 0,0 mm 0,0 km/h (0 Bft) S 188 ° 1 min 0,000 mm 1,8 UV-I 374 W/m² 1,8 °C 3,4 °C 0,0 km/h (0 Bft)
14.02.2017 11:33 3,4 °C 3,5 °C 89 % 1031,7 hPa 0,0 mm 0,0 km/h (0 Bft) S 188 ° 0 min 0,000 mm 1,4 UV-I 77 W/m² 1,8 °C 3,4 °C 0,0 km/h (0 Bft)
14.02.2017 11:34 3,6 °C 3,6 °C 89 % 1031,8 hPa 0,0 mm 0,0 km/h (0 Bft) S 188 ° 0 min 0,000 mm 0,0 UV-I 40 W/m² 2,0 °C 3,6 °C 0,0 km/h (0 Bft)
14.02.2017 11:35 3,6 °C 3,6 °C 90 % 1031,7 hPa 0,0 mm 0,0 km/h (0 Bft) S 188 ° 0 min 0,000 mm 0,0 UV-I 37 W/m² 2,1 °C 3,6 °C 0,0 km/h (0 Bft)
14.02.2017 11:36 3,6 °C 3,6 °C 89 % 1031,8 hPa 0,0 mm 0,0 km/h (0 Bft) S 188 ° 0 min 0,000 mm 0,0 UV-I 39 W/m² 2,0 °C 3,6 °C 0,0 km/h (0 Bft)
14.02.2017 11:37 3,7 °C 3,7 °C 89 % 1031,8 hPa 0,0 mm 0,0 km/h (0 Bft) S 188 ° 0 min 0,000 mm 0,0 UV-I 39 W/m² 2,1 °C 3,7 °C 0,0 km/h (0 Bft)
14.02.2017 11:38 3,7 °C 3,7 °C 89 % 1031,8 hPa 0,0 mm 0,0 km/h (0 Bft) S 188 ° 0 min 0,000 mm 0,0 UV-I 39 W/m² 2,1 °C 3,7 °C 0,0 km/h (0 Bft)
14.02.2017 11:39 3,7 °C 3,7 °C 89 % 1031,8 hPa 0,0 mm 1,0 km/h (0 Bft) S 188 ° 0 min 0,000 mm 1,3 UV-I 60 W/m² 2,1 °C 3,7 °C 3,2 km/h (1 Bft)
14.02.2017 11:40 3,7 °C 3,7 °C 89 % 1031,8 hPa 0,0 mm 2,4 km/h (1 Bft) S 188 ° 0 min 0,000 mm 1,5 UV-I 60 W/m² 2,1 °C 3,7 °C 3,2 km/h (1 Bft)
14.02.2017 11:41 3,8 °C 3,8 °C 89 % 1031,7 hPa 0,0 mm 3,1 km/h (1 Bft) S 189 ° 1 min 0,000 mm 1,9 UV-I 350 W/m² 2,2 °C 3,8 °C 4,8 km/h (1 Bft)
14.02.2017 11:42 3,9 °C 3,9 °C 89 % 1031,7 hPa 0,0 mm 2,7 km/h (1 Bft) S 189 ° 1 min 0,000 mm 1,7 UV-I 350 W/m² 2,3 °C 3,9 °C 3,2 km/h (1 Bft)
14.02.2017 11:43 3,9 °C 3,9 °C 89 % 1031,6 hPa 0,0 mm 1,1 km/h (1 Bft) S 189 ° 1 min 0,000 mm 1,8 UV-I 290 W/m² 2,3 °C 3,9 °C 3,2 km/h (1 Bft)
14.02.2017 11:44 4,1 °C 4,1 °C 89 % 1031,7 hPa 0,0 mm 0,5 km/h (0 Bft) S 189 ° 1 min 0,000 mm 2,1 UV-I 290 W/m² 2,5 °C 4,1 °C 1,6 km/h (1 Bft)
14.02.2017 11:45 4,2 °C 4,2 °C 89 % 1031,6 hPa 0,0 mm 1,1 km/h (1 Bft) S 189 ° 1 min 0,000 mm 2,2 UV-I 482 W/m² 2,6 °C 4,2 °C 1,6 km/h (1 Bft)
14.02.2017 11:46 4,2 °C 4,2 °C 89 % 1031,7 hPa 0,0 mm 0,5 km/h (0 Bft) S 189 ° 1 min 0,000 mm 2,2 UV-I 417 W/m² 2,6 °C 4,2 °C 1,6 km/h (1 Bft)
14.02.2017 11:47 4,3 °C 4,3 °C 88 % 1031,7 hPa 0,0 mm 0,0 km/h (0 Bft) S 189 ° 1 min 0,000 mm 1,9 UV-I 417 W/m² 2,5 °C 4,3 °C 0,0 km/h (0 Bft)
14.02.2017 11:48 4,3 °C 4,3 °C 88 % 1031,7 hPa 0,0 mm 0,1 km/h (0 Bft) S 189 ° 1 min 0,000 mm 1,6 UV-I 417 W/m² 2,5 °C 4,3 °C 1,6 km/h (1 Bft)
14.02.2017 11:49 4,3 °C 4,3 °C 88 % 1031,7 hPa 0,0 mm 1,7 km/h (1 Bft) S 189 ° 1 min 0,000 mm 1,3 UV-I 417 W/m² 2,5 °C 4,3 °C 3,2 km/h (1 Bft)
14.02.2017 11:50 4,4 °C 4,4 °C 88 % 1031,6 hPa 0,0 mm 0,8 km/h (0 Bft) S 189 ° 0 min 0,000 mm 0,0 UV-I 37 W/m² 2,6 °C 4,4 °C 1,6 km/h (1 Bft)
14.02.2017 11:51 4,4 °C 4,4 °C 87 % 1031,7 hPa 0,0 mm 1,2 km/h (1 Bft) S 189 ° 0 min 0,000 mm 0,0 UV-I 37 W/m² 2,4 °C 4,4 °C 1,6 km/h (1 Bft)
14.02.2017 11:52 4,4 °C 4,5 °C 87 % 1031,7 hPa 0,0 mm 0,8 km/h (0 Bft) S 189 ° 0 min 0,000 mm 1,3 UV-I 63 W/m² 2,4 °C 4,4 °C 1,6 km/h (1 Bft)
14.02.2017 11:53 4,4 °C 4,5 °C 87 % 1031,6 hPa 0,0 mm 1,3 km/h (1 Bft) S 189 ° 0 min 0,000 mm 1,6 UV-I 63 W/m² 2,4 °C 4,4 °C 1,6 km/h (1 Bft)
14.02.2017 11:54 4,5 °C 4,5 °C 87 % 1031,6 hPa 0,0 mm 1,0 km/h (0 Bft) S 189 ° 1 min 0,000 mm 2,1 UV-I 403 W/m² 2,5 °C 4,5 °C 1,6 km/h (1 Bft)
14.02.2017 11:55 4,6 °C 4,6 °C 87 % 1031,6 hPa 0,0 mm 1,0 km/h (0 Bft) S 189 ° 1 min 0,000 mm 2,1 UV-I 425 W/m² 2,6 °C 4,6 °C 1,6 km/h (1 Bft)
14.02.2017 11:56 4,6 °C 4,6 °C 86 % 1031,6 hPa 0,0 mm 0,9 km/h (0 Bft) S 189 ° 1 min 0,000 mm 2,2 UV-I 454 W/m² 2,5 °C 4,6 °C 1,6 km/h (1 Bft)
14.02.2017 11:57 4,7 °C 4,7 °C 86 % 1031,6 hPa 0,0 mm 0,6 km/h (0 Bft) S 189 ° 1 min 0,000 mm 2,1 UV-I 383 W/m² 2,6 °C 4,7 °C 1,6 km/h (1 Bft)
14.02.2017 11:58 4,8 °C 4,8 °C 85 % 1031,7 hPa 0,0 mm 1,1 km/h (1 Bft) S 189 ° 1 min 0,000 mm 1,7 UV-I 383 W/m² 2,5 °C 4,8 °C 1,6 km/h (1 Bft)
14.02.2017 11:59 4,8 °C 4,8 °C 84 % 1031,6 hPa 0,0 mm 1,3 km/h (1 Bft) S 189 ° 0 min 0,000 mm 0,0 UV-I 40 W/m² 2,3 °C 4,8 °C 1,6 km/h (1 Bft)
14.02.2017 12:00 4,9 °C 4,9 °C 84 % 1031,7 hPa 0,0 mm 1,5 km/h (1 Bft) S 189 ° 0 min 0,076 mm 0,0 UV-I 40 W/m² 2,4 °C 4,9 °C 1,6 km/h (1 Bft)
14.02.2017 12:01 4,9 °C 4,9 °C 84 % 1031,7 hPa 0,0 mm 0,8 km/h (0 Bft) S 189 ° 0 min 0,000 mm 0,0 UV-I 37 W/m² 2,4 °C 4,9 °C 1,6 km/h (1 Bft)
14.02.2017 12:02 5,0 °C 5,0 °C 84 % 1031,7 hPa 0,0 mm 0,7 km/h (0 Bft) S 189 ° 0 min 0,000 mm 0,0 UV-I 37 W/m² 2,5 °C 5,0 °C 1,6 km/h (1 Bft)
14.02.2017 12:03 5,0 °C 5,0 °C 84 % 1031,7 hPa 0,0 mm 0,6 km/h (0 Bft) S 189 ° 0 min 0,000 mm 0,0 UV-I 37 W/m² 2,5 °C 5,0 °C 1,6 km/h (1 Bft)
14.02.2017 12:04 5,1 °C 5,1 °C 84 % 1031,7 hPa 0,0 mm 0,4 km/h (0 Bft) S 189 ° 0 min 0,000 mm 1,3 UV-I 104 W/m² 2,6 °C 5,1 °C 1,6 km/h (1 Bft)
14.02.2017 12:05 5,2 °C 5,2 °C 84 % 1031,7 hPa 0,0 mm 0,4 km/h (0 Bft) S 189 ° 0 min 0,000 mm 1,5 UV-I 97 W/m² 2,7 °C 5,2 °C 1,6 km/h (1 Bft)
14.02.2017 12:06 5,2 °C 5,2 °C 84 % 1031,7 hPa 0,0 mm 0,4 km/h (0 Bft) S 189 ° 0 min 0,000 mm 0,0 UV-I 40 W/m² 2,7 °C 5,2 °C 1,6 km/h (1 Bft)
14.02.2017 12:07 5,2 °C 5,2 °C 83 % 1031,6 hPa 0,0 mm 1,0 km/h (0 Bft) S 189 ° 0 min 0,000 mm 0,0 UV-I 42 W/m² 2,6 °C 5,2 °C 1,6 km/h (1 Bft)
14.02.2017 12:08 5,3 °C 5,3 °C 83 % 1031,7 hPa 0,0 mm 1,1 km/h (1 Bft) S 189 ° 0 min 0,000 mm 0,0 UV-I 42 W/m² 2,7 °C 5,3 °C 1,6 km/h (1 Bft)
14.02.2017 12:09 5,3 °C 5,3 °C 83 % 1031,6 hPa 0,0 mm 0,3 km/h (0 Bft) S 189 ° 0 min 0,000 mm 0,0 UV-I 42 W/m² 2,7 °C 5,3 °C 1,6 km/h (1 Bft)
14.02.2017 12:10 5,4 °C 5,4 °C 82 % 1031,6 hPa 0,0 mm 0,6 km/h (0 Bft) S 189 ° 0 min 0,000 mm 0,0 UV-I 54 W/m² 2,6 °C 5,4 °C 1,6 km/h (1 Bft)
14.02.2017 12:11 5,5 °C 5,5 °C 81 % 1031,6 hPa 0,0 mm 1,3 km/h (1 Bft) S 189 ° 0 min 0,000 mm 1,4 UV-I 77 W/m² 2,5 °C 5,5 °C 1,6 km/h (1 Bft)
14.02.2017 12:12 5,5 °C 5,5 °C 81 % 1031,6 hPa 0,0 mm 1,4 km/h (1 Bft) S 189 ° 0 min 0,000 mm 1,5 UV-I 91 W/m² 2,5 °C 5,5 °C 1,6 km/h (1 Bft)
14.02.2017 12:13 5,5 °C 5,5 °C 82 % 1031,6 hPa 0,0 mm 1,3 km/h (1 Bft) S 189 ° 0 min 0,000 mm 1,4 UV-I 72 W/m² 2,7 °C 5,5 °C 3,2 km/h (1 Bft)
14.02.2017 12:14 5,6 °C 5,6 °C 82 % 1031,5 hPa 0,0 mm 0,9 km/h (0 Bft) S 189 ° 0 min 0,000 mm 1,4 UV-I 63 W/m² 2,8 °C 5,6 °C 1,6 km/h (1 Bft)
14.02.2017 12:15 5,7 °C 5,7 °C 83 % 1031,5 hPa 0,0 mm 2,0 km/h (1 Bft) S 189 ° 0 min 0,000 mm 1,5 UV-I 132 W/m² 3,0 °C 5,7 °C 3,2 km/h (1 Bft)
14.02.2017 12:16 5,8 °C 5,8 °C 81 % 1031,5 hPa 0,0 mm 0,5 km/h (0 Bft) S 189 ° 0 min 0,000 mm 1,6 UV-I 98 W/m² 2,8 °C 5,8 °C 1,6 km/h (1 Bft)
14.02.2017 12:17 5,8 °C 5,8 °C 81 % 1031,5 hPa 0,0 mm 2,1 km/h (1 Bft) S 189 ° 0 min 0,000 mm 0,0 UV-I 44 W/m² 2,8 °C 5,8 °C 3,2 km/h (1 Bft)
14.02.2017 12:18 5,8 °C 5,8 °C 83 % 1031,5 hPa 0,0 mm 2,5 km/h (1 Bft) S 189 ° 0 min 0,000 mm 0,0 UV-I 35 W/m² 3,1 °C 5,8 °C 3,2 km/h (1 Bft)
14.02.2017 12:19 5,9 °C 5,9 °C 80 % 1031,5 hPa 0,0 mm 1,9 km/h (1 Bft) S 189 ° 0 min 0,000 mm 0,0 UV-I 35 W/m² 2,7 °C 5,9 °C 3,2 km/h (1 Bft)
14.02.2017 12:20 6,1 °C 6,1 °C 79 % 1031,4 hPa 0,0 mm 2,1 km/h (1 Bft) SO 134 ° 0 min 0,000 mm 0,0 UV-I 37 W/m² 2,7 °C 6,1 °C 3,2 km/h (1 Bft)
14.02.2017 12:21 6,2 °C 6,2 °C 78 % 1031,4 hPa 0,0 mm 1,3 km/h (1 Bft) SO 134 ° 0 min 0,000 mm 0,0 UV-I 35 W/m² 2,7 °C 6,2 °C 3,2 km/h (1 Bft)
14.02.2017 12:22 6,2 °C 6,2 °C 78 % 1031,4 hPa 0,0 mm 1,0 km/h (0 Bft) SO 134 ° 0 min 0,000 mm 0,0 UV-I 35 W/m² 2,7 °C 6,2 °C 1,6 km/h (1 Bft)
14.02.2017 12:23 6,2 °C 6,3 °C 78 % 1031,4 hPa 0,0 mm 0,8 km/h (0 Bft) SO 134 ° 0 min 0,000 mm 0,0 UV-I 35 W/m² 2,7 °C 6,2 °C 1,6 km/h (1 Bft)
14.02.2017 12:24 6,3 °C 6,3 °C 78 % 1031,4 hPa 0,0 mm 0,4 km/h (0 Bft) SO 134 ° 0 min 0,000 mm 0,0 UV-I 35 W/m² 2,8 °C 6,3 °C 1,6 km/h (1 Bft)
14.02.2017 12:25 6,1 °C 6,3 °C 78 % 1031,4 hPa 0,0 mm 1,1 km/h (1 Bft) SO 134 ° 0 min 0,000 mm 0,0 UV-I 35 W/m² 2,6 °C 6,1 °C 3,2 km/h (1 Bft)
14.02.2017 12:26 6,1 °C 6,1 °C 79 % 1031,3 hPa 0,0 mm 0,6 km/h (0 Bft) SO 134 ° 0 min 0,000 mm 0,0 UV-I 35 W/m² 2,7 °C 6,1 °C 3,2 km/h (1 Bft)
14.02.2017 12:27 6,0 °C 6,1 °C 80 % 1031,3 hPa 0,0 mm 0,3 km/h (0 Bft) SO 134 ° 0 min 0,000 mm 0,0 UV-I 35 W/m² 2,8 °C 6,0 °C 1,6 km/h (1 Bft)
14.02.2017 12:28 6,0 °C 6,1 °C 79 % 1031,3 hPa 0,0 mm 1,2 km/h (1 Bft) SO 134 ° 0 min 0,000 mm 0,0 UV-I 37 W/m² 2,6 °C 6,0 °C 1,6 km/h (1 Bft)
14.02.2017 12:29 5,9 °C 6,0 °C 80 % 1031,3 hPa 0,0 mm 1,5 km/h (1 Bft) SO 134 ° 0 min 0,000 mm 0,0 UV-I 49 W/m² 2,7 °C 5,9 °C 1,6 km/h (1 Bft)
14.02.2017 12:30 6,0 °C 6,0 °C 77 % 1031,3 hPa 0,0 mm 0,5 km/h (0 Bft) SO 134 ° 0 min 0,000 mm 1,5 UV-I 102 W/m² 2,3 °C 6,0 °C 1,6 km/h (1 Bft)
14.02.2017 12:31 6,1 °C 6,1 °C 73 % 1031,3 hPa 0,0 mm 0,6 km/h (0 Bft) SO 134 ° 0 min 0,000 mm 1,5 UV-I 102 W/m² 1,6 °C 6,1 °C 1,6 km/h (1 Bft)
14.02.2017 12:32 6,2 °C 6,2 °C 73 % 1031,3 hPa 0,0 mm 0,1 km/h (0 Bft) SO 134 ° 0 min 0,000 mm 0,0 UV-I 53 W/m² 1,7 °C 6,2 °C 1,6 km/h (1 Bft)
14.02.2017 12:33 6,3 °C 6,3 °C 73 % 1031,3 hPa 0,0 mm 0,9 km/h (0 Bft) SO 134 ° 0 min 0,000 mm 0,0 UV-I 35 W/m² 1,8 °C 6,3 °C 1,6 km/h (1 Bft)
14.02.2017 12:34 6,3 °C 6,3 °C 73 % 1031,3 hPa 0,0 mm 0,1 km/h (0 Bft) SO 134 ° 0 min 0,000 mm 0,0 UV-I 35 W/m² 1,8 °C 6,3 °C 1,6 km/h (1 Bft)
14.02.2017 12:35 6,4 °C 6,4 °C 72 % 1031,3 hPa 0,0 mm 0,1 km/h (0 Bft) SO 134 ° 0 min 0,000 mm 0,0 UV-I 35 W/m² 1,7 °C 6,4 °C 1,6 km/h (1 Bft)
14.02.2017 12:36 6,4 °C 6,4 °C 72 % 1031,3 hPa 0,0 mm 0,0 km/h (0 Bft) SO 134 ° 0 min 0,000 mm 0,0 UV-I 33 W/m² 1,7 °C 6,4 °C 0,0 km/h (0 Bft)
14.02.2017 12:37 6,5 °C 6,5 °C 72 % 1031,3 hPa 0,0 mm 1,6 km/h (1 Bft) SO 134 ° 0 min 0,000 mm 0,0 UV-I 35 W/m² 1,8 °C 6,5 °C 3,2 km/h (1 Bft)
14.02.2017 12:38 6,5 °C 6,5 °C 73 % 1031,4 hPa 0,0 mm 1,9 km/h (1 Bft) SO 134 ° 0 min 0,000 mm 0,0 UV-I 33 W/m² 2,0 °C 6,5 °C 3,2 km/h (1 Bft)
14.02.2017 12:39 6,4 °C 6,5 °C 72 % 1031,3 hPa 0,0 mm 2,7 km/h (1 Bft) SO 134 ° 0 min 0,000 mm 0,0 UV-I 33 W/m² 1,7 °C 6,4 °C 3,2 km/h (1 Bft)
14.02.2017 12:40 6,4 °C 6,4 °C 73 % 1031,3 hPa 0,0 mm 1,0 km/h (0 Bft) O-SO 117 ° 0 min 0,000 mm 0,0 UV-I 33 W/m² 1,9 °C 6,4 °C 3,2 km/h (1 Bft)
14.02.2017 12:41 6,4 °C 6,4 °C 72 % 1031,3 hPa 0,0 mm 1,1 km/h (1 Bft) O-SO 117 ° 0 min 0,000 mm 0,0 UV-I 33 W/m² 1,7 °C 6,4 °C 3,2 km/h (1 Bft)
14.02.2017 12:42 6,3 °C 6,4 °C 73 % 1031,3 hPa 0,0 mm 0,0 km/h (0 Bft) O-SO 117 ° 0 min 0,000 mm 0,0 UV-I 33 W/m² 1,8 °C 6,3 °C 0,0 km/h (0 Bft)
14.02.2017 12:43 6,2 °C 6,3 °C 73 % 1031,3 hPa 0,0 mm 0,0 km/h (0 Bft) O-SO 117 ° 0 min 0,000 mm 0,0 UV-I 33 W/m² 1,7 °C 6,2 °C 0,0 km/h (0 Bft)
14.02.2017 12:44 6,2 °C 6,3 °C 72 % 1031,3 hPa 0,0 mm 2,2 km/h (1 Bft) O-SO 116 ° 0 min 0,000 mm 0,0 UV-I 33 W/m² 1,5 °C 6,2 °C 4,8 km/h (1 Bft)
14.02.2017 12:45 6,2 °C 6,3 °C 73 % 1031,3 hPa 0,0 mm 2,3 km/h (1 Bft) O 98 ° 0 min 0,000 mm 0,0 UV-I 35 W/m² 1,7 °C 6,2 °C 3,2 km/h (1 Bft)
14.02.2017 12:46 6,2 °C 6,2 °C 71 % 1031,3 hPa 0,0 mm 5,6 km/h (1 Bft) O-NO 63 ° 0 min 0,000 mm 0,0 UV-I 37 W/m² 1,3 °C 5,2 °C 6,4 km/h (2 Bft)
14.02.2017 12:47 6,2 °C 6,2 °C 72 % 1031,3 hPa 0,0 mm 2,3 km/h (1 Bft) O-NO 63 ° 0 min 0,000 mm 0,0 UV-I 37 W/m² 1,5 °C 6,2 °C 4,8 km/h (1 Bft)
14.02.2017 12:48 6,2 °C 6,2 °C 70 % 1031,4 hPa 0,0 mm 2,1 km/h (1 Bft) O-NO 63 ° 0 min 0,000 mm 0,0 UV-I 35 W/m² 1,1 °C 6,2 °C 3,2 km/h (1 Bft)
14.02.2017 12:49 6,2 °C 6,2 °C 69 % 1031,4 hPa 0,0 mm 2,2 km/h (1 Bft) O-NO 63 ° 0 min 0,000 mm 0,0 UV-I 33 W/m² 0,9 °C 6,2 °C 3,2 km/h (1 Bft)
14.02.2017 12:50 6,4 °C 6,4 °C 69 % 1031,4 hPa 0,0 mm 1,9 km/h (1 Bft) O-NO 63 ° 0 min 0,000 mm 0,0 UV-I 33 W/m² 1,1 °C 6,4 °C 3,2 km/h (1 Bft)
14.02.2017 12:51 6,5 °C 6,5 °C 69 % 1031,4 hPa 0,0 mm 2,1 km/h (1 Bft) O-NO 63 ° 0 min 0,000 mm 0,0 UV-I 33 W/m² 1,2 °C 6,5 °C 3,2 km/h (1 Bft)
14.02.2017 12:52 6,6 °C 6,6 °C 68 % 1031,4 hPa 0,0 mm 1,1 km/h (1 Bft) O-NO 63 ° 0 min 0,000 mm 0,0 UV-I 33 W/m² 1,1 °C 6,6 °C 3,2 km/h (1 Bft)
14.02.2017 12:53 6,7 °C 6,7 °C 66 % 1031,4 hPa 0,0 mm 0,5 km/h (0 Bft) O-NO 63 ° 0 min 0,000 mm 0,0 UV-I 33 W/m² 0,8 °C 6,7 °C 1,6 km/h (1 Bft)
14.02.2017 12:54 6,7 °C 6,7 °C 66 % 1031,4 hPa 0,0 mm 0,9 km/h (0 Bft) O-NO 63 ° 0 min 0,000 mm 0,0 UV-I 33 W/m² 0,8 °C 6,7 °C 1,6 km/h (1 Bft)
14.02.2017 12:55 6,8 °C 6,8 °C 65 % 1031,4 hPa 0,0 mm 4,3 km/h (1 Bft) O 79 ° 0 min 0,000 mm 0,0 UV-I 33 W/m² 0,7 °C 6,8 °C 6,4 km/h (2 Bft)
14.02.2017 12:56 6,7 °C 6,8 °C 66 % 1031,4 hPa 0,0 mm 2,8 km/h (1 Bft) O 79 ° 0 min 0,000 mm 0,0 UV-I 42 W/m² 0,8 °C 6,7 °C 3,2 km/h (1 Bft)
14.02.2017 12:57 6,7 °C 6,8 °C 66 % 1031,4 hPa 0,0 mm 2,2 km/h (1 Bft) O 79 ° 0 min 0,000 mm 0,0 UV-I 40 W/m² 0,8 °C 6,7 °C 4,8 km/h (1 Bft)
14.02.2017 12:58 6,7 °C 6,7 °C 66 % 1031,4 hPa 0,0 mm 3,4 km/h (1 Bft) O 88 ° 0 min 0,000 mm 0,0 UV-I 35 W/m² 0,8 °C 6,7 °C 4,8 km/h (1 Bft)
14.02.2017 12:59 6,7 °C 6,7 °C 67 % 1031,4 hPa 0,0 mm 1,5 km/h (1 Bft) O 88 ° 0 min 0,000 mm 0,0 UV-I 35 W/m² 1,0 °C 6,7 °C 3,2 km/h (1 Bft)
14.02.2017 13:00 6,8 °C 6,8 °C 67 % 1031,4 hPa 0,0 mm 2,5 km/h (1 Bft) O 96 ° 0 min 0,000 mm 1,4 UV-I 58 W/m² 1,1 °C 6,8 °C 6,4 km/h (2 Bft)
14.02.2017 13:01 6,8 °C 6,8 °C 67 % 1031,4 hPa 0,0 mm 3,0 km/h (1 Bft) O 96 ° 0 min 0,026 mm 1,6 UV-I 127 W/m² 1,1 °C 6,8 °C 4,8 km/h (1 Bft)
14.02.2017 13:02 6,9 °C 6,9 °C 66 % 1031,4 hPa 0,0 mm 1,9 km/h (1 Bft) O 96 ° 1 min 0,000 mm 1,8 UV-I 225 W/m² 1,0 °C 6,9 °C 3,2 km/h (1 Bft)
14.02.2017 13:03 6,8 °C 6,9 °C 66 % 1031,4 hPa 0,0 mm 2,7 km/h (1 Bft) O 82 ° 1 min 0,000 mm 1,8 UV-I 225 W/m² 0,9 °C 6,8 °C 4,8 km/h (1 Bft)
14.02.2017 13:04 6,7 °C 6,8 °C 68 % 1031,4 hPa 0,0 mm 1,0 km/h (0 Bft) O 82 ° 0 min 0,000 mm 0,0 UV-I 47 W/m² 1,2 °C 6,7 °C 3,2 km/h (1 Bft)
14.02.2017 13:05 6,7 °C 6,7 °C 67 % 1031,4 hPa 0,0 mm 3,3 km/h (1 Bft) N-NO 19 ° 0 min 0,000 mm 0,0 UV-I 35 W/m² 1,0 °C 6,7 °C 4,8 km/h (1 Bft)
14.02.2017 13:06 6,7 °C 6,7 °C 67 % 1031,4 hPa 0,0 mm 3,4 km/h (1 Bft) NO 53 ° 0 min 0,000 mm 0,0 UV-I 37 W/m² 1,0 °C 6,7 °C 4,8 km/h (1 Bft)
14.02.2017 13:07 6,7 °C 6,7 °C 67 % 1031,4 hPa 0,0 mm 2,6 km/h (1 Bft) O 92 ° 0 min 0,000 mm 0,0 UV-I 40 W/m² 1,0 °C 6,7 °C 4,8 km/h (1 Bft)
14.02.2017 13:08 6,7 °C 6,7 °C 67 % 1031,4 hPa 0,0 mm 1,3 km/h (1 Bft) O 88 ° 0 min 0,000 mm 1,4 UV-I 83 W/m² 1,0 °C 6,7 °C 3,2 km/h (1 Bft)
14.02.2017 13:09 6,7 °C 6,7 °C 68 % 1031,5 hPa 0,0 mm 1,2 km/h (1 Bft) O 88 ° 0 min 0,000 mm 1,6 UV-I 132 W/m² 1,2 °C 6,7 °C 3,2 km/h (1 Bft)
14.02.2017 13:10 6,5 °C 6,7 °C 68 % 1031,4 hPa 0,0 mm 3,6 km/h (1 Bft) O 84 ° 0 min 0,000 mm 1,9 UV-I 132 W/m² 1,0 °C 6,5 °C 4,8 km/h (1 Bft)
14.02.2017 13:11 6,3 °C 6,5 °C 68 % 1031,4 hPa 0,0 mm 3,4 km/h (1 Bft) O 84 ° 0 min 0,000 mm 2,2 UV-I 132 W/m² 0,8 °C 6,3 °C 4,8 km/h (1 Bft)
14.02.2017 13:12 6,4 °C 6,4 °C 67 % 1031,5 hPa 0,0 mm 1,5 km/h (1 Bft) O 98 ° 1 min 0,000 mm 2,3 UV-I 489 W/m² 0,7 °C 6,4 °C 3,2 km/h (1 Bft)
14.02.2017 13:13 6,7 °C 6,7 °C 66 % 1031,4 hPa 0,0 mm 0,2 km/h (0 Bft) O 98 ° 1 min 0,000 mm 2,2 UV-I 443 W/m² 0,8 °C 6,7 °C 3,2 km/h (1 Bft)
14.02.2017 13:14 6,7 °C 6,7 °C 67 % 1031,5 hPa 0,0 mm 2,2 km/h (1 Bft) O 98 ° 1 min 0,000 mm 2,2 UV-I 404 W/m² 1,0 °C 6,7 °C 3,2 km/h (1 Bft)
14.02.2017 13:15 6,7 °C 6,7 °C 68 % 1031,5 hPa 0,0 mm 3,8 km/h (1 Bft) O-NO 65 ° 1 min 0,000 mm 2,1 UV-I 332 W/m² 1,2 °C 6,7 °C 4,8 km/h (1 Bft)
14.02.2017 13:16 6,8 °C 6,8 °C 68 % 1031,4 hPa 0,0 mm 4,1 km/h (1 Bft) O 96 ° 1 min 0,000 mm 1,8 UV-I 237 W/m² 1,3 °C 6,8 °C 6,4 km/h (2 Bft)
14.02.2017 13:17 6,9 °C 6,9 °C 66 % 1031,4 hPa 0,0 mm 2,7 km/h (1 Bft) O-NO 61 ° 1 min 0,000 mm 1,5 UV-I 237 W/m² 1,0 °C 6,9 °C 4,8 km/h (1 Bft)
14.02.2017 13:18 6,9 °C 6,9 °C 67 % 1031,4 hPa 0,0 mm 4,1 km/h (1 Bft) O 101 ° 0 min 0,000 mm 0,0 UV-I 47 W/m² 1,2 °C 6,9 °C 4,8 km/h (1 Bft)
14.02.2017 13:19 6,8 °C 6,9 °C 67 % 1031,3 hPa 0,0 mm 3,2 km/h (1 Bft) O 80 ° 0 min 0,000 mm 0,0 UV-I 37 W/m² 1,1 °C 6,8 °C 4,8 km/h (1 Bft)
14.02.2017 13:20 6,9 °C 6,9 °C 66 % 1031,4 hPa 0,0 mm 2,7 km/h (1 Bft) O-NO 74 ° 0 min 0,000 mm 0,0 UV-I 35 W/m² 1,0 °C 6,9 °C 4,8 km/h (1 Bft)
14.02.2017 13:21 6,8 °C 6,9 °C 66 % 1031,4 hPa 0,0 mm 1,7 km/h (1 Bft) O-NO 74 ° 0 min 0,000 mm 0,0 UV-I 35 W/m² 0,9 °C 6,8 °C 3,2 km/h (1 Bft)
14.02.2017 13:22 6,8 °C 6,8 °C 65 % 1031,3 hPa 0,0 mm 1,3 km/h (1 Bft) O-NO 74 ° 0 min 0,000 mm 0,0 UV-I 35 W/m² 0,7 °C 6,8 °C 3,2 km/h (1 Bft)
14.02.2017 13:23 6,9 °C 6,9 °C 65 % 1031,3 hPa 0,0 mm 1,0 km/h (0 Bft) O-NO 74 ° 0 min 0,000 mm 0,0 UV-I 37 W/m² 0,8 °C 6,9 °C 1,6 km/h (1 Bft)
14.02.2017 13:24 6,8 °C 6,9 °C 65 % 1031,3 hPa 0,0 mm 1,5 km/h (1 Bft) O-NO 74 ° 0 min 0,000 mm 0,0 UV-I 39 W/m² 0,7 °C 6,8 °C 3,2 km/h (1 Bft)
14.02.2017 13:25 6,8 °C 6,8 °C 65 % 1031,4 hPa 0,0 mm 0,3 km/h (0 Bft) O-NO 74 ° 0 min 0,000 mm 1,4 UV-I 56 W/m² 0,7 °C 6,8 °C 1,6 km/h (1 Bft)
14.02.2017 13:26 6,8 °C 6,8 °C 65 % 1031,4 hPa 0,0 mm 0,7 km/h (0 Bft) O-NO 74 ° 0 min 0,000 mm 1,7 UV-I 56 W/m² 0,7 °C 6,8 °C 3,2 km/h (1 Bft)
14.02.2017 13:27 7,0 °C 7,0 °C 64 % 1031,3 hPa 0,0 mm 1,3 km/h (1 Bft) O-NO 74 ° 1 min 0,000 mm 2,0 UV-I 346 W/m² 0,7 °C 7,0 °C 3,2 km/h (1 Bft)
14.02.2017 13:28 6,9 °C 7,1 °C 63 % 1031,3 hPa 0,0 mm 2,3 km/h (1 Bft) O-NO 74 ° 1 min 0,000 mm 1,6 UV-I 346 W/m² 0,4 °C 6,9 °C 3,2 km/h (1 Bft)
14.02.2017 13:29 6,9 °C 6,9 °C 64 % 1031,3 hPa 0,0 mm 1,3 km/h (1 Bft) O-NO 74 ° 1 min 0,000 mm 0,0 UV-I 346 W/m² 0,6 °C 6,9 °C 3,2 km/h (1 Bft)
14.02.2017 13:30 6,9 °C 6,9 °C 65 % 1031,4 hPa 0,0 mm 0,6 km/h (0 Bft) O-NO 74 ° 0 min 0,000 mm 0,0 UV-I 37 W/m² 0,8 °C 6,9 °C 1,6 km/h (1 Bft)
14.02.2017 13:31 6,9 °C 6,9 °C 65 % 1031,3 hPa 0,0 mm 0,5 km/h (0 Bft) O-NO 74 ° 0 min 0,000 mm 0,0 UV-I 42 W/m² 0,8 °C 6,9 °C 1,6 km/h (1 Bft)
14.02.2017 13:32 6,8 °C 6,9 °C 65 % 1031,4 hPa 0,0 mm 2,6 km/h (1 Bft) NO 44 ° 0 min 0,000 mm 1,4 UV-I 93 W/m² 0,7 °C 6,8 °C 4,8 km/h (1 Bft)
14.02.2017 13:33 6,8 °C 6,8 °C 65 % 1031,4 hPa 0,0 mm 4,3 km/h (1 Bft) O 80 ° 1 min 0,000 mm 1,7 UV-I 230 W/m² 0,7 °C 6,8 °C 6,4 km/h (2 Bft)
14.02.2017 13:34 6,9 °C 6,9 °C 65 % 1031,4 hPa 0,0 mm 3,4 km/h (1 Bft) O-NO 62 ° 0 min 0,000 mm 1,5 UV-I 130 W/m² 0,8 °C 6,9 °C 6,4 km/h (2 Bft)
14.02.2017 13:35 6,8 °C 6,9 °C 66 % 1031,4 hPa 0,0 mm 6,5 km/h (2 Bft) NO 48 ° 1 min 0,000 mm 1,7 UV-I 211 W/m² 0,9 °C 5,6 °C 8,0 km/h (2 Bft)
14.02.2017 13:36 6,7 °C 6,8 °C 66 % 1031,4 hPa 0,0 mm 5,6 km/h (1 Bft) NO 41 ° 1 min 0,000 mm 2,0 UV-I 211 W/m² 0,8 °C 5,8 °C 8,0 km/h (2 Bft)
14.02.2017 13:37 6,6 °C 6,7 °C 65 % 1031,4 hPa 0,0 mm 3,2 km/h (1 Bft) O-NO 64 ° 1 min 0,000 mm 2,0 UV-I 378 W/m² 0,5 °C 6,6 °C 6,4 km/h (2 Bft)
14.02.2017 13:38 6,6 °C 6,6 °C 66 % 1031,3 hPa 0,0 mm 3,6 km/h (1 Bft) O 79 ° 0 min 0,000 mm 1,7 UV-I 174 W/m² 0,7 °C 6,6 °C 6,4 km/h (2 Bft)
14.02.2017 13:39 6,6 °C 6,6 °C 66 % 1031,3 hPa 0,0 mm 3,8 km/h (1 Bft) O 83 ° 0 min 0,000 mm 1,9 UV-I 174 W/m² 0,7 °C 6,6 °C 4,8 km/h (1 Bft)
14.02.2017 13:40 6,8 °C 6,8 °C 65 % 1031,3 hPa 0,0 mm 2,4 km/h (1 Bft) O 82 ° 0 min 0,000 mm 2,1 UV-I 174 W/m² 0,7 °C 6,8 °C 3,2 km/h (1 Bft)
14.02.2017 13:41 6,9 °C 6,9 °C 65 % 1031,4 hPa 0,0 mm 1,0 km/h (0 Bft) O 82 ° 1 min 0,000 mm 2,1 UV-I 457 W/m² 0,8 °C 6,9 °C 1,6 km/h (1 Bft)
14.02.2017 13:42 7,0 °C 7,0 °C 64 % 1031,4 hPa 0,0 mm 2,4 km/h (1 Bft) O 82 ° 1 min 0,000 mm 2,1 UV-I 454 W/m² 0,7 °C 7,0 °C 4,8 km/h (1 Bft)
14.02.2017 13:43 7,1 °C 7,1 °C 64 % 1031,4 hPa 0,0 mm 1,2 km/h (1 Bft) O 82 ° 1 min 0,000 mm 2,1 UV-I 454 W/m² 0,8 °C 7,1 °C 3,2 km/h (1 Bft)
14.02.2017 13:44 7,1 °C 7,1 °C 64 % 1031,4 hPa 0,0 mm 3,1 km/h (1 Bft) O 99 ° 1 min 0,000 mm 2,1 UV-I 454 W/m² 0,8 °C 7,1 °C 4,8 km/h (1 Bft)
14.02.2017 13:45 7,1 °C 7,1 °C 64 % 1031,4 hPa 0,0 mm 2,7 km/h (1 Bft) O-NO 76 ° 1 min 0,000 mm 2,1 UV-I 452 W/m² 0,8 °C 7,1 °C 4,8 km/h (1 Bft)
14.02.2017 13:46 7,1 °C 7,1 °C 64 % 1031,4 hPa 0,0 mm 2,4 km/h (1 Bft) O 81 ° 1 min 0,000 mm 2,1 UV-I 454 W/m² 0,8 °C 7,1 °C 4,8 km/h (1 Bft)
14.02.2017 13:47 7,2 °C 7,2 °C 63 % 1031,4 hPa 0,0 mm 4,0 km/h (1 Bft) O 82 ° 1 min 0,000 mm 2,1 UV-I 452 W/m² 0,6 °C 7,2 °C 6,4 km/h (2 Bft)
14.02.2017 13:48 7,2 °C 7,2 °C 63 % 1031,4 hPa 0,0 mm 2,5 km/h (1 Bft) O 82 ° 1 min 0,000 mm 2,1 UV-I 450 W/m² 0,6 °C 7,2 °C 4,8 km/h (1 Bft)
14.02.2017 13:49 7,2 °C 7,3 °C 63 % 1031,4 hPa 0,0 mm 3,2 km/h (1 Bft) O 82 ° 1 min 0,000 mm 2,1 UV-I 448 W/m² 0,6 °C 7,2 °C 4,8 km/h (1 Bft)
14.02.2017 13:50 7,1 °C 7,2 °C 64 % 1031,4 hPa 0,0 mm 2,6 km/h (1 Bft) O-NO 69 ° 1 min 0,000 mm 2,1 UV-I 446 W/m² 0,8 °C 7,1 °C 3,2 km/h (1 Bft)
14.02.2017 13:51 7,1 °C 7,2 °C 64 % 1031,4 hPa 0,0 mm 3,4 km/h (1 Bft) NO 48 ° 1 min 0,000 mm 2,1 UV-I 446 W/m² 0,8 °C 7,1 °C 6,4 km/h (2 Bft)
14.02.2017 13:52 7,2 °C 7,2 °C 64 % 1031,4 hPa 0,0 mm 2,7 km/h (1 Bft) NO 48 ° 1 min 0,000 mm 2,1 UV-I 445 W/m² 0,9 °C 7,2 °C 4,8 km/h (1 Bft)
14.02.2017 13:53 7,3 °C 7,3 °C 63 % 1031,5 hPa 0,0 mm 0,6 km/h (0 Bft) NO 48 ° 1 min 0,000 mm 2,1 UV-I 445 W/m² 0,7 °C 7,3 °C 1,6 km/h (1 Bft)
14.02.2017 13:54 7,4 °C 7,4 °C 63 % 1031,5 hPa 0,0 mm 2,1 km/h (1 Bft) NO 48 ° 1 min 0,000 mm 2,1 UV-I 443 W/m² 0,8 °C 7,4 °C 3,2 km/h (1 Bft)
14.02.2017 13:55 7,4 °C 7,4 °C 62 % 1031,5 hPa 0,0 mm 1,5 km/h (1 Bft) NO 48 ° 1 min 0,000 mm 2,0 UV-I 439 W/m² 0,6 °C 7,4 °C 3,2 km/h (1 Bft)
14.02.2017 13:56 7,5 °C 7,5 °C 63 % 1031,5 hPa 0,0 mm 0,8 km/h (0 Bft) NO 48 ° 1 min 0,000 mm 2,0 UV-I 439 W/m² 0,9 °C 7,5 °C 1,6 km/h (1 Bft)
14.02.2017 13:57 7,5 °C 7,5 °C 62 % 1031,5 hPa 0,0 mm 3,1 km/h (1 Bft) NO 49 ° 1 min 0,000 mm 2,0 UV-I 438 W/m² 0,7 °C 7,5 °C 4,8 km/h (1 Bft)
14.02.2017 13:58 7,4 °C 7,5 °C 62 % 1031,5 hPa 0,0 mm 2,6 km/h (1 Bft) NO 46 ° 1 min 0,000 mm 2,0 UV-I 438 W/m² 0,6 °C 7,4 °C 3,2 km/h (1 Bft)
14.02.2017 13:59 7,6 °C 7,6 °C 61 % 1031,5 hPa 0,0 mm 3,3 km/h (1 Bft) NO 46 ° 1 min 0,000 mm 2,0 UV-I 438 W/m² 0,6 °C 7,6 °C 4,8 km/h (1 Bft)
14.02.2017 14:00 7,4 °C 7,6 °C 63 % 1031,6 hPa 0,0 mm 2,7 km/h (1 Bft) O-NO 69 ° 1 min 0,000 mm 2,0 UV-I 434 W/m² 0,8 °C 7,4 °C 4,8 km/h (1 Bft)
14.02.2017 14:01 7,4 °C 7,4 °C 63 % 1031,5 hPa 0,0 mm 3,4 km/h (1 Bft) O-NO 69 ° 1 min 0,127 mm 2,0 UV-I 432 W/m² 0,8 °C 7,4 °C 4,8 km/h (1 Bft)
14.02.2017 14:02 7,5 °C 7,5 °C 63 % 1031,5 hPa 0,0 mm 3,4 km/h (1 Bft) O-NO 78 ° 1 min 0,000 mm 2,0 UV-I 431 W/m² 0,9 °C 7,5 °C 6,4 km/h (2 Bft)
14.02.2017 14:03 7,5 °C 7,5 °C 62 % 1031,5 hPa 0,0 mm 5,3 km/h (1 Bft) NO 56 ° 1 min 0,000 mm 2,0 UV-I 429 W/m² 0,7 °C 6,8 °C 6,4 km/h (2 Bft)
14.02.2017 14:04 7,5 °C 7,5 °C 62 % 1031,5 hPa 0,0 mm 2,9 km/h (1 Bft) NO 56 ° 1 min 0,000 mm 2,0 UV-I 429 W/m² 0,7 °C 7,5 °C 4,8 km/h (1 Bft)
14.02.2017 14:05 7,4 °C 7,5 °C 61 % 1031,5 hPa 0,0 mm 1,1 km/h (1 Bft) NO 56 ° 1 min 0,000 mm 2,0 UV-I 427 W/m² 0,4 °C 7,4 °C 1,6 km/h (1 Bft)
14.02.2017 14:06 7,3 °C 7,4 °C 61 % 1031,4 hPa 0,0 mm 2,4 km/h (1 Bft) NO 56 ° 1 min 0,000 mm 2,0 UV-I 425 W/m² 0,3 °C 7,3 °C 3,2 km/h (1 Bft)
14.02.2017 14:07 7,3 °C 7,3 °C 62 % 1031,5 hPa 0,0 mm 1,0 km/h (0 Bft) NO 56 ° 1 min 0,000 mm 1,9 UV-I 424 W/m² 0,5 °C 7,3 °C 3,2 km/h (1 Bft)
14.02.2017 14:08 7,6 °C 7,6 °C 62 % 1031,4 hPa 0,0 mm 0,7 km/h (0 Bft) NO 56 ° 1 min 0,000 mm 1,9 UV-I 424 W/m² 0,8 °C 7,6 °C 1,6 km/h (1 Bft)
14.02.2017 14:09 7,6 °C 7,6 °C 61 % 1031,4 hPa 0,0 mm 2,0 km/h (1 Bft) NO 56 ° 1 min 0,000 mm 1,9 UV-I 422 W/m² 0,6 °C 7,6 °C 3,2 km/h (1 Bft)
14.02.2017 14:10 7,6 °C 7,6 °C 61 % 1031,4 hPa 0,0 mm 0,9 km/h (0 Bft) NO 56 ° 1 min 0,000 mm 1,9 UV-I 420 W/m² 0,6 °C 7,6 °C 1,6 km/h (1 Bft)
14.02.2017 14:11 7,4 °C 7,6 °C 61 % 1031,5 hPa 0,0 mm 1,1 km/h (1 Bft) NO 56 ° 1 min 0,000 mm 1,9 UV-I 418 W/m² 0,4 °C 7,4 °C 3,2 km/h (1 Bft)
14.02.2017 14:12 7,4 °C 7,4 °C 61 % 1031,4 hPa 0,0 mm 1,9 km/h (1 Bft) NO 56 ° 1 min 0,000 mm 1,9 UV-I 417 W/m² 0,4 °C 7,4 °C 3,2 km/h (1 Bft)
14.02.2017 14:13 7,4 °C 7,4 °C 62 % 1031,4 hPa 0,0 mm 1,4 km/h (1 Bft) NO 56 ° 1 min 0,000 mm 1,9 UV-I 415 W/m² 0,6 °C 7,4 °C 3,2 km/h (1 Bft)
14.02.2017 14:14 7,4 °C 7,5 °C 61 % 1031,4 hPa 0,0 mm 2,5 km/h (1 Bft) O-NO 63 ° 1 min 0,000 mm 1,9 UV-I 413 W/m² 0,4 °C 7,4 °C 4,8 km/h (1 Bft)
14.02.2017 14:15 7,5 °C 7,5 °C 61 % 1031,4 hPa 0,0 mm 4,8 km/h (1 Bft) O-NO 67 ° 1 min 0,000 mm 1,9 UV-I 411 W/m² 0,5 °C 7,0 °C 6,4 km/h (2 Bft)
14.02.2017 14:16 7,5 °C 7,5 °C 62 % 1031,4 hPa 0,0 mm 4,2 km/h (1 Bft) NO 42 ° 1 min 0,000 mm 1,9 UV-I 411 W/m² 0,7 °C 7,5 °C 6,4 km/h (2 Bft)
14.02.2017 14:17 7,4 °C 7,5 °C 62 % 1031,4 hPa 0,0 mm 2,8 km/h (1 Bft) NO 42 ° 1 min 0,000 mm 1,9 UV-I 408 W/m² 0,6 °C 7,4 °C 3,2 km/h (1 Bft)
14.02.2017 14:18 7,4 °C 7,4 °C 62 % 1031,4 hPa 0,0 mm 3,6 km/h (1 Bft) O-NO 76 ° 1 min 0,000 mm 1,9 UV-I 408 W/m² 0,6 °C 7,4 °C 4,8 km/h (1 Bft)
14.02.2017 14:19 7,3 °C 7,4 °C 62 % 1031,4 hPa 0,0 mm 1,8 km/h (1 Bft) O-NO 76 ° 1 min 0,000 mm 1,9 UV-I 404 W/m² 0,5 °C 7,3 °C 4,8 km/h (1 Bft)
14.02.2017 14:20 7,5 °C 7,5 °C 61 % 1031,4 hPa 0,0 mm 1,9 km/h (1 Bft) O-NO 76 ° 1 min 0,000 mm 1,9 UV-I 403 W/m² 0,5 °C 7,5 °C 3,2 km/h (1 Bft)
14.02.2017 14:21 7,6 °C 7,6 °C 61 % 1031,5 hPa 0,0 mm 2,6 km/h (1 Bft) O-NO 78 ° 1 min 0,000 mm 1,9 UV-I 403 W/m² 0,6 °C 7,6 °C 4,8 km/h (1 Bft)
14.02.2017 14:22 7,6 °C 7,6 °C 60 % 1031,4 hPa 0,0 mm 0,8 km/h (0 Bft) O-NO 78 ° 1 min 0,000 mm 1,9 UV-I 401 W/m² 0,3 °C 7,6 °C 1,6 km/h (1 Bft)
14.02.2017 14:23 7,7 °C 7,7 °C 60 % 1031,4 hPa 0,0 mm 1,9 km/h (1 Bft) O-NO 78 ° 1 min 0,000 mm 1,8 UV-I 399 W/m² 0,4 °C 7,7 °C 3,2 km/h (1 Bft)
14.02.2017 14:24 7,8 °C 7,8 °C 59 % 1031,4 hPa 0,0 mm 0,6 km/h (0 Bft) O-NO 78 ° 1 min 0,000 mm 1,8 UV-I 396 W/m² 0,3 °C 7,8 °C 1,6 km/h (1 Bft)
14.02.2017 14:25 7,8 °C 7,8 °C 59 % 1031,4 hPa 0,0 mm 2,3 km/h (1 Bft) O 94 ° 1 min 0,000 mm 1,8 UV-I 394 W/m² 0,3 °C 7,8 °C 4,8 km/h (1 Bft)
14.02.2017 14:26 7,7 °C 7,8 °C 59 % 1031,4 hPa 0,0 mm 3,1 km/h (1 Bft) O 94 ° 1 min 0,000 mm 1,8 UV-I 392 W/m² 0,2 °C 7,7 °C 4,8 km/h (1 Bft)
14.02.2017 14:27 7,5 °C 7,7 °C 60 % 1031,4 hPa 0,0 mm 2,3 km/h (1 Bft) O 94 ° 1 min 0,000 mm 1,8 UV-I 392 W/m² 0,2 °C 7,5 °C 3,2 km/h (1 Bft)
14.02.2017 14:28 7,5 °C 7,5 °C 60 % 1031,5 hPa 0,0 mm 2,5 km/h (1 Bft) O 95 ° 1 min 0,000 mm 1,8 UV-I 390 W/m² 0,2 °C 7,5 °C 4,8 km/h (1 Bft)
14.02.2017 14:29 7,6 °C 7,6 °C 60 % 1031,5 hPa 0,0 mm 2,4 km/h (1 Bft) NO 48 ° 1 min 0,000 mm 1,8 UV-I 388 W/m² 0,3 °C 7,6 °C 4,8 km/h (1 Bft)
14.02.2017 14:30 7,6 °C 7,7 °C 60 % 1031,4 hPa 0,0 mm 4,7 km/h (1 Bft) O-NO 75 ° 1 min 0,000 mm 1,8 UV-I 383 W/m² 0,3 °C 7,1 °C 4,8 km/h (1 Bft)
14.02.2017 14:31 7,6 °C 7,6 °C 60 % 1031,5 hPa 0,0 mm 3,4 km/h (1 Bft) O 80 ° 1 min 0,000 mm 1,8 UV-I 383 W/m² 0,3 °C 7,6 °C 4,8 km/h (1 Bft)
14.02.2017 14:32 7,7 °C 7,7 °C 60 % 1031,5 hPa 0,0 mm 5,1 km/h (1 Bft) O-NO 71 ° 1 min 0,000 mm 1,8 UV-I 380 W/m² 0,4 °C 7,1 °C 6,4 km/h (2 Bft)
14.02.2017 14:33 7,7 °C 7,7 °C 60 % 1031,5 hPa 0,0 mm 2,4 km/h (1 Bft) O-NO 71 ° 1 min 0,000 mm 1,8 UV-I 378 W/m² 0,4 °C 7,7 °C 4,8 km/h (1 Bft)
14.02.2017 14:34 7,7 °C 7,7 °C 58 % 1031,5 hPa 0,0 mm 1,1 km/h (1 Bft) O-NO 71 ° 1 min 0,000 mm 1,7 UV-I 378 W/m² -0,0 °C 7,7 °C 3,2 km/h (1 Bft)
14.02.2017 14:35 7,9 °C 7,9 °C 59 % 1031,5 hPa 0,0 mm 0,3 km/h (0 Bft) O-NO 71 ° 1 min 0,000 mm 1,7 UV-I 376 W/m² 0,4 °C 7,9 °C 1,6 km/h (1 Bft)
14.02.2017 14:36 7,9 °C 7,9 °C 58 % 1031,5 hPa 0,0 mm 0,2 km/h (0 Bft) O-NO 71 ° 1 min 0,000 mm 1,7 UV-I 374 W/m² 0,2 °C 7,9 °C 1,6 km/h (1 Bft)
14.02.2017 14:37 8,0 °C 8,0 °C 57 % 1031,5 hPa 0,0 mm 0,3 km/h (0 Bft) O-NO 71 ° 1 min 0,000 mm 1,7 UV-I 373 W/m² 0,0 °C 8,0 °C 1,6 km/h (1 Bft)
14.02.2017 14:38 8,1 °C 8,1 °C 57 % 1031,5 hPa 0,0 mm 0,5 km/h (0 Bft) O-NO 71 ° 1 min 0,000 mm 1,7 UV-I 371 W/m² 0,1 °C 8,1 °C 1,6 km/h (1 Bft)
14.02.2017 14:39 8,1 °C 8,1 °C 56 % 1031,5 hPa 0,0 mm 2,3 km/h (1 Bft) O-NO 71 ° 1 min 0,000 mm 1,7 UV-I 369 W/m² -0,1 °C 8,1 °C 3,2 km/h (1 Bft)
14.02.2017 14:40 7,9 °C 8,1 °C 57 % 1031,5 hPa 0,0 mm 2,4 km/h (1 Bft) O-NO 71 ° 1 min 0,000 mm 1,7 UV-I 369 W/m² -0,1 °C 7,9 °C 3,2 km/h (1 Bft)
14.02.2017 14:41 7,7 °C 7,9 °C 57 % 1031,5 hPa 0,0 mm 1,3 km/h (1 Bft) O-NO 71 ° 1 min 0,000 mm 1,7 UV-I 366 W/m² -0,3 °C 7,7 °C 3,2 km/h (1 Bft)
14.02.2017 14:42 7,8 °C 7,8 °C 57 % 1031,6 hPa 0,0 mm 1,3 km/h (1 Bft) O-NO 71 ° 1 min 0,000 mm 1,7 UV-I 364 W/m² -0,2 °C 7,8 °C 3,2 km/h (1 Bft)
14.02.2017 14:43 7,8 °C 7,8 °C 57 % 1031,6 hPa 0,0 mm 2,8 km/h (1 Bft) O 89 ° 1 min 0,000 mm 1,6 UV-I 362 W/m² -0,2 °C 7,8 °C 4,8 km/h (1 Bft)
14.02.2017 14:44 7,8 °C 7,8 °C 56 % 1031,6 hPa 0,0 mm 3,2 km/h (1 Bft) O 89 ° 1 min 0,000 mm 1,6 UV-I 360 W/m² -0,4 °C 7,8 °C 4,8 km/h (1 Bft)
14.02.2017 14:45 7,8 °C 7,8 °C 56 % 1031,6 hPa 0,0 mm 2,7 km/h (1 Bft) O 89 ° 1 min 0,000 mm 1,6 UV-I 359 W/m² -0,4 °C 7,8 °C 4,8 km/h (1 Bft)
14.02.2017 14:46 7,9 °C 7,9 °C 56 % 1031,5 hPa 0,0 mm 0,8 km/h (0 Bft) O 89 ° 1 min 0,000 mm 1,6 UV-I 357 W/m² -0,3 °C 7,9 °C 1,6 km/h (1 Bft)
14.02.2017 14:47 7,8 °C 7,9 °C 56 % 1031,6 hPa 0,0 mm 3,4 km/h (1 Bft) O-NO 59 ° 1 min 0,000 mm 1,6 UV-I 355 W/m² -0,4 °C 7,8 °C 4,8 km/h (1 Bft)
14.02.2017 14:48 7,8 °C 7,8 °C 57 % 1031,6 hPa 0,0 mm 3,6 km/h (1 Bft) NO 48 ° 1 min 0,000 mm 1,5 UV-I 352 W/m² -0,2 °C 7,8 °C 4,8 km/h (1 Bft)
14.02.2017 14:49 7,7 °C 7,8 °C 57 % 1031,6 hPa 0,0 mm 2,7 km/h (1 Bft) NO 48 ° 1 min 0,000 mm 1,5 UV-I 348 W/m² -0,3 °C 7,7 °C 3,2 km/h (1 Bft)
14.02.2017 14:50 7,6 °C 7,7 °C 57 % 1031,6 hPa 0,0 mm 3,2 km/h (1 Bft) NO 56 ° 1 min 0,000 mm 1,5 UV-I 346 W/m² -0,4 °C 7,6 °C 6,4 km/h (2 Bft)
14.02.2017 14:51 7,4 °C 7,6 °C 56 % 1031,6 hPa 0,0 mm 1,9 km/h (1 Bft) NO 55 ° 1 min 0,000 mm 1,4 UV-I 346 W/m² -0,8 °C 7,4 °C 3,2 km/h (1 Bft)
14.02.2017 14:52 7,4 °C 7,6 °C 59 % 1031,6 hPa 0,0 mm 3,9 km/h (1 Bft) O-NO 67 ° 1 min 0,000 mm 1,4 UV-I 345 W/m² -0,1 °C 7,4 °C 4,8 km/h (1 Bft)
14.02.2017 14:53 7,4 °C 7,4 °C 58 % 1031,6 hPa 0,0 mm 3,8 km/h (1 Bft) O-NO 67 ° 1 min 0,000 mm 1,4 UV-I 343 W/m² -0,3 °C 7,4 °C 4,8 km/h (1 Bft)
14.02.2017 14:54 7,4 °C 7,4 °C 57 % 1031,6 hPa 0,0 mm 2,6 km/h (1 Bft) O-NO 67 ° 1 min 0,000 mm 1,4 UV-I 339 W/m² -0,5 °C 7,4 °C 4,8 km/h (1 Bft)
14.02.2017 14:55 7,6 °C 7,6 °C 56 % 1031,7 hPa 0,0 mm 0,9 km/h (0 Bft) O-NO 67 ° 1 min 0,000 mm 1,3 UV-I 338 W/m² -0,6 °C 7,6 °C 1,6 km/h (1 Bft)
14.02.2017 14:56 7,7 °C 7,7 °C 55 % 1031,7 hPa 0,0 mm 1,7 km/h (1 Bft) O-NO 67 ° 1 min 0,000 mm 1,3 UV-I 338 W/m² -0,8 °C 7,7 °C 3,2 km/h (1 Bft)
14.02.2017 14:57 7,7 °C 7,8 °C 55 % 1031,7 hPa 0,0 mm 1,9 km/h (1 Bft) O-NO 67 ° 1 min 0,000 mm 1,3 UV-I 334 W/m² -0,8 °C 7,7 °C 3,2 km/h (1 Bft)
14.02.2017 14:58 7,7 °C 7,7 °C 55 % 1031,7 hPa 0,0 mm 3,2 km/h (1 Bft) N-NO 22 ° 1 min 0,000 mm 1,3 UV-I 332 W/m² -0,8 °C 7,7 °C 8,0 km/h (2 Bft)
14.02.2017 14:59 7,7 °C 7,7 °C 56 % 1031,7 hPa 0,0 mm 4,2 km/h (1 Bft) O 94 ° 1 min 0,000 mm 1,3 UV-I 329 W/m² -0,5 °C 7,7 °C 6,4 km/h (2 Bft)
14.02.2017 15:00 7,4 °C 7,7 °C 57 % 1031,7 hPa 0,0 mm 3,4 km/h (1 Bft) O 84 ° 1 min 0,177 mm 1,3 UV-I 325 W/m² -0,5 °C 7,4 °C 6,4 km/h (2 Bft)
14.02.2017 15:01 7,5 °C 7,5 °C 55 % 1031,7 hPa 0,0 mm 3,6 km/h (1 Bft) O-NO 64 ° 1 min 0,000 mm 1,3 UV-I 325 W/m² -0,9 °C 7,5 °C 6,4 km/h (2 Bft)
14.02.2017 15:02 7,6 °C 7,6 °C 54 % 1031,7 hPa 0,0 mm 3,2 km/h (1 Bft) O 83 ° 1 min 0,000 mm 1,3 UV-I 323 W/m² -1,1 °C 7,6 °C 4,8 km/h (1 Bft)
14.02.2017 15:03 7,6 °C 7,6 °C 55 % 1031,8 hPa 0,0 mm 3,6 km/h (1 Bft) O-NO 62 ° 1 min 0,000 mm 1,3 UV-I 322 W/m² -0,9 °C 7,6 °C 4,8 km/h (1 Bft)
14.02.2017 15:04 7,4 °C 7,6 °C 53 % 1031,8 hPa 0,0 mm 3,4 km/h (1 Bft) O-NO 59 ° 1 min 0,000 mm 1,3 UV-I 320 W/m² -1,5 °C 7,4 °C 4,8 km/h (1 Bft)
14.02.2017 15:05 7,3 °C 7,4 °C 54 % 1031,7 hPa 0,0 mm 5,2 km/h (1 Bft) O-SO 107 ° 1 min 0,000 mm 1,3 UV-I 316 W/m² -1,4 °C 6,6 °C 9,7 km/h (2 Bft)
14.02.2017 15:06 7,4 °C 7,4 °C 55 % 1031,8 hPa 0,0 mm 8,0 km/h (2 Bft) O 84 ° 1 min 0,000 mm 1,3 UV-I 313 W/m² -1,0 °C 6,0 °C 11,3 km/h (2 Bft)
14.02.2017 15:07 7,4 °C 7,4 °C 55 % 1031,8 hPa 0,0 mm 5,6 km/h (1 Bft) O 82 ° 1 min 0,000 mm 1,2 UV-I 311 W/m² -1,0 °C 6,6 °C 8,0 km/h (2 Bft)
14.02.2017 15:08 7,3 °C 7,4 °C 55 % 1031,8 hPa 0,0 mm 6,0 km/h (2 Bft) O-NO 59 ° 1 min 0,000 mm 1,2 UV-I 309 W/m² -1,1 °C 6,4 °C 8,0 km/h (2 Bft)
14.02.2017 15:09 7,3 °C 7,3 °C 54 % 1031,8 hPa 0,0 mm 3,2 km/h (1 Bft) O-NO 59 ° 1 min 0,000 mm 1,2 UV-I 309 W/m² -1,4 °C 7,3 °C 4,8 km/h (1 Bft)
14.02.2017 15:10 7,4 °C 7,4 °C 53 % 1031,8 hPa 0,0 mm 2,6 km/h (1 Bft) O-NO 59 ° 1 min 0,000 mm 1,2 UV-I 306 W/m² -1,5 °C 7,4 °C 3,2 km/h (1 Bft)
14.02.2017 15:11 7,6 °C 7,6 °C 52 % 1031,8 hPa 0,0 mm 2,8 km/h (1 Bft) O-NO 59 ° 1 min 0,000 mm 1,2 UV-I 302 W/m² -1,6 °C 7,6 °C 3,2 km/h (1 Bft)
14.02.2017 15:12 7,6 °C 7,7 °C 52 % 1031,8 hPa 0,0 mm 3,3 km/h (1 Bft) O-NO 65 ° 1 min 0,000 mm 1,1 UV-I 301 W/m² -1,6 °C 7,6 °C 4,8 km/h (1 Bft)
14.02.2017 15:13 7,6 °C 7,6 °C 52 % 1031,8 hPa 0,0 mm 1,2 km/h (1 Bft) O-NO 65 ° 1 min 0,000 mm 1,1 UV-I 299 W/m² -1,6 °C 7,6 °C 3,2 km/h (1 Bft)
14.02.2017 15:14 7,4 °C 7,6 °C 52 % 1031,8 hPa 0,0 mm 1,3 km/h (1 Bft) O-NO 65 ° 1 min 0,000 mm 1,2 UV-I 297 W/m² -1,8 °C 7,4 °C 3,2 km/h (1 Bft)
14.02.2017 15:15 7,3 °C 7,4 °C 53 % 1031,8 hPa 0,0 mm 1,9 km/h (1 Bft) O-NO 65 ° 1 min 0,000 mm 1,2 UV-I 295 W/m² -1,6 °C 7,3 °C 3,2 km/h (1 Bft)
14.02.2017 15:16 7,3 °C 7,3 °C 53 % 1031,8 hPa 0,0 mm 1,9 km/h (1 Bft) O-NO 65 ° 1 min 0,000 mm 1,2 UV-I 294 W/m² -1,6 °C 7,3 °C 3,2 km/h (1 Bft)
14.02.2017 15:17 7,3 °C 7,3 °C 53 % 1031,8 hPa 0,0 mm 2,4 km/h (1 Bft) O-NO 65 ° 1 min 0,000 mm 1,1 UV-I 290 W/m² -1,6 °C 7,3 °C 4,8 km/h (1 Bft)
14.02.2017 15:18 7,3 °C 7,3 °C 53 % 1031,8 hPa 0,0 mm 3,3 km/h (1 Bft) O 101 ° 1 min 0,000 mm 1,1 UV-I 288 W/m² -1,6 °C 7,3 °C 4,8 km/h (1 Bft)
14.02.2017 15:19 7,4 °C 7,4 °C 52 % 1031,8 hPa 0,0 mm 1,7 km/h (1 Bft) O 101 ° 1 min 0,000 mm 1,1 UV-I 287 W/m² -1,8 °C 7,4 °C 3,2 km/h (1 Bft)
14.02.2017 15:20 7,5 °C 7,6 °C 51 % 1031,8 hPa 0,0 mm 1,7 km/h (1 Bft) O 101 ° 1 min 0,000 mm 1,1 UV-I 285 W/m² -2,0 °C 7,5 °C 3,2 km/h (1 Bft)
14.02.2017 15:21 7,7 °C 7,7 °C 50 % 1031,8 hPa 0,0 mm 1,2 km/h (1 Bft) O 101 ° 1 min 0,000 mm 1,1 UV-I 285 W/m² -2,1 °C 7,7 °C 3,2 km/h (1 Bft)
14.02.2017 15:22 7,7 °C 7,7 °C 50 % 1031,8 hPa 0,0 mm 2,3 km/h (1 Bft) O 101 ° 1 min 0,000 mm 1,1 UV-I 279 W/m² -2,1 °C 7,7 °C 3,2 km/h (1 Bft)
14.02.2017 15:23 7,7 °C 7,7 °C 51 % 1031,8 hPa 0,0 mm 0,9 km/h (0 Bft) O 101 ° 1 min 0,000 mm 1,1 UV-I 258 W/m² -1,8 °C 7,7 °C 1,6 km/h (1 Bft)
14.02.2017 15:24 7,7 °C 7,7 °C 51 % 1031,7 hPa 0,0 mm 1,3 km/h (1 Bft) O 101 ° 1 min 0,000 mm 1,1 UV-I 250 W/m² -1,8 °C 7,7 °C 1,6 km/h (1 Bft)
14.02.2017 15:25 7,6 °C 7,7 °C 52 % 1031,7 hPa 0,0 mm 2,1 km/h (1 Bft) O 101 ° 1 min 0,000 mm 1,1 UV-I 250 W/m² -1,6 °C 7,6 °C 3,2 km/h (1 Bft)
14.02.2017 15:26 7,4 °C 7,6 °C 52 % 1031,7 hPa 0,0 mm 1,3 km/h (1 Bft) O 101 ° 1 min 0,000 mm 1,0 UV-I 236 W/m² -1,8 °C 7,4 °C 3,2 km/h (1 Bft)
14.02.2017 15:27 7,4 °C 7,4 °C 51 % 1031,7 hPa 0,0 mm 1,5 km/h (1 Bft) O 101 ° 1 min 0,000 mm 1,0 UV-I 207 W/m² -2,1 °C 7,4 °C 3,2 km/h (1 Bft)
14.02.2017 15:28 7,4 °C 7,4 °C 51 % 1031,7 hPa 0,0 mm 0,9 km/h (0 Bft) O 101 ° 0 min 0,000 mm 1,0 UV-I 199 W/m² -2,1 °C 7,4 °C 1,6 km/h (1 Bft)
14.02.2017 15:29 7,6 °C 7,6 °C 50 % 1031,7 hPa 0,0 mm 0,0 km/h (0 Bft) O 101 ° 0 min 0,000 mm 1,0 UV-I 190 W/m² -2,1 °C 7,6 °C 0,0 km/h (0 Bft)
14.02.2017 15:30 7,7 °C 7,7 °C 50 % 1031,7 hPa 0,0 mm 0,0 km/h (0 Bft) O 101 ° 0 min 0,000 mm 0,9 UV-I 153 W/m² -2,1 °C 7,7 °C 0,0 km/h (0 Bft)
14.02.2017 15:31 7,7 °C 7,7 °C 50 % 1031,7 hPa 0,0 mm 0,5 km/h (0 Bft) O 101 ° 0 min 0,000 mm 0,9 UV-I 130 W/m² -2,1 °C 7,7 °C 1,6 km/h (1 Bft)
14.02.2017 15:32 7,7 °C 7,7 °C 51 % 1031,7 hPa 0,0 mm 1,1 km/h (1 Bft) O 101 ° 0 min 0,000 mm 0,9 UV-I 90 W/m² -1,8 °C 7,7 °C 3,2 km/h (1 Bft)
14.02.2017 15:33 7,6 °C 7,7 °C 51 % 1031,7 hPa 0,0 mm 1,1 km/h (1 Bft) O 101 ° 0 min 0,000 mm 0,9 UV-I 90 W/m² -1,9 °C 7,6 °C 1,6 km/h (1 Bft)
14.02.2017 15:34 7,6 °C 7,7 °C 51 % 1031,8 hPa 0,0 mm 1,1 km/h (1 Bft) O 101 ° 0 min 0,000 mm 0,9 UV-I 114 W/m² -1,9 °C 7,6 °C 3,2 km/h (1 Bft)
14.02.2017 15:35 7,5 °C 7,6 °C 51 % 1031,7 hPa 0,0 mm 1,0 km/h (0 Bft) O 101 ° 0 min 0,000 mm 0,9 UV-I 144 W/m² -2,0 °C 7,5 °C 1,6 km/h (1 Bft)
14.02.2017 15:36 7,4 °C 7,6 °C 51 % 1031,8 hPa 0,0 mm 1,1 km/h (1 Bft) O 101 ° 0 min 0,000 mm 0,9 UV-I 158 W/m² -2,1 °C 7,4 °C 1,6 km/h (1 Bft)
14.02.2017 15:37 7,3 °C 7,4 °C 53 % 1031,8 hPa 0,0 mm 1,5 km/h (1 Bft) O 101 ° 0 min 0,000 mm 0,9 UV-I 167 W/m² -1,6 °C 7,3 °C 1,6 km/h (1 Bft)
14.02.2017 15:38 7,2 °C 7,3 °C 52 % 1031,8 hPa 0,0 mm 2,1 km/h (1 Bft) O 101 ° 0 min 0,000 mm 0,9 UV-I 199 W/m² -2,0 °C 7,2 °C 3,2 km/h (1 Bft)
14.02.2017 15:39 7,1 °C 7,2 °C 53 % 1031,8 hPa 0,0 mm 0,8 km/h (0 Bft) O 101 ° 1 min 0,000 mm 0,9 UV-I 223 W/m² -1,8 °C 7,1 °C 1,6 km/h (1 Bft)
14.02.2017 15:40 7,0 °C 7,1 °C 53 % 1031,8 hPa 0,0 mm 1,5 km/h (1 Bft) O 101 ° 1 min 0,000 mm 0,9 UV-I 221 W/m² -1,9 °C 7,0 °C 3,2 km/h (1 Bft)
14.02.2017 15:41 7,0 °C 7,0 °C 53 % 1031,9 hPa 0,0 mm 0,3 km/h (0 Bft) O 101 ° 1 min 0,000 mm 0,9 UV-I 214 W/m² -1,9 °C 7,0 °C 1,6 km/h (1 Bft)
14.02.2017 15:42 7,1 °C 7,1 °C 52 % 1031,9 hPa 0,0 mm 1,8 km/h (1 Bft) O 101 ° 1 min 0,000 mm 0,9 UV-I 218 W/m² -2,1 °C 7,1 °C 3,2 km/h (1 Bft)
14.02.2017 15:43 7,1 °C 7,2 °C 52 % 1031,9 hPa 0,0 mm 1,7 km/h (1 Bft) O 101 ° 1 min 0,000 mm 0,9 UV-I 214 W/m² -2,1 °C 7,1 °C 3,2 km/h (1 Bft)
14.02.2017 15:44 7,3 °C 7,3 °C 52 % 1031,9 hPa 0,0 mm 0,4 km/h (0 Bft) O 101 ° 0 min 0,000 mm 0,8 UV-I 195 W/m² -1,9 °C 7,3 °C 3,2 km/h (1 Bft)
14.02.2017 15:45 7,3 °C 7,3 °C 53 % 1031,9 hPa 0,0 mm 1,5 km/h (1 Bft) O 101 ° 0 min 0,000 mm 0,8 UV-I 174 W/m² -1,6 °C 7,3 °C 3,2 km/h (1 Bft)
14.02.2017 15:46 7,2 °C 7,3 °C 52 % 1031,9 hPa 0,0 mm 1,2 km/h (1 Bft) O 101 ° 0 min 0,000 mm 0,8 UV-I 118 W/m² -2,0 °C 7,2 °C 1,6 km/h (1 Bft)
14.02.2017 15:47 7,3 °C 7,3 °C 52 % 1031,8 hPa 0,0 mm 0,2 km/h (0 Bft) O 101 ° 0 min 0,000 mm 0,8 UV-I 67 W/m² -1,9 °C 7,3 °C 1,6 km/h (1 Bft)
14.02.2017 15:48 7,3 °C 7,3 °C 52 % 1031,9 hPa 0,0 mm 2,1 km/h (1 Bft) O 101 ° 0 min 0,000 mm 0,0 UV-I 46 W/m² -1,9 °C 7,3 °C 3,2 km/h (1 Bft)
14.02.2017 15:49 7,4 °C 7,4 °C 52 % 1032,0 hPa 0,0 mm 1,1 km/h (1 Bft) O 101 ° 0 min 0,000 mm 0,0 UV-I 47 W/m² -1,8 °C 7,4 °C 3,2 km/h (1 Bft)
14.02.2017 15:50 7,4 °C 7,4 °C 52 % 1031,9 hPa 0,0 mm 1,5 km/h (1 Bft) O 101 ° 0 min 0,000 mm 0,0 UV-I 54 W/m² -1,8 °C 7,4 °C 3,2 km/h (1 Bft)
14.02.2017 15:51 7,4 °C 7,4 °C 52 % 1031,9 hPa 0,0 mm 2,1 km/h (1 Bft) O 101 ° 0 min 0,000 mm 0,0 UV-I 53 W/m² -1,8 °C 7,4 °C 3,2 km/h (1 Bft)
14.02.2017 15:52 7,4 °C 7,4 °C 51 % 1031,9 hPa 0,0 mm 2,2 km/h (1 Bft) O 101 ° 0 min 0,000 mm 0,7 UV-I 88 W/m² -2,1 °C 7,4 °C 3,2 km/h (1 Bft)
14.02.2017 15:53 7,2 °C 7,4 °C 53 % 1031,9 hPa 0,0 mm 1,0 km/h (0 Bft) O 101 ° 0 min 0,000 mm 0,7 UV-I 88 W/m² -1,7 °C 7,2 °C 3,2 km/h (1 Bft)
14.02.2017 15:54 7,1 °C 7,2 °C 52 % 1031,9 hPa 0,0 mm 0,7 km/h (0 Bft) O 101 ° 0 min 0,000 mm 0,7 UV-I 70 W/m² -2,1 °C 7,1 °C 1,6 km/h (1 Bft)
14.02.2017 15:55 6,9 °C 7,1 °C 53 % 1032,0 hPa 0,0 mm 1,5 km/h (1 Bft) O 101 ° 0 min 0,000 mm 0,0 UV-I 47 W/m² -2,0 °C 6,9 °C 3,2 km/h (1 Bft)
14.02.2017 15:56 6,8 °C 6,9 °C 54 % 1032,0 hPa 0,0 mm 1,7 km/h (1 Bft) O 101 ° 0 min 0,000 mm 0,0 UV-I 33 W/m² -1,8 °C 6,8 °C 3,2 km/h (1 Bft)
14.02.2017 15:57 6,7 °C 6,8 °C 54 % 1032,0 hPa 0,0 mm 2,9 km/h (1 Bft) O 101 ° 0 min 0,000 mm 0,0 UV-I 39 W/m² -1,9 °C 6,7 °C 3,2 km/h (1 Bft)
14.02.2017 15:58 6,7 °C 6,8 °C 54 % 1032,0 hPa 0,0 mm 2,2 km/h (1 Bft) O 101 ° 0 min 0,000 mm 0,0 UV-I 39 W/m² -1,9 °C 6,7 °C 3,2 km/h (1 Bft)
14.02.2017 15:59 6,7 °C 6,8 °C 54 % 1032,0 hPa 0,0 mm 1,2 km/h (1 Bft) O 101 ° 0 min 0,000 mm 0,0 UV-I 35 W/m² -1,9 °C 6,7 °C 3,2 km/h (1 Bft)
14.02.2017 16:00 6,7 °C 6,8 °C 56 % 1032,0 hPa 0,0 mm 2,5 km/h (1 Bft) O 101 ° 0 min 0,000 mm 0,0 UV-I 37 W/m² -1,4 °C 6,7 °C 3,2 km/h (1 Bft)
14.02.2017 16:01 6,7 °C 6,7 °C 56 % 1032,0 hPa 0,0 mm 1,9 km/h (1 Bft) O 101 ° 0 min 0,102 mm 0,0 UV-I 39 W/m² -1,4 °C 6,7 °C 3,2 km/h (1 Bft)
14.02.2017 16:02 6,5 °C 6,7 °C 57 % 1032,0 hPa 0,0 mm 1,5 km/h (1 Bft) O 101 ° 0 min 0,000 mm 0,0 UV-I 33 W/m² -1,4 °C 6,5 °C 3,2 km/h (1 Bft)
14.02.2017 16:03 6,4 °C 6,5 °C 58 % 1032,0 hPa 0,0 mm 1,4 km/h (1 Bft) O 101 ° 0 min 0,000 mm 0,0 UV-I 30 W/m² -1,2 °C 6,4 °C 3,2 km/h (1 Bft)
14.02.2017 16:04 6,3 °C 6,4 °C 58 % 1032,0 hPa 0,0 mm 1,9 km/h (1 Bft) O 101 ° 0 min 0,000 mm 0,0 UV-I 28 W/m² -1,3 °C 6,3 °C 3,2 km/h (1 Bft)
14.02.2017 16:05 6,2 °C 6,3 °C 57 % 1032,0 hPa 0,0 mm 2,9 km/h (1 Bft) O 101 ° 0 min 0,000 mm 0,0 UV-I 26 W/m² -1,7 °C 6,2 °C 4,8 km/h (1 Bft)
14.02.2017 16:06 6,1 °C 6,2 °C 58 % 1032,1 hPa 0,0 mm 2,9 km/h (1 Bft) O 101 ° 0 min 0,000 mm 0,0 UV-I 26 W/m² -1,5 °C 6,1 °C 3,2 km/h (1 Bft)
14.02.2017 16:07 5,9 °C 6,1 °C 60 % 1032,1 hPa 0,0 mm 2,9 km/h (1 Bft) O-SO 102 ° 0 min 0,000 mm 0,0 UV-I 26 W/m² -1,3 °C 5,9 °C 4,8 km/h (1 Bft)
14.02.2017 16:08 5,9 °C 5,9 °C 61 % 1032,1 hPa 0,0 mm 3,0 km/h (1 Bft) O-SO 102 ° 0 min 0,000 mm 0,0 UV-I 25 W/m² -1,0 °C 5,9 °C 3,2 km/h (1 Bft)
14.02.2017 16:09 5,9 °C 5,9 °C 60 % 1032,1 hPa 0,0 mm 2,8 km/h (1 Bft) O-SO 102 ° 0 min 0,000 mm 0,0 UV-I 25 W/m² -1,3 °C 5,9 °C 3,2 km/h (1 Bft)
14.02.2017 16:10 5,8 °C 5,9 °C 61 % 1032,1 hPa 0,0 mm 2,8 km/h (1 Bft) O-SO 102 ° 0 min 0,000 mm 0,0 UV-I 25 W/m² -1,1 °C 5,8 °C 4,8 km/h (1 Bft)
14.02.2017 16:11 5,6 °C 5,8 °C 63 % 1032,2 hPa 0,0 mm 2,3 km/h (1 Bft) O-SO 102 ° 0 min 0,000 mm 0,0 UV-I 25 W/m² -0,9 °C 5,6 °C 3,2 km/h (1 Bft)
14.02.2017 16:12 5,6 °C 5,6 °C 62 % 1032,2 hPa 0,0 mm 2,5 km/h (1 Bft) O-SO 102 ° 0 min 0,000 mm 0,0 UV-I 25 W/m² -1,1 °C 5,6 °C 3,2 km/h (1 Bft)
14.02.2017 16:13 5,5 °C 5,6 °C 62 % 1032,1 hPa 0,0 mm 2,1 km/h (1 Bft) O-SO 102 ° 0 min 0,000 mm 0,0 UV-I 25 W/m² -1,2 °C 5,5 °C 4,8 km/h (1 Bft)
14.02.2017 16:14 5,6 °C 5,6 °C 61 % 1032,2 hPa 0,0 mm 0,7 km/h (0 Bft) O-SO 102 ° 0 min 0,000 mm 0,0 UV-I 25 W/m² -1,3 °C 5,6 °C 3,2 km/h (1 Bft)
14.02.2017 16:15 5,7 °C 5,7 °C 63 % 1032,2 hPa 0,0 mm 2,4 km/h (1 Bft) O-SO 102 ° 0 min 0,000 mm 0,0 UV-I 25 W/m² -0,8 °C 5,7 °C 3,2 km/h (1 Bft)
14.02.2017 16:16 5,6 °C 5,7 °C 63 % 1032,2 hPa 0,0 mm 1,6 km/h (1 Bft) O-SO 102 ° 0 min 0,000 mm 0,0 UV-I 25 W/m² -0,9 °C 5,6 °C 3,2 km/h (1 Bft)
14.02.2017 16:17 5,5 °C 5,6 °C 62 % 1032,2 hPa 0,0 mm 0,9 km/h (0 Bft) O-SO 102 ° 0 min 0,000 mm 0,0 UV-I 25 W/m² -1,2 °C 5,5 °C 3,2 km/h (1 Bft)
14.02.2017 16:18 5,4 °C 5,6 °C 62 % 1032,1 hPa 0,0 mm 1,5 km/h (1 Bft) O-SO 102 ° 0 min 0,000 mm 0,0 UV-I 25 W/m² -1,3 °C 5,4 °C 3,2 km/h (1 Bft)
14.02.2017 16:19 5,4 °C 5,4 °C 62 % 1032,2 hPa 0,0 mm 1,4 km/h (1 Bft) O-SO 102 ° 0 min 0,000 mm 0,0 UV-I 25 W/m² -1,3 °C 5,4 °C 3,2 km/h (1 Bft)
14.02.2017 16:20 5,3 °C 5,4 °C 62 % 1032,3 hPa 0,0 mm 2,6 km/h (1 Bft) O-SO 102 ° 0 min 0,000 mm 0,0 UV-I 25 W/m² -1,4 °C 5,3 °C 3,2 km/h (1 Bft)
14.02.2017 16:21 5,3 °C 5,3 °C 63 % 1032,3 hPa 0,0 mm 3,1 km/h (1 Bft) O-NO 67 ° 0 min 0,000 mm 0,0 UV-I 23 W/m² -1,2 °C 5,3 °C 4,8 km/h (1 Bft)
14.02.2017 16:22 5,3 °C 5,3 °C 63 % 1032,2 hPa 0,0 mm 2,2 km/h (1 Bft) O-NO 67 ° 0 min 0,000 mm 0,0 UV-I 23 W/m² -1,2 °C 5,3 °C 3,2 km/h (1 Bft)
14.02.2017 16:23 5,3 °C 5,3 °C 64 % 1032,3 hPa 0,0 mm 2,5 km/h (1 Bft) O-NO 67 ° 0 min 0,000 mm 0,0 UV-I 23 W/m² -0,9 °C 5,3 °C 3,2 km/h (1 Bft)
14.02.2017 16:24 5,2 °C 5,3 °C 63 % 1032,3 hPa 0,0 mm 2,4 km/h (1 Bft) O-NO 67 ° 0 min 0,000 mm 0,0 UV-I 23 W/m² -1,3 °C 5,2 °C 4,8 km/h (1 Bft)
14.02.2017 16:25 5,3 °C 5,3 °C 63 % 1032,3 hPa 0,0 mm 1,9 km/h (1 Bft) O-NO 67 ° 0 min 0,000 mm 0,0 UV-I 23 W/m² -1,2 °C 5,3 °C 3,2 km/h (1 Bft)
14.02.2017 16:26 5,3 °C 5,3 °C 64 % 1032,3 hPa 0,0 mm 2,3 km/h (1 Bft) O-NO 67 ° 0 min 0,000 mm 0,0 UV-I 23 W/m² -0,9 °C 5,3 °C 3,2 km/h (1 Bft)
14.02.2017 16:27 5,2 °C 5,3 °C 64 % 1032,4 hPa 0,0 mm 3,3 km/h (1 Bft) O 94 ° 0 min 0,000 mm 0,0 UV-I 23 W/m² -1,0 °C 5,2 °C 4,8 km/h (1 Bft)
14.02.2017 16:28 5,3 °C 5,3 °C 64 % 1032,3 hPa 0,0 mm 4,1 km/h (1 Bft) O-SO 109 ° 0 min 0,000 mm 0,0 UV-I 23 W/m² -0,9 °C 5,3 °C 9,7 km/h (2 Bft)
14.02.2017 16:29 5,3 °C 5,3 °C 64 % 1032,4 hPa 0,0 mm 4,0 km/h (1 Bft) O-SO 115 ° 0 min 0,000 mm 0,0 UV-I 23 W/m² -0,9 °C 5,3 °C 9,7 km/h (2 Bft)
14.02.2017 16:30 5,3 °C 5,3 °C 64 % 1032,4 hPa 0,0 mm 3,0 km/h (1 Bft) O-SO 115 ° 0 min 0,000 mm 0,0 UV-I 23 W/m² -0,9 °C 5,3 °C 4,8 km/h (1 Bft)
14.02.2017 16:31 5,2 °C 5,3 °C 65 % 1032,4 hPa 0,0 mm 3,0 km/h (1 Bft) O-SO 115 ° 0 min 0,000 mm 0,0 UV-I 23 W/m² -0,8 °C 5,2 °C 4,8 km/h (1 Bft)
14.02.2017 16:32 5,2 °C 5,2 °C 66 % 1032,4 hPa 0,0 mm 2,6 km/h (1 Bft) O 86 ° 0 min 0,000 mm 0,0 UV-I 23 W/m² -0,6 °C 5,2 °C 4,8 km/h (1 Bft)
14.02.2017 16:33 5,1 °C 5,2 °C 67 % 1032,4 hPa 0,0 mm 3,4 km/h (1 Bft) O-SO 119 ° 0 min 0,000 mm 0,0 UV-I 21 W/m² -0,5 °C 5,1 °C 4,8 km/h (1 Bft)
14.02.2017 16:34 5,1 °C 5,1 °C 67 % 1032,4 hPa 0,0 mm 3,0 km/h (1 Bft) O-SO 119 ° 0 min 0,000 mm 0,0 UV-I 21 W/m² -0,5 °C 5,1 °C 4,8 km/h (1 Bft)
14.02.2017 16:35 4,9 °C 5,1 °C 67 % 1032,4 hPa 0,0 mm 3,2 km/h (1 Bft) O 79 ° 0 min 0,000 mm 0,0 UV-I 21 W/m² -0,7 °C 4,9 °C 4,8 km/h (1 Bft)
14.02.2017 16:36 4,8 °C 4,9 °C 67 % 1032,4 hPa 0,0 mm 1,9 km/h (1 Bft) O 79 ° 0 min 0,000 mm 0,0 UV-I 21 W/m² -0,8 °C 4,8 °C 3,2 km/h (1 Bft)
14.02.2017 16:37 4,8 °C 4,8 °C 68 % 1032,5 hPa 0,0 mm 2,1 km/h (1 Bft) O 79 ° 0 min 0,000 mm 0,0 UV-I 21 W/m² -0,6 °C 4,8 °C 3,2 km/h (1 Bft)
14.02.2017 16:38 4,8 °C 4,8 °C 68 % 1032,5 hPa 0,0 mm 2,4 km/h (1 Bft) O 98 ° 0 min 0,000 mm 0,0 UV-I 21 W/m² -0,6 °C 4,8 °C 4,8 km/h (1 Bft)
14.02.2017 16:39 4,9 °C 4,9 °C 67 % 1032,5 hPa 0,0 mm 2,3 km/h (1 Bft) O-SO 110 ° 0 min 0,000 mm 0,0 UV-I 21 W/m² -0,7 °C 4,9 °C 4,8 km/h (1 Bft)
14.02.2017 16:40 5,1 °C 5,1 °C 67 % 1032,5 hPa 0,0 mm 3,2 km/h (1 Bft) O-SO 110 ° 0 min 0,000 mm 0,0 UV-I 21 W/m² -0,5 °C 5,1 °C 6,4 km/h (2 Bft)
14.02.2017 16:41 4,9 °C 5,1 °C 67 % 1032,5 hPa 0,0 mm 2,2 km/h (1 Bft) O-SO 110 ° 0 min 0,000 mm 0,0 UV-I 21 W/m² -0,7 °C 4,9 °C 3,2 km/h (1 Bft)
14.02.2017 16:42 4,9 °C 5,0 °C 67 % 1032,5 hPa 0,0 mm 2,3 km/h (1 Bft) O-SO 110 ° 0 min 0,000 mm 0,0 UV-I 21 W/m² -0,7 °C 4,9 °C 3,2 km/h (1 Bft)
14.02.2017 16:43 4,9 °C 5,0 °C 66 % 1032,5 hPa 0,0 mm 3,2 km/h (1 Bft) O-SO 110 ° 0 min 0,000 mm 0,0 UV-I 19 W/m² -0,9 °C 4,9 °C 4,8 km/h (1 Bft)
14.02.2017 16:44 4,8 °C 4,9 °C 67 % 1032,5 hPa 0,0 mm 3,0 km/h (1 Bft) O-SO 108 ° 0 min 0,000 mm 0,0 UV-I 19 W/m² -0,8 °C 4,8 °C 4,8 km/h (1 Bft)
14.02.2017 16:45 4,7 °C 4,8 °C 67 % 1032,5 hPa 0,0 mm 3,3 km/h (1 Bft) O-SO 109 ° 0 min 0,000 mm 0,0 UV-I 19 W/m² -0,9 °C 4,7 °C 4,8 km/h (1 Bft)
14.02.2017 16:46 4,7 °C 4,7 °C 68 % 1032,5 hPa 0,0 mm 2,7 km/h (1 Bft) SO 138 ° 0 min 0,000 mm 0,0 UV-I 19 W/m² -0,7 °C 4,7 °C 4,8 km/h (1 Bft)
14.02.2017 16:47 4,7 °C 4,7 °C 68 % 1032,5 hPa 0,0 mm 2,1 km/h (1 Bft) SO 138 ° 0 min 0,000 mm 0,0 UV-I 19 W/m² -0,7 °C 4,7 °C 3,2 km/h (1 Bft)
14.02.2017 16:48 4,8 °C 4,8 °C 69 % 1032,6 hPa 0,0 mm 2,7 km/h (1 Bft) SO 138 ° 0 min 0,000 mm 0,0 UV-I 19 W/m² -0,4 °C 4,8 °C 4,8 km/h (1 Bft)
14.02.2017 16:49 4,9 °C 4,9 °C 69 % 1032,6 hPa 0,0 mm 2,8 km/h (1 Bft) SO 138 ° 0 min 0,000 mm 0,0 UV-I 19 W/m² -0,3 °C 4,9 °C 3,2 km/h (1 Bft)
14.02.2017 16:50 4,8 °C 4,9 °C 69 % 1032,6 hPa 0,0 mm 4,2 km/h (1 Bft) O-NO 63 ° 0 min 0,000 mm 0,0 UV-I 19 W/m² -0,4 °C 4,8 °C 6,4 km/h (2 Bft)
14.02.2017 16:51 4,6 °C 4,8 °C 69 % 1032,6 hPa 0,0 mm 2,6 km/h (1 Bft) O-NO 63 ° 0 min 0,000 mm 0,0 UV-I 18 W/m² -0,6 °C 4,6 °C 3,2 km/h (1 Bft)
14.02.2017 16:52 4,6 °C 4,7 °C 70 % 1032,6 hPa 0,0 mm 2,4 km/h (1 Bft) O-NO 63 ° 0 min 0,000 mm 0,0 UV-I 18 W/m² -0,4 °C 4,6 °C 4,8 km/h (1 Bft)
14.02.2017 16:53 4,4 °C 4,6 °C 69 % 1032,6 hPa 0,0 mm 2,7 km/h (1 Bft) O-NO 63 ° 0 min 0,000 mm 0,0 UV-I 18 W/m² -0,8 °C 4,4 °C 4,8 km/h (1 Bft)
14.02.2017 16:54 4,4 °C 4,4 °C 71 % 1032,6 hPa 0,0 mm 2,7 km/h (1 Bft) O-NO 63 ° 0 min 0,000 mm 0,0 UV-I 18 W/m² -0,4 °C 4,4 °C 4,8 km/h (1 Bft)
14.02.2017 16:55 4,3 °C 4,4 °C 71 % 1032,6 hPa 0,0 mm 2,5 km/h (1 Bft) O-NO 63 ° 0 min 0,000 mm 0,0 UV-I 18 W/m² -0,5 °C 4,3 °C 4,8 km/h (1 Bft)
14.02.2017 16:56 4,3 °C 4,3 °C 72 % 1032,6 hPa 0,0 mm 2,7 km/h (1 Bft) O 99 ° 0 min 0,000 mm 0,0 UV-I 18 W/m² -0,3 °C 4,3 °C 4,8 km/h (1 Bft)
14.02.2017 16:57 4,3 °C 4,3 °C 72 % 1032,6 hPa 0,0 mm 3,8 km/h (1 Bft) O-SO 115 ° 0 min 0,000 mm 0,0 UV-I 16 W/m² -0,3 °C 4,3 °C 6,4 km/h (2 Bft)
14.02.2017 16:58 4,3 °C 4,3 °C 72 % 1032,6 hPa 0,0 mm 1,7 km/h (1 Bft) O-SO 115 ° 0 min 0,000 mm 0,0 UV-I 16 W/m² -0,3 °C 4,3 °C 3,2 km/h (1 Bft)
14.02.2017 16:59 4,4 °C 4,4 °C 72 % 1032,6 hPa 0,0 mm 1,5 km/h (1 Bft) O-SO 115 ° 0 min 0,000 mm 0,0 UV-I 16 W/m² -0,2 °C 4,4 °C 3,2 km/h (1 Bft)
14.02.2017 17:00 4,5 °C 4,5 °C 72 % 1032,6 hPa 0,0 mm 1,9 km/h (1 Bft) O-SO 115 ° 0 min 0,000 mm 0,0 UV-I 16 W/m² -0,1 °C 4,5 °C 3,2 km/h (1 Bft)
14.02.2017 17:01 4,6 °C 4,6 °C 71 % 1032,7 hPa 0,0 mm 1,7 km/h (1 Bft) O-SO 115 ° 0 min 0,025 mm 0,0 UV-I 16 W/m² -0,2 °C 4,6 °C 3,2 km/h (1 Bft)
14.02.2017 17:02 4,6 °C 4,6 °C 71 % 1032,7 hPa 0,0 mm 1,8 km/h (1 Bft) O-SO 115 ° 0 min 0,000 mm 0,0 UV-I 16 W/m² -0,2 °C 4,6 °C 3,2 km/h (1 Bft)
14.02.2017 17:03 4,6 °C 4,6 °C 71 % 1032,7 hPa 0,0 mm 2,7 km/h (1 Bft) O-SO 115 ° 0 min 0,000 mm 0,0 UV-I 16 W/m² -0,2 °C 4,6 °C 3,2 km/h (1 Bft)
14.02.2017 17:04 4,5 °C 4,6 °C 72 % 1032,6 hPa 0,0 mm 1,9 km/h (1 Bft) O-SO 115 ° 0 min 0,000 mm 0,0 UV-I 16 W/m² -0,1 °C 4,5 °C 3,2 km/h (1 Bft)
14.02.2017 17:05 4,5 °C 4,5 °C 72 % 1032,7 hPa 0,0 mm 2,1 km/h (1 Bft) O-SO 115 ° 0 min 0,000 mm 0,0 UV-I 14 W/m² -0,1 °C 4,5 °C 3,2 km/h (1 Bft)
14.02.2017 17:06 4,5 °C 4,5 °C 72 % 1032,7 hPa 0,0 mm 2,4 km/h (1 Bft) O-SO 115 ° 0 min 0,000 mm 0,0 UV-I 14 W/m² -0,1 °C 4,5 °C 3,2 km/h (1 Bft)
14.02.2017 17:07 4,5 °C 4,5 °C 72 % 1032,6 hPa 0,0 mm 2,4 km/h (1 Bft) O-SO 115 ° 0 min 0,000 mm 0,0 UV-I 14 W/m² -0,1 °C 4,5 °C 3,2 km/h (1 Bft)
14.02.2017 17:08 4,6 °C 4,6 °C 72 % 1032,6 hPa 0,0 mm 2,1 km/h (1 Bft) O-SO 115 ° 0 min 0,000 mm 0,0 UV-I 14 W/m² -0,0 °C 4,6 °C 3,2 km/h (1 Bft)
14.02.2017 17:09 4,6 °C 4,6 °C 72 % 1032,6 hPa 0,0 mm 1,4 km/h (1 Bft) O-SO 115 ° 0 min 0,000 mm 0,0 UV-I 14 W/m² -0,0 °C 4,6 °C 3,2 km/h (1 Bft)
14.02.2017 17:10 4,6 °C 4,6 °C 72 % 1032,7 hPa 0,0 mm 1,5 km/h (1 Bft) O-SO 115 ° 0 min 0,000 mm 0,0 UV-I 14 W/m² -0,0 °C 4,6 °C 3,2 km/h (1 Bft)
14.02.2017 17:11 4,6 °C 4,6 °C 72 % 1032,7 hPa 0,0 mm 2,1 km/h (1 Bft) O-SO 115 ° 0 min 0,000 mm 0,0 UV-I 14 W/m² -0,0 °C 4,6 °C 3,2 km/h (1 Bft)
14.02.2017 17:12 4,5 °C 4,6 °C 72 % 1032,6 hPa 0,0 mm 2,1 km/h (1 Bft) O-SO 115 ° 0 min 0,000 mm 0,0 UV-I 12 W/m² -0,1 °C 4,5 °C 3,2 km/h (1 Bft)
14.02.2017 17:13 4,5 °C 4,5 °C 72 % 1032,7 hPa 0,0 mm 1,9 km/h (1 Bft) O-SO 115 ° 0 min 0,000 mm 0,0 UV-I 12 W/m² -0,1 °C 4,5 °C 3,2 km/h (1 Bft)
14.02.2017 17:14 4,5 °C 4,5 °C 72 % 1032,7 hPa 0,0 mm 2,3 km/h (1 Bft) O-SO 115 ° 0 min 0,000 mm 0,0 UV-I 12 W/m² -0,1 °C 4,5 °C 3,2 km/h (1 Bft)
14.02.2017 17:15 4,5 °C 4,5 °C 72 % 1032,7 hPa 0,0 mm 1,8 km/h (1 Bft) O-SO 115 ° 0 min 0,000 mm 0,0 UV-I 12 W/m² -0,1 °C 4,5 °C 3,2 km/h (1 Bft)
14.02.2017 17:16 4,5 °C 4,5 °C 72 % 1032,7 hPa 0,0 mm 2,1 km/h (1 Bft) O-SO 115 ° 0 min 0,000 mm 0,0 UV-I 12 W/m² -0,1 °C 4,5 °C 3,2 km/h (1 Bft)
14.02.2017 17:17 4,5 °C 4,5 °C 73 % 1032,8 hPa 0,0 mm 2,0 km/h (1 Bft) O-SO 115 ° 0 min 0,000 mm 0,0 UV-I 12 W/m² 0,1 °C 4,5 °C 3,2 km/h (1 Bft)
14.02.2017 17:18 4,5 °C 4,5 °C 73 % 1032,8 hPa 0,0 mm 2,4 km/h (1 Bft) O-SO 115 ° 0 min 0,000 mm 0,0 UV-I 11 W/m² 0,1 °C 4,5 °C 3,2 km/h (1 Bft)
14.02.2017 17:19 4,5 °C 4,5 °C 73 % 1032,8 hPa 0,0 mm 1,8 km/h (1 Bft) O-SO 115 ° 0 min 0,000 mm 0,0 UV-I 11 W/m² 0,1 °C 4,5 °C 3,2 km/h (1 Bft)
14.02.2017 17:20 4,4 °C 4,5 °C 73 % 1032,8 hPa 0,0 mm 1,4 km/h (1 Bft) O-SO 115 ° 0 min 0,000 mm 0,0 UV-I 11 W/m² -0,0 °C 4,4 °C 3,2 km/h (1 Bft)
14.02.2017 17:21 4,4 °C 4,4 °C 73 % 1032,8 hPa 0,0 mm 2,6 km/h (1 Bft) O-SO 115 ° 0 min 0,000 mm 0,0 UV-I 11 W/m² -0,0 °C 4,4 °C 3,2 km/h (1 Bft)
14.02.2017 17:22 4,4 °C 4,4 °C 73 % 1032,8 hPa 0,0 mm 2,7 km/h (1 Bft) O-SO 115 ° 0 min 0,000 mm 0,0 UV-I 11 W/m² -0,0 °C 4,4 °C 3,2 km/h (1 Bft)
14.02.2017 17:23 4,4 °C 4,4 °C 73 % 1032,8 hPa 0,0 mm 1,7 km/h (1 Bft) O-SO 115 ° 0 min 0,000 mm 0,0 UV-I 9 W/m² -0,0 °C 4,4 °C 3,2 km/h (1 Bft)
14.02.2017 17:24 4,3 °C 4,4 °C 73 % 1032,8 hPa 0,0 mm 2,6 km/h (1 Bft) O-SO 115 ° 0 min 0,000 mm 0,0 UV-I 9 W/m² -0,1 °C 4,3 °C 3,2 km/h (1 Bft)
14.02.2017 17:25 4,3 °C 4,3 °C 73 % 1032,8 hPa 0,0 mm 3,2 km/h (1 Bft) O-SO 115 ° 0 min 0,000 mm 0,0 UV-I 9 W/m² -0,1 °C 4,3 °C 3,2 km/h (1 Bft)
14.02.2017 17:26 4,3 °C 4,3 °C 73 % 1032,9 hPa 0,0 mm 2,4 km/h (1 Bft) O-SO 115 ° 0 min 0,000 mm 0,0 UV-I 9 W/m² -0,1 °C 4,3 °C 3,2 km/h (1 Bft)
14.02.2017 17:27 4,2 °C 4,3 °C 74 % 1032,8 hPa 0,0 mm 2,1 km/h (1 Bft) O-SO 115 ° 0 min 0,000 mm 0,0 UV-I 7 W/m² -0,0 °C 4,2 °C 4,8 km/h (1 Bft)
14.02.2017 17:28 4,2 °C 4,2 °C 74 % 1032,9 hPa 0,0 mm 2,5 km/h (1 Bft) O-SO 115 ° 0 min 0,000 mm 0,0 UV-I 7 W/m² -0,0 °C 4,2 °C 3,2 km/h (1 Bft)
14.02.2017 17:29 4,2 °C 4,2 °C 74 % 1032,9 hPa 0,0 mm 3,2 km/h (1 Bft) O-SO 115 ° 0 min 0,000 mm 0,0 UV-I 7 W/m² -0,0 °C 4,2 °C 3,2 km/h (1 Bft)
14.02.2017 17:30 4,2 °C 4,2 °C 74 % 1032,9 hPa 0,0 mm 2,5 km/h (1 Bft) O-SO 115 ° 0 min 0,000 mm 0,0 UV-I 7 W/m² -0,0 °C 4,2 °C 3,2 km/h (1 Bft)
14.02.2017 17:31 4,2 °C 4,2 °C 74 % 1032,9 hPa 0,0 mm 3,6 km/h (1 Bft) O-SO 115 ° 0 min 0,000 mm 0,0 UV-I 7 W/m² -0,0 °C 4,2 °C 4,8 km/h (1 Bft)
14.02.2017 17:32 4,1 °C 4,2 °C 74 % 1032,9 hPa 0,0 mm 2,4 km/h (1 Bft) O-SO 115 ° 0 min 0,000 mm 0,0 UV-I 5 W/m² -0,1 °C 4,1 °C 3,2 km/h (1 Bft)
14.02.2017 17:33 4,1 °C 4,1 °C 74 % 1032,9 hPa 0,0 mm 2,8 km/h (1 Bft) O-SO 115 ° 0 min 0,000 mm 0,0 UV-I 5 W/m² -0,1 °C 4,1 °C 4,8 km/h (1 Bft)
14.02.2017 17:34 4,1 °C 4,1 °C 74 % 1032,9 hPa 0,0 mm 2,5 km/h (1 Bft) O-SO 115 ° 0 min 0,000 mm 0,0 UV-I 5 W/m² -0,1 °C 4,1 °C 3,2 km/h (1 Bft)
14.02.2017 17:35 4,0 °C 4,1 °C 75 % 1032,9 hPa 0,0 mm 2,7 km/h (1 Bft) O-SO 115 ° 0 min 0,000 mm 0,0 UV-I 5 W/m² -0,0 °C 4,0 °C 4,8 km/h (1 Bft)
14.02.2017 17:36 3,9 °C 4,0 °C 74 % 1033,0 hPa 0,0 mm 1,8 km/h (1 Bft) O-SO 115 ° 0 min 0,000 mm 0,0 UV-I 5 W/m² -0,3 °C 3,9 °C 3,2 km/h (1 Bft)
14.02.2017 17:37 3,9 °C 3,9 °C 75 % 1033,1 hPa 0,0 mm 2,2 km/h (1 Bft) O-SO 115 ° 0 min 0,000 mm 0,0 UV-I 5 W/m² -0,1 °C 3,9 °C 3,2 km/h (1 Bft)
14.02.2017 17:38 3,8 °C 3,9 °C 75 % 1033,1 hPa 0,0 mm 1,5 km/h (1 Bft) O-SO 115 ° 0 min 0,000 mm 0,0 UV-I 0 W/m² -0,2 °C 3,8 °C 3,2 km/h (1 Bft)
14.02.2017 17:39 3,8 °C 3,8 °C 75 % 1033,0 hPa 0,0 mm 0,6 km/h (0 Bft) O-SO 115 ° 0 min 0,000 mm 0,0 UV-I 0 W/m² -0,2 °C 3,8 °C 1,6 km/h (1 Bft)
14.02.2017 17:40 3,8 °C 3,8 °C 75 % 1033,0 hPa 0,0 mm 1,5 km/h (1 Bft) O-SO 115 ° 0 min 0,000 mm 0,0 UV-I 0 W/m² -0,2 °C 3,8 °C 3,2 km/h (1 Bft)
14.02.2017 17:41 3,7 °C 3,8 °C 75 % 1033,1 hPa 0,0 mm 1,4 km/h (1 Bft) O-SO 115 ° 0 min 0,000 mm 0,0 UV-I 0 W/m² -0,3 °C 3,7 °C 3,2 km/h (1 Bft)
14.02.2017 17:42 3,7 °C 3,8 °C 75 % 1033,1 hPa 0,0 mm 0,5 km/h (0 Bft) O-SO 115 ° 0 min 0,000 mm 0,0 UV-I 0 W/m² -0,3 °C 3,7 °C 1,6 km/h (1 Bft)
14.02.2017 17:43 3,7 °C 3,7 °C 75 % 1033,1 hPa 0,0 mm 0,0 km/h (0 Bft) O-SO 115 ° 0 min 0,000 mm 0,0 UV-I 0 W/m² -0,3 °C 3,7 °C 0,0 km/h (0 Bft)
14.02.2017 17:44 3,6 °C 3,7 °C 75 % 1033,1 hPa 0,0 mm 0,0 km/h (0 Bft) O-SO 115 ° 0 min 0,000 mm 0,0 UV-I 0 W/m² -0,4 °C 3,6 °C 0,0 km/h (0 Bft)
14.02.2017 17:45 3,3 °C 3,6 °C 74 % 1033,1 hPa 0,0 mm 0,7 km/h (0 Bft) O-SO 115 ° 0 min 0,000 mm 0,0 UV-I 0 W/m² -0,9 °C 3,3 °C 1,6 km/h (1 Bft)
14.02.2017 17:46 3,1 °C 3,3 °C 76 % 1033,1 hPa 0,0 mm 2,8 km/h (1 Bft) S-SW 200 ° 0 min 0,000 mm 0,0 UV-I 0 W/m² -0,7 °C 3,1 °C 6,4 km/h (2 Bft)
14.02.2017 17:47 3,1 °C 3,1 °C 77 % 1033,1 hPa 0,0 mm 1,5 km/h (1 Bft) S-SW 200 ° 0 min 0,000 mm 0,0 UV-I 0 W/m² -0,5 °C 3,1 °C 3,2 km/h (1 Bft)
14.02.2017 17:48 3,0 °C 3,1 °C 77 % 1033,1 hPa 0,0 mm 3,0 km/h (1 Bft) S 189 ° 0 min 0,000 mm 0,0 UV-I 0 W/m² -0,6 °C 3,0 °C 4,8 km/h (1 Bft)
14.02.2017 17:49 2,9 °C 3,0 °C 77 % 1033,1 hPa 0,0 mm 3,0 km/h (1 Bft) S 188 ° 0 min 0,000 mm 0,0 UV-I 0 W/m² -0,7 °C 2,9 °C 3,2 km/h (1 Bft)
14.02.2017 17:50 2,9 °C 2,9 °C 78 % 1033,2 hPa 0,0 mm 1,3 km/h (1 Bft) S 188 ° 0 min 0,000 mm 0,0 UV-I 0 W/m² -0,5 °C 2,9 °C 1,6 km/h (1 Bft)
14.02.2017 17:51 2,8 °C 2,9 °C 78 % 1033,2 hPa 0,0 mm 0,3 km/h (0 Bft) S 188 ° 0 min 0,000 mm 0,0 UV-I 0 W/m² -0,6 °C 2,8 °C 1,6 km/h (1 Bft)
14.02.2017 17:52 2,8 °C 2,8 °C 78 % 1033,2 hPa 0,0 mm 0,5 km/h (0 Bft) S 188 ° 0 min 0,000 mm 0,0 UV-I 0 W/m² -0,6 °C 2,8 °C 1,6 km/h (1 Bft)
14.02.2017 17:53 2,8 °C 2,8 °C 78 % 1033,2 hPa 0,0 mm 0,4 km/h (0 Bft) S 188 ° 0 min 0,000 mm 0,0 UV-I 0 W/m² -0,6 °C 2,8 °C 1,6 km/h (1 Bft)
14.02.2017 17:54 2,8 °C 2,8 °C 79 % 1033,2 hPa 0,0 mm 0,0 km/h (0 Bft) S 188 ° 0 min 0,000 mm 0,0 UV-I 0 W/m² -0,5 °C 2,8 °C 0,0 km/h (0 Bft)
14.02.2017 17:55 2,9 °C 2,9 °C 79 % 1033,2 hPa 0,0 mm 0,1 km/h (0 Bft) S 188 ° 0 min 0,000 mm 0,0 UV-I 0 W/m² -0,4 °C 2,9 °C 1,6 km/h (1 Bft)
14.02.2017 17:56 2,9 °C 2,9 °C 79 % 1033,2 hPa 0,0 mm 0,1 km/h (0 Bft) S 188 ° 0 min 0,000 mm 0,0 UV-I 0 W/m² -0,4 °C 2,9 °C 1,6 km/h (1 Bft)
14.02.2017 17:57 2,9 °C 2,9 °C 79 % 1033,2 hPa 0,0 mm 0,3 km/h (0 Bft) S 188 ° 0 min 0,000 mm 0,0 UV-I 0 W/m² -0,4 °C 2,9 °C 1,6 km/h (1 Bft)
14.02.2017 17:58 2,9 °C 2,9 °C 78 % 1033,2 hPa 0,0 mm 1,1 km/h (1 Bft) S 188 ° 0 min 0,000 mm 0,0 UV-I 0 W/m² -0,5 °C 2,9 °C 1,6 km/h (1 Bft)
14.02.2017 17:59 2,8 °C 2,9 °C 78 % 1033,2 hPa 0,0 mm 1,3 km/h (1 Bft) S 188 ° 0 min 0,000 mm 0,0 UV-I 0 W/m² -0,6 °C 2,8 °C 3,2 km/h (1 Bft)
14.02.2017 18:00 2,8 °C 2,8 °C 78 % 1033,2 hPa 0,0 mm 0,9 km/h (0 Bft) S 188 ° 0 min 0,000 mm 0,0 UV-I 0 W/m² -0,6 °C 2,8 °C 3,2 km/h (1 Bft)
14.02.2017 18:01 2,7 °C 2,8 °C 78 % 1033,2 hPa 0,0 mm 1,3 km/h (1 Bft) S 188 ° 0 min 0,000 mm 0,0 UV-I 0 W/m² -0,7 °C 2,7 °C 3,2 km/h (1 Bft)
14.02.2017 18:02 2,7 °C 2,7 °C 79 % 1033,2 hPa 0,0 mm 0,7 km/h (0 Bft) S 188 ° 0 min 0,000 mm 0,0 UV-I 0 W/m² -0,6 °C 2,7 °C 1,6 km/h (1 Bft)
14.02.2017 18:03 2,6 °C 2,7 °C 79 % 1033,3 hPa 0,0 mm 1,2 km/h (1 Bft) S 188 ° 0 min 0,000 mm 0,0 UV-I 0 W/m² -0,7 °C 2,6 °C 1,6 km/h (1 Bft)
14.02.2017 18:04 2,6 °C 2,6 °C 79 % 1033,2 hPa 0,0 mm 1,5 km/h (1 Bft) S 188 ° 0 min 0,000 mm 0,0 UV-I 0 W/m² -0,7 °C 2,6 °C 3,2 km/h (1 Bft)
14.02.2017 18:05 2,5 °C 2,6 °C 80 % 1033,3 hPa 0,0 mm 0,1 km/h (0 Bft) S 188 ° 0 min 0,000 mm 0,0 UV-I 0 W/m² -0,6 °C 2,5 °C 1,6 km/h (1 Bft)
14.02.2017 18:06 2,3 °C 2,5 °C 78 % 1033,2 hPa 0,0 mm 0,6 km/h (0 Bft) S 188 ° 0 min 0,000 mm 0,0 UV-I 0 W/m² -1,1 °C 2,3 °C 1,6 km/h (1 Bft)
14.02.2017 18:07 2,1 °C 2,3 °C 80 % 1033,3 hPa 0,0 mm 0,6 km/h (0 Bft) S 188 ° 0 min 0,000 mm 0,0 UV-I 0 W/m² -1,0 °C 2,1 °C 1,6 km/h (1 Bft)
14.02.2017 18:08 1,8 °C 2,1 °C 79 % 1033,4 hPa 0,0 mm 1,3 km/h (1 Bft) S 188 ° 0 min 0,000 mm 0,0 UV-I 0 W/m² -1,4 °C 1,8 °C 1,6 km/h (1 Bft)
14.02.2017 18:09 1,7 °C 1,8 °C 80 % 1033,3 hPa 0,0 mm 1,9 km/h (1 Bft) S 188 ° 0 min 0,000 mm 0,0 UV-I 0 W/m² -1,4 °C 1,7 °C 3,2 km/h (1 Bft)
14.02.2017 18:10 1,6 °C 1,7 °C 82 % 1033,3 hPa 0,0 mm 1,0 km/h (0 Bft) S 188 ° 0 min 0,000 mm 0,0 UV-I 0 W/m² -1,1 °C 1,6 °C 1,6 km/h (1 Bft)
14.02.2017 18:11 1,6 °C 1,6 °C 83 % 1033,3 hPa 0,0 mm 0,7 km/h (0 Bft) S 188 ° 0 min 0,000 mm 0,0 UV-I 0 W/m² -1,0 °C 1,6 °C 1,6 km/h (1 Bft)
14.02.2017 18:12 1,7 °C 1,7 °C 83 % 1033,3 hPa 0,0 mm 2,2 km/h (1 Bft) S 188 ° 0 min 0,000 mm 0,0 UV-I 0 W/m² -0,9 °C 1,7 °C 3,2 km/h (1 Bft)
14.02.2017 18:13 1,8 °C 1,8 °C 83 % 1033,3 hPa 0,0 mm 2,1 km/h (1 Bft) S 188 ° 0 min 0,000 mm 0,0 UV-I 0 W/m² -0,8 °C 1,8 °C 3,2 km/h (1 Bft)
14.02.2017 18:14 1,9 °C 1,9 °C 83 % 1033,3 hPa 0,0 mm 0,9 km/h (0 Bft) S 188 ° 0 min 0,000 mm 0,0 UV-I 0 W/m² -0,7 °C 1,9 °C 1,6 km/h (1 Bft)
14.02.2017 18:15 2,1 °C 2,1 °C 82 % 1033,3 hPa 0,0 mm 0,3 km/h (0 Bft) S 188 ° 0 min 0,000 mm 0,0 UV-I 0 W/m² -0,6 °C 2,1 °C 1,6 km/h (1 Bft)
14.02.2017 18:16 2,1 °C 2,1 °C 82 % 1033,3 hPa 0,0 mm 1,3 km/h (1 Bft) S 188 ° 0 min 0,000 mm 0,0 UV-I 0 W/m² -0,6 °C 2,1 °C 3,2 km/h (1 Bft)
14.02.2017 18:17 2,2 °C 2,2 °C 81 % 1033,2 hPa 0,0 mm 2,2 km/h (1 Bft) S 188 ° 0 min 0,000 mm 0,0 UV-I 0 W/m² -0,7 °C 2,2 °C 3,2 km/h (1 Bft)
14.02.2017 18:18 2,3 °C 2,3 °C 81 % 1033,2 hPa 0,0 mm 2,2 km/h (1 Bft) S 188 ° 0 min 0,000 mm 0,0 UV-I 0 W/m² -0,6 °C 2,3 °C 3,2 km/h (1 Bft)
14.02.2017 18:19 2,4 °C 2,4 °C 81 % 1033,3 hPa 0,0 mm 1,6 km/h (1 Bft) S 188 ° 0 min 0,000 mm 0,0 UV-I 0 W/m² -0,5 °C 2,4 °C 3,2 km/h (1 Bft)
14.02.2017 18:20 2,4 °C 2,4 °C 81 % 1033,2 hPa 0,0 mm 0,5 km/h (0 Bft) S 188 ° 0 min 0,000 mm 0,0 UV-I 0 W/m² -0,5 °C 2,4 °C 1,6 km/h (1 Bft)
14.02.2017 18:21 2,4 °C 2,5 °C 81 % 1033,3 hPa 0,0 mm 0,3 km/h (0 Bft) S 188 ° 0 min 0,000 mm 0,0 UV-I 0 W/m² -0,5 °C 2,4 °C 1,6 km/h (1 Bft)
14.02.2017 18:22 2,6 °C 2,6 °C 81 % 1033,2 hPa 0,0 mm 0,9 km/h (0 Bft) S 188 ° 0 min 0,000 mm 0,0 UV-I 0 W/m² -0,3 °C 2,6 °C 1,6 km/h (1 Bft)
14.02.2017 18:23 2,6 °C 2,6 °C 80 % 1033,3 hPa 0,0 mm 0,9 km/h (0 Bft) S 188 ° 0 min 0,000 mm 0,0 UV-I 0 W/m² -0,5 °C 2,6 °C 3,2 km/h (1 Bft)
14.02.2017 18:24 2,6 °C 2,6 °C 80 % 1033,3 hPa 0,0 mm 0,4 km/h (0 Bft) S 188 ° 0 min 0,000 mm 0,0 UV-I 0 W/m² -0,5 °C 2,6 °C 1,6 km/h (1 Bft)
14.02.2017 18:25 2,5 °C 2,6 °C 80 % 1033,3 hPa 0,0 mm 0,1 km/h (0 Bft) S 188 ° 0 min 0,000 mm 0,0 UV-I 0 W/m² -0,6 °C 2,5 °C 1,6 km/h (1 Bft)
14.02.2017 18:26 2,3 °C 2,5 °C 79 % 1033,3 hPa 0,0 mm 0,0 km/h (0 Bft) S 188 ° 0 min 0,000 mm 0,0 UV-I 0 W/m² -1,0 °C 2,3 °C 0,0 km/h (0 Bft)
14.02.2017 18:27 1,9 °C 2,3 °C 78 % 1033,3 hPa 0,0 mm 0,2 km/h (0 Bft) S 188 ° 0 min 0,000 mm 0,0 UV-I 0 W/m² -1,5 °C 1,9 °C 1,6 km/h (1 Bft)
14.02.2017 18:28 1,6 °C 1,9 °C 79 % 1033,3 hPa 0,0 mm 0,2 km/h (0 Bft) S 188 ° 0 min 0,000 mm 0,0 UV-I 0 W/m² -1,6 °C 1,6 °C 1,6 km/h (1 Bft)
14.02.2017 18:29 1,3 °C 1,6 °C 81 % 1033,4 hPa 0,0 mm 0,0 km/h (0 Bft) S 188 ° 0 min 0,000 mm 0,0 UV-I 0 W/m² -1,6 °C 1,3 °C 0,0 km/h (0 Bft)
14.02.2017 18:30 1,1 °C 1,3 °C 82 % 1033,4 hPa 0,0 mm 0,1 km/h (0 Bft) S 188 ° 0 min 0,000 mm 0,0 UV-I 0 W/m² -1,6 °C 1,1 °C 1,6 km/h (1 Bft)
14.02.2017 18:31 0,8 °C 1,1 °C 82 % 1033,4 hPa 0,0 mm 0,1 km/h (0 Bft) S 188 ° 0 min 0,000 mm 0,0 UV-I 0 W/m² -1,9 °C 0,8 °C 1,6 km/h (1 Bft)
14.02.2017 18:32 0,6 °C 0,8 °C 83 % 1033,4 hPa 0,0 mm 0,0 km/h (0 Bft) S 188 ° 0 min 0,000 mm 0,0 UV-I 0 W/m² -1,9 °C 0,6 °C 0,0 km/h (0 Bft)
14.02.2017 18:33 0,4 °C 0,6 °C 84 % 1033,4 hPa 0,0 mm 0,0 km/h (0 Bft) S 188 ° 0 min 0,000 mm 0,0 UV-I 0 W/m² -2,0 °C 0,4 °C 0,0 km/h (0 Bft)
14.02.2017 18:34 0,3 °C 0,4 °C 85 % 1033,4 hPa 0,0 mm 0,0 km/h (0 Bft) S 188 ° 0 min 0,000 mm 0,0 UV-I 0 W/m² -1,9 °C 0,3 °C 0,0 km/h (0 Bft)
14.02.2017 18:35 0,3 °C 0,3 °C 85 % 1033,4 hPa 0,0 mm 0,5 km/h (0 Bft) S 188 ° 0 min 0,000 mm 0,0 UV-I 0 W/m² -1,9 °C 0,3 °C 1,6 km/h (1 Bft)
14.02.2017 18:36 0,3 °C 0,3 °C 86 % 1033,4 hPa 0,0 mm 0,7 km/h (0 Bft) S 188 ° 0 min 0,000 mm 0,0 UV-I 0 W/m² -1,8 °C 0,3 °C 1,6 km/h (1 Bft)
14.02.2017 18:37 0,3 °C 0,3 °C 86 % 1033,4 hPa 0,0 mm 0,0 km/h (0 Bft) S 188 ° 0 min 0,000 mm 0,0 UV-I 0 W/m² -1,8 °C 0,3 °C 0,0 km/h (0 Bft)
14.02.2017 18:38 0,3 °C 0,3 °C 87 % 1033,4 hPa 0,0 mm 0,0 km/h (0 Bft) S 188 ° 0 min 0,000 mm 0,0 UV-I 0 W/m² -1,6 °C 0,3 °C 0,0 km/h (0 Bft)
14.02.2017 18:39 0,3 °C 0,3 °C 87 % 1033,4 hPa 0,0 mm 0,0 km/h (0 Bft) S 188 ° 0 min 0,000 mm 0,0 UV-I 0 W/m² -1,6 °C 0,3 °C 0,0 km/h (0 Bft)
14.02.2017 18:40 0,4 °C 0,4 °C 86 % 1033,5 hPa 0,0 mm 0,0 km/h (0 Bft) S 188 ° 0 min 0,000 mm 0,0 UV-I 0 W/m² -1,7 °C 0,4 °C 0,0 km/h (0 Bft)
14.02.2017 18:41 0,3 °C 0,4 °C 84 % 1033,5 hPa 0,0 mm 1,0 km/h (0 Bft) S 188 ° 0 min 0,000 mm 0,0 UV-I 0 W/m² -2,1 °C 0,3 °C 3,2 km/h (1 Bft)
14.02.2017 18:42 0,2 °C 0,3 °C 85 % 1033,4 hPa 0,0 mm 0,3 km/h (0 Bft) S 188 ° 0 min 0,000 mm 0,0 UV-I 0 W/m² -2,0 °C 0,2 °C 1,6 km/h (1 Bft)
14.02.2017 18:43 0,2 °C 0,2 °C 85 % 1033,4 hPa 0,0 mm 0,0 km/h (0 Bft) S 188 ° 0 min 0,000 mm 0,0 UV-I 0 W/m² -2,0 °C 0,2 °C 0,0 km/h (0 Bft)
14.02.2017 18:44 0,2 °C 0,2 °C 86 % 1033,4 hPa 0,0 mm 0,0 km/h (0 Bft) S 188 ° 0 min 0,000 mm 0,0 UV-I 0 W/m² -1,9 °C 0,2 °C 0,0 km/h (0 Bft)
14.02.2017 18:45 0,2 °C 0,2 °C 86 % 1033,5 hPa 0,0 mm 0,4 km/h (0 Bft) S 188 ° 0 min 0,000 mm 0,0 UV-I 0 W/m² -1,9 °C 0,2 °C 1,6 km/h (1 Bft)
14.02.2017 18:46 0,2 °C 0,2 °C 86 % 1033,5 hPa 0,0 mm 0,6 km/h (0 Bft) S 188 ° 0 min 0,000 mm 0,0 UV-I 0 W/m² -1,9 °C 0,2 °C 1,6 km/h (1 Bft)
14.02.2017 18:47 0,1 °C 0,2 °C 86 % 1033,5 hPa 0,0 mm 0,1 km/h (0 Bft) S 188 ° 0 min 0,000 mm 0,0 UV-I 0 W/m² -2,0 °C 0,1 °C 1,6 km/h (1 Bft)
14.02.2017 18:48 0,1 °C 0,1 °C 87 % 1033,5 hPa 0,0 mm 0,0 km/h (0 Bft) S 188 ° 0 min 0,000 mm 0,0 UV-I 0 W/m² -1,8 °C 0,1 °C 0,0 km/h (0 Bft)
14.02.2017 18:49 0,2 °C 0,2 °C 87 % 1033,5 hPa 0,0 mm 0,0 km/h (0 Bft) S 188 ° 0 min 0,000 mm 0,0 UV-I 0 W/m² -1,7 °C 0,2 °C 0,0 km/h (0 Bft)
14.02.2017 18:50 0,2 °C 0,2 °C 87 % 1033,5 hPa 0,0 mm 0,0 km/h (0 Bft) S 188 ° 0 min 0,000 mm 0,0 UV-I 0 W/m² -1,7 °C 0,2 °C 0,0 km/h (0 Bft)
14.02.2017 18:51 0,3 °C 0,3 °C 87 % 1033,5 hPa 0,0 mm 0,0 km/h (0 Bft) S 188 ° 0 min 0,000 mm 0,0 UV-I 0 W/m² -1,6 °C 0,3 °C 0,0 km/h (0 Bft)
14.02.2017 18:52 0,3 °C 0,3 °C 87 % 1033,5 hPa 0,0 mm 0,0 km/h (0 Bft) S 188 ° 0 min 0,000 mm 0,0 UV-I 0 W/m² -1,6 °C 0,3 °C 0,0 km/h (0 Bft)
14.02.2017 18:53 0,3 °C 0,3 °C 86 % 1033,5 hPa 0,0 mm 0,0 km/h (0 Bft) S 188 ° 0 min 0,000 mm 0,0 UV-I 0 W/m² -1,8 °C 0,3 °C 0,0 km/h (0 Bft)
14.02.2017 18:54 0,1 °C 0,3 °C 85 % 1033,5 hPa 0,0 mm 0,0 km/h (0 Bft) S 188 ° 0 min 0,000 mm 0,0 UV-I 0 W/m² -2,1 °C 0,1 °C 0,0 km/h (0 Bft)
14.02.2017 18:55 -0,1 °C 0,1 °C 85 % 1033,6 hPa 0,0 mm 0,0 km/h (0 Bft) S 188 ° 0 min 0,000 mm 0,0 UV-I 0 W/m² -2,3 °C -0,1 °C 0,0 km/h (0 Bft)
14.02.2017 18:56 -0,2 °C -0,1 °C 85 % 1033,5 hPa 0,0 mm 0,0 km/h (0 Bft) S 188 ° 0 min 0,000 mm 0,0 UV-I 0 W/m² -2,4 °C -0,2 °C 0,0 km/h (0 Bft)
14.02.2017 18:57 -0,3 °C -0,2 °C 86 % 1033,5 hPa 0,0 mm 0,0 km/h (0 Bft) S 188 ° 0 min 0,000 mm 0,0 UV-I 0 W/m² -2,3 °C -0,3 °C 0,0 km/h (0 Bft)
14.02.2017 18:58 -0,3 °C -0,3 °C 87 % 1033,5 hPa 0,0 mm 0,1 km/h (0 Bft) S 188 ° 0 min 0,000 mm 0,0 UV-I 0 W/m² -2,2 °C -0,3 °C 1,6 km/h (1 Bft)
14.02.2017 18:59 -0,3 °C -0,3 °C 88 % 1033,5 hPa 0,0 mm 0,7 km/h (0 Bft) S 188 ° 0 min 0,000 mm 0,0 UV-I 0 W/m² -2,0 °C -0,3 °C 1,6 km/h (1 Bft)
14.02.2017 19:00 -0,3 °C -0,3 °C 88 % 1033,6 hPa 0,0 mm 1,4 km/h (1 Bft) S 188 ° 0 min 0,000 mm 0,0 UV-I 0 W/m² -2,0 °C -0,3 °C 3,2 km/h (1 Bft)
14.02.2017 19:01 -0,4 °C -0,3 °C 88 % 1033,5 hPa 0,0 mm 1,3 km/h (1 Bft) S 188 ° 0 min 0,000 mm 0,0 UV-I 0 W/m² -2,1 °C -0,4 °C 1,6 km/h (1 Bft)
14.02.2017 19:02 -0,4 °C -0,4 °C 87 % 1033,5 hPa 0,0 mm 0,6 km/h (0 Bft) S 188 ° 0 min 0,000 mm 0,0 UV-I 0 W/m² -2,3 °C -0,4 °C 1,6 km/h (1 Bft)
14.02.2017 19:03 -0,5 °C -0,4 °C 88 % 1033,6 hPa 0,0 mm 0,0 km/h (0 Bft) S 188 ° 0 min 0,000 mm 0,0 UV-I 0 W/m² -2,2 °C -0,5 °C 0,0 km/h (0 Bft)
14.02.2017 19:04 -0,6 °C -0,5 °C 87 % 1033,5 hPa 0,0 mm 0,1 km/h (0 Bft) S 188 ° 0 min 0,000 mm 0,0 UV-I 0 W/m² -2,5 °C -0,6 °C 1,6 km/h (1 Bft)
14.02.2017 19:05 -0,6 °C -0,6 °C 87 % 1033,6 hPa 0,0 mm 0,1 km/h (0 Bft) S 188 ° 0 min 0,000 mm 0,0 UV-I 0 W/m² -2,5 °C -0,6 °C 1,6 km/h (1 Bft)
14.02.2017 19:06 -0,7 °C -0,6 °C 88 % 1033,5 hPa 0,0 mm 0,0 km/h (0 Bft) S 188 ° 0 min 0,000 mm 0,0 UV-I 0 W/m² -2,4 °C -0,7 °C 0,0 km/h (0 Bft)
14.02.2017 19:07 -0,7 °C -0,7 °C 88 % 1033,6 hPa 0,0 mm 0,0 km/h (0 Bft) S 188 ° 0 min 0,000 mm 0,0 UV-I 0 W/m² -2,4 °C -0,7 °C 0,0 km/h (0 Bft)
14.02.2017 19:08 -0,6 °C -0,6 °C 88 % 1033,6 hPa 0,0 mm 0,0 km/h (0 Bft) S 188 ° 0 min 0,000 mm 0,0 UV-I 0 W/m² -2,3 °C -0,6 °C 0,0 km/h (0 Bft)
14.02.2017 19:09 -0,6 °C -0,6 °C 88 % 1033,5 hPa 0,0 mm 0,0 km/h (0 Bft) S 188 ° 0 min 0,000 mm 0,0 UV-I 0 W/m² -2,3 °C -0,6 °C 0,0 km/h (0 Bft)
14.02.2017 19:10 -0,6 °C -0,6 °C 89 % 1033,6 hPa 0,0 mm 0,0 km/h (0 Bft) S 188 ° 0 min 0,000 mm 0,0 UV-I 0 W/m² -2,2 °C -0,6 °C 0,0 km/h (0 Bft)
14.02.2017 19:11 -0,6 °C -0,6 °C 89 % 1033,6 hPa 0,0 mm 0,0 km/h (0 Bft) S 188 ° 0 min 0,000 mm 0,0 UV-I 0 W/m² -2,2 °C -0,6 °C 0,0 km/h (0 Bft)
14.02.2017 19:12 -0,5 °C -0,5 °C 89 % 1033,6 hPa 0,0 mm 0,0 km/h (0 Bft) S 188 ° 0 min 0,000 mm 0,0 UV-I 0 W/m² -2,1 °C -0,5 °C 0,0 km/h (0 Bft)
14.02.2017 19:13 -0,5 °C -0,5 °C 88 % 1033,6 hPa 0,0 mm 0,0 km/h (0 Bft) S 188 ° 0 min 0,000 mm 0,0 UV-I 0 W/m² -2,2 °C -0,5 °C 0,0 km/h (0 Bft)
14.02.2017 19:14 -0,5 °C -0,5 °C 88 % 1033,6 hPa 0,0 mm 0,6 km/h (0 Bft) S 188 ° 0 min 0,000 mm 0,0 UV-I 0 W/m² -2,2 °C -0,5 °C 1,6 km/h (1 Bft)
14.02.2017 19:15 -0,6 °C -0,5 °C 88 % 1033,6 hPa 0,0 mm 1,5 km/h (1 Bft) S 188 ° 0 min 0,000 mm 0,0 UV-I 0 W/m² -2,3 °C -0,6 °C 3,2 km/h (1 Bft)
14.02.2017 19:16 -0,6 °C -0,6 °C 88 % 1033,6 hPa 0,0 mm 0,8 km/h (0 Bft) S 188 ° 0 min 0,000 mm 0,0 UV-I 0 W/m² -2,3 °C -0,6 °C 1,6 km/h (1 Bft)
14.02.2017 19:17 -0,7 °C -0,6 °C 88 % 1033,6 hPa 0,0 mm 0,7 km/h (0 Bft) S 188 ° 0 min 0,000 mm 0,0 UV-I 0 W/m² -2,4 °C -0,7 °C 1,6 km/h (1 Bft)
14.02.2017 19:18 -0,7 °C -0,7 °C 88 % 1033,6 hPa 0,0 mm 0,0 km/h (0 Bft) S 188 ° 0 min 0,000 mm 0,0 UV-I 0 W/m² -2,4 °C -0,7 °C 0,0 km/h (0 Bft)
14.02.2017 19:19 -0,7 °C -0,7 °C 89 % 1033,6 hPa 0,0 mm 0,0 km/h (0 Bft) S 188 ° 0 min 0,000 mm 0,0 UV-I 0 W/m² -2,3 °C -0,7 °C 0,0 km/h (0 Bft)
14.02.2017 19:20 -0,7 °C -0,7 °C 89 % 1033,6 hPa 0,0 mm 0,0 km/h (0 Bft) S 188 ° 0 min 0,000 mm 0,0 UV-I 0 W/m² -2,3 °C -0,7 °C 0,0 km/h (0 Bft)
14.02.2017 19:21 -0,7 °C -0,7 °C 88 % 1033,6 hPa 0,0 mm 0,0 km/h (0 Bft) S 188 ° 0 min 0,000 mm 0,0 UV-I 0 W/m² -2,4 °C -0,7 °C 0,0 km/h (0 Bft)
14.02.2017 19:22 -0,7 °C -0,7 °C 88 % 1033,5 hPa 0,0 mm 0,0 km/h (0 Bft) S 188 ° 0 min 0,000 mm 0,0 UV-I 0 W/m² -2,4 °C -0,7 °C 0,0 km/h (0 Bft)
14.02.2017 19:23 -0,8 °C -0,7 °C 88 % 1033,5 hPa 0,0 mm 0,0 km/h (0 Bft) S 188 ° 0 min 0,000 mm 0,0 UV-I 0 W/m² -2,5 °C -0,8 °C 0,0 km/h (0 Bft)
14.02.2017 19:24 -0,9 °C -0,8 °C 88 % 1033,5 hPa 0,0 mm 0,0 km/h (0 Bft) S 188 ° 0 min 0,000 mm 0,0 UV-I 0 W/m² -2,6 °C -0,9 °C 0,0 km/h (0 Bft)
14.02.2017 19:25 -0,9 °C -0,9 °C 89 % 1033,5 hPa 0,0 mm 0,0 km/h (0 Bft) S 188 ° 0 min 0,000 mm 0,0 UV-I 0 W/m² -2,5 °C -0,9 °C 0,0 km/h (0 Bft)
14.02.2017 19:26 -0,9 °C -0,9 °C 89 % 1033,5 hPa 0,0 mm 0,0 km/h (0 Bft) S 188 ° 0 min 0,000 mm 0,0 UV-I 0 W/m² -2,5 °C -0,9 °C 0,0 km/h (0 Bft)
14.02.2017 19:27 -0,9 °C -0,9 °C 89 % 1033,5 hPa 0,0 mm 0,0 km/h (0 Bft) S 188 ° 0 min 0,000 mm 0,0 UV-I 0 W/m² -2,5 °C -0,9 °C 0,0 km/h (0 Bft)
14.02.2017 19:28 -0,9 °C -0,9 °C 90 % 1033,5 hPa 0,0 mm 0,0 km/h (0 Bft) S 188 ° 0 min 0,000 mm 0,0 UV-I 0 W/m² -2,3 °C -0,9 °C 0,0 km/h (0 Bft)
14.02.2017 19:29 -0,8 °C -0,8 °C 90 % 1033,6 hPa 0,0 mm 0,0 km/h (0 Bft) S 188 ° 0 min 0,000 mm 0,0 UV-I 0 W/m² -2,2 °C -0,8 °C 0,0 km/h (0 Bft)
14.02.2017 19:30 -0,8 °C -0,8 °C 90 % 1033,5 hPa 0,0 mm 0,0 km/h (0 Bft) S 188 ° 0 min 0,000 mm 0,0 UV-I 0 W/m² -2,2 °C -0,8 °C 0,0 km/h (0 Bft)
14.02.2017 19:31 -0,8 °C -0,8 °C 89 % 1033,6 hPa 0,0 mm 0,0 km/h (0 Bft) S 188 ° 0 min 0,000 mm 0,0 UV-I 0 W/m² -2,4 °C -0,8 °C 0,0 km/h (0 Bft)
14.02.2017 19:32 -0,9 °C -0,8 °C 88 % 1033,6 hPa 0,0 mm 0,0 km/h (0 Bft) S 188 ° 0 min 0,000 mm 0,0 UV-I 0 W/m² -2,6 °C -0,9 °C 0,0 km/h (0 Bft)
14.02.2017 19:33 -0,9 °C -0,9 °C 89 % 1033,6 hPa 0,0 mm 0,0 km/h (0 Bft) S 188 ° 0 min 0,000 mm 0,0 UV-I 0 W/m² -2,5 °C -0,9 °C 0,0 km/h (0 Bft)
14.02.2017 19:34 -1,0 °C -0,9 °C 89 % 1033,6 hPa 0,0 mm 0,0 km/h (0 Bft) S 188 ° 0 min 0,000 mm 0,0 UV-I 0 W/m² -2,6 °C -1,0 °C 0,0 km/h (0 Bft)
14.02.2017 19:35 -1,1 °C -1,0 °C 89 % 1033,5 hPa 0,0 mm 0,0 km/h (0 Bft) S 188 ° 0 min 0,000 mm 0,0 UV-I 0 W/m² -2,7 °C -1,1 °C 0,0 km/h (0 Bft)
14.02.2017 19:36 -1,1 °C -1,1 °C 89 % 1033,6 hPa 0,0 mm 0,0 km/h (0 Bft) S 188 ° 0 min 0,000 mm 0,0 UV-I 0 W/m² -2,7 °C -1,1 °C 0,0 km/h (0 Bft)
14.02.2017 19:37 -1,1 °C -1,1 °C 89 % 1033,6 hPa 0,0 mm 0,0 km/h (0 Bft) S 188 ° 0 min 0,000 mm 0,0 UV-I 0 W/m² -2,7 °C -1,1 °C 0,0 km/h (0 Bft)
14.02.2017 19:38 -1,2 °C -1,1 °C 89 % 1033,6 hPa 0,0 mm 0,0 km/h (0 Bft) S 188 ° 0 min 0,000 mm 0,0 UV-I 0 W/m² -2,8 °C -1,2 °C 0,0 km/h (0 Bft)
14.02.2017 19:39 -1,2 °C -1,2 °C 89 % 1033,7 hPa 0,0 mm 0,0 km/h (0 Bft) S 188 ° 0 min 0,000 mm 0,0 UV-I 0 W/m² -2,8 °C -1,2 °C 0,0 km/h (0 Bft)
14.02.2017 19:40 -1,3 °C -1,2 °C 89 % 1033,7 hPa 0,0 mm 0,0 km/h (0 Bft) S 188 ° 0 min 0,000 mm 0,0 UV-I 0 W/m² -2,9 °C -1,3 °C 0,0 km/h (0 Bft)
14.02.2017 19:41 -1,3 °C -1,2 °C 90 % 1033,7 hPa 0,0 mm 0,0 km/h (0 Bft) S 188 ° 0 min 0,000 mm 0,0 UV-I 0 W/m² -2,7 °C -1,3 °C 0,0 km/h (0 Bft)
14.02.2017 19:42 -1,3 °C -1,2 °C 90 % 1033,7 hPa 0,0 mm 0,0 km/h (0 Bft) S 188 ° 0 min 0,000 mm 0,0 UV-I 0 W/m² -2,7 °C -1,3 °C 0,0 km/h (0 Bft)
14.02.2017 19:43 -1,3 °C -1,2 °C 90 % 1033,7 hPa 0,0 mm 0,0 km/h (0 Bft) S 188 ° 0 min 0,000 mm 0,0 UV-I 0 W/m² -2,7 °C -1,3 °C 0,0 km/h (0 Bft)
14.02.2017 19:44 -1,3 °C -1,2 °C 90 % 1033,7 hPa 0,0 mm 0,0 km/h (0 Bft) S 188 ° 0 min 0,000 mm 0,0 UV-I 0 W/m² -2,7 °C -1,3 °C 0,0 km/h (0 Bft)
14.02.2017 19:45 -1,3 °C -1,2 °C 90 % 1033,7 hPa 0,0 mm 0,4 km/h (0 Bft) S 188 ° 0 min 0,000 mm 0,0 UV-I 0 W/m² -2,7 °C -1,3 °C 1,6 km/h (1 Bft)
14.02.2017 19:46 -1,2 °C -1,2 °C 90 % 1033,7 hPa 0,0 mm 0,9 km/h (0 Bft) S 188 ° 0 min 0,000 mm 0,0 UV-I 0 W/m² -2,6 °C -1,2 °C 1,6 km/h (1 Bft)
14.02.2017 19:47 -1,2 °C -1,2 °C 90 % 1033,7 hPa 0,0 mm 0,5 km/h (0 Bft) S 188 ° 0 min 0,000 mm 0,0 UV-I 0 W/m² -2,6 °C -1,2 °C 1,6 km/h (1 Bft)
14.02.2017 19:48 -1,2 °C -1,2 °C 90 % 1033,7 hPa 0,0 mm 0,3 km/h (0 Bft) S 188 ° 0 min 0,000 mm 0,0 UV-I 0 W/m² -2,6 °C -1,2 °C 1,6 km/h (1 Bft)
14.02.2017 19:49 -1,2 °C -1,2 °C 89 % 1033,7 hPa 0,0 mm 0,1 km/h (0 Bft) S 188 ° 0 min 0,000 mm 0,0 UV-I 0 W/m² -2,8 °C -1,2 °C 1,6 km/h (1 Bft)
14.02.2017 19:50 -1,1 °C -1,1 °C 90 % 1033,7 hPa 0,0 mm 0,4 km/h (0 Bft) S 188 ° 0 min 0,000 mm 0,0 UV-I 0 W/m² -2,5 °C -1,1 °C 1,6 km/h (1 Bft)
14.02.2017 19:51 -1,1 °C -1,1 °C 90 % 1033,7 hPa 0,0 mm 0,5 km/h (0 Bft) S 188 ° 0 min 0,000 mm 0,0 UV-I 0 W/m² -2,5 °C -1,1 °C 1,6 km/h (1 Bft)
14.02.2017 19:52 -0,9 °C -0,9 °C 90 % 1033,7 hPa 0,0 mm 0,1 km/h (0 Bft) S 188 ° 0 min 0,000 mm 0,0 UV-I 0 W/m² -2,3 °C -0,9 °C 1,6 km/h (1 Bft)
14.02.2017 19:53 -0,8 °C -0,8 °C 90 % 1033,7 hPa 0,0 mm 0,2 km/h (0 Bft) S 188 ° 0 min 0,000 mm 0,0 UV-I 0 W/m² -2,2 °C -0,8 °C 1,6 km/h (1 Bft)
14.02.2017 19:54 -0,8 °C -0,8 °C 90 % 1033,7 hPa 0,0 mm 0,6 km/h (0 Bft) S 188 ° 0 min 0,000 mm 0,0 UV-I 0 W/m² -2,2 °C -0,8 °C 1,6 km/h (1 Bft)
14.02.2017 19:55 -0,8 °C -0,8 °C 89 % 1033,8 hPa 0,0 mm 0,1 km/h (0 Bft) S 188 ° 0 min 0,000 mm 0,0 UV-I 0 W/m² -2,4 °C -0,8 °C 1,6 km/h (1 Bft)
14.02.2017 19:56 -0,7 °C -0,7 °C 89 % 1033,8 hPa 0,0 mm 0,1 km/h (0 Bft) S 188 ° 0 min 0,000 mm 0,0 UV-I 0 W/m² -2,3 °C -0,7 °C 1,6 km/h (1 Bft)
14.02.2017 19:57 -0,8 °C -0,7 °C 88 % 1033,7 hPa 0,0 mm 0,4 km/h (0 Bft) S 188 ° 0 min 0,000 mm 0,0 UV-I 0 W/m² -2,5 °C -0,8 °C 1,6 km/h (1 Bft)
14.02.2017 19:58 -0,9 °C -0,8 °C 87 % 1033,7 hPa 0,0 mm 0,0 km/h (0 Bft) S 188 ° 0 min 0,000 mm 0,0 UV-I 0 W/m² -2,8 °C -0,9 °C 0,0 km/h (0 Bft)
14.02.2017 19:59 -1,1 °C -0,9 °C 88 % 1033,7 hPa 0,0 mm 0,3 km/h (0 Bft) S 188 ° 0 min 0,000 mm 0,0 UV-I 0 W/m² -2,8 °C -1,1 °C 1,6 km/h (1 Bft)
14.02.2017 20:00 -1,2 °C -1,1 °C 88 % 1033,7 hPa 0,0 mm 0,3 km/h (0 Bft) S 188 ° 0 min 0,000 mm 0,0 UV-I 0 W/m² -2,9 °C -1,2 °C 1,6 km/h (1 Bft)
14.02.2017 20:01 -1,4 °C -1,2 °C 88 % 1033,8 hPa 0,0 mm 1,0 km/h (0 Bft) S 188 ° 0 min 0,000 mm 0,0 UV-I 0 W/m² -3,1 °C -1,4 °C 1,6 km/h (1 Bft)
14.02.2017 20:02 -1,4 °C -1,4 °C 88 % 1033,7 hPa 0,0 mm 0,1 km/h (0 Bft) S 188 ° 0 min 0,000 mm 0,0 UV-I 0 W/m² -3,1 °C -1,4 °C 1,6 km/h (1 Bft)
14.02.2017 20:03 -1,6 °C -1,4 °C 89 % 1033,7 hPa 0,0 mm 0,1 km/h (0 Bft) S 188 ° 0 min 0,000 mm 0,0 UV-I 0 W/m² -3,2 °C -1,6 °C 1,6 km/h (1 Bft)
14.02.2017 20:04 -1,6 °C -1,6 °C 89 % 1033,7 hPa 0,0 mm 0,0 km/h (0 Bft) S 188 ° 0 min 0,000 mm 0,0 UV-I 0 W/m² -3,2 °C -1,6 °C 0,0 km/h (0 Bft)
14.02.2017 20:05 -1,7 °C -1,6 °C 89 % 1033,7 hPa 0,0 mm 0,0 km/h (0 Bft) S 188 ° 0 min 0,000 mm 0,0 UV-I 0 W/m² -3,3 °C -1,7 °C 0,0 km/h (0 Bft)
14.02.2017 20:06 -1,7 °C -1,7 °C 90 % 1033,7 hPa 0,0 mm 0,0 km/h (0 Bft) S 188 ° 0 min 0,000 mm 0,0 UV-I 0 W/m² -3,1 °C -1,7 °C 0,0 km/h (0 Bft)
14.02.2017 20:07 -1,7 °C -1,7 °C 90 % 1033,7 hPa 0,0 mm 0,0 km/h (0 Bft) S 188 ° 0 min 0,000 mm 0,0 UV-I 0 W/m² -3,1 °C -1,7 °C 0,0 km/h (0 Bft)
14.02.2017 20:08 -1,8 °C -1,7 °C 90 % 1033,7 hPa 0,0 mm 0,0 km/h (0 Bft) S 188 ° 0 min 0,000 mm 0,0 UV-I 0 W/m² -3,2 °C -1,8 °C 0,0 km/h (0 Bft)
14.02.2017 20:09 -1,8 °C -1,8 °C 90 % 1033,8 hPa 0,0 mm 0,0 km/h (0 Bft) S 188 ° 0 min 0,000 mm 0,0 UV-I 0 W/m² -3,2 °C -1,8 °C 0,0 km/h (0 Bft)
14.02.2017 20:10 -1,8 °C -1,8 °C 90 % 1033,8 hPa 0,0 mm 0,0 km/h (0 Bft) S 188 ° 0 min 0,000 mm 0,0 UV-I 0 W/m² -3,2 °C -1,8 °C 0,0 km/h (0 Bft)
14.02.2017 20:11 -1,8 °C -1,8 °C 90 % 1033,8 hPa 0,0 mm 0,0 km/h (0 Bft) S 188 ° 0 min 0,000 mm 0,0 UV-I 0 W/m² -3,2 °C -1,8 °C 0,0 km/h (0 Bft)
14.02.2017 20:12 -1,7 °C -1,7 °C 90 % 1033,8 hPa 0,0 mm 0,0 km/h (0 Bft) S 188 ° 0 min 0,000 mm 0,0 UV-I 0 W/m² -3,1 °C -1,7 °C 0,0 km/h (0 Bft)
14.02.2017 20:13 -1,7 °C -1,7 °C 90 % 1033,8 hPa 0,0 mm 0,0 km/h (0 Bft) S 188 ° 0 min 0,000 mm 0,0 UV-I 0 W/m² -3,1 °C -1,7 °C 0,0 km/h (0 Bft)
14.02.2017 20:14 -1,6 °C -1,6 °C 90 % 1033,8 hPa 0,0 mm 0,9 km/h (0 Bft) S 188 ° 0 min 0,000 mm 0,0 UV-I 0 W/m² -3,0 °C -1,6 °C 1,6 km/h (1 Bft)
14.02.2017 20:15 -1,5 °C -1,5 °C 90 % 1033,8 hPa 0,0 mm 0,2 km/h (0 Bft) S 188 ° 0 min 0,000 mm 0,0 UV-I 0 W/m² -2,9 °C -1,5 °C 1,6 km/h (1 Bft)
14.02.2017 20:16 -1,4 °C -1,4 °C 91 % 1033,8 hPa 0,0 mm 0,1 km/h (0 Bft) S 188 ° 0 min 0,000 mm 0,0 UV-I 0 W/m² -2,7 °C -1,4 °C 1,6 km/h (1 Bft)
14.02.2017 20:17 -1,2 °C -1,2 °C 91 % 1033,8 hPa 0,0 mm 0,0 km/h (0 Bft) S 188 ° 0 min 0,000 mm 0,0 UV-I 0 W/m² -2,5 °C -1,2 °C 0,0 km/h (0 Bft)
14.02.2017 20:18 -1,2 °C -1,2 °C 91 % 1033,8 hPa 0,0 mm 0,0 km/h (0 Bft) S 188 ° 0 min 0,000 mm 0,0 UV-I 0 W/m² -2,5 °C -1,2 °C 0,0 km/h (0 Bft)
14.02.2017 20:19 -1,2 °C -1,1 °C 88 % 1033,8 hPa 0,0 mm 0,0 km/h (0 Bft) S 188 ° 0 min 0,000 mm 0,0 UV-I 0 W/m² -2,9 °C -1,2 °C 0,0 km/h (0 Bft)
14.02.2017 20:20 -1,3 °C -1,2 °C 88 % 1033,9 hPa 0,0 mm 0,2 km/h (0 Bft) S 188 ° 0 min 0,000 mm 0,0 UV-I 0 W/m² -3,0 °C -1,3 °C 1,6 km/h (1 Bft)
14.02.2017 20:21 -1,3 °C -1,3 °C 88 % 1033,9 hPa 0,0 mm 1,2 km/h (1 Bft) S 188 ° 0 min 0,000 mm 0,0 UV-I 0 W/m² -3,0 °C -1,3 °C 3,2 km/h (1 Bft)
14.02.2017 20:22 -1,4 °C -1,3 °C 88 % 1033,8 hPa 0,0 mm 2,0 km/h (1 Bft) S 188 ° 0 min 0,000 mm 0,0 UV-I 0 W/m² -3,1 °C -1,4 °C 4,8 km/h (1 Bft)
14.02.2017 20:23 -1,3 °C -1,3 °C 89 % 1033,8 hPa 0,0 mm 2,4 km/h (1 Bft) S 188 ° 0 min 0,000 mm 0,0 UV-I 0 W/m² -2,9 °C -1,3 °C 4,8 km/h (1 Bft)
14.02.2017 20:24 -1,3 °C -1,3 °C 90 % 1033,8 hPa 0,0 mm 1,0 km/h (0 Bft) S 188 ° 0 min 0,000 mm 0,0 UV-I 0 W/m² -2,7 °C -1,3 °C 1,6 km/h (1 Bft)
14.02.2017 20:25 -1,2 °C -1,2 °C 90 % 1033,8 hPa 0,0 mm 2,6 km/h (1 Bft) S 188 ° 0 min 0,000 mm 0,0 UV-I 0 W/m² -2,6 °C -1,2 °C 4,8 km/h (1 Bft)
14.02.2017 20:26 -1,1 °C -1,1 °C 90 % 1033,8 hPa 0,0 mm 3,4 km/h (1 Bft) S 188 ° 0 min 0,000 mm 0,0 UV-I 0 W/m² -2,5 °C -1,1 °C 4,8 km/h (1 Bft)
14.02.2017 20:27 -0,9 °C -0,9 °C 90 % 1033,8 hPa 0,0 mm 3,2 km/h (1 Bft) S 188 ° 0 min 0,000 mm 0,0 UV-I 0 W/m² -2,3 °C -0,9 °C 6,4 km/h (2 Bft)
14.02.2017 20:28 -0,8 °C -0,8 °C 90 % 1033,8 hPa 0,0 mm 3,8 km/h (1 Bft) S 188 ° 0 min 0,000 mm 0,0 UV-I 0 W/m² -2,2 °C -0,8 °C 4,8 km/h (1 Bft)
14.02.2017 20:29 -0,7 °C -0,7 °C 89 % 1033,8 hPa 0,0 mm 3,6 km/h (1 Bft) S 188 ° 0 min 0,000 mm 0,0 UV-I 0 W/m² -2,3 °C -0,7 °C 4,8 km/h (1 Bft)
14.02.2017 20:30 -0,6 °C -0,6 °C 89 % 1033,8 hPa 0,0 mm 2,9 km/h (1 Bft) S 188 ° 0 min 0,000 mm 0,0 UV-I 0 W/m² -2,2 °C -0,6 °C 3,2 km/h (1 Bft)
14.02.2017 20:31 -0,5 °C -0,5 °C 88 % 1033,8 hPa 0,0 mm 1,9 km/h (1 Bft) S 188 ° 0 min 0,000 mm 0,0 UV-I 0 W/m² -2,2 °C -0,5 °C 3,2 km/h (1 Bft)
14.02.2017 20:32 -0,5 °C -0,5 °C 87 % 1033,8 hPa 0,0 mm 3,1 km/h (1 Bft) S 188 ° 0 min 0,000 mm 0,0 UV-I 0 W/m² -2,4 °C -0,5 °C 4,8 km/h (1 Bft)
14.02.2017 20:33 -0,6 °C -0,5 °C 87 % 1033,9 hPa 0,0 mm 3,1 km/h (1 Bft) S 188 ° 0 min 0,000 mm 0,0 UV-I 0 W/m² -2,5 °C -0,6 °C 4,8 km/h (1 Bft)
14.02.2017 20:34 -0,7 °C -0,6 °C 87 % 1033,8 hPa 0,0 mm 0,2 km/h (0 Bft) S 188 ° 0 min 0,000 mm 0,0 UV-I 0 W/m² -2,6 °C -0,7 °C 1,6 km/h (1 Bft)
14.02.2017 20:35 -1,0 °C -0,7 °C 84 % 1033,8 hPa 0,0 mm 0,2 km/h (0 Bft) S 188 ° 0 min 0,000 mm 0,0 UV-I 0 W/m² -3,4 °C -1,0 °C 1,6 km/h (1 Bft)
14.02.2017 20:36 -1,3 °C -1,0 °C 84 % 1033,8 hPa 0,0 mm 0,2 km/h (0 Bft) S 188 ° 0 min 0,000 mm 0,0 UV-I 0 W/m² -3,6 °C -1,3 °C 1,6 km/h (1 Bft)
14.02.2017 20:37 -1,4 °C -1,3 °C 86 % 1033,8 hPa 0,0 mm 0,0 km/h (0 Bft) S 188 ° 0 min 0,000 mm 0,0 UV-I 0 W/m² -3,4 °C -1,4 °C 0,0 km/h (0 Bft)
14.02.2017 20:38 -1,7 °C -1,4 °C 86 % 1033,9 hPa 0,0 mm 0,7 km/h (0 Bft) S 188 ° 0 min 0,000 mm 0,0 UV-I 0 W/m² -3,7 °C -1,7 °C 1,6 km/h (1 Bft)
14.02.2017 20:39 -1,8 °C -1,7 °C 87 % 1033,8 hPa 0,0 mm 0,0 km/h (0 Bft) S 188 ° 0 min 0,000 mm 0,0 UV-I 0 W/m² -3,7 °C -1,8 °C 0,0 km/h (0 Bft)
14.02.2017 20:40 -1,9 °C -1,8 °C 88 % 1033,8 hPa 0,0 mm 0,0 km/h (0 Bft) S 188 ° 0 min 0,000 mm 0,0 UV-I 0 W/m² -3,6 °C -1,9 °C 0,0 km/h (0 Bft)
14.02.2017 20:41 -2,1 °C -1,9 °C 89 % 1033,8 hPa 0,0 mm 0,0 km/h (0 Bft) S 188 ° 0 min 0,000 mm 0,0 UV-I 0 W/m² -3,7 °C -2,1 °C 0,0 km/h (0 Bft)
14.02.2017 20:42 -2,1 °C -2,1 °C 89 % 1033,8 hPa 0,0 mm 0,0 km/h (0 Bft) S 188 ° 0 min 0,000 mm 0,0 UV-I 0 W/m² -3,7 °C -2,1 °C 0,0 km/h (0 Bft)
14.02.2017 20:43 -2,1 °C -2,1 °C 90 % 1033,8 hPa 0,0 mm 0,0 km/h (0 Bft) S 188 ° 0 min 0,000 mm 0,0 UV-I 0 W/m² -3,5 °C -2,1 °C 0,0 km/h (0 Bft)
14.02.2017 20:44 -2,1 °C -2,1 °C 90 % 1033,9 hPa 0,0 mm 0,0 km/h (0 Bft) S 188 ° 0 min 0,000 mm 0,0 UV-I 0 W/m² -3,5 °C -2,1 °C 0,0 km/h (0 Bft)
14.02.2017 20:45 -2,1 °C -2,1 °C 90 % 1033,8 hPa 0,0 mm 0,0 km/h (0 Bft) S 188 ° 0 min 0,000 mm 0,0 UV-I 0 W/m² -3,5 °C -2,1 °C 0,0 km/h (0 Bft)
14.02.2017 20:46 -2,1 °C -2,1 °C 90 % 1033,8 hPa 0,0 mm 0,0 km/h (0 Bft) S 188 ° 0 min 0,000 mm 0,0 UV-I 0 W/m² -3,5 °C -2,1 °C 0,0 km/h (0 Bft)
14.02.2017 20:47 -2,1 °C -2,1 °C 90 % 1033,8 hPa 0,0 mm 0,0 km/h (0 Bft) S 188 ° 0 min 0,000 mm 0,0 UV-I 0 W/m² -3,5 °C -2,1 °C 0,0 km/h (0 Bft)
14.02.2017 20:48 -2,1 °C -2,1 °C 90 % 1033,8 hPa 0,0 mm 0,3 km/h (0 Bft) S 188 ° 0 min 0,000 mm 0,0 UV-I 0 W/m² -3,5 °C -2,1 °C 1,6 km/h (1 Bft)
14.02.2017 20:49 -2,1 °C -2,1 °C 91 % 1033,8 hPa 0,0 mm 0,8 km/h (0 Bft) S 188 ° 0 min 0,000 mm 0,0 UV-I 0 W/m² -3,4 °C -2,1 °C 1,6 km/h (1 Bft)
14.02.2017 20:50 -2,0 °C -2,0 °C 91 % 1033,8 hPa 0,0 mm 0,0 km/h (0 Bft) S 188 ° 0 min 0,000 mm 0,0 UV-I 0 W/m² -3,3 °C -2,0 °C 0,0 km/h (0 Bft)
14.02.2017 20:51 -1,9 °C -1,9 °C 91 % 1033,8 hPa 0,0 mm 0,0 km/h (0 Bft) S 188 ° 0 min 0,000 mm 0,0 UV-I 0 W/m² -3,2 °C -1,9 °C 0,0 km/h (0 Bft)
14.02.2017 20:52 -1,9 °C -1,9 °C 91 % 1033,8 hPa 0,0 mm 0,1 km/h (0 Bft) S 188 ° 0 min 0,000 mm 0,0 UV-I 0 W/m² -3,2 °C -1,9 °C 1,6 km/h (1 Bft)
14.02.2017 20:53 -1,9 °C -1,9 °C 90 % 1033,8 hPa 0,0 mm 0,3 km/h (0 Bft) S 188 ° 0 min 0,000 mm 0,0 UV-I 0 W/m² -3,3 °C -1,9 °C 1,6 km/h (1 Bft)
14.02.2017 20:54 -2,0 °C -1,9 °C 90 % 1033,8 hPa 0,0 mm 0,1 km/h (0 Bft) S 188 ° 0 min 0,000 mm 0,0 UV-I 0 W/m² -3,4 °C -2,0 °C 1,6 km/h (1 Bft)
14.02.2017 20:55 -2,1 °C -2,0 °C 90 % 1033,8 hPa 0,0 mm 0,0 km/h (0 Bft) S 188 ° 0 min 0,000 mm 0,0 UV-I 0 W/m² -3,5 °C -2,1 °C 0,0 km/h (0 Bft)
14.02.2017 20:56 -2,1 °C -2,1 °C 90 % 1033,8 hPa 0,0 mm 0,0 km/h (0 Bft) S 188 ° 0 min 0,000 mm 0,0 UV-I 0 W/m² -3,5 °C -2,1 °C 0,0 km/h (0 Bft)
14.02.2017 20:57 -2,2 °C -2,1 °C 90 % 1033,8 hPa 0,0 mm 0,0 km/h (0 Bft) S 188 ° 0 min 0,000 mm 0,0 UV-I 0 W/m² -3,6 °C -2,2 °C 0,0 km/h (0 Bft)
14.02.2017 20:58 -2,1 °C -2,1 °C 91 % 1033,8 hPa 0,0 mm 0,0 km/h (0 Bft) S 188 ° 0 min 0,000 mm 0,0 UV-I 0 W/m² -3,4 °C -2,1 °C 0,0 km/h (0 Bft)
14.02.2017 20:59 -2,1 °C -2,1 °C 91 % 1033,8 hPa 0,0 mm 0,0 km/h (0 Bft) S 188 ° 0 min 0,000 mm 0,0 UV-I 0 W/m² -3,4 °C -2,1 °C 0,0 km/h (0 Bft)
14.02.2017 21:00 -2,1 °C -2,1 °C 91 % 1033,8 hPa 0,0 mm 0,0 km/h (0 Bft) S 188 ° 0 min 0,000 mm 0,0 UV-I 0 W/m² -3,4 °C -2,1 °C 0,0 km/h (0 Bft)
14.02.2017 21:01 -2,1 °C -2,1 °C 91 % 1033,8 hPa 0,0 mm 0,0 km/h (0 Bft) S 188 ° 0 min 0,000 mm 0,0 UV-I 0 W/m² -3,4 °C -2,1 °C 0,0 km/h (0 Bft)
14.02.2017 21:02 -2,2 °C -2,1 °C 90 % 1033,9 hPa 0,0 mm 0,0 km/h (0 Bft) S 188 ° 0 min 0,000 mm 0,0 UV-I 0 W/m² -3,6 °C -2,2 °C 0,0 km/h (0 Bft)
14.02.2017 21:03 -2,2 °C -2,2 °C 90 % 1033,9 hPa 0,0 mm 0,0 km/h (0 Bft) S 188 ° 0 min 0,000 mm 0,0 UV-I 0 W/m² -3,6 °C -2,2 °C 0,0 km/h (0 Bft)
14.02.2017 21:04 -2,2 °C -2,2 °C 90 % 1033,8 hPa 0,0 mm 0,0 km/h (0 Bft) S 188 ° 0 min 0,000 mm 0,0 UV-I 0 W/m² -3,6 °C -2,2 °C 0,0 km/h (0 Bft)
14.02.2017 21:05 -2,3 °C -2,2 °C 90 % 1033,8 hPa 0,0 mm 0,0 km/h (0 Bft) S 188 ° 0 min 0,000 mm 0,0 UV-I 0 W/m² -3,7 °C -2,3 °C 0,0 km/h (0 Bft)
14.02.2017 21:06 -2,2 °C -2,2 °C 91 % 1033,9 hPa 0,0 mm 0,0 km/h (0 Bft) S 188 ° 0 min 0,000 mm 0,0 UV-I 0 W/m² -3,5 °C -2,2 °C 0,0 km/h (0 Bft)
14.02.2017 21:07 -2,2 °C -2,2 °C 91 % 1033,8 hPa 0,0 mm 0,0 km/h (0 Bft) S 188 ° 0 min 0,000 mm 0,0 UV-I 0 W/m² -3,5 °C -2,2 °C 0,0 km/h (0 Bft)
14.02.2017 21:08 -2,2 °C -2,2 °C 91 % 1033,8 hPa 0,0 mm 0,0 km/h (0 Bft) S 188 ° 0 min 0,000 mm 0,0 UV-I 0 W/m² -3,5 °C -2,2 °C 0,0 km/h (0 Bft)
14.02.2017 21:09 -2,2 °C -2,2 °C 91 % 1033,8 hPa 0,0 mm 0,0 km/h (0 Bft) S 188 ° 0 min 0,000 mm 0,0 UV-I 0 W/m² -3,5 °C -2,2 °C 0,0 km/h (0 Bft)
14.02.2017 21:10 -2,2 °C -2,2 °C 91 % 1033,7 hPa 0,0 mm 0,0 km/h (0 Bft) S 188 ° 0 min 0,000 mm 0,0 UV-I 0 W/m² -3,5 °C -2,2 °C 0,0 km/h (0 Bft)
14.02.2017 21:11 -2,2 °C -2,2 °C 91 % 1033,8 hPa 0,0 mm 0,0 km/h (0 Bft) S 188 ° 0 min 0,000 mm 0,0 UV-I 0 W/m² -3,5 °C -2,2 °C 0,0 km/h (0 Bft)
14.02.2017 21:12 -2,2 °C -2,2 °C 91 % 1033,8 hPa 0,0 mm 0,0 km/h (0 Bft) S 188 ° 0 min 0,000 mm 0,0 UV-I 0 W/m² -3,5 °C -2,2 °C 0,0 km/h (0 Bft)
14.02.2017 21:13 -2,3 °C -2,2 °C 90 % 1033,8 hPa 0,0 mm 0,1 km/h (0 Bft) S 188 ° 0 min 0,000 mm 0,0 UV-I 0 W/m² -3,7 °C -2,3 °C 1,6 km/h (1 Bft)
14.02.2017 21:14 -2,3 °C -2,3 °C 90 % 1033,7 hPa 0,0 mm 0,0 km/h (0 Bft) S 188 ° 0 min 0,000 mm 0,0 UV-I 0 W/m² -3,7 °C -2,3 °C 0,0 km/h (0 Bft)
14.02.2017 21:15 -2,3 °C -2,3 °C 90 % 1033,7 hPa 0,0 mm 0,0 km/h (0 Bft) S 188 ° 0 min 0,000 mm 0,0 UV-I 0 W/m² -3,7 °C -2,3 °C 0,0 km/h (0 Bft)
14.02.2017 21:16 -2,4 °C -2,3 °C 91 % 1033,7 hPa 0,0 mm 0,0 km/h (0 Bft) S 188 ° 0 min 0,000 mm 0,0 UV-I 0 W/m² -3,7 °C -2,4 °C 0,0 km/h (0 Bft)
14.02.2017 21:17 -2,4 °C -2,4 °C 91 % 1033,7 hPa 0,0 mm 0,0 km/h (0 Bft) S 188 ° 0 min 0,000 mm 0,0 UV-I 0 W/m² -3,7 °C -2,4 °C 0,0 km/h (0 Bft)
14.02.2017 21:18 -2,4 °C -2,4 °C 91 % 1033,7 hPa 0,0 mm 0,0 km/h (0 Bft) S 188 ° 0 min 0,000 mm 0,0 UV-I 0 W/m² -3,7 °C -2,4 °C 0,0 km/h (0 Bft)
14.02.2017 21:19 -2,4 °C -2,4 °C 92 % 1033,6 hPa 0,0 mm 0,0 km/h (0 Bft) S 188 ° 0 min 0,000 mm 0,0 UV-I 0 W/m² -3,5 °C -2,4 °C 0,0 km/h (0 Bft)
14.02.2017 21:20 -2,4 °C -2,4 °C 92 % 1033,6 hPa 0,0 mm 0,0 km/h (0 Bft) S 188 ° 0 min 0,000 mm 0,0 UV-I 0 W/m² -3,5 °C -2,4 °C 0,0 km/h (0 Bft)
14.02.2017 21:21 -2,3 °C -2,3 °C 92 % 1033,6 hPa 0,0 mm 0,0 km/h (0 Bft) S 188 ° 0 min 0,000 mm 0,0 UV-I 0 W/m² -3,4 °C -2,3 °C 0,0 km/h (0 Bft)
14.02.2017 21:22 -2,4 °C -2,3 °C 92 % 1033,6 hPa 0,0 mm 0,0 km/h (0 Bft) S 188 ° 0 min 0,000 mm 0,0 UV-I 0 W/m² -3,5 °C -2,4 °C 0,0 km/h (0 Bft)
14.02.2017 21:23 -2,4 °C -2,3 °C 92 % 1033,6 hPa 0,0 mm 0,7 km/h (0 Bft) S 188 ° 0 min 0,000 mm 0,0 UV-I 0 W/m² -3,5 °C -2,4 °C 1,6 km/h (1 Bft)
14.02.2017 21:24 -2,4 °C -2,4 °C 91 % 1033,6 hPa 0,0 mm 0,8 km/h (0 Bft) S 188 ° 0 min 0,000 mm 0,0 UV-I 0 W/m² -3,7 °C -2,4 °C 1,6 km/h (1 Bft)
14.02.2017 21:25 -2,5 °C -2,4 °C 91 % 1033,6 hPa 0,0 mm 0,6 km/h (0 Bft) S 188 ° 0 min 0,000 mm 0,0 UV-I 0 W/m² -3,8 °C -2,5 °C 1,6 km/h (1 Bft)
14.02.2017 21:26 -2,5 °C -2,5 °C 91 % 1033,6 hPa 0,0 mm 0,8 km/h (0 Bft) S 188 ° 0 min 0,000 mm 0,0 UV-I 0 W/m² -3,8 °C -2,5 °C 1,6 km/h (1 Bft)
14.02.2017 21:27 -2,5 °C -2,5 °C 91 % 1033,6 hPa 0,0 mm 1,7 km/h (1 Bft) S 188 ° 0 min 0,000 mm 0,0 UV-I 0 W/m² -3,8 °C -2,5 °C 3,2 km/h (1 Bft)
14.02.2017 21:28 -2,5 °C -2,5 °C 92 % 1033,7 hPa 0,0 mm 1,7 km/h (1 Bft) S 188 ° 0 min 0,000 mm 0,0 UV-I 0 W/m² -3,6 °C -2,5 °C 3,2 km/h (1 Bft)
14.02.2017 21:29 -2,5 °C -2,5 °C 91 % 1033,6 hPa 0,0 mm 1,7 km/h (1 Bft) S 188 ° 0 min 0,000 mm 0,0 UV-I 0 W/m² -3,8 °C -2,5 °C 3,2 km/h (1 Bft)
14.02.2017 21:30 -2,4 °C -2,4 °C 92 % 1033,6 hPa 0,0 mm 1,4 km/h (1 Bft) S 188 ° 0 min 0,000 mm 0,0 UV-I 0 W/m² -3,5 °C -2,4 °C 3,2 km/h (1 Bft)
14.02.2017 21:31 -2,4 °C -2,4 °C 92 % 1033,6 hPa 0,0 mm 0,6 km/h (0 Bft) S 188 ° 0 min 0,000 mm 0,0 UV-I 0 W/m² -3,5 °C -2,4 °C 1,6 km/h (1 Bft)
14.02.2017 21:32 -2,3 °C -2,3 °C 92 % 1033,6 hPa 0,0 mm 0,0 km/h (0 Bft) S 188 ° 0 min 0,000 mm 0,0 UV-I 0 W/m² -3,4 °C -2,3 °C 0,0 km/h (0 Bft)
14.02.2017 21:33 -2,2 °C -2,2 °C 92 % 1033,6 hPa 0,0 mm 0,1 km/h (0 Bft) S 188 ° 0 min 0,000 mm 0,0 UV-I 0 W/m² -3,3 °C -2,2 °C 1,6 km/h (1 Bft)
14.02.2017 21:34 -2,2 °C -2,2 °C 92 % 1033,6 hPa 0,0 mm 0,0 km/h (0 Bft) S 188 ° 0 min 0,000 mm 0,0 UV-I 0 W/m² -3,3 °C -2,2 °C 0,0 km/h (0 Bft)
14.02.2017 21:35 -2,2 °C -2,2 °C 91 % 1033,6 hPa 0,0 mm 0,3 km/h (0 Bft) S 188 ° 0 min 0,000 mm 0,0 UV-I 0 W/m² -3,5 °C -2,2 °C 1,6 km/h (1 Bft)
14.02.2017 21:36 -2,2 °C -2,2 °C 91 % 1033,6 hPa 0,0 mm 0,1 km/h (0 Bft) S 188 ° 0 min 0,000 mm 0,0 UV-I 0 W/m² -3,5 °C -2,2 °C 1,6 km/h (1 Bft)
14.02.2017 21:37 -2,3 °C -2,2 °C 91 % 1033,6 hPa 0,0 mm 0,0 km/h (0 Bft) S 188 ° 0 min 0,000 mm 0,0 UV-I 0 W/m² -3,6 °C -2,3 °C 0,0 km/h (0 Bft)
14.02.2017 21:38 -2,3 °C -2,3 °C 91 % 1033,6 hPa 0,0 mm 0,0 km/h (0 Bft) S 188 ° 0 min 0,000 mm 0,0 UV-I 0 W/m² -3,6 °C -2,3 °C 0,0 km/h (0 Bft)
14.02.2017 21:39 -2,3 °C -2,3 °C 91 % 1033,6 hPa 0,0 mm 0,0 km/h (0 Bft) S 188 ° 0 min 0,000 mm 0,0 UV-I 0 W/m² -3,6 °C -2,3 °C 0,0 km/h (0 Bft)
14.02.2017 21:40 -2,3 °C -2,3 °C 91 % 1033,7 hPa 0,0 mm 0,0 km/h (0 Bft) S 188 ° 0 min 0,000 mm 0,0 UV-I 0 W/m² -3,6 °C -2,3 °C 0,0 km/h (0 Bft)
14.02.2017 21:41 -2,3 °C -2,3 °C 91 % 1033,6 hPa 0,0 mm 0,0 km/h (0 Bft) S 188 ° 0 min 0,000 mm 0,0 UV-I 0 W/m² -3,6 °C -2,3 °C 0,0 km/h (0 Bft)
14.02.2017 21:42 -2,3 °C -2,3 °C 91 % 1033,6 hPa 0,0 mm 0,4 km/h (0 Bft) S 188 ° 0 min 0,000 mm 0,0 UV-I 0 W/m² -3,6 °C -2,3 °C 1,6 km/h (1 Bft)
14.02.2017 21:43 -2,3 °C -2,3 °C 91 % 1033,6 hPa 0,0 mm 0,0 km/h (0 Bft) S 188 ° 0 min 0,000 mm 0,0 UV-I 0 W/m² -3,6 °C -2,3 °C 0,0 km/h (0 Bft)
14.02.2017 21:44 -2,3 °C -2,3 °C 91 % 1033,6 hPa 0,0 mm 0,0 km/h (0 Bft) S 188 ° 0 min 0,000 mm 0,0 UV-I 0 W/m² -3,6 °C -2,3 °C 0,0 km/h (0 Bft)
14.02.2017 21:45 -2,2 °C -2,2 °C 92 % 1033,6 hPa 0,0 mm 0,0 km/h (0 Bft) S 188 ° 0 min 0,000 mm 0,0 UV-I 0 W/m² -3,3 °C -2,2 °C 0,0 km/h (0 Bft)
14.02.2017 21:46 -2,1 °C -2,1 °C 92 % 1033,7 hPa 0,0 mm 0,1 km/h (0 Bft) S 188 ° 0 min 0,000 mm 0,0 UV-I 0 W/m² -3,2 °C -2,1 °C 1,6 km/h (1 Bft)
14.02.2017 21:47 -2,1 °C -2,1 °C 92 % 1033,6 hPa 0,0 mm 0,0 km/h (0 Bft) S 188 ° 0 min 0,000 mm 0,0 UV-I 0 W/m² -3,2 °C -2,1 °C 0,0 km/h (0 Bft)
14.02.2017 21:48 -2,0 °C -2,0 °C 91 % 1033,7 hPa 0,0 mm 0,0 km/h (0 Bft) S 188 ° 0 min 0,000 mm 0,0 UV-I 0 W/m² -3,3 °C -2,0 °C 0,0 km/h (0 Bft)
14.02.2017 21:49 -2,0 °C -2,0 °C 91 % 1033,7 hPa 0,0 mm 0,0 km/h (0 Bft) S 188 ° 0 min 0,000 mm 0,0 UV-I 0 W/m² -3,3 °C -2,0 °C 0,0 km/h (0 Bft)
14.02.2017 21:50 -1,9 °C -1,9 °C 91 % 1033,8 hPa 0,0 mm 0,0 km/h (0 Bft) S 188 ° 0 min 0,000 mm 0,0 UV-I 0 W/m² -3,2 °C -1,9 °C 0,0 km/h (0 Bft)
14.02.2017 21:51 -2,0 °C -1,9 °C 91 % 1033,8 hPa 0,0 mm 0,0 km/h (0 Bft) S 188 ° 0 min 0,000 mm 0,0 UV-I 0 W/m² -3,3 °C -2,0 °C 0,0 km/h (0 Bft)
14.02.2017 21:52 -2,1 °C -2,0 °C 91 % 1033,7 hPa 0,0 mm 0,0 km/h (0 Bft) S 188 ° 0 min 0,000 mm 0,0 UV-I 0 W/m² -3,4 °C -2,1 °C 0,0 km/h (0 Bft)
14.02.2017 21:53 -2,1 °C -2,1 °C 90 % 1033,7 hPa 0,0 mm 0,0 km/h (0 Bft) S 188 ° 0 min 0,000 mm 0,0 UV-I 0 W/m² -3,5 °C -2,1 °C 0,0 km/h (0 Bft)
14.02.2017 21:54 -2,1 °C -2,1 °C 90 % 1033,7 hPa 0,0 mm 0,0 km/h (0 Bft) S 188 ° 0 min 0,000 mm 0,0 UV-I 0 W/m² -3,5 °C -2,1 °C 0,0 km/h (0 Bft)
14.02.2017 21:55 -2,2 °C -2,1 °C 90 % 1033,7 hPa 0,0 mm 0,0 km/h (0 Bft) S 188 ° 0 min 0,000 mm 0,0 UV-I 0 W/m² -3,6 °C -2,2 °C 0,0 km/h (0 Bft)
14.02.2017 21:56 -2,2 °C -2,2 °C 90 % 1033,7 hPa 0,0 mm 0,0 km/h (0 Bft) S 188 ° 0 min 0,000 mm 0,0 UV-I 0 W/m² -3,6 °C -2,2 °C 0,0 km/h (0 Bft)
14.02.2017 21:57 -2,2 °C -2,2 °C 90 % 1033,7 hPa 0,0 mm 0,0 km/h (0 Bft) S 188 ° 0 min 0,000 mm 0,0 UV-I 0 W/m² -3,6 °C -2,2 °C 0,0 km/h (0 Bft)
14.02.2017 21:58 -2,3 °C -2,2 °C 90 % 1033,7 hPa 0,0 mm 0,1 km/h (0 Bft) S 188 ° 0 min 0,000 mm 0,0 UV-I 0 W/m² -3,7 °C -2,3 °C 1,6 km/h (1 Bft)
14.02.2017 21:59 -2,3 °C -2,3 °C 90 % 1033,7 hPa 0,0 mm 0,1 km/h (0 Bft) S 188 ° 0 min 0,000 mm 0,0 UV-I 0 W/m² -3,7 °C -2,3 °C 1,6 km/h (1 Bft)
14.02.2017 22:00 -2,4 °C -2,3 °C 90 % 1033,7 hPa 0,0 mm 1,4 km/h (1 Bft) S 188 ° 0 min 0,000 mm 0,0 UV-I 0 W/m² -3,8 °C -2,4 °C 1,6 km/h (1 Bft)
14.02.2017 22:01 -2,4 °C -2,3 °C 90 % 1033,8 hPa 0,0 mm 0,9 km/h (0 Bft) S 188 ° 0 min 0,000 mm 0,0 UV-I 0 W/m² -3,8 °C -2,4 °C 1,6 km/h (1 Bft)
14.02.2017 22:02 -2,4 °C -2,4 °C 90 % 1033,7 hPa 0,0 mm 1,7 km/h (1 Bft) S 188 ° 0 min 0,000 mm 0,0 UV-I 0 W/m² -3,8 °C -2,4 °C 3,2 km/h (1 Bft)
14.02.2017 22:03 -2,4 °C -2,4 °C 90 % 1033,8 hPa 0,0 mm 2,3 km/h (1 Bft) S 188 ° 0 min 0,000 mm 0,0 UV-I 0 W/m² -3,8 °C -2,4 °C 3,2 km/h (1 Bft)
14.02.2017 22:04 -2,4 °C -2,4 °C 90 % 1033,8 hPa 0,0 mm 1,6 km/h (1 Bft) S 188 ° 0 min 0,000 mm 0,0 UV-I 0 W/m² -3,8 °C -2,4 °C 1,6 km/h (1 Bft)
14.02.2017 22:05 -2,4 °C -2,4 °C 90 % 1033,8 hPa 0,0 mm 1,7 km/h (1 Bft) S 188 ° 0 min 0,000 mm 0,0 UV-I 0 W/m² -3,8 °C -2,4 °C 3,2 km/h (1 Bft)
14.02.2017 22:06 -2,5 °C -2,4 °C 90 % 1033,8 hPa 0,0 mm 1,9 km/h (1 Bft) S 188 ° 0 min 0,000 mm 0,0 UV-I 0 W/m² -3,9 °C -2,5 °C 3,2 km/h (1 Bft)
14.02.2017 22:07 -2,4 °C -2,4 °C 90 % 1033,8 hPa 0,0 mm 1,7 km/h (1 Bft) S 188 ° 0 min 0,000 mm 0,0 UV-I 0 W/m² -3,8 °C -2,4 °C 3,2 km/h (1 Bft)
14.02.2017 22:08 -2,5 °C -2,4 °C 90 % 1033,8 hPa 0,0 mm 0,8 km/h (0 Bft) S 188 ° 0 min 0,000 mm 0,0 UV-I 0 W/m² -3,9 °C -2,5 °C 1,6 km/h (1 Bft)
14.02.2017 22:09 -2,5 °C -2,5 °C 90 % 1033,8 hPa 0,0 mm 1,1 km/h (1 Bft) S 188 ° 0 min 0,000 mm 0,0 UV-I 0 W/m² -3,9 °C -2,5 °C 3,2 km/h (1 Bft)
14.02.2017 22:10 -2,5 °C -2,5 °C 91 % 1033,8 hPa 0,0 mm 0,9 km/h (0 Bft) S 188 ° 0 min 0,000 mm 0,0 UV-I 0 W/m² -3,8 °C -2,5 °C 1,6 km/h (1 Bft)
14.02.2017 22:11 -2,5 °C -2,5 °C 91 % 1033,8 hPa 0,0 mm 0,4 km/h (0 Bft) S 188 ° 0 min 0,000 mm 0,0 UV-I 0 W/m² -3,8 °C -2,5 °C 1,6 km/h (1 Bft)
14.02.2017 22:12 -2,5 °C -2,5 °C 91 % 1033,8 hPa 0,0 mm 0,1 km/h (0 Bft) S 188 ° 0 min 0,000 mm 0,0 UV-I 0 W/m² -3,8 °C -2,5 °C 1,6 km/h (1 Bft)
14.02.2017 22:13 -2,5 °C -2,5 °C 91 % 1033,8 hPa 0,0 mm 1,0 km/h (0 Bft) S 188 ° 0 min 0,000 mm 0,0 UV-I 0 W/m² -3,8 °C -2,5 °C 1,6 km/h (1 Bft)
14.02.2017 22:14 -2,5 °C -2,5 °C 91 % 1033,8 hPa 0,0 mm 0,1 km/h (0 Bft) S 188 ° 0 min 0,000 mm 0,0 UV-I 0 W/m² -3,8 °C -2,5 °C 1,6 km/h (1 Bft)
14.02.2017 22:15 -2,5 °C -2,5 °C 91 % 1033,8 hPa 0,0 mm 0,0 km/h (0 Bft) S 188 ° 0 min 0,000 mm 0,0 UV-I 0 W/m² -3,8 °C -2,5 °C 0,0 km/h (0 Bft)
14.02.2017 22:16 -2,5 °C -2,5 °C 91 % 1033,8 hPa 0,0 mm 0,0 km/h (0 Bft) S 188 ° 0 min 0,000 mm 0,0 UV-I 0 W/m² -3,8 °C -2,5 °C 0,0 km/h (0 Bft)
14.02.2017 22:17 -2,5 °C -2,5 °C 91 % 1033,8 hPa 0,0 mm 0,0 km/h (0 Bft) S 188 ° 0 min 0,000 mm 0,0 UV-I 0 W/m² -3,8 °C -2,5 °C 0,0 km/h (0 Bft)
14.02.2017 22:18 -2,5 °C -2,5 °C 91 % 1033,8 hPa 0,0 mm 0,0 km/h (0 Bft) S 188 ° 0 min 0,000 mm 0,0 UV-I 0 W/m² -3,8 °C -2,5 °C 0,0 km/h (0 Bft)
14.02.2017 22:19 -2,6 °C -2,5 °C 91 % 1033,8 hPa 0,0 mm 0,1 km/h (0 Bft) S 188 ° 0 min 0,000 mm 0,0 UV-I 0 W/m² -3,9 °C -2,6 °C 1,6 km/h (1 Bft)
14.02.2017 22:20 -2,6 °C -2,5 °C 91 % 1033,8 hPa 0,0 mm 0,6 km/h (0 Bft) S 188 ° 0 min 0,000 mm 0,0 UV-I 0 W/m² -3,9 °C -2,6 °C 1,6 km/h (1 Bft)
14.02.2017 22:21 -2,6 °C -2,6 °C 91 % 1033,8 hPa 0,0 mm 0,0 km/h (0 Bft) S 188 ° 0 min 0,000 mm 0,0 UV-I 0 W/m² -3,9 °C -2,6 °C 0,0 km/h (0 Bft)
14.02.2017 22:22 -2,6 °C -2,6 °C 91 % 1033,8 hPa 0,0 mm 0,0 km/h (0 Bft) S 188 ° 0 min 0,000 mm 0,0 UV-I 0 W/m² -3,9 °C -2,6 °C 0,0 km/h (0 Bft)
14.02.2017 22:23 -2,6 °C -2,6 °C 91 % 1033,8 hPa 0,0 mm 0,1 km/h (0 Bft) S 188 ° 0 min 0,000 mm 0,0 UV-I 0 W/m² -3,9 °C -2,6 °C 1,6 km/h (1 Bft)
14.02.2017 22:24 -2,6 °C -2,6 °C 91 % 1033,8 hPa 0,0 mm 0,1 km/h (0 Bft) S 188 ° 0 min 0,000 mm 0,0 UV-I 0 W/m² -3,9 °C -2,6 °C 1,6 km/h (1 Bft)
14.02.2017 22:25 -2,6 °C -2,6 °C 91 % 1033,8 hPa 0,0 mm 2,8 km/h (1 Bft) S 188 ° 0 min 0,000 mm 0,0 UV-I 0 W/m² -3,9 °C -2,6 °C 3,2 km/h (1 Bft)
14.02.2017 22:26 -2,6 °C -2,6 °C 91 % 1033,8 hPa 0,0 mm 1,5 km/h (1 Bft) S 188 ° 0 min 0,000 mm 0,0 UV-I 0 W/m² -3,9 °C -2,6 °C 3,2 km/h (1 Bft)
14.02.2017 22:27 -2,5 °C -2,5 °C 91 % 1033,8 hPa 0,0 mm 0,2 km/h (0 Bft) S 188 ° 0 min 0,000 mm 0,0 UV-I 0 W/m² -3,8 °C -2,5 °C 1,6 km/h (1 Bft)
14.02.2017 22:28 -2,5 °C -2,5 °C 91 % 1033,8 hPa 0,0 mm 0,6 km/h (0 Bft) S 188 ° 0 min 0,000 mm 0,0 UV-I 0 W/m² -3,8 °C -2,5 °C 1,6 km/h (1 Bft)
14.02.2017 22:29 -2,5 °C -2,5 °C 91 % 1033,9 hPa 0,0 mm 0,7 km/h (0 Bft) S 188 ° 0 min 0,000 mm 0,0 UV-I 0 W/m² -3,8 °C -2,5 °C 1,6 km/h (1 Bft)
14.02.2017 22:30 -2,4 °C -2,4 °C 92 % 1033,9 hPa 0,0 mm 0,7 km/h (0 Bft) S 188 ° 0 min 0,000 mm 0,0 UV-I 0 W/m² -3,5 °C -2,4 °C 1,6 km/h (1 Bft)
14.02.2017 22:31 -2,4 °C -2,4 °C 92 % 1033,9 hPa 0,0 mm 0,3 km/h (0 Bft) S 188 ° 0 min 0,000 mm 0,0 UV-I 0 W/m² -3,5 °C -2,4 °C 1,6 km/h (1 Bft)
14.02.2017 22:32 -2,3 °C -2,3 °C 92 % 1033,9 hPa 0,0 mm 0,1 km/h (0 Bft) S 188 ° 0 min 0,000 mm 0,0 UV-I 0 W/m² -3,4 °C -2,3 °C 1,6 km/h (1 Bft)
14.02.2017 22:33 -2,3 °C -2,3 °C 92 % 1033,9 hPa 0,0 mm 0,0 km/h (0 Bft) S 188 ° 0 min 0,000 mm 0,0 UV-I 0 W/m² -3,4 °C -2,3 °C 0,0 km/h (0 Bft)
14.02.2017 22:34 -2,3 °C -2,3 °C 91 % 1033,9 hPa 0,0 mm 0,0 km/h (0 Bft) S 188 ° 0 min 0,000 mm 0,0 UV-I 0 W/m² -3,6 °C -2,3 °C 0,0 km/h (0 Bft)
14.02.2017 22:35 -2,3 °C -2,3 °C 91 % 1033,9 hPa 0,0 mm 0,0 km/h (0 Bft) S 188 ° 0 min 0,000 mm 0,0 UV-I 0 W/m² -3,6 °C -2,3 °C 0,0 km/h (0 Bft)
14.02.2017 22:36 -2,3 °C -2,3 °C 91 % 1033,9 hPa 0,0 mm 0,0 km/h (0 Bft) S 188 ° 0 min 0,000 mm 0,0 UV-I 0 W/m² -3,6 °C -2,3 °C 0,0 km/h (0 Bft)
14.02.2017 22:37 -2,3 °C -2,3 °C 91 % 1033,9 hPa 0,0 mm 0,0 km/h (0 Bft) S 188 ° 0 min 0,000 mm 0,0 UV-I 0 W/m² -3,6 °C -2,3 °C 0,0 km/h (0 Bft)
14.02.2017 22:38 -2,3 °C -2,3 °C 91 % 1033,9 hPa 0,0 mm 0,0 km/h (0 Bft) S 188 ° 0 min 0,000 mm 0,0 UV-I 0 W/m² -3,6 °C -2,3 °C 0,0 km/h (0 Bft)
14.02.2017 22:39 -2,3 °C -2,3 °C 91 % 1033,8 hPa 0,0 mm 0,0 km/h (0 Bft) S 188 ° 0 min 0,000 mm 0,0 UV-I 0 W/m² -3,6 °C -2,3 °C 0,0 km/h (0 Bft)
14.02.2017 22:40 -2,4 °C -2,3 °C 91 % 1033,9 hPa 0,0 mm 0,7 km/h (0 Bft) S 188 ° 0 min 0,000 mm 0,0 UV-I 0 W/m² -3,7 °C -2,4 °C 1,6 km/h (1 Bft)
14.02.2017 22:41 -2,4 °C -2,3 °C 91 % 1033,9 hPa 0,0 mm 0,5 km/h (0 Bft) S 188 ° 0 min 0,000 mm 0,0 UV-I 0 W/m² -3,7 °C -2,4 °C 1,6 km/h (1 Bft)
14.02.2017 22:42 -2,4 °C -2,4 °C 91 % 1033,8 hPa 0,0 mm 0,0 km/h (0 Bft) S 188 ° 0 min 0,000 mm 0,0 UV-I 0 W/m² -3,7 °C -2,4 °C 0,0 km/h (0 Bft)
14.02.2017 22:43 -2,4 °C -2,4 °C 91 % 1033,9 hPa 0,0 mm 0,2 km/h (0 Bft) S 188 ° 0 min 0,000 mm 0,0 UV-I 0 W/m² -3,7 °C -2,4 °C 1,6 km/h (1 Bft)
14.02.2017 22:44 -2,4 °C -2,4 °C 90 % 1033,9 hPa 0,0 mm 0,0 km/h (0 Bft) S 188 ° 0 min 0,000 mm 0,0 UV-I 0 W/m² -3,8 °C -2,4 °C 0,0 km/h (0 Bft)
14.02.2017 22:45 -2,4 °C -2,4 °C 90 % 1033,9 hPa 0,0 mm 0,0 km/h (0 Bft) S 188 ° 0 min 0,000 mm 0,0 UV-I 0 W/m² -3,8 °C -2,4 °C 0,0 km/h (0 Bft)
14.02.2017 22:46 -2,4 °C -2,3 °C 90 % 1033,9 hPa 0,0 mm 0,0 km/h (0 Bft) S 188 ° 0 min 0,000 mm 0,0 UV-I 0 W/m² -3,8 °C -2,4 °C 0,0 km/h (0 Bft)
14.02.2017 22:47 -2,4 °C -2,4 °C 90 % 1033,9 hPa 0,0 mm 0,0 km/h (0 Bft) S 188 ° 0 min 0,000 mm 0,0 UV-I 0 W/m² -3,8 °C -2,4 °C 0,0 km/h (0 Bft)
14.02.2017 22:48 -2,4 °C -2,4 °C 90 % 1033,9 hPa 0,0 mm 0,0 km/h (0 Bft) S 188 ° 0 min 0,000 mm 0,0 UV-I 0 W/m² -3,8 °C -2,4 °C 0,0 km/h (0 Bft)
14.02.2017 22:49 -2,4 °C -2,4 °C 90 % 1033,9 hPa 0,0 mm 0,0 km/h (0 Bft) S 188 ° 0 min 0,000 mm 0,0 UV-I 0 W/m² -3,8 °C -2,4 °C 0,0 km/h (0 Bft)
14.02.2017 22:50 -2,4 °C -2,4 °C 90 % 1034,0 hPa 0,0 mm 0,3 km/h (0 Bft) S 188 ° 0 min 0,000 mm 0,0 UV-I 0 W/m² -3,8 °C -2,4 °C 1,6 km/h (1 Bft)
14.02.2017 22:51 -2,4 °C -2,4 °C 90 % 1033,9 hPa 0,0 mm 0,7 km/h (0 Bft) S 188 ° 0 min 0,000 mm 0,0 UV-I 0 W/m² -3,8 °C -2,4 °C 1,6 km/h (1 Bft)
14.02.2017 22:52 -2,4 °C -2,4 °C 90 % 1034,0 hPa 0,0 mm 1,9 km/h (1 Bft) S 188 ° 0 min 0,000 mm 0,0 UV-I 0 W/m² -3,8 °C -2,4 °C 3,2 km/h (1 Bft)
14.02.2017 22:53 -2,4 °C -2,4 °C 90 % 1034,0 hPa 0,0 mm 0,9 km/h (0 Bft) S 188 ° 0 min 0,000 mm 0,0 UV-I 0 W/m² -3,8 °C -2,4 °C 1,6 km/h (1 Bft)
14.02.2017 22:54 -2,4 °C -2,4 °C 90 % 1034,1 hPa 0,0 mm 1,0 km/h (0 Bft) S 188 ° 0 min 0,000 mm 0,0 UV-I 0 W/m² -3,8 °C -2,4 °C 1,6 km/h (1 Bft)
14.02.2017 22:55 -2,4 °C -2,4 °C 90 % 1034,1 hPa 0,0 mm 0,2 km/h (0 Bft) S 188 ° 0 min 0,000 mm 0,0 UV-I 0 W/m² -3,8 °C -2,4 °C 1,6 km/h (1 Bft)
14.02.2017 22:56 -2,5 °C -2,4 °C 90 % 1034,1 hPa 0,0 mm 0,8 km/h (0 Bft) S 188 ° 0 min 0,000 mm 0,0 UV-I 0 W/m² -3,9 °C -2,5 °C 1,6 km/h (1 Bft)
14.02.2017 22:57 -2,5 °C -2,4 °C 90 % 1034,0 hPa 0,0 mm 0,9 km/h (0 Bft) S 188 ° 0 min 0,000 mm 0,0 UV-I 0 W/m² -3,9 °C -2,5 °C 1,6 km/h (1 Bft)
14.02.2017 22:58 -2,5 °C -2,5 °C 90 % 1034,1 hPa 0,0 mm 0,1 km/h (0 Bft) S 188 ° 0 min 0,000 mm 0,0 UV-I 0 W/m² -3,9 °C -2,5 °C 1,6 km/h (1 Bft)
14.02.2017 22:59 -2,4 °C -2,4 °C 91 % 1034,1 hPa 0,0 mm 2,2 km/h (1 Bft) S 188 ° 0 min 0,000 mm 0,0 UV-I 0 W/m² -3,7 °C -2,4 °C 3,2 km/h (1 Bft)
14.02.2017 23:00 -2,4 °C -2,4 °C 91 % 1034,1 hPa 0,0 mm 2,4 km/h (1 Bft) S 188 ° 0 min 0,000 mm 0,0 UV-I 0 W/m² -3,7 °C -2,4 °C 3,2 km/h (1 Bft)
14.02.2017 23:01 -2,3 °C -2,3 °C 91 % 1034,1 hPa 0,0 mm 2,2 km/h (1 Bft) S 188 ° 0 min 0,000 mm 0,0 UV-I 0 W/m² -3,6 °C -2,3 °C 3,2 km/h (1 Bft)
14.02.2017 23:02 -2,2 °C -2,2 °C 91 % 1034,1 hPa 0,0 mm 1,4 km/h (1 Bft) S 188 ° 0 min 0,000 mm 0,0 UV-I 0 W/m² -3,5 °C -2,2 °C 3,2 km/h (1 Bft)
14.02.2017 23:03 -2,1 °C -2,1 °C 91 % 1034,1 hPa 0,0 mm 2,3 km/h (1 Bft) S 188 ° 0 min 0,000 mm 0,0 UV-I 0 W/m² -3,4 °C -2,1 °C 3,2 km/h (1 Bft)
14.02.2017 23:04 -2,0 °C -2,0 °C 91 % 1034,1 hPa 0,0 mm 1,8 km/h (1 Bft) S 188 ° 0 min 0,000 mm 0,0 UV-I 0 W/m² -3,3 °C -2,0 °C 3,2 km/h (1 Bft)
14.02.2017 23:05 -1,8 °C -1,8 °C 90 % 1034,1 hPa 0,0 mm 2,6 km/h (1 Bft) S 188 ° 0 min 0,000 mm 0,0 UV-I 0 W/m² -3,2 °C -1,8 °C 4,8 km/h (1 Bft)
14.02.2017 23:06 -1,7 °C -1,7 °C 90 % 1034,1 hPa 0,0 mm 1,8 km/h (1 Bft) S 188 ° 0 min 0,000 mm 0,0 UV-I 0 W/m² -3,1 °C -1,7 °C 3,2 km/h (1 Bft)
14.02.2017 23:07 -1,6 °C -1,6 °C 90 % 1034,2 hPa 0,0 mm 0,1 km/h (0 Bft) S 188 ° 0 min 0,000 mm 0,0 UV-I 0 W/m² -3,0 °C -1,6 °C 1,6 km/h (1 Bft)
14.02.2017 23:08 -1,5 °C -1,5 °C 90 % 1034,1 hPa 0,0 mm 0,3 km/h (0 Bft) S 188 ° 0 min 0,000 mm 0,0 UV-I 0 W/m² -2,9 °C -1,5 °C 1,6 km/h (1 Bft)
14.02.2017 23:09 -1,4 °C -1,4 °C 89 % 1034,1 hPa 0,0 mm 0,3 km/h (0 Bft) S 188 ° 0 min 0,000 mm 0,0 UV-I 0 W/m² -3,0 °C -1,4 °C 1,6 km/h (1 Bft)
14.02.2017 23:10 -1,4 °C -1,4 °C 89 % 1034,1 hPa 0,0 mm 0,1 km/h (0 Bft) S 188 ° 0 min 0,000 mm 0,0 UV-I 0 W/m² -3,0 °C -1,4 °C 1,6 km/h (1 Bft)
14.02.2017 23:11 -1,3 °C -1,3 °C 88 % 1034,1 hPa 0,0 mm 0,3 km/h (0 Bft) S 188 ° 0 min 0,000 mm 0,0 UV-I 0 W/m² -3,0 °C -1,3 °C 1,6 km/h (1 Bft)
14.02.2017 23:12 -1,3 °C -1,3 °C 87 % 1034,2 hPa 0,0 mm 0,0 km/h (0 Bft) S 188 ° 0 min 0,000 mm 0,0 UV-I 0 W/m² -3,2 °C -1,3 °C 0,0 km/h (0 Bft)
14.02.2017 23:13 -1,3 °C -1,3 °C 87 % 1034,1 hPa 0,0 mm 1,4 km/h (1 Bft) S 188 ° 0 min 0,000 mm 0,0 UV-I 0 W/m² -3,2 °C -1,3 °C 3,2 km/h (1 Bft)
14.02.2017 23:14 -1,3 °C -1,3 °C 87 % 1034,2 hPa 0,0 mm 5,4 km/h (1 Bft) S 191 ° 0 min 0,000 mm 0,0 UV-I 0 W/m² -3,2 °C -3,3 °C 8,0 km/h (2 Bft)
14.02.2017 23:15 -1,2 °C -1,2 °C 87 % 1034,1 hPa 0,0 mm 6,8 km/h (2 Bft) S-SW 198 ° 0 min 0,000 mm 0,0 UV-I 0 W/m² -3,1 °C -3,7 °C 8,0 km/h (2 Bft)
14.02.2017 23:16 -1,2 °C -1,2 °C 86 % 1034,2 hPa 0,0 mm 1,9 km/h (1 Bft) S-SW 198 ° 0 min 0,000 mm 0,0 UV-I 0 W/m² -3,2 °C -1,2 °C 4,8 km/h (1 Bft)
14.02.2017 23:17 -1,2 °C -1,2 °C 85 % 1034,2 hPa 0,0 mm 0,9 km/h (0 Bft) S-SW 198 ° 0 min 0,000 mm 0,0 UV-I 0 W/m² -3,4 °C -1,2 °C 1,6 km/h (1 Bft)
14.02.2017 23:18 -1,3 °C -1,2 °C 84 % 1034,2 hPa 0,0 mm 1,2 km/h (1 Bft) S-SW 198 ° 0 min 0,000 mm 0,0 UV-I 0 W/m² -3,6 °C -1,3 °C 3,2 km/h (1 Bft)
14.02.2017 23:19 -1,4 °C -1,3 °C 84 % 1034,2 hPa 0,0 mm 0,3 km/h (0 Bft) S-SW 198 ° 0 min 0,000 mm 0,0 UV-I 0 W/m² -3,7 °C -1,4 °C 1,6 km/h (1 Bft)
14.02.2017 23:20 -1,4 °C -1,4 °C 84 % 1034,2 hPa 0,0 mm 0,1 km/h (0 Bft) S-SW 198 ° 0 min 0,000 mm 0,0 UV-I 0 W/m² -3,7 °C -1,4 °C 1,6 km/h (1 Bft)
14.02.2017 23:21 -1,4 °C -1,4 °C 84 % 1034,2 hPa 0,0 mm 0,6 km/h (0 Bft) S-SW 198 ° 0 min 0,000 mm 0,0 UV-I 0 W/m² -3,7 °C -1,4 °C 1,6 km/h (1 Bft)
14.02.2017 23:22 -1,5 °C -1,4 °C 85 % 1034,2 hPa 0,0 mm 0,7 km/h (0 Bft) S-SW 198 ° 0 min 0,000 mm 0,0 UV-I 0 W/m² -3,7 °C -1,5 °C 1,6 km/h (1 Bft)
14.02.2017 23:23 -1,5 °C -1,4 °C 85 % 1034,2 hPa 0,0 mm 0,3 km/h (0 Bft) S-SW 198 ° 0 min 0,000 mm 0,0 UV-I 0 W/m² -3,7 °C -1,5 °C 1,6 km/h (1 Bft)
14.02.2017 23:24 -1,5 °C -1,4 °C 85 % 1034,2 hPa 0,0 mm 0,0 km/h (0 Bft) S-SW 198 ° 0 min 0,000 mm 0,0 UV-I 0 W/m² -3,7 °C -1,5 °C 0,0 km/h (0 Bft)
14.02.2017 23:25 -1,5 °C -1,5 °C 86 % 1034,2 hPa 0,0 mm 0,0 km/h (0 Bft) S-SW 198 ° 0 min 0,000 mm 0,0 UV-I 0 W/m² -3,5 °C -1,5 °C 0,0 km/h (0 Bft)
14.02.2017 23:26 -1,5 °C -1,5 °C 86 % 1034,2 hPa 0,0 mm 0,8 km/h (0 Bft) S-SW 198 ° 0 min 0,000 mm 0,0 UV-I 0 W/m² -3,5 °C -1,5 °C 1,6 km/h (1 Bft)
14.02.2017 23:27 -1,6 °C -1,5 °C 86 % 1034,2 hPa 0,0 mm 0,4 km/h (0 Bft) S-SW 198 ° 0 min 0,000 mm 0,0 UV-I 0 W/m² -3,6 °C -1,6 °C 1,6 km/h (1 Bft)
14.02.2017 23:28 -1,6 °C -1,6 °C 85 % 1034,2 hPa 0,0 mm 0,7 km/h (0 Bft) S-SW 198 ° 0 min 0,000 mm 0,0 UV-I 0 W/m² -3,8 °C -1,6 °C 1,6 km/h (1 Bft)
14.02.2017 23:29 -1,6 °C -1,6 °C 85 % 1034,2 hPa 0,0 mm 1,5 km/h (1 Bft) S-SW 198 ° 0 min 0,000 mm 0,0 UV-I 0 W/m² -3,8 °C -1,6 °C 3,2 km/h (1 Bft)
14.02.2017 23:30 -1,6 °C -1,6 °C 85 % 1034,2 hPa 0,0 mm 1,7 km/h (1 Bft) S-SW 198 ° 0 min 0,000 mm 0,0 UV-I 0 W/m² -3,8 °C -1,6 °C 3,2 km/h (1 Bft)
14.02.2017 23:31 -1,6 °C -1,6 °C 85 % 1034,2 hPa 0,0 mm 1,0 km/h (0 Bft) S-SW 198 ° 0 min 0,000 mm 0,0 UV-I 0 W/m² -3,8 °C -1,6 °C 1,6 km/h (1 Bft)
14.02.2017 23:32 -1,7 °C -1,6 °C 85 % 1034,2 hPa 0,0 mm 0,1 km/h (0 Bft) S-SW 198 ° 0 min 0,000 mm 0,0 UV-I 0 W/m² -3,9 °C -1,7 °C 1,6 km/h (1 Bft)
14.02.2017 23:33 -1,7 °C -1,6 °C 85 % 1034,3 hPa 0,0 mm 0,0 km/h (0 Bft) S-SW 198 ° 0 min 0,000 mm 0,0 UV-I 0 W/m² -3,9 °C -1,7 °C 0,0 km/h (0 Bft)
14.02.2017 23:34 -1,7 °C -1,7 °C 85 % 1034,3 hPa 0,0 mm 0,4 km/h (0 Bft) S-SW 198 ° 0 min 0,000 mm 0,0 UV-I 0 W/m² -3,9 °C -1,7 °C 1,6 km/h (1 Bft)
14.02.2017 23:35 -1,8 °C -1,7 °C 85 % 1034,3 hPa 0,0 mm 0,1 km/h (0 Bft) S-SW 198 ° 0 min 0,000 mm 0,0 UV-I 0 W/m² -4,0 °C -1,8 °C 1,6 km/h (1 Bft)
14.02.2017 23:36 -1,8 °C -1,7 °C 85 % 1034,3 hPa 0,0 mm 0,0 km/h (0 Bft) S-SW 198 ° 0 min 0,000 mm 0,0 UV-I 0 W/m² -4,0 °C -1,8 °C 0,0 km/h (0 Bft)
14.02.2017 23:37 -1,8 °C -1,8 °C 85 % 1034,3 hPa 0,0 mm 0,7 km/h (0 Bft) S-SW 198 ° 0 min 0,000 mm 0,0 UV-I 0 W/m² -4,0 °C -1,8 °C 3,2 km/h (1 Bft)
14.02.2017 23:38 -1,8 °C -1,8 °C 86 % 1034,4 hPa 0,0 mm 0,6 km/h (0 Bft) S-SW 198 ° 0 min 0,000 mm 0,0 UV-I 0 W/m² -3,8 °C -1,8 °C 1,6 km/h (1 Bft)
14.02.2017 23:39 -1,8 °C -1,8 °C 86 % 1034,4 hPa 0,0 mm 1,7 km/h (1 Bft) S-SW 198 ° 0 min 0,000 mm 0,0 UV-I 0 W/m² -3,8 °C -1,8 °C 3,2 km/h (1 Bft)
14.02.2017 23:40 -1,8 °C -1,8 °C 86 % 1034,3 hPa 0,0 mm 2,2 km/h (1 Bft) S-SW 198 ° 0 min 0,000 mm 0,0 UV-I 0 W/m² -3,8 °C -1,8 °C 3,2 km/h (1 Bft)
14.02.2017 23:41 -1,9 °C -1,8 °C 86 % 1034,3 hPa 0,0 mm 1,7 km/h (1 Bft) S-SW 198 ° 0 min 0,000 mm 0,0 UV-I 0 W/m² -3,9 °C -1,9 °C 3,2 km/h (1 Bft)
14.02.2017 23:42 -1,9 °C -1,9 °C 87 % 1034,3 hPa 0,0 mm 1,0 km/h (0 Bft) S-SW 198 ° 0 min 0,000 mm 0,0 UV-I 0 W/m² -3,8 °C -1,9 °C 1,6 km/h (1 Bft)
14.02.2017 23:43 -1,9 °C -1,9 °C 86 % 1034,3 hPa 0,0 mm 0,0 km/h (0 Bft) S-SW 198 ° 0 min 0,000 mm 0,0 UV-I 0 W/m² -3,9 °C -1,9 °C 0,0 km/h (0 Bft)
14.02.2017 23:44 -1,9 °C -1,9 °C 86 % 1034,3 hPa 0,0 mm 0,1 km/h (0 Bft) S-SW 198 ° 0 min 0,000 mm 0,0 UV-I 0 W/m² -3,9 °C -1,9 °C 1,6 km/h (1 Bft)
14.02.2017 23:45 -2,0 °C -1,9 °C 86 % 1034,3 hPa 0,0 mm 0,3 km/h (0 Bft) S-SW 198 ° 0 min 0,000 mm 0,0 UV-I 0 W/m² -4,0 °C -2,0 °C 1,6 km/h (1 Bft)
14.02.2017 23:46 -2,1 °C -2,0 °C 86 % 1034,4 hPa 0,0 mm 0,0 km/h (0 Bft) S-SW 198 ° 0 min 0,000 mm 0,0 UV-I 0 W/m² -4,1 °C -2,1 °C 0,0 km/h (0 Bft)
14.02.2017 23:47 -2,1 °C -2,0 °C 86 % 1034,3 hPa 0,0 mm 0,1 km/h (0 Bft) S-SW 198 ° 0 min 0,000 mm 0,0 UV-I 0 W/m² -4,1 °C -2,1 °C 1,6 km/h (1 Bft)
14.02.2017 23:48 -2,1 °C -2,1 °C 86 % 1034,3 hPa 0,0 mm 0,0 km/h (0 Bft) S-SW 198 ° 0 min 0,000 mm 0,0 UV-I 0 W/m² -4,1 °C -2,1 °C 0,0 km/h (0 Bft)
14.02.2017 23:49 -2,1 °C -2,1 °C 86 % 1034,4 hPa 0,0 mm 0,3 km/h (0 Bft) S-SW 198 ° 0 min 0,000 mm 0,0 UV-I 0 W/m² -4,1 °C -2,1 °C 3,2 km/h (1 Bft)
14.02.2017 23:50 -2,1 °C -2,1 °C 87 % 1034,3 hPa 0,0 mm 2,6 km/h (1 Bft) S-SW 198 ° 0 min 0,000 mm 0,0 UV-I 0 W/m² -4,0 °C -2,1 °C 3,2 km/h (1 Bft)
14.02.2017 23:51 -2,1 °C -2,1 °C 87 % 1034,3 hPa 0,0 mm 2,5 km/h (1 Bft) S-SW 198 ° 0 min 0,000 mm 0,0 UV-I 0 W/m² -4,0 °C -2,1 °C 3,2 km/h (1 Bft)
14.02.2017 23:52 -2,1 °C -2,1 °C 88 % 1034,3 hPa 0,0 mm 1,9 km/h (1 Bft) S-SW 198 ° 0 min 0,000 mm 0,0 UV-I 0 W/m² -3,8 °C -2,1 °C 3,2 km/h (1 Bft)
14.02.2017 23:53 -2,1 °C -2,1 °C 88 % 1034,3 hPa 0,0 mm 1,1 km/h (1 Bft) S-SW 198 ° 0 min 0,000 mm 0,0 UV-I 0 W/m² -3,8 °C -2,1 °C 1,6 km/h (1 Bft)
14.02.2017 23:54 -2,1 °C -2,1 °C 88 % 1034,3 hPa 0,0 mm 2,1 km/h (1 Bft) S-SW 198 ° 0 min 0,000 mm 0,0 UV-I 0 W/m² -3,8 °C -2,1 °C 3,2 km/h (1 Bft)
14.02.2017 23:55 -2,0 °C -2,0 °C 88 % 1034,4 hPa 0,0 mm 1,6 km/h (1 Bft) S-SW 198 ° 0 min 0,000 mm 0,0 UV-I 0 W/m² -3,7 °C -2,0 °C 3,2 km/h (1 Bft)
14.02.2017 23:56 -2,0 °C -2,0 °C 88 % 1034,5 hPa 0,0 mm 0,4 km/h (0 Bft) S-SW 198 ° 0 min 0,000 mm 0,0 UV-I 0 W/m² -3,7 °C -2,0 °C 1,6 km/h (1 Bft)
14.02.2017 23:57 -1,9 °C -1,9 °C 88 % 1034,4 hPa 0,0 mm 0,1 km/h (0 Bft) S-SW 198 ° 0 min 0,000 mm 0,0 UV-I 0 W/m² -3,6 °C -1,9 °C 1,6 km/h (1 Bft)
14.02.2017 23:58 -2,0 °C -1,9 °C 87 % 1034,5 hPa 0,0 mm 1,5 km/h (1 Bft) S-SW 198 ° 0 min 0,000 mm 0,0 UV-I 0 W/m² -3,9 °C -2,0 °C 1,6 km/h (1 Bft)
14.02.2017 23:59 -1,9 °C -1,9 °C 87 % 1034,5 hPa 0,0 mm 0,3 km/h (0 Bft) S-SW 198 ° 0 min 0,000 mm 0,0 UV-I 0 W/m² -3,8 °C -1,9 °C 1,6 km/h (1 Bft)
_ Min-Zeit 06:54 06:54 15:31 01:01 - 23:48 - - - - - - 06:54 04:27 23:48
Minimum _ -7,6 °C -7,6 °C 50 % 1026,9 hPa - 0,0 km/h (0 Bft) - - - - - - -8,5 °C -8,7 °C 0,0 km/h (0 Bft)
_ Max-Zeit 14:39 14:40 10:53 23:59 23:59 15:06 - - 15:43 15:00 13:12 13:12 12:18 14:39 15:06
Maximum _ 8,1 °C 8,1 °C 97 % 1034,5 hPa 0,0 mm 8,0 km/h
O (2 Bft)
- - 1 min 0,177 mm 2,3 UV-I 489 W/m² 3,1 °C 8,1 °C 11,3 km/h
O (2 Bft)
Durchschnitt _ -1,0 °C -1,0 °C 85 % 1031,1 hPa #0,0 mm 0,9 km/h (0 Bft) O - #2:32 h #0,533 mm 1,6 UV-I 50 W/m² -3,4 °C -1,0 °C 1,7 km/h (1 Bft)